<?xml version='1.0' encoding='UTF-8'?><gpx version="1.1" creator="JPX - https://github.com/jenetics/jpx" xmlns="http://www.topografix.com/GPX/1/1"><trk><trkseg><trkpt lat="42.11437424348466" lon="12.772958516571752"><ele>286.0</ele><time>2026-04-12T07:13:50Z</time></trkpt><trkpt lat="42.114277161353904" lon="12.773027735246588"><ele>286.0</ele><time>2026-04-12T07:13:52Z</time></trkpt><trkpt lat="42.11423002191638" lon="12.773145062818514"><ele>286.0</ele><time>2026-04-12T07:13:54Z</time></trkpt><trkpt lat="42.114297143969345" lon="12.773219555075583"><ele>286.0</ele><time>2026-04-12T07:13:56Z</time></trkpt><trkpt lat="42.1143682221549" lon="12.773253124916746"><ele>286.0</ele><time>2026-04-12T07:13:57Z</time></trkpt><trkpt lat="42.11443190027947" lon="12.773301101923662"><ele>286.0</ele><time>2026-04-12T07:13:58Z</time></trkpt><trkpt lat="42.11449088881039" lon="12.773362672762458"><ele>286.0</ele><time>2026-04-12T07:13:59Z</time></trkpt><trkpt lat="42.114572779399225" lon="12.773404529852275"><ele>286.0</ele><time>2026-04-12T07:14:00Z</time></trkpt><trkpt lat="42.11462878968343" lon="12.773466313894076"><ele>286.0</ele><time>2026-04-12T07:14:01Z</time></trkpt><trkpt lat="42.11470308652444" lon="12.773536901204759"><ele>286.0</ele><time>2026-04-12T07:14:02Z</time></trkpt><trkpt lat="42.11478322285893" lon="12.773615607206423"><ele>286.0</ele><time>2026-04-12T07:14:03Z</time></trkpt><trkpt lat="42.11484620071685" lon="12.773708153330974"><ele>286.0</ele><time>2026-04-12T07:14:04Z</time></trkpt><trkpt lat="42.11489620288971" lon="12.773787648862907"><ele>284.16666666666663</ele><time>2026-04-12T07:14:05Z</time></trkpt><trkpt lat="42.114944507697935" lon="12.773863269810768"><ele>282.3333333333333</ele><time>2026-04-12T07:14:06Z</time></trkpt><trkpt lat="42.11499176345598" lon="12.773951485980563"><ele>280.5</ele><time>2026-04-12T07:14:07Z</time></trkpt><trkpt lat="42.11502387427894" lon="12.77404776514733"><ele>278.6666666666667</ele><time>2026-04-12T07:14:08Z</time></trkpt><trkpt lat="42.115067918771395" lon="12.77415005150932"><ele>276.83333333333337</ele><time>2026-04-12T07:14:09Z</time></trkpt><trkpt lat="42.11511390844899" lon="12.774246044859522"><ele>275.0</ele><time>2026-04-12T07:14:10Z</time></trkpt><trkpt lat="42.11516010853897" lon="12.77433615899617"><ele>275.33333333333337</ele><time>2026-04-12T07:14:11Z</time></trkpt><trkpt lat="42.11520380798778" lon="12.774435190944777"><ele>275.6666666666667</ele><time>2026-04-12T07:14:12Z</time></trkpt><trkpt lat="42.115249117993855" lon="12.774532395399635"><ele>276.0</ele><time>2026-04-12T07:14:13Z</time></trkpt><trkpt lat="42.11529229036369" lon="12.774621126087894"><ele>276.3333333333333</ele><time>2026-04-12T07:14:14Z</time></trkpt><trkpt lat="42.11534022668814" lon="12.774703854923994"><ele>276.66666666666663</ele><time>2026-04-12T07:14:15Z</time></trkpt><trkpt lat="42.115390849089316" lon="12.774796359098964"><ele>277.0</ele><time>2026-04-12T07:14:16Z</time></trkpt><trkpt lat="42.115434478543875" lon="12.77490142847868"><ele>277.0</ele><time>2026-04-12T07:14:17Z</time></trkpt><trkpt lat="42.11546499004789" lon="12.775012443371494"><ele>277.0</ele><time>2026-04-12T07:14:18Z</time></trkpt><trkpt lat="42.11548786358834" lon="12.775116694382833"><ele>277.0</ele><time>2026-04-12T07:14:19Z</time></trkpt><trkpt lat="42.11551794574769" lon="12.775213684837805"><ele>277.0</ele><time>2026-04-12T07:14:20Z</time></trkpt><trkpt lat="42.115543273325386" lon="12.775297223753203"><ele>277.0</ele><time>2026-04-12T07:14:21Z</time></trkpt><trkpt lat="42.11557066328988" lon="12.775378440976842"><ele>277.0</ele><time>2026-04-12T07:14:22Z</time></trkpt><trkpt lat="42.115654356013216" lon="12.775444271609592"><ele>275.8</ele><time>2026-04-12T07:14:24Z</time></trkpt><trkpt lat="42.11575192342903" lon="12.775385338916658"><ele>274.6</ele><time>2026-04-12T07:14:26Z</time></trkpt><trkpt lat="42.1158509253031" lon="12.775298711613077"><ele>273.40000000000003</ele><time>2026-04-12T07:14:28Z</time></trkpt><trkpt lat="42.11597216819137" lon="12.77529085988531"><ele>272.2</ele><time>2026-04-12T07:14:30Z</time></trkpt><trkpt lat="42.116019349495474" lon="12.7753568520393"><ele>271.0</ele><time>2026-04-12T07:14:31Z</time></trkpt><trkpt lat="42.11605204625679" lon="12.775466852122829"><ele>271.0</ele><time>2026-04-12T07:14:32Z</time></trkpt><trkpt lat="42.116093880793514" lon="12.775600191711339"><ele>271.0</ele><time>2026-04-12T07:14:33Z</time></trkpt><trkpt lat="42.11613982055014" lon="12.775738926372714"><ele>271.0</ele><time>2026-04-12T07:14:34Z</time></trkpt><trkpt lat="42.116203767565715" lon="12.775866934601881"><ele>271.0</ele><time>2026-04-12T07:14:35Z</time></trkpt><trkpt lat="42.116276207879125" lon="12.775992980468029"><ele>271.2</ele><time>2026-04-12T07:14:36Z</time></trkpt><trkpt lat="42.1163266980351" lon="12.776125561581145"><ele>271.40000000000003</ele><time>2026-04-12T07:14:37Z</time></trkpt><trkpt lat="42.116387073404155" lon="12.776222691337528"><ele>271.6</ele><time>2026-04-12T07:14:38Z</time></trkpt><trkpt lat="42.116467117800376" lon="12.77628486577517"><ele>271.8</ele><time>2026-04-12T07:14:39Z</time></trkpt><trkpt lat="42.116551275612075" lon="12.776332773716911"><ele>272.0</ele><time>2026-04-12T07:14:40Z</time></trkpt><trkpt lat="42.116624036222326" lon="12.77635034884451"><ele>270.83333333333337</ele><time>2026-04-12T07:14:41Z</time></trkpt><trkpt lat="42.116686311234126" lon="12.776336010255497"><ele>269.6666666666667</ele><time>2026-04-12T07:14:42Z</time></trkpt><trkpt lat="42.11676910668105" lon="12.776373154210974"><ele>268.5</ele><time>2026-04-12T07:14:44Z</time></trkpt><trkpt lat="42.116778593171624" lon="12.77652401652483"><ele>267.3333333333333</ele><time>2026-04-12T07:14:46Z</time></trkpt><trkpt lat="42.11672728544464" lon="12.77659573794846"><ele>266.16666666666663</ele><time>2026-04-12T07:14:47Z</time></trkpt><trkpt lat="42.11668676143535" lon="12.776725697937128"><ele>265.0</ele><time>2026-04-12T07:14:49Z</time></trkpt><trkpt lat="42.11672419158265" lon="12.776821081116829"><ele>265.57142857142856</ele><time>2026-04-12T07:14:51Z</time></trkpt><trkpt lat="42.11679827795419" lon="12.776854797476837"><ele>266.1428571428571</ele><time>2026-04-12T07:14:52Z</time></trkpt><trkpt lat="42.11685523476902" lon="12.776898493345964"><ele>266.7142857142857</ele><time>2026-04-12T07:14:53Z</time></trkpt><trkpt lat="42.11690211569405" lon="12.776956316530535"><ele>267.2857142857143</ele><time>2026-04-12T07:14:54Z</time></trkpt><trkpt lat="42.11692554365609" lon="12.777035636925264"><ele>267.8571428571429</ele><time>2026-04-12T07:14:55Z</time></trkpt><trkpt lat="42.11697361505573" lon="12.777117233370971"><ele>268.42857142857144</ele><time>2026-04-12T07:14:56Z</time></trkpt><trkpt lat="42.11700138726916" lon="12.777215647095414"><ele>269.0</ele><time>2026-04-12T07:14:57Z</time></trkpt><trkpt lat="42.1170292074152" lon="12.777331979978285"><ele>269.0</ele><time>2026-04-12T07:14:58Z</time></trkpt><trkpt lat="42.11705438128868" lon="12.777439618674162"><ele>269.0</ele><time>2026-04-12T07:14:59Z</time></trkpt><trkpt lat="42.11710766561117" lon="12.777507227074173"><ele>269.0</ele><time>2026-04-12T07:14:59.999Z</time></trkpt><trkpt lat="42.117150213734895" lon="12.777584314224992"><ele>269.0</ele><time>2026-04-12T07:15:00.999Z</time></trkpt><trkpt lat="42.117189934625394" lon="12.777656279093835"><ele>269.0</ele><time>2026-04-12T07:15:01.999Z</time></trkpt><trkpt lat="42.11715405545775" lon="12.777820585043665"><ele>269.0</ele><time>2026-04-12T07:15:02.999Z</time></trkpt><trkpt lat="42.11716480215612" lon="12.77796995110265"><ele>271.25</ele><time>2026-04-12T07:15:03.999Z</time></trkpt><trkpt lat="42.11717809784368" lon="12.77812012633719"><ele>273.5</ele><time>2026-04-12T07:15:04.999Z</time></trkpt><trkpt lat="42.11716726752731" lon="12.778271064911902"><ele>275.75</ele><time>2026-04-12T07:15:05.999Z</time></trkpt><trkpt lat="42.117133102889376" lon="12.778421072760912"><ele>278.0</ele><time>2026-04-12T07:15:06.999Z</time></trkpt><trkpt lat="42.117105407242505" lon="12.778579389823722"><ele>279.1666666666667</ele><time>2026-04-12T07:15:07.999Z</time></trkpt><trkpt lat="42.11708496403249" lon="12.778720132381448"><ele>280.33333333333337</ele><time>2026-04-12T07:15:08.999Z</time></trkpt><trkpt lat="42.11706427592675" lon="12.778832570055387"><ele>281.5</ele><time>2026-04-12T07:15:09.999Z</time></trkpt><trkpt lat="42.11706944349291" lon="12.778929431545654"><ele>282.6666666666667</ele><time>2026-04-12T07:15:10.999Z</time></trkpt><trkpt lat="42.11707458745075" lon="12.779035790123721"><ele>283.8333333333333</ele><time>2026-04-12T07:15:11.999Z</time></trkpt><trkpt lat="42.11707076071727" lon="12.779128734693865"><ele>285.0</ele><time>2026-04-12T07:15:12.999Z</time></trkpt><trkpt lat="42.1170688919795" lon="12.77922945565487"><ele>285.0</ele><time>2026-04-12T07:15:13.999Z</time></trkpt><trkpt lat="42.117046897174326" lon="12.779343895317629"><ele>285.0</ele><time>2026-04-12T07:15:14.999Z</time></trkpt><trkpt lat="42.117037351358356" lon="12.779468343119804"><ele>285.0</ele><time>2026-04-12T07:15:15.999Z</time></trkpt><trkpt lat="42.1170353559391" lon="12.779575589387782"><ele>285.0</ele><time>2026-04-12T07:15:16.999Z</time></trkpt><trkpt lat="42.11704644569072" lon="12.779679768260685"><ele>285.0</ele><time>2026-04-12T07:15:17.999Z</time></trkpt><trkpt lat="42.117066073986585" lon="12.77980144572287"><ele>285.0</ele><time>2026-04-12T07:15:18.999Z</time></trkpt><trkpt lat="42.11706871743801" lon="12.77992776120891"><ele>284.5</ele><time>2026-04-12T07:15:19.999Z</time></trkpt><trkpt lat="42.11704202471804" lon="12.780037717754116"><ele>284.0</ele><time>2026-04-12T07:15:20.999Z</time></trkpt><trkpt lat="42.1170193734594" lon="12.780165314574724"><ele>283.5</ele><time>2026-04-12T07:15:21.999Z</time></trkpt><trkpt lat="42.117007408929574" lon="12.780286493056387"><ele>283.0</ele><time>2026-04-12T07:15:22.999Z</time></trkpt><trkpt lat="42.116991809173264" lon="12.780402616924107"><ele>282.5</ele><time>2026-04-12T07:15:23.999Z</time></trkpt><trkpt lat="42.11699182994554" lon="12.780511070168803"><ele>282.0</ele><time>2026-04-12T07:15:24.999Z</time></trkpt><trkpt lat="42.11700430324162" lon="12.780625321902313"><ele>281.8333333333333</ele><time>2026-04-12T07:15:25.999Z</time></trkpt><trkpt lat="42.117019729227444" lon="12.780740798297078"><ele>281.6666666666667</ele><time>2026-04-12T07:15:26.999Z</time></trkpt><trkpt lat="42.117025718459615" lon="12.780839893118728"><ele>281.5</ele><time>2026-04-12T07:15:27.999Z</time></trkpt><trkpt lat="42.11702872613916" lon="12.780929757954244"><ele>281.33333333333337</ele><time>2026-04-12T07:15:28.999Z</time></trkpt><trkpt lat="42.11700595464887" lon="12.781026792491083"><ele>281.1666666666667</ele><time>2026-04-12T07:15:29.999Z</time></trkpt><trkpt lat="42.116979399776326" lon="12.781113042336788"><ele>281.0</ele><time>2026-04-12T07:15:30.999Z</time></trkpt><trkpt lat="42.11690718991684" lon="12.781204047317576"><ele>280.33333333333337</ele><time>2026-04-12T07:15:33Z</time></trkpt><trkpt lat="42.11684141891354" lon="12.781252436114253"><ele>279.6666666666667</ele><time>2026-04-12T07:15:34Z</time></trkpt><trkpt lat="42.11678617181548" lon="12.781310595540287"><ele>279.0</ele><time>2026-04-12T07:15:35Z</time></trkpt><trkpt lat="42.116794706794785" lon="12.78143339906725"><ele>278.3333333333333</ele><time>2026-04-12T07:15:37Z</time></trkpt><trkpt lat="42.116826809989455" lon="12.781509121229242"><ele>277.66666666666663</ele><time>2026-04-12T07:15:38Z</time></trkpt><trkpt lat="42.11684952256561" lon="12.781600754483659"><ele>277.0</ele><time>2026-04-12T07:15:39Z</time></trkpt><trkpt lat="42.11684594887551" lon="12.781706796242881"><ele>277.0</ele><time>2026-04-12T07:15:40Z</time></trkpt><trkpt lat="42.11682389570344" lon="12.781829183362024"><ele>277.0</ele><time>2026-04-12T07:15:41Z</time></trkpt><trkpt lat="42.11680193737523" lon="12.781935205020433"><ele>277.0</ele><time>2026-04-12T07:15:42Z</time></trkpt><trkpt lat="42.11677513152012" lon="12.782048011373437"><ele>277.0</ele><time>2026-04-12T07:15:43Z</time></trkpt><trkpt lat="42.11674213822489" lon="12.78217018235853"><ele>277.0</ele><time>2026-04-12T07:15:44Z</time></trkpt><trkpt lat="42.116702399619534" lon="12.782276171301383"><ele>277.0</ele><time>2026-04-12T07:15:45Z</time></trkpt><trkpt lat="42.11665798832049" lon="12.782341589918897"><ele>277.8333333333333</ele><time>2026-04-12T07:15:46Z</time></trkpt><trkpt lat="42.11658564660636" lon="12.782415304528275"><ele>278.66666666666663</ele><time>2026-04-12T07:15:48Z</time></trkpt><trkpt lat="42.116518105331494" lon="12.782340915691046"><ele>279.5</ele><time>2026-04-12T07:15:50Z</time></trkpt><trkpt lat="42.11644546896057" lon="12.782252916701424"><ele>280.3333333333333</ele><time>2026-04-12T07:15:52Z</time></trkpt><trkpt lat="42.11637747966273" lon="12.782217828257046"><ele>281.1666666666667</ele><time>2026-04-12T07:15:54Z</time></trkpt><trkpt lat="42.11629583502181" lon="12.782289960834635"><ele>282.0</ele><time>2026-04-12T07:15:56Z</time></trkpt><trkpt lat="42.116186443963365" lon="12.782393641719324"><ele>283.4</ele><time>2026-04-12T07:15:58Z</time></trkpt><trkpt lat="42.116114104684385" lon="12.782443920636412"><ele>284.79999999999995</ele><time>2026-04-12T07:15:59Z</time></trkpt><trkpt lat="42.116042108222395" lon="12.782516299089663"><ele>286.2</ele><time>2026-04-12T07:16:00Z</time></trkpt><trkpt lat="42.11597144946584" lon="12.782483306921911"><ele>287.59999999999997</ele><time>2026-04-12T07:16:02Z</time></trkpt><trkpt lat="42.11598371328563" lon="12.782338162617691"><ele>289.0</ele><time>2026-04-12T07:16:04Z</time></trkpt><trkpt lat="42.116036905017225" lon="12.782189528837346"><ele>289.0</ele><time>2026-04-12T07:16:06Z</time></trkpt><trkpt lat="42.1160717501454" lon="12.782084278443877"><ele>289.0</ele><time>2026-04-12T07:16:07Z</time></trkpt><trkpt lat="42.11615983765464" lon="12.781947484322174"><ele>289.0</ele><time>2026-04-12T07:16:09Z</time></trkpt><trkpt lat="42.11615339973544" lon="12.781824413549414"><ele>289.0</ele><time>2026-04-12T07:16:11Z</time></trkpt><trkpt lat="42.11607002956306" lon="12.78181705323456"><ele>289.0</ele><time>2026-04-12T07:16:14Z</time></trkpt><trkpt lat="42.11603634928335" lon="12.781890000196793"><ele>289.0</ele><time>2026-04-12T07:16:15Z</time></trkpt><trkpt lat="42.11598367803129" lon="12.78200265156611"><ele>289.0</ele><time>2026-04-12T07:16:16Z</time></trkpt><trkpt lat="42.115910575576045" lon="12.78213219467752"><ele>289.0</ele><time>2026-04-12T07:16:17Z</time></trkpt><trkpt lat="42.11582698249654" lon="12.782284206377863"><ele>289.0</ele><time>2026-04-12T07:16:18Z</time></trkpt><trkpt lat="42.11573127017355" lon="12.782461247687744"><ele>291.25</ele><time>2026-04-12T07:16:19Z</time></trkpt><trkpt lat="42.115642349105094" lon="12.782627260986095"><ele>293.5</ele><time>2026-04-12T07:16:20Z</time></trkpt><trkpt lat="42.11556982109508" lon="12.782772242407505"><ele>295.75</ele><time>2026-04-12T07:16:21Z</time></trkpt><trkpt lat="42.11550166271888" lon="12.782895698951746"><ele>298.0</ele><time>2026-04-12T07:16:22Z</time></trkpt><trkpt lat="42.115438353442045" lon="12.783002906673714"><ele>298.0</ele><time>2026-04-12T07:16:23Z</time></trkpt><trkpt lat="42.11536189485444" lon="12.78313197606437"><ele>298.0</ele><time>2026-04-12T07:16:24Z</time></trkpt><trkpt lat="42.115273996510986" lon="12.78323728782046"><ele>298.0</ele><time>2026-04-12T07:16:25Z</time></trkpt><trkpt lat="42.11517431855409" lon="12.783339425389421"><ele>298.0</ele><time>2026-04-12T07:16:26Z</time></trkpt><trkpt lat="42.11507192333132" lon="12.783450106466049"><ele>298.0</ele><time>2026-04-12T07:16:27Z</time></trkpt><trkpt lat="42.11494951880003" lon="12.7835021850071"><ele>298.0</ele><time>2026-04-12T07:16:28Z</time></trkpt><trkpt lat="42.114832378061784" lon="12.783555108272532"><ele>298.0</ele><time>2026-04-12T07:16:29Z</time></trkpt><trkpt lat="42.114732376079814" lon="12.783587986020747"><ele>298.0</ele><time>2026-04-12T07:16:30Z</time></trkpt><trkpt lat="42.11464771233589" lon="12.783653255385932"><ele>302.25</ele><time>2026-04-12T07:16:31Z</time></trkpt><trkpt lat="42.11456860821219" lon="12.783755284436472"><ele>306.5</ele><time>2026-04-12T07:16:32Z</time></trkpt><trkpt lat="42.11450244620197" lon="12.783873902580837"><ele>310.75</ele><time>2026-04-12T07:16:33Z</time></trkpt><trkpt lat="42.11446554808457" lon="12.784022540965227"><ele>315.0</ele><time>2026-04-12T07:16:34Z</time></trkpt><trkpt lat="42.114464116941036" lon="12.784182832719937"><ele>315.0</ele><time>2026-04-12T07:16:35Z</time></trkpt><trkpt lat="42.11449750820768" lon="12.784345746538866"><ele>315.0</ele><time>2026-04-12T07:16:36Z</time></trkpt><trkpt lat="42.11454824065709" lon="12.784511367597764"><ele>315.0</ele><time>2026-04-12T07:16:37Z</time></trkpt><trkpt lat="42.11459508567063" lon="12.784680495890164"><ele>315.0</ele><time>2026-04-12T07:16:38Z</time></trkpt><trkpt lat="42.114642184060976" lon="12.784849908575069"><ele>312.6</ele><time>2026-04-12T07:16:39Z</time></trkpt><trkpt lat="42.11470193120534" lon="12.784989522561851"><ele>310.2</ele><time>2026-04-12T07:16:40Z</time></trkpt><trkpt lat="42.11478077766353" lon="12.785087564923186"><ele>307.8</ele><time>2026-04-12T07:16:41Z</time></trkpt><trkpt lat="42.1148725157831" lon="12.785143113119489"><ele>305.4</ele><time>2026-04-12T07:16:42Z</time></trkpt><trkpt lat="42.11496846873295" lon="12.785157252057878"><ele>303.0</ele><time>2026-04-12T07:16:43Z</time></trkpt><trkpt lat="42.11507785958957" lon="12.785140952600155"><ele>301.75</ele><time>2026-04-12T07:16:44Z</time></trkpt><trkpt lat="42.115191106298056" lon="12.785097183372006"><ele>300.5</ele><time>2026-04-12T07:16:45Z</time></trkpt><trkpt lat="42.11531039649471" lon="12.785039399502537"><ele>299.25</ele><time>2026-04-12T07:16:46Z</time></trkpt><trkpt lat="42.11544152014597" lon="12.784992712654873"><ele>298.0</ele><time>2026-04-12T07:16:47Z</time></trkpt><trkpt lat="42.115580881528004" lon="12.78496060086404"><ele>298.0</ele><time>2026-04-12T07:16:48Z</time></trkpt><trkpt lat="42.11571605713788" lon="12.784919313239511"><ele>298.0</ele><time>2026-04-12T07:16:49Z</time></trkpt><trkpt lat="42.11585596219686" lon="12.784879393815547"><ele>298.0</ele><time>2026-04-12T07:16:50Z</time></trkpt><trkpt lat="42.11599692301977" lon="12.784855187424776"><ele>298.0</ele><time>2026-04-12T07:16:51Z</time></trkpt><trkpt lat="42.1161368421598" lon="12.78485642503448"><ele>299.75</ele><time>2026-04-12T07:16:52Z</time></trkpt><trkpt lat="42.11627022327766" lon="12.784881413309549"><ele>301.5</ele><time>2026-04-12T07:16:53Z</time></trkpt><trkpt lat="42.116403188485194" lon="12.784904364533114"><ele>303.25</ele><time>2026-04-12T07:16:54Z</time></trkpt><trkpt lat="42.11653119244947" lon="12.784904041101486"><ele>305.0</ele><time>2026-04-12T07:16:55Z</time></trkpt><trkpt lat="42.1166562648823" lon="12.784895923448518"><ele>306.2</ele><time>2026-04-12T07:16:56Z</time></trkpt><trkpt lat="42.11677403472695" lon="12.784882373173932"><ele>307.4</ele><time>2026-04-12T07:16:57Z</time></trkpt><trkpt lat="42.116886111298335" lon="12.784878813853142"><ele>308.6</ele><time>2026-04-12T07:16:58Z</time></trkpt><trkpt lat="42.116995670913624" lon="12.78488609313391"><ele>309.8</ele><time>2026-04-12T07:16:59Z</time></trkpt><trkpt lat="42.11710379497507" lon="12.784903466910865"><ele>311.0</ele><time>2026-04-12T07:17:00Z</time></trkpt><trkpt lat="42.11720278531379" lon="12.784943113178315"><ele>311.0</ele><time>2026-04-12T07:17:00.999Z</time></trkpt><trkpt lat="42.11729999158526" lon="12.78500892452691"><ele>311.0</ele><time>2026-04-12T07:17:01.999Z</time></trkpt><trkpt lat="42.11739743578026" lon="12.785082807966909"><ele>311.0</ele><time>2026-04-12T07:17:02.999Z</time></trkpt><trkpt lat="42.11749523859382" lon="12.785104894195872"><ele>311.0</ele><time>2026-04-12T07:17:03.999Z</time></trkpt><trkpt lat="42.11758172080157" lon="12.785074759132714"><ele>311.0</ele><time>2026-04-12T07:17:04.999Z</time></trkpt><trkpt lat="42.117649027760685" lon="12.785007421989354"><ele>312.2</ele><time>2026-04-12T07:17:05.999Z</time></trkpt><trkpt lat="42.117698734724904" lon="12.784911917585562"><ele>313.40000000000003</ele><time>2026-04-12T07:17:06.999Z</time></trkpt><trkpt lat="42.11773350716622" lon="12.784794959041964"><ele>314.6</ele><time>2026-04-12T07:17:07.999Z</time></trkpt><trkpt lat="42.117750410792944" lon="12.784656786504039"><ele>315.8</ele><time>2026-04-12T07:17:08.999Z</time></trkpt><trkpt lat="42.11775902375304" lon="12.78450685994551"><ele>317.0</ele><time>2026-04-12T07:17:09.999Z</time></trkpt><trkpt lat="42.117778176053314" lon="12.784349630177076"><ele>316.4</ele><time>2026-04-12T07:17:10.999Z</time></trkpt><trkpt lat="42.1177996535554" lon="12.784195251921938"><ele>315.79999999999995</ele><time>2026-04-12T07:17:11.999Z</time></trkpt><trkpt lat="42.117817518741866" lon="12.784042362936088"><ele>315.2</ele><time>2026-04-12T07:17:12.999Z</time></trkpt><trkpt lat="42.11783951145099" lon="12.783913333179449"><ele>314.59999999999997</ele><time>2026-04-12T07:17:13.999Z</time></trkpt><trkpt lat="42.11788541782994" lon="12.783824729513592"><ele>314.0</ele><time>2026-04-12T07:17:14.999Z</time></trkpt><trkpt lat="42.117952534644694" lon="12.783799295075934"><ele>314.0</ele><time>2026-04-12T07:17:15.999Z</time></trkpt><trkpt lat="42.11801780688693" lon="12.783834637490271"><ele>314.0</ele><time>2026-04-12T07:17:16.999Z</time></trkpt><trkpt lat="42.118060644016026" lon="12.783908096777676"><ele>314.0</ele><time>2026-04-12T07:17:17.999Z</time></trkpt><trkpt lat="42.11807859664517" lon="12.784010598390617"><ele>314.0</ele><time>2026-04-12T07:17:18.999Z</time></trkpt><trkpt lat="42.118107219998514" lon="12.78414244772973"><ele>314.0</ele><time>2026-04-12T07:17:19.999Z</time></trkpt><trkpt lat="42.1181494713445" lon="12.784287426083154"><ele>314.0</ele><time>2026-04-12T07:17:20.999Z</time></trkpt><trkpt lat="42.11819763488089" lon="12.78442483024974"><ele>317.5</ele><time>2026-04-12T07:17:21.999Z</time></trkpt><trkpt lat="42.11825108716169" lon="12.784601407415805"><ele>321.0</ele><time>2026-04-12T07:17:22.999Z</time></trkpt><trkpt lat="42.11831096462385" lon="12.784787321451267"><ele>324.5</ele><time>2026-04-12T07:17:23.999Z</time></trkpt><trkpt lat="42.11838024829126" lon="12.784971585367803"><ele>328.0</ele><time>2026-04-12T07:17:24.999Z</time></trkpt><trkpt lat="42.11843624025508" lon="12.785136023509226"><ele>328.4</ele><time>2026-04-12T07:17:25.999Z</time></trkpt><trkpt lat="42.11847827660966" lon="12.785279942040722"><ele>328.79999999999995</ele><time>2026-04-12T07:17:26.999Z</time></trkpt><trkpt lat="42.1185087942781" lon="12.785407040279035"><ele>329.2</ele><time>2026-04-12T07:17:27.999Z</time></trkpt><trkpt lat="42.11852168420606" lon="12.78554068901331"><ele>329.6</ele><time>2026-04-12T07:17:28.999Z</time></trkpt><trkpt lat="42.11855926715304" lon="12.785641829665884"><ele>330.0</ele><time>2026-04-12T07:17:29.999Z</time></trkpt><trkpt lat="42.11857665528396" lon="12.78574149631796"><ele>330.0</ele><time>2026-04-12T07:17:30.999Z</time></trkpt><trkpt lat="42.11859435137574" lon="12.785846687560769"><ele>330.0</ele><time>2026-04-12T07:17:31.999Z</time></trkpt><trkpt lat="42.11860927126279" lon="12.785941498469539"><ele>330.0</ele><time>2026-04-12T07:17:32.999Z</time></trkpt><trkpt lat="42.11864643118054" lon="12.786054781824594"><ele>330.0</ele><time>2026-04-12T07:17:34.999Z</time></trkpt><trkpt lat="42.11876900817044" lon="12.786027264063266"><ele>330.0</ele><time>2026-04-12T07:17:38Z</time></trkpt><trkpt lat="42.11883009411824" lon="12.785963654176792"><ele>330.0</ele><time>2026-04-12T07:17:39Z</time></trkpt><trkpt lat="42.11890087029641" lon="12.785905632013847"><ele>330.0</ele><time>2026-04-12T07:17:40Z</time></trkpt><trkpt lat="42.118989849919416" lon="12.785857702181076"><ele>330.0</ele><time>2026-04-12T07:17:41Z</time></trkpt><trkpt lat="42.119080211404444" lon="12.78581065217638"><ele>330.0</ele><time>2026-04-12T07:17:42Z</time></trkpt><trkpt lat="42.11916885460021" lon="12.785777180956824"><ele>330.0</ele><time>2026-04-12T07:17:43Z</time></trkpt><trkpt lat="42.119243962776125" lon="12.785788463963947"><ele>330.0</ele><time>2026-04-12T07:17:44Z</time></trkpt><trkpt lat="42.11931931649525" lon="12.785837730600626"><ele>330.0</ele><time>2026-04-12T07:17:45Z</time></trkpt><trkpt lat="42.11940129701518" lon="12.785870256340194"><ele>333.6</ele><time>2026-04-12T07:17:46Z</time></trkpt><trkpt lat="42.11947586905873" lon="12.785784796011539"><ele>337.2</ele><time>2026-04-12T07:17:48Z</time></trkpt><trkpt lat="42.11952468813115" lon="12.785594102860253"><ele>340.79999999999995</ele><time>2026-04-12T07:17:50Z</time></trkpt><trkpt lat="42.119562553324414" lon="12.785483255509218"><ele>344.4</ele><time>2026-04-12T07:17:51Z</time></trkpt><trkpt lat="42.11959160606666" lon="12.785359561986565"><ele>348.0</ele><time>2026-04-12T07:17:52Z</time></trkpt><trkpt lat="42.11961961553254" lon="12.785262353361096"><ele>348.0</ele><time>2026-04-12T07:17:53Z</time></trkpt><trkpt lat="42.119710098351405" lon="12.78527065210182"><ele>348.0</ele><time>2026-04-12T07:17:56Z</time></trkpt><trkpt lat="42.119745266897986" lon="12.785436058078426"><ele>348.0</ele><time>2026-04-12T07:17:58Z</time></trkpt><trkpt lat="42.119768957540316" lon="12.785527787356605"><ele>348.0</ele><time>2026-04-12T07:17:59Z</time></trkpt><trkpt lat="42.11980763828034" lon="12.785632495821048"><ele>348.0</ele><time>2026-04-12T07:18:00Z</time></trkpt><trkpt lat="42.119851559907744" lon="12.785738792587887"><ele>348.0</ele><time>2026-04-12T07:18:01Z</time></trkpt><trkpt lat="42.11989341056623" lon="12.785854875240224"><ele>348.0</ele><time>2026-04-12T07:18:02Z</time></trkpt><trkpt lat="42.11993968899319" lon="12.785968397610747"><ele>348.0</ele><time>2026-04-12T07:18:03Z</time></trkpt><trkpt lat="42.119993003833216" lon="12.786092925193364"><ele>348.0</ele><time>2026-04-12T07:18:04Z</time></trkpt><trkpt lat="42.12003178678507" lon="12.786220069953966"><ele>348.0</ele><time>2026-04-12T07:18:05Z</time></trkpt><trkpt lat="42.12005947086355" lon="12.786344882720135"><ele>351.3333333333333</ele><time>2026-04-12T07:18:06Z</time></trkpt><trkpt lat="42.120091412207636" lon="12.786458240486793"><ele>354.6666666666667</ele><time>2026-04-12T07:18:07Z</time></trkpt><trkpt lat="42.12012779997292" lon="12.786568543657369"><ele>358.0</ele><time>2026-04-12T07:18:08Z</time></trkpt><trkpt lat="42.120159820009135" lon="12.786678933874951"><ele>361.33333333333337</ele><time>2026-04-12T07:18:09Z</time></trkpt><trkpt lat="42.120190267808574" lon="12.786791023209238"><ele>364.6666666666667</ele><time>2026-04-12T07:18:10Z</time></trkpt><trkpt lat="42.120228179519884" lon="12.786899922468834"><ele>368.0</ele><time>2026-04-12T07:18:11Z</time></trkpt><trkpt lat="42.12027125688821" lon="12.787002681340223"><ele>368.6666666666667</ele><time>2026-04-12T07:18:12Z</time></trkpt><trkpt lat="42.12030808175763" lon="12.787098686244736"><ele>369.33333333333337</ele><time>2026-04-12T07:18:13Z</time></trkpt><trkpt lat="42.12032220873651" lon="12.787224290054187"><ele>370.0</ele><time>2026-04-12T07:18:14Z</time></trkpt><trkpt lat="42.120341162297905" lon="12.78733345215339"><ele>370.6666666666667</ele><time>2026-04-12T07:18:15Z</time></trkpt><trkpt lat="42.12035219438953" lon="12.787450547414005"><ele>371.3333333333333</ele><time>2026-04-12T07:18:16Z</time></trkpt><trkpt lat="42.12036369314731" lon="12.787572259156203"><ele>372.0</ele><time>2026-04-12T07:18:17Z</time></trkpt><trkpt lat="42.120376457618846" lon="12.787702529473725"><ele>372.40000000000003</ele><time>2026-04-12T07:18:18Z</time></trkpt><trkpt lat="42.12039281674452" lon="12.787834869432173"><ele>372.8</ele><time>2026-04-12T07:18:19Z</time></trkpt><trkpt lat="42.1204089767939" lon="12.78796559893331"><ele>373.2</ele><time>2026-04-12T07:18:20Z</time></trkpt><trkpt lat="42.12042627816874" lon="12.788096646378653"><ele>373.6</ele><time>2026-04-12T07:18:21Z</time></trkpt><trkpt lat="42.12044681645325" lon="12.788227675611706"><ele>374.0</ele><time>2026-04-12T07:18:22Z</time></trkpt><trkpt lat="42.12047482766221" lon="12.7883493969114"><ele>374.0</ele><time>2026-04-12T07:18:23Z</time></trkpt><trkpt lat="42.12050127244175" lon="12.788476762276192"><ele>374.0</ele><time>2026-04-12T07:18:24Z</time></trkpt><trkpt lat="42.12053955965022" lon="12.788612611046434"><ele>374.0</ele><time>2026-04-12T07:18:25Z</time></trkpt><trkpt lat="42.12056794763537" lon="12.788752078669955"><ele>374.0</ele><time>2026-04-12T07:18:26Z</time></trkpt><trkpt lat="42.12059956929321" lon="12.788876876107281"><ele>374.0</ele><time>2026-04-12T07:18:27Z</time></trkpt><trkpt lat="42.12062942171953" lon="12.788987122224382"><ele>374.5</ele><time>2026-04-12T07:18:28Z</time></trkpt><trkpt lat="42.120663312291455" lon="12.789087196582596"><ele>375.0</ele><time>2026-04-12T07:18:29Z</time></trkpt><trkpt lat="42.12069392477282" lon="12.789192988595659"><ele>375.5</ele><time>2026-04-12T07:18:30Z</time></trkpt><trkpt lat="42.12072472156944" lon="12.789300094107704"><ele>376.0</ele><time>2026-04-12T07:18:31Z</time></trkpt><trkpt lat="42.12075574881787" lon="12.789407766798282"><ele>376.5</ele><time>2026-04-12T07:18:32Z</time></trkpt><trkpt lat="42.12078234667563" lon="12.78950792173316"><ele>377.0</ele><time>2026-04-12T07:18:33Z</time></trkpt><trkpt lat="42.120807272846726" lon="12.78961188562805"><ele>379.5</ele><time>2026-04-12T07:18:34Z</time></trkpt><trkpt lat="42.12081940112475" lon="12.78971452683576"><ele>382.0</ele><time>2026-04-12T07:18:35Z</time></trkpt><trkpt lat="42.12082517352378" lon="12.789832047538022"><ele>384.5</ele><time>2026-04-12T07:18:36Z</time></trkpt><trkpt lat="42.12083252886484" lon="12.78995732620274"><ele>387.0</ele><time>2026-04-12T07:18:37Z</time></trkpt><trkpt lat="42.12083939298622" lon="12.79007517570262"><ele>389.49999999999994</ele><time>2026-04-12T07:18:38Z</time></trkpt><trkpt lat="42.12084201988744" lon="12.790182991143125"><ele>392.0</ele><time>2026-04-12T07:18:39Z</time></trkpt><trkpt lat="42.12085620941499" lon="12.790294419474352"><ele>393.0</ele><time>2026-04-12T07:18:40Z</time></trkpt><trkpt lat="42.12087654413239" lon="12.790427110916278"><ele>394.0</ele><time>2026-04-12T07:18:41Z</time></trkpt><trkpt lat="42.120900473344975" lon="12.790579902638942"><ele>395.0</ele><time>2026-04-12T07:18:42Z</time></trkpt><trkpt lat="42.12092054004301" lon="12.790728431849415"><ele>396.0</ele><time>2026-04-12T07:18:43Z</time></trkpt><trkpt lat="42.120930166359294" lon="12.790880923982877"><ele>397.0</ele><time>2026-04-12T07:18:44Z</time></trkpt><trkpt lat="42.120944009507596" lon="12.791027246120269"><ele>401.25</ele><time>2026-04-12T07:18:45Z</time></trkpt><trkpt lat="42.12094950718557" lon="12.791177296719477"><ele>405.5</ele><time>2026-04-12T07:18:46Z</time></trkpt><trkpt lat="42.12093737358156" lon="12.791313553390504"><ele>409.75</ele><time>2026-04-12T07:18:47Z</time></trkpt><trkpt lat="42.12095757277555" lon="12.791479078060568"><ele>414.0</ele><time>2026-04-12T07:18:48Z</time></trkpt><trkpt lat="42.1209753278281" lon="12.791662410286289"><ele>414.0</ele><time>2026-04-12T07:18:49Z</time></trkpt><trkpt lat="42.12099269334529" lon="12.791839242990552"><ele>414.0</ele><time>2026-04-12T07:18:50Z</time></trkpt><trkpt lat="42.121002079156625" lon="12.791996573390344"><ele>414.0</ele><time>2026-04-12T07:18:51Z</time></trkpt><trkpt lat="42.1210092825123" lon="12.792087488671656"><ele>414.0</ele><time>2026-04-12T07:18:52Z</time></trkpt><trkpt lat="42.121212051761326" lon="12.792150893108552"><ele>416.25</ele><time>2026-04-12T07:18:55Z</time></trkpt><trkpt lat="42.12133041412693" lon="12.792170577477645"><ele>418.5</ele><time>2026-04-12T07:18:56Z</time></trkpt><trkpt lat="42.12146783405424" lon="12.792193267274728"><ele>420.75</ele><time>2026-04-12T07:18:57Z</time></trkpt><trkpt lat="42.121617301124935" lon="12.792205703311694"><ele>423.0</ele><time>2026-04-12T07:18:58Z</time></trkpt><trkpt lat="42.121770499272515" lon="12.792206381892372"><ele>423.0</ele><time>2026-04-12T07:18:59Z</time></trkpt><trkpt lat="42.12190867548915" lon="12.79219815464928"><ele>423.0</ele><time>2026-04-12T07:19:00Z</time></trkpt><trkpt lat="42.12202990948014" lon="12.792203505442862"><ele>423.0</ele><time>2026-04-12T07:19:01Z</time></trkpt><trkpt lat="42.1221418274237" lon="12.792230450578685"><ele>423.0</ele><time>2026-04-12T07:19:02Z</time></trkpt><trkpt lat="42.122243304481415" lon="12.792255303069409"><ele>423.0</ele><time>2026-04-12T07:19:03Z</time></trkpt><trkpt lat="42.1223164719261" lon="12.792242513121018"><ele>423.0</ele><time>2026-04-12T07:19:04Z</time></trkpt><trkpt lat="42.12241256161086" lon="12.792251986982818"><ele>423.0</ele><time>2026-04-12T07:19:05.999Z</time></trkpt><trkpt lat="42.12243226377069" lon="12.792368728258097"><ele>423.0</ele><time>2026-04-12T07:19:07.999Z</time></trkpt><trkpt lat="42.122449486624106" lon="12.792535942164912"><ele>423.0</ele><time>2026-04-12T07:19:09.999Z</time></trkpt><trkpt lat="42.12245735926913" lon="12.79264562445738"><ele>427.59999999999997</ele><time>2026-04-12T07:19:10.999Z</time></trkpt><trkpt lat="42.12247173600263" lon="12.792756591577358"><ele>432.2</ele><time>2026-04-12T07:19:11.999Z</time></trkpt><trkpt lat="42.12249092768979" lon="12.79287284598516"><ele>436.8</ele><time>2026-04-12T07:19:12.999Z</time></trkpt><trkpt lat="42.12250579616674" lon="12.793002153938358"><ele>441.4</ele><time>2026-04-12T07:19:13.999Z</time></trkpt><trkpt lat="42.122527325376666" lon="12.79313953607761"><ele>446.0</ele><time>2026-04-12T07:19:14.999Z</time></trkpt><trkpt lat="42.12255124385914" lon="12.79328510187019"><ele>446.0</ele><time>2026-04-12T07:19:15.999Z</time></trkpt><trkpt lat="42.122564728854634" lon="12.793425402330664"><ele>446.0</ele><time>2026-04-12T07:19:16.999Z</time></trkpt><trkpt lat="42.12257400287697" lon="12.793565148516603"><ele>446.0</ele><time>2026-04-12T07:19:17.999Z</time></trkpt><trkpt lat="42.122583693957104" lon="12.793709701275125"><ele>446.0</ele><time>2026-04-12T07:19:18.999Z</time></trkpt><trkpt lat="42.12259311457844" lon="12.793847133054236"><ele>446.0</ele><time>2026-04-12T07:19:19.999Z</time></trkpt><trkpt lat="42.12262887812845" lon="12.793974919299911"><ele>447.99999999999994</ele><time>2026-04-12T07:19:20.999Z</time></trkpt><trkpt lat="42.12265384613641" lon="12.79409299709264"><ele>450.0</ele><time>2026-04-12T07:19:21.999Z</time></trkpt><trkpt lat="42.122648453506585" lon="12.794182302003662"><ele>452.0</ele><time>2026-04-12T07:19:22.999Z</time></trkpt><trkpt lat="42.122605416117466" lon="12.794244524615248"><ele>454.0</ele><time>2026-04-12T07:19:23.999Z</time></trkpt><trkpt lat="42.12254546550009" lon="12.794297259314504"><ele>455.99999999999994</ele><time>2026-04-12T07:19:24.999Z</time></trkpt><trkpt lat="42.122495789993955" lon="12.794360749176645"><ele>458.0</ele><time>2026-04-12T07:19:25.999Z</time></trkpt><trkpt lat="42.12244310698747" lon="12.794473435005422"><ele>461.0</ele><time>2026-04-12T07:19:26.999Z</time></trkpt><trkpt lat="42.122391906938574" lon="12.794604179237227"><ele>463.99999999999994</ele><time>2026-04-12T07:19:27.999Z</time></trkpt><trkpt lat="42.12232506408135" lon="12.794720173536831"><ele>466.99999999999994</ele><time>2026-04-12T07:19:28.999Z</time></trkpt><trkpt lat="42.122267526754115" lon="12.794823995152521"><ele>470.0</ele><time>2026-04-12T07:19:29.999Z</time></trkpt><trkpt lat="42.12220732635385" lon="12.794912275943489"><ele>473.0</ele><time>2026-04-12T07:19:30.999Z</time></trkpt><trkpt lat="42.1221546134043" lon="12.795008132384973"><ele>473.0</ele><time>2026-04-12T07:19:31.999Z</time></trkpt><trkpt lat="42.122088998574625" lon="12.795118131500706"><ele>472.99999999999994</ele><time>2026-04-12T07:19:32.999Z</time></trkpt><trkpt lat="42.12203824089534" lon="12.795214005404363"><ele>472.99999999999994</ele><time>2026-04-12T07:19:33.999Z</time></trkpt><trkpt lat="42.121957741902904" lon="12.795283985562685"><ele>473.0</ele><time>2026-04-12T07:19:35.999Z</time></trkpt><trkpt lat="42.12197865697942" lon="12.795396381650153"><ele>473.0</ele><time>2026-04-12T07:19:39.999Z</time></trkpt><trkpt lat="42.12205589898602" lon="12.795427434751307"><ele>476.16666666666663</ele><time>2026-04-12T07:19:40.999Z</time></trkpt><trkpt lat="42.12212846682932" lon="12.795467702475404"><ele>479.3333333333333</ele><time>2026-04-12T07:19:41.999Z</time></trkpt><trkpt lat="42.12221917394086" lon="12.795528622961031"><ele>482.5</ele><time>2026-04-12T07:19:43Z</time></trkpt><trkpt lat="42.122313594421435" lon="12.79558011713394"><ele>485.66666666666663</ele><time>2026-04-12T07:19:44Z</time></trkpt><trkpt lat="42.122374604898106" lon="12.795618211980372"><ele>488.8333333333333</ele><time>2026-04-12T07:19:45Z</time></trkpt><trkpt lat="42.12246504875388" lon="12.795662854274765"><ele>492.0</ele><time>2026-04-12T07:19:47Z</time></trkpt><trkpt lat="42.12256791801022" lon="12.795714512890447"><ele>492.5</ele><time>2026-04-12T07:19:49Z</time></trkpt><trkpt lat="42.12262376487365" lon="12.795753930500805"><ele>493.0</ele><time>2026-04-12T07:19:50Z</time></trkpt><trkpt lat="42.12268690306565" lon="12.795806587116834"><ele>493.5</ele><time>2026-04-12T07:19:51Z</time></trkpt><trkpt lat="42.12274422276095" lon="12.795845924661757"><ele>494.0</ele><time>2026-04-12T07:19:52Z</time></trkpt><trkpt lat="42.12276356618266" lon="12.795947635147186"><ele>494.5</ele><time>2026-04-12T07:19:54Z</time></trkpt><trkpt lat="42.12270411287207" lon="12.796030853882064"><ele>495.0</ele><time>2026-04-12T07:19:56Z</time></trkpt><trkpt lat="42.12264249233646" lon="12.796131834921486"><ele>497.6666666666667</ele><time>2026-04-12T07:19:58Z</time></trkpt><trkpt lat="42.12258671130047" lon="12.796250717611192"><ele>500.33333333333337</ele><time>2026-04-12T07:20:00Z</time></trkpt><trkpt lat="42.122551729648876" lon="12.796326355584286"><ele>503.0</ele><time>2026-04-12T07:20:01Z</time></trkpt><trkpt lat="42.122503811820415" lon="12.796401670709947"><ele>505.6666666666667</ele><time>2026-04-12T07:20:02Z</time></trkpt><trkpt lat="42.12245822000661" lon="12.796485688552574"><ele>508.33333333333337</ele><time>2026-04-12T07:20:03Z</time></trkpt><trkpt lat="42.12241218166672" lon="12.796591505470358"><ele>511.0</ele><time>2026-04-12T07:20:04Z</time></trkpt><trkpt lat="42.12236911280842" lon="12.796678406032152"><ele>511.00000000000006</ele><time>2026-04-12T07:20:05Z</time></trkpt><trkpt lat="42.12231636555535" lon="12.796764496826384"><ele>511.0</ele><time>2026-04-12T07:20:06Z</time></trkpt><trkpt lat="42.12225684353984" lon="12.79684180117592"><ele>511.0</ele><time>2026-04-12T07:20:07Z</time></trkpt><trkpt lat="42.122184341554544" lon="12.796916590946813"><ele>511.0</ele><time>2026-04-12T07:20:08Z</time></trkpt><trkpt lat="42.122122111980296" lon="12.79701926310562"><ele>511.00000000000006</ele><time>2026-04-12T07:20:09Z</time></trkpt><trkpt lat="42.12206954133446" lon="12.797109639980569"><ele>511.0</ele><time>2026-04-12T07:20:10Z</time></trkpt><trkpt lat="42.12200027485644" lon="12.797155244777432"><ele>514.1666666666667</ele><time>2026-04-12T07:20:12Z</time></trkpt><trkpt lat="42.12201975389184" lon="12.797251708979001"><ele>517.3333333333334</ele><time>2026-04-12T07:21:00Z</time></trkpt><trkpt lat="42.1220524158455" lon="12.797324274928423"><ele>520.5</ele><time>2026-04-12T07:21:04.999Z</time></trkpt><trkpt lat="42.12209617245773" lon="12.79739365046903"><ele>523.6666666666666</ele><time>2026-04-12T07:21:07.999Z</time></trkpt><trkpt lat="42.12216068675807" lon="12.797477983179668"><ele>526.8333333333333</ele><time>2026-04-12T07:21:10.999Z</time></trkpt><trkpt lat="42.12221237820093" lon="12.797563448527415"><ele>530.0</ele><time>2026-04-12T07:21:13.999Z</time></trkpt><trkpt lat="42.1222702016195" lon="12.797671910582956"><ele>532.1666666666666</ele><time>2026-04-12T07:21:16.999Z</time></trkpt><trkpt lat="42.122344954448266" lon="12.797726446078062"><ele>534.3333333333333</ele><time>2026-04-12T07:21:19.999Z</time></trkpt><trkpt lat="42.12240896564525" lon="12.797783117815715"><ele>536.5</ele><time>2026-04-12T07:21:22.999Z</time></trkpt><trkpt lat="42.12243519961074" lon="12.797901726947691"><ele>538.6666666666666</ele><time>2026-04-12T07:21:24.999Z</time></trkpt><trkpt lat="42.12247448271006" lon="12.797984158234133"><ele>540.8333333333334</ele><time>2026-04-12T07:21:26.999Z</time></trkpt><trkpt lat="42.12253505327703" lon="12.798045574353107"><ele>543.0</ele><time>2026-04-12T07:21:28.999Z</time></trkpt><trkpt lat="42.12256992738696" lon="12.798121552338019"><ele>543.0</ele><time>2026-04-12T07:21:30.999Z</time></trkpt><trkpt lat="42.12258616365271" lon="12.798216432947873"><ele>543.0</ele><time>2026-04-12T07:21:32.999Z</time></trkpt><trkpt lat="42.12259471741332" lon="12.79831872627379"><ele>543.0</ele><time>2026-04-12T07:21:35.999Z</time></trkpt><trkpt lat="42.12263010622469" lon="12.798409793839403"><ele>543.0</ele><time>2026-04-12T07:21:38.999Z</time></trkpt><trkpt lat="42.12264453697817" lon="12.798497528499245"><ele>543.0</ele><time>2026-04-12T07:21:41.999Z</time></trkpt><trkpt lat="42.122663044427945" lon="12.798602651403913"><ele>543.0</ele><time>2026-04-12T07:25:04Z</time></trkpt><trkpt lat="42.122655525426715" lon="12.798751268605164"><ele>543.1666666666666</ele><time>2026-04-12T07:25:06Z</time></trkpt><trkpt lat="42.1226407557738" lon="12.798854633947206"><ele>543.3333333333334</ele><time>2026-04-12T07:25:07Z</time></trkpt><trkpt lat="42.12264363705748" lon="12.798949644325578"><ele>543.5</ele><time>2026-04-12T07:25:08Z</time></trkpt><trkpt lat="42.12265191920441" lon="12.79906807097651"><ele>543.6666666666667</ele><time>2026-04-12T07:25:10Z</time></trkpt><trkpt lat="42.122672899972116" lon="12.79918925941227"><ele>543.8333333333334</ele><time>2026-04-12T07:25:11.999Z</time></trkpt><trkpt lat="42.122690334053885" lon="12.799299900080621"><ele>544.0</ele><time>2026-04-12T07:25:13.999Z</time></trkpt><trkpt lat="42.1226848252024" lon="12.799452416102595"><ele>544.0</ele><time>2026-04-12T07:25:16.999Z</time></trkpt><trkpt lat="42.12269693558018" lon="12.799644317415849"><ele>544.0</ele><time>2026-04-12T07:25:18.999Z</time></trkpt><trkpt lat="42.12271721477794" lon="12.799760711234159"><ele>544.0</ele><time>2026-04-12T07:25:19.999Z</time></trkpt><trkpt lat="42.12272559977473" lon="12.79988133374975"><ele>544.0</ele><time>2026-04-12T07:25:20.999Z</time></trkpt><trkpt lat="42.122724530631764" lon="12.799990333888434"><ele>544.0</ele><time>2026-04-12T07:25:21.999Z</time></trkpt><trkpt lat="42.12273772735881" lon="12.800109739400098"><ele>544.5</ele><time>2026-04-12T07:25:22.999Z</time></trkpt><trkpt lat="42.12273856439773" lon="12.80023875981073"><ele>545.0</ele><time>2026-04-12T07:25:23.999Z</time></trkpt><trkpt lat="42.12274646257789" lon="12.800324458059293"><ele>545.5</ele><time>2026-04-12T07:25:24.999Z</time></trkpt><trkpt lat="42.12275477508353" lon="12.800411234585896"><ele>546.0</ele><time>2026-04-12T07:25:27.999Z</time></trkpt><trkpt lat="42.12278620322274" lon="12.800485668726006"><ele>546.5</ele><time>2026-04-12T07:25:29.999Z</time></trkpt><trkpt lat="42.12282830647831" lon="12.800606071710993"><ele>547.0</ele><time>2026-04-12T07:25:31.999Z</time></trkpt><trkpt lat="42.12290604776735" lon="12.800705103557165"><ele>547.0</ele><time>2026-04-12T07:25:33.999Z</time></trkpt><trkpt lat="42.122962893252065" lon="12.80077975216563"><ele>547.0</ele><time>2026-04-12T07:25:35.999Z</time></trkpt><trkpt lat="42.123035415131554" lon="12.800881748278888"><ele>547.0</ele><time>2026-04-12T07:25:37.999Z</time></trkpt><trkpt lat="42.123126593966326" lon="12.800992956880938"><ele>547.0</ele><time>2026-04-12T07:25:39.999Z</time></trkpt><trkpt lat="42.123232265181365" lon="12.801062940978655"><ele>547.0</ele><time>2026-04-12T07:25:41.999Z</time></trkpt><trkpt lat="42.12329992639464" lon="12.801073086414904"><ele>547.6666666666667</ele><time>2026-04-12T07:25:42.999Z</time></trkpt><trkpt lat="42.12336669352018" lon="12.801072404145403"><ele>548.3333333333334</ele><time>2026-04-12T07:25:43.999Z</time></trkpt><trkpt lat="42.123433382530145" lon="12.801113061365749"><ele>549.0</ele><time>2026-04-12T07:25:45.999Z</time></trkpt><trkpt lat="42.12345400981228" lon="12.80125620114546"><ele>549.6666666666666</ele><time>2026-04-12T07:25:47.999Z</time></trkpt><trkpt lat="42.123454152466245" lon="12.801353520665748"><ele>550.3333333333333</ele><time>2026-04-12T07:25:48.999Z</time></trkpt><trkpt lat="42.12346537260281" lon="12.801461261648358"><ele>551.0</ele><time>2026-04-12T07:25:49.999Z</time></trkpt><trkpt lat="42.12347049488835" lon="12.801577065311363"><ele>551.0</ele><time>2026-04-12T07:25:50.999Z</time></trkpt><trkpt lat="42.12346857224251" lon="12.801723276200818"><ele>551.0</ele><time>2026-04-12T07:25:51.999Z</time></trkpt><trkpt lat="42.123445617488585" lon="12.801889822502273"><ele>551.0</ele><time>2026-04-12T07:25:52.999Z</time></trkpt><trkpt lat="42.12341444332281" lon="12.80203525661668"><ele>551.0</ele><time>2026-04-12T07:25:53.999Z</time></trkpt><trkpt lat="42.123383045968566" lon="12.802168773415735"><ele>553.25</ele><time>2026-04-12T07:25:54.999Z</time></trkpt><trkpt lat="42.123357520413876" lon="12.802326976510292"><ele>555.5</ele><time>2026-04-12T07:25:55.999Z</time></trkpt><trkpt lat="42.12333290739049" lon="12.802508865905486"><ele>557.75</ele><time>2026-04-12T07:25:56.999Z</time></trkpt><trkpt lat="42.123316856483214" lon="12.802660716537165"><ele>560.0</ele><time>2026-04-12T07:25:57.999Z</time></trkpt><trkpt lat="42.12333192532171" lon="12.802800821321789"><ele>560.4</ele><time>2026-04-12T07:25:58.999Z</time></trkpt><trkpt lat="42.12333687113999" lon="12.802954951629172"><ele>560.8</ele><time>2026-04-12T07:25:59.999Z</time></trkpt><trkpt lat="42.1233275578758" lon="12.803089957391032"><ele>561.2</ele><time>2026-04-12T07:26:01Z</time></trkpt><trkpt lat="42.12330078295224" lon="12.803232453651278"><ele>561.6</ele><time>2026-04-12T07:26:02Z</time></trkpt><trkpt lat="42.12328109596062" lon="12.803368848615099"><ele>562.0</ele><time>2026-04-12T07:26:03Z</time></trkpt><trkpt lat="42.12326683203751" lon="12.80350656225322"><ele>562.0</ele><time>2026-04-12T07:26:04Z</time></trkpt><trkpt lat="42.12323754892575" lon="12.8036385986034"><ele>562.0</ele><time>2026-04-12T07:26:05Z</time></trkpt><trkpt lat="42.12319659251577" lon="12.803719647970786"><ele>562.0</ele><time>2026-04-12T07:26:06Z</time></trkpt><trkpt lat="42.1230547075418" lon="12.803761357708858"><ele>562.0</ele><time>2026-04-12T07:26:08Z</time></trkpt><trkpt lat="42.12296372609706" lon="12.803782327502518"><ele>562.0</ele><time>2026-04-12T07:26:09Z</time></trkpt><trkpt lat="42.122868019858466" lon="12.8038222765772"><ele>565.5</ele><time>2026-04-12T07:26:10Z</time></trkpt><trkpt lat="42.12277295155452" lon="12.803874345826763"><ele>569.0</ele><time>2026-04-12T07:26:11Z</time></trkpt><trkpt lat="42.12268205609064" lon="12.803942797057122"><ele>572.5</ele><time>2026-04-12T07:26:12Z</time></trkpt><trkpt lat="42.122589366419724" lon="12.804051947616584"><ele>576.0</ele><time>2026-04-12T07:26:13Z</time></trkpt><trkpt lat="42.12250208235273" lon="12.80417378299601"><ele>576.0</ele><time>2026-04-12T07:26:14Z</time></trkpt><trkpt lat="42.1224280787091" lon="12.804295449100959"><ele>576.0</ele><time>2026-04-12T07:26:15Z</time></trkpt><trkpt lat="42.122375922022606" lon="12.804387433905903"><ele>576.0</ele><time>2026-04-12T07:26:16Z</time></trkpt><trkpt lat="42.12231770856876" lon="12.804438501791505"><ele>576.0</ele><time>2026-04-12T07:26:17Z</time></trkpt><trkpt lat="42.12223360175569" lon="12.804494094345483"><ele>576.0</ele><time>2026-04-12T07:26:18Z</time></trkpt><trkpt lat="42.122133610309575" lon="12.804576138901117"><ele>578.0</ele><time>2026-04-12T07:26:19Z</time></trkpt><trkpt lat="42.122040505042605" lon="12.804692916667081"><ele>580.0</ele><time>2026-04-12T07:26:20Z</time></trkpt><trkpt lat="42.12192876949688" lon="12.8048564750096"><ele>582.0</ele><time>2026-04-12T07:26:21Z</time></trkpt><trkpt lat="42.1218312439364" lon="12.804995773759432"><ele>584.0</ele><time>2026-04-12T07:26:22Z</time></trkpt><trkpt lat="42.12174495787449" lon="12.805121365977513"><ele>585.5</ele><time>2026-04-12T07:26:23Z</time></trkpt><trkpt lat="42.12167013431775" lon="12.805248518711782"><ele>587.0</ele><time>2026-04-12T07:26:24Z</time></trkpt><trkpt lat="42.12160323806392" lon="12.805382236600797"><ele>588.5</ele><time>2026-04-12T07:26:25Z</time></trkpt><trkpt lat="42.1215379905256" lon="12.80553552941583"><ele>590.0</ele><time>2026-04-12T07:26:26Z</time></trkpt><trkpt lat="42.121470148361766" lon="12.80567563864299"><ele>590.0</ele><time>2026-04-12T07:26:27Z</time></trkpt><trkpt lat="42.1213957069157" lon="12.805815246953651"><ele>590.0</ele><time>2026-04-12T07:26:28Z</time></trkpt><trkpt lat="42.12132103835978" lon="12.805944890971967"><ele>590.0</ele><time>2026-04-12T07:26:29Z</time></trkpt><trkpt lat="42.12127528759021" lon="12.806075377208744"><ele>590.0</ele><time>2026-04-12T07:26:30Z</time></trkpt><trkpt lat="42.12123741923491" lon="12.806164777943849"><ele>590.0</ele><time>2026-04-12T07:26:31Z</time></trkpt><trkpt lat="42.12114976644486" lon="12.806286249625172"><ele>588.8333333333333</ele><time>2026-04-12T07:26:33Z</time></trkpt><trkpt lat="42.12108354369977" lon="12.80634591923063"><ele>587.6666666666666</ele><time>2026-04-12T07:26:34Z</time></trkpt><trkpt lat="42.121006208698645" lon="12.806413710572809"><ele>586.5</ele><time>2026-04-12T07:26:35Z</time></trkpt><trkpt lat="42.12094479886455" lon="12.806464147427484"><ele>585.3333333333334</ele><time>2026-04-12T07:26:36Z</time></trkpt><trkpt lat="42.12089196122861" lon="12.806521434344834"><ele>584.1666666666667</ele><time>2026-04-12T07:26:37Z</time></trkpt><trkpt lat="42.12084854166087" lon="12.806602120575167"><ele>583.0</ele><time>2026-04-12T07:26:38Z</time></trkpt><trkpt lat="42.12086327517412" lon="12.80675689465142"><ele>583.8333333333334</ele><time>2026-04-12T07:26:40Z</time></trkpt><trkpt lat="42.12090657305778" lon="12.806846813717359"><ele>584.6666666666667</ele><time>2026-04-12T07:26:41Z</time></trkpt><trkpt lat="42.120940412662435" lon="12.806935085595523"><ele>585.5</ele><time>2026-04-12T07:26:42Z</time></trkpt><trkpt lat="42.12098768134816" lon="12.806996572615464"><ele>586.3333333333334</ele><time>2026-04-12T07:26:43Z</time></trkpt><trkpt lat="42.121064453811805" lon="12.807033630133006"><ele>587.1666666666666</ele><time>2026-04-12T07:26:44Z</time></trkpt><trkpt lat="42.12114837606921" lon="12.80705518213914"><ele>588.0</ele><time>2026-04-12T07:26:45Z</time></trkpt><trkpt lat="42.121245644740355" lon="12.807092860605545"><ele>588.0</ele><time>2026-04-12T07:26:46Z</time></trkpt><trkpt lat="42.12136348045774" lon="12.80714978420031"><ele>588.0</ele><time>2026-04-12T07:26:47Z</time></trkpt><trkpt lat="42.12145655578461" lon="12.80721820895272"><ele>588.0</ele><time>2026-04-12T07:26:48Z</time></trkpt><trkpt lat="42.12152224408636" lon="12.807298346289958"><ele>588.0</ele><time>2026-04-12T07:26:49Z</time></trkpt><trkpt lat="42.12158327693238" lon="12.807387971098667"><ele>588.0</ele><time>2026-04-12T07:26:50Z</time></trkpt><trkpt lat="42.121643012460204" lon="12.807511135743097"><ele>595.5</ele><time>2026-04-12T07:26:51Z</time></trkpt><trkpt lat="42.12168832128806" lon="12.807690024573352"><ele>603.0</ele><time>2026-04-12T07:26:52Z</time></trkpt><trkpt lat="42.12174249387587" lon="12.807864112586238"><ele>610.5</ele><time>2026-04-12T07:26:53Z</time></trkpt><trkpt lat="42.12180876931283" lon="12.808011735248673"><ele>618.0</ele><time>2026-04-12T07:26:54Z</time></trkpt><trkpt lat="42.12187683306922" lon="12.808145035064426"><ele>618.0</ele><time>2026-04-12T07:26:55Z</time></trkpt><trkpt lat="42.12194226337811" lon="12.808257517345229"><ele>618.0</ele><time>2026-04-12T07:26:56Z</time></trkpt><trkpt lat="42.12199400302885" lon="12.808334122059389"><ele>618.0</ele><time>2026-04-12T07:26:57Z</time></trkpt><trkpt lat="42.12211439632065" lon="12.808354195545808"><ele>618.0</ele><time>2026-04-12T07:26:59Z</time></trkpt><trkpt lat="42.12216205662535" lon="12.808296450280318"><ele>618.0</ele><time>2026-04-12T07:27:00Z</time></trkpt><trkpt lat="42.12219914145374" lon="12.808203664255094"><ele>618.0</ele><time>2026-04-12T07:27:01Z</time></trkpt><trkpt lat="42.12226405578205" lon="12.808093145828234"><ele>618.0</ele><time>2026-04-12T07:27:02Z</time></trkpt><trkpt lat="42.122335702172975" lon="12.807986041589137"><ele>618.0</ele><time>2026-04-12T07:27:03Z</time></trkpt><trkpt lat="42.12240979866389" lon="12.807891256509466"><ele>618.0</ele><time>2026-04-12T07:27:04Z</time></trkpt><trkpt lat="42.12249015539142" lon="12.807790861522891"><ele>618.0</ele><time>2026-04-12T07:27:05Z</time></trkpt><trkpt lat="42.122591629215556" lon="12.807686275833579"><ele>618.0</ele><time>2026-04-12T07:27:06Z</time></trkpt><trkpt lat="42.12270000368225" lon="12.80761614439339"><ele>619.6</ele><time>2026-04-12T07:27:07Z</time></trkpt><trkpt lat="42.1227878035648" lon="12.80758697753739"><ele>621.1999999999999</ele><time>2026-04-12T07:27:08Z</time></trkpt><trkpt lat="42.122873764119234" lon="12.807566967361064"><ele>622.8</ele><time>2026-04-12T07:27:09Z</time></trkpt><trkpt lat="42.122957670180085" lon="12.807621771407952"><ele>624.4</ele><time>2026-04-12T07:27:10Z</time></trkpt><trkpt lat="42.123035077566406" lon="12.807696410730145"><ele>626.0</ele><time>2026-04-12T07:27:11Z</time></trkpt><trkpt lat="42.12311958201222" lon="12.807774990707472"><ele>626.0</ele><time>2026-04-12T07:27:12Z</time></trkpt><trkpt lat="42.12321114703079" lon="12.807834787403982"><ele>626.0</ele><time>2026-04-12T07:27:13Z</time></trkpt><trkpt lat="42.1233081270416" lon="12.80789272535173"><ele>626.0</ele><time>2026-04-12T07:27:14Z</time></trkpt><trkpt lat="42.12340618530171" lon="12.807932422126521"><ele>626.0</ele><time>2026-04-12T07:27:14.999Z</time></trkpt><trkpt lat="42.12347946771337" lon="12.808053461754005"><ele>626.0</ele><time>2026-04-12T07:27:15.999Z</time></trkpt><trkpt lat="42.12355958990436" lon="12.808070059069912"><ele>629.6</ele><time>2026-04-12T07:27:18.999Z</time></trkpt><trkpt lat="42.12361256971112" lon="12.808181318238738"><ele>633.2</ele><time>2026-04-12T07:27:20.999Z</time></trkpt><trkpt lat="42.123696282127646" lon="12.808203798045577"><ele>636.8000000000001</ele><time>2026-04-12T07:27:29.999Z</time></trkpt><trkpt lat="42.12380338941074" lon="12.808217503573628"><ele>640.4000000000001</ele><time>2026-04-12T07:27:31.999Z</time></trkpt><trkpt lat="42.12389374154752" lon="12.808264464020716"><ele>644.0</ele><time>2026-04-12T07:27:33.999Z</time></trkpt><trkpt lat="42.123961387000435" lon="12.808313755606003"><ele>644.0</ele><time>2026-04-12T07:27:34.999Z</time></trkpt><trkpt lat="42.12401310016779" lon="12.80843866212573"><ele>644.0</ele><time>2026-04-12T07:27:35.999Z</time></trkpt><trkpt lat="42.124081932134075" lon="12.80847351875711"><ele>644.0</ele><time>2026-04-12T07:27:36.999Z</time></trkpt><trkpt lat="42.124157896099085" lon="12.808482873153922"><ele>644.0</ele><time>2026-04-12T07:27:37.999Z</time></trkpt><trkpt lat="42.12424477910669" lon="12.808501835485854"><ele>644.0</ele><time>2026-04-12T07:27:38.999Z</time></trkpt><trkpt lat="42.12433505821881" lon="12.80848892056336"><ele>644.0</ele><time>2026-04-12T07:27:39.999Z</time></trkpt><trkpt lat="42.124435409882174" lon="12.808432456577702"><ele>643.5</ele><time>2026-04-12T07:27:40.999Z</time></trkpt><trkpt lat="42.124544371634016" lon="12.80836633454638"><ele>643.0</ele><time>2026-04-12T07:27:41.999Z</time></trkpt><trkpt lat="42.124622712491146" lon="12.808246336396536"><ele>642.5</ele><time>2026-04-12T07:27:42.999Z</time></trkpt><trkpt lat="42.12471910724839" lon="12.808071691862551"><ele>642.0</ele><time>2026-04-12T07:27:43.999Z</time></trkpt><trkpt lat="42.124817665832495" lon="12.807903271727511"><ele>643.8</ele><time>2026-04-12T07:27:44.999Z</time></trkpt><trkpt lat="42.12490974188003" lon="12.807795173752666"><ele>645.6</ele><time>2026-04-12T07:27:45.999Z</time></trkpt><trkpt lat="42.12497167125783" lon="12.807703078701564"><ele>647.4</ele><time>2026-04-12T07:27:46.999Z</time></trkpt><trkpt lat="42.125095623212474" lon="12.807713990816294"><ele>649.1999999999999</ele><time>2026-04-12T07:27:48.999Z</time></trkpt><trkpt lat="42.12517101876658" lon="12.807761589307212"><ele>651.0</ele><time>2026-04-12T07:27:49.999Z</time></trkpt><trkpt lat="42.12525942662467" lon="12.807854152054423"><ele>651.0</ele><time>2026-04-12T07:27:50.999Z</time></trkpt><trkpt lat="42.125375683138834" lon="12.807955849340724"><ele>651.0</ele><time>2026-04-12T07:27:51.999Z</time></trkpt><trkpt lat="42.12551366161016" lon="12.808082832265079"><ele>651.0</ele><time>2026-04-12T07:27:52.999Z</time></trkpt><trkpt lat="42.12567042272323" lon="12.80824190782413"><ele>649.3333333333334</ele><time>2026-04-12T07:27:53.999Z</time></trkpt><trkpt lat="42.125839054629104" lon="12.808423728925874"><ele>647.6666666666667</ele><time>2026-04-12T07:27:54.999Z</time></trkpt><trkpt lat="42.125985193200776" lon="12.808602004041624"><ele>646.0</ele><time>2026-04-12T07:27:55.999Z</time></trkpt><trkpt lat="42.1261058251231" lon="12.808747017062894"><ele>649.75</ele><time>2026-04-12T07:27:56.999Z</time></trkpt><trkpt lat="42.12619898284629" lon="12.808867668900737"><ele>653.5</ele><time>2026-04-12T07:27:57.999Z</time></trkpt><trkpt lat="42.126291176133826" lon="12.808973058802803"><ele>657.25</ele><time>2026-04-12T07:27:58.999Z</time></trkpt><trkpt lat="42.12634823960346" lon="12.809104666514452"><ele>661.0</ele><time>2026-04-12T07:27:59.999Z</time></trkpt><trkpt lat="42.12638805042168" lon="12.809295891878978"><ele>661.5</ele><time>2026-04-12T07:28:00.999Z</time></trkpt><trkpt lat="42.12643781762565" lon="12.809526329443166"><ele>662.0</ele><time>2026-04-12T07:28:01.999Z</time></trkpt><trkpt lat="42.126483650461324" lon="12.809728408513978"><ele>662.5</ele><time>2026-04-12T07:28:02.999Z</time></trkpt><trkpt lat="42.126532489191625" lon="12.809867662132099"><ele>663.0</ele><time>2026-04-12T07:28:03.999Z</time></trkpt><trkpt lat="42.12659539421321" lon="12.809933753051027"><ele>663.0</ele><time>2026-04-12T07:28:04.999Z</time></trkpt><trkpt lat="42.12667698043482" lon="12.809962031029725"><ele>663.0</ele><time>2026-04-12T07:28:07Z</time></trkpt><trkpt lat="42.12675249893337" lon="12.809916298482452"><ele>663.0</ele><time>2026-04-12T07:28:08Z</time></trkpt><trkpt lat="42.126846857397844" lon="12.809820925196426"><ele>663.0</ele><time>2026-04-12T07:28:09Z</time></trkpt><trkpt lat="42.12696472586999" lon="12.80971670177126"><ele>663.0</ele><time>2026-04-12T07:28:10Z</time></trkpt><trkpt lat="42.127102528651" lon="12.80961314660674"><ele>663.0</ele><time>2026-04-12T07:28:11Z</time></trkpt><trkpt lat="42.12724720222304" lon="12.809519267906982"><ele>663.0</ele><time>2026-04-12T07:28:12Z</time></trkpt><trkpt lat="42.127374422349085" lon="12.809443422118509"><ele>663.0</ele><time>2026-04-12T07:28:13Z</time></trkpt><trkpt lat="42.127495717069" lon="12.809363571061766"><ele>663.0</ele><time>2026-04-12T07:28:14Z</time></trkpt><trkpt lat="42.12763268615994" lon="12.80928917468964"><ele>657.6666666666666</ele><time>2026-04-12T07:28:15Z</time></trkpt><trkpt lat="42.12776858713246" lon="12.809200392052563"><ele>652.3333333333333</ele><time>2026-04-12T07:28:16Z</time></trkpt><trkpt lat="42.12791306309078" lon="12.809063443911116"><ele>647.0</ele><time>2026-04-12T07:28:17Z</time></trkpt><trkpt lat="42.12804347394752" lon="12.808934749538933"><ele>647.0</ele><time>2026-04-12T07:28:18Z</time></trkpt><trkpt lat="42.12817763124543" lon="12.808852624332218"><ele>647.0</ele><time>2026-04-12T07:28:19Z</time></trkpt><trkpt lat="42.12829495092507" lon="12.80874404138727"><ele>647.0</ele><time>2026-04-12T07:28:20Z</time></trkpt><trkpt lat="42.12841801098056" lon="12.808615378451186"><ele>647.0</ele><time>2026-04-12T07:28:21Z</time></trkpt><trkpt lat="42.12851184003085" lon="12.8084598647048"><ele>648.25</ele><time>2026-04-12T07:28:22Z</time></trkpt><trkpt lat="42.12862308540564" lon="12.808338262173315"><ele>649.5</ele><time>2026-04-12T07:28:23Z</time></trkpt><trkpt lat="42.12873483178364" lon="12.808228580296872"><ele>650.75</ele><time>2026-04-12T07:28:24Z</time></trkpt><trkpt lat="42.128852725047494" lon="12.808128787354796"><ele>652.0</ele><time>2026-04-12T07:28:25Z</time></trkpt><trkpt lat="42.128963826180296" lon="12.808046600736482"><ele>652.0</ele><time>2026-04-12T07:28:26Z</time></trkpt><trkpt lat="42.12905600698125" lon="12.807982515032998"><ele>652.0</ele><time>2026-04-12T07:28:27Z</time></trkpt><trkpt lat="42.12911427992715" lon="12.807943261867944"><ele>652.0</ele><time>2026-04-12T07:28:31Z</time></trkpt><trkpt lat="42.129155379263295" lon="12.807846816348397"><ele>652.0</ele><time>2026-04-12T07:28:42Z</time></trkpt><trkpt lat="42.12929000556828" lon="12.807837511660852"><ele>652.0</ele><time>2026-04-12T07:28:44Z</time></trkpt><trkpt lat="42.129370622315726" lon="12.807796470492315"><ele>650.8</ele><time>2026-04-12T07:28:45Z</time></trkpt><trkpt lat="42.129447870636916" lon="12.807760651079201"><ele>649.6</ele><time>2026-04-12T07:28:46Z</time></trkpt><trkpt lat="42.129517771745114" lon="12.807730894547266"><ele>648.4</ele><time>2026-04-12T07:28:47Z</time></trkpt><trkpt lat="42.129600944787136" lon="12.807703491776131"><ele>647.1999999999999</ele><time>2026-04-12T07:28:48Z</time></trkpt><trkpt lat="42.12970945857359" lon="12.807680345898847"><ele>646.0</ele><time>2026-04-12T07:28:49Z</time></trkpt><trkpt lat="42.12983877732549" lon="12.807656259616259"><ele>649.25</ele><time>2026-04-12T07:28:50Z</time></trkpt><trkpt lat="42.12996458912968" lon="12.807633852394083"><ele>652.5</ele><time>2026-04-12T07:28:51Z</time></trkpt><trkpt lat="42.13008249177086" lon="12.807608136869984"><ele>655.75</ele><time>2026-04-12T07:28:52Z</time></trkpt><trkpt lat="42.130194830560846" lon="12.807578278852265"><ele>659.0</ele><time>2026-04-12T07:28:53Z</time></trkpt><trkpt lat="42.13030153161674" lon="12.807533849644239"><ele>659.0</ele><time>2026-04-12T07:28:54Z</time></trkpt><trkpt lat="42.13040773328225" lon="12.807515453560532"><ele>659.0</ele><time>2026-04-12T07:28:55Z</time></trkpt><trkpt lat="42.130532897521164" lon="12.807445672556725"><ele>659.0</ele><time>2026-04-12T07:28:56Z</time></trkpt><trkpt lat="42.130670141768675" lon="12.807388271860438"><ele>659.0</ele><time>2026-04-12T07:28:57Z</time></trkpt><trkpt lat="42.13079223365227" lon="12.807294795506834"><ele>660.5</ele><time>2026-04-12T07:28:58Z</time></trkpt><trkpt lat="42.13090706887361" lon="12.807187891772292"><ele>662.0</ele><time>2026-04-12T07:28:59Z</time></trkpt><trkpt lat="42.13103423860471" lon="12.807135578979151"><ele>663.5</ele><time>2026-04-12T07:29:00Z</time></trkpt><trkpt lat="42.13114260720233" lon="12.807084483906817"><ele>665.0</ele><time>2026-04-12T07:29:01Z</time></trkpt><trkpt lat="42.13125511055166" lon="12.807042456879683"><ele>665.0</ele><time>2026-04-12T07:29:02Z</time></trkpt><trkpt lat="42.13136394430757" lon="12.807010436297396"><ele>665.0</ele><time>2026-04-12T07:29:03Z</time></trkpt><trkpt lat="42.13146244213175" lon="12.806996474367887"><ele>665.0</ele><time>2026-04-12T07:29:04Z</time></trkpt><trkpt lat="42.13155193359223" lon="12.80701316566379"><ele>665.0</ele><time>2026-04-12T07:29:05Z</time></trkpt><trkpt lat="42.13164574357426" lon="12.807034381419701"><ele>665.0</ele><time>2026-04-12T07:29:06Z</time></trkpt><trkpt lat="42.131747305982394" lon="12.807034607783665"><ele>666.25</ele><time>2026-04-12T07:29:07Z</time></trkpt><trkpt lat="42.13186267644656" lon="12.807057776239267"><ele>667.5</ele><time>2026-04-12T07:29:08Z</time></trkpt><trkpt lat="42.131976114838984" lon="12.8070898736366"><ele>668.75</ele><time>2026-04-12T07:29:09Z</time></trkpt><trkpt lat="42.13210451378767" lon="12.807090054987512"><ele>670.0</ele><time>2026-04-12T07:29:10Z</time></trkpt><trkpt lat="42.13224189218322" lon="12.80711610305205"><ele>670.0</ele><time>2026-04-12T07:29:11Z</time></trkpt><trkpt lat="42.13237319744596" lon="12.807101212352155"><ele>670.0</ele><time>2026-04-12T07:29:12Z</time></trkpt><trkpt lat="42.13250757214718" lon="12.807084268471778"><ele>670.0</ele><time>2026-04-12T07:29:13Z</time></trkpt><trkpt lat="42.13262838944565" lon="12.807051113040137"><ele>670.0</ele><time>2026-04-12T07:29:14Z</time></trkpt><trkpt lat="42.132742231506626" lon="12.807024335151393"><ele>670.25</ele><time>2026-04-12T07:29:15Z</time></trkpt><trkpt lat="42.13283881893543" lon="12.806961337494101"><ele>670.5</ele><time>2026-04-12T07:29:16Z</time></trkpt><trkpt lat="42.13294286155896" lon="12.806895037149816"><ele>670.75</ele><time>2026-04-12T07:29:17Z</time></trkpt><trkpt lat="42.13305131161777" lon="12.806807150702712"><ele>671.0</ele><time>2026-04-12T07:29:18Z</time></trkpt><trkpt lat="42.133157900666326" lon="12.806692281923398"><ele>666.0</ele><time>2026-04-12T07:29:18.999Z</time></trkpt><trkpt lat="42.13326268980649" lon="12.806573073718198"><ele>661.0</ele><time>2026-04-12T07:29:19.999Z</time></trkpt><trkpt lat="42.13337246615753" lon="12.806454520911046"><ele>656.0</ele><time>2026-04-12T07:29:20.999Z</time></trkpt><trkpt lat="42.133482578285175" lon="12.806331479749852"><ele>651.0</ele><time>2026-04-12T07:29:21.999Z</time></trkpt><trkpt lat="42.13358734581786" lon="12.80622444460589"><ele>651.0</ele><time>2026-04-12T07:29:22.999Z</time></trkpt><trkpt lat="42.13368137191417" lon="12.806116620860267"><ele>651.0</ele><time>2026-04-12T07:29:23.999Z</time></trkpt><trkpt lat="42.13377047467842" lon="12.806002780123025"><ele>651.0</ele><time>2026-04-12T07:29:24.999Z</time></trkpt><trkpt lat="42.13384674528327" lon="12.805912998474188"><ele>651.0</ele><time>2026-04-12T07:29:25.999Z</time></trkpt><trkpt lat="42.133922924993264" lon="12.805844148590658"><ele>651.0</ele><time>2026-04-12T07:29:26.999Z</time></trkpt><trkpt lat="42.13401293170633" lon="12.805815293306402"><ele>649.75</ele><time>2026-04-12T07:29:27.999Z</time></trkpt><trkpt lat="42.134058320540724" lon="12.805752301444961"><ele>648.5</ele><time>2026-04-12T07:29:28.999Z</time></trkpt><trkpt lat="42.13417358687055" lon="12.805720240916486"><ele>647.25</ele><time>2026-04-12T07:29:34.999Z</time></trkpt><trkpt lat="42.1342481004712" lon="12.805696330356032"><ele>646.0</ele><time>2026-04-12T07:29:35.999Z</time></trkpt><trkpt lat="42.13438667909074" lon="12.805873920793962"><ele>648.1999999999999</ele><time>2026-04-12T07:29:37.999Z</time></trkpt><trkpt lat="42.13446881637175" lon="12.806072011270205"><ele>650.4</ele><time>2026-04-12T07:29:40.999Z</time></trkpt><trkpt lat="42.1344547171244" lon="12.806171401811271"><ele>652.6</ele><time>2026-04-12T07:29:41.999Z</time></trkpt><trkpt lat="42.13449360960365" lon="12.806267848099559"><ele>654.8</ele><time>2026-04-12T07:29:42.999Z</time></trkpt><trkpt lat="42.13454159855751" lon="12.806339277609315"><ele>657.0</ele><time>2026-04-12T07:29:43.999Z</time></trkpt><trkpt lat="42.134594801367776" lon="12.806481046899988"><ele>657.0</ele><time>2026-04-12T07:29:44.999Z</time></trkpt><trkpt lat="42.13465387531117" lon="12.806609427470862"><ele>657.0</ele><time>2026-04-12T07:29:45.999Z</time></trkpt><trkpt lat="42.13470925800828" lon="12.806741157881696"><ele>657.0</ele><time>2026-04-12T07:29:46.999Z</time></trkpt><trkpt lat="42.134763098056034" lon="12.806869677922329"><ele>657.0</ele><time>2026-04-12T07:29:47.999Z</time></trkpt><trkpt lat="42.13481797159551" lon="12.807002180241563"><ele>657.0</ele><time>2026-04-12T07:29:48.999Z</time></trkpt><trkpt lat="42.134870129236994" lon="12.807128848863334"><ele>654.4000000000001</ele><time>2026-04-12T07:29:49.999Z</time></trkpt><trkpt lat="42.13492780143863" lon="12.807262016954649"><ele>651.8000000000001</ele><time>2026-04-12T07:29:50.999Z</time></trkpt><trkpt lat="42.13498286793438" lon="12.80738032903956"><ele>649.2</ele><time>2026-04-12T07:29:51.999Z</time></trkpt><trkpt lat="42.13503887232513" lon="12.807493260540102"><ele>646.6</ele><time>2026-04-12T07:29:52.999Z</time></trkpt><trkpt lat="42.13510523640211" lon="12.807583896500391"><ele>644.0</ele><time>2026-04-12T07:29:53.999Z</time></trkpt><trkpt lat="42.135151598972094" lon="12.807671957030959"><ele>644.0</ele><time>2026-04-12T07:29:54.999Z</time></trkpt><trkpt lat="42.135203698908335" lon="12.807764066840804"><ele>644.0</ele><time>2026-04-12T07:29:55.999Z</time></trkpt><trkpt lat="42.13528809373984" lon="12.807826464991729"><ele>644.0</ele><time>2026-04-12T07:29:56.999Z</time></trkpt><trkpt lat="42.13539428455878" lon="12.807887574834536"><ele>644.0</ele><time>2026-04-12T07:29:57.999Z</time></trkpt><trkpt lat="42.135519632810514" lon="12.8079634289857"><ele>644.0</ele><time>2026-04-12T07:29:58.999Z</time></trkpt><trkpt lat="42.1356168638587" lon="12.807985098859975"><ele>636.8000000000001</ele><time>2026-04-12T07:29:59.999Z</time></trkpt><trkpt lat="42.13573292979213" lon="12.807982561761545"><ele>629.6</ele><time>2026-04-12T07:30:00.999Z</time></trkpt><trkpt lat="42.135817731095" lon="12.808005083632468"><ele>622.4</ele><time>2026-04-12T07:30:01.999Z</time></trkpt><trkpt lat="42.13592032247124" lon="12.808048254699429"><ele>615.2</ele><time>2026-04-12T07:30:02.999Z</time></trkpt><trkpt lat="42.13601667720784" lon="12.808125165100117"><ele>608.0</ele><time>2026-04-12T07:30:03.999Z</time></trkpt><trkpt lat="42.13609370423748" lon="12.808208445314833"><ele>608.0</ele><time>2026-04-12T07:30:04.999Z</time></trkpt><trkpt lat="42.136154805739864" lon="12.808284406558798"><ele>608.0</ele><time>2026-04-12T07:30:05.999Z</time></trkpt><trkpt lat="42.13619384881238" lon="12.808351329483704"><ele>608.0</ele><time>2026-04-12T07:30:06.999Z</time></trkpt><trkpt lat="42.13625740537341" lon="12.808438461878128"><ele>608.0</ele><time>2026-04-12T07:30:08.999Z</time></trkpt><trkpt lat="42.136210858866136" lon="12.808561426063541"><ele>608.0</ele><time>2026-04-12T07:30:09.999Z</time></trkpt><trkpt lat="42.13619094125714" lon="12.808641962591826"><ele>608.0</ele><time>2026-04-12T07:30:10.999Z</time></trkpt><trkpt lat="42.13616310693767" lon="12.808738496570019"><ele>608.4</ele><time>2026-04-12T07:30:12Z</time></trkpt><trkpt lat="42.13611764600724" lon="12.808852740071988"><ele>608.8</ele><time>2026-04-12T07:30:13Z</time></trkpt><trkpt lat="42.13610037471633" lon="12.808960960905859"><ele>609.2</ele><time>2026-04-12T07:30:14Z</time></trkpt><trkpt lat="42.136108870208716" lon="12.809058551030281"><ele>609.6</ele><time>2026-04-12T07:30:20Z</time></trkpt><trkpt lat="42.13611948369991" lon="12.809230258104455"><ele>610.0</ele><time>2026-04-12T07:30:24Z</time></trkpt><trkpt lat="42.13613937823926" lon="12.809348974334048"><ele>609.0</ele><time>2026-04-12T07:30:25Z</time></trkpt><trkpt lat="42.13615726654174" lon="12.809528774102208"><ele>608.0</ele><time>2026-04-12T07:30:27Z</time></trkpt><trkpt lat="42.13615556180974" lon="12.809624114052399"><ele>607.0</ele><time>2026-04-12T07:30:28Z</time></trkpt><trkpt lat="42.136131752220294" lon="12.809725157683202"><ele>606.0</ele><time>2026-04-12T07:30:29Z</time></trkpt><trkpt lat="42.13609895245453" lon="12.809822848973594"><ele>605.0</ele><time>2026-04-12T07:30:30Z</time></trkpt><trkpt lat="42.1360757489424" lon="12.809913521335028"><ele>604.0</ele><time>2026-04-12T07:30:31Z</time></trkpt><trkpt lat="42.13605826522345" lon="12.81002167399778"><ele>604.0</ele><time>2026-04-12T07:30:32Z</time></trkpt><trkpt lat="42.13603086318631" lon="12.81015793757138"><ele>604.0</ele><time>2026-04-12T07:30:33Z</time></trkpt><trkpt lat="42.13600983290497" lon="12.810315082488067"><ele>604.0</ele><time>2026-04-12T07:30:34Z</time></trkpt><trkpt lat="42.13599984936925" lon="12.810462076208"><ele>604.0</ele><time>2026-04-12T07:30:35Z</time></trkpt><trkpt lat="42.135974920087556" lon="12.810567581335789"><ele>604.0</ele><time>2026-04-12T07:30:36Z</time></trkpt><trkpt lat="42.13598532385136" lon="12.810672051561992"><ele>601.6666666666667</ele><time>2026-04-12T07:30:38Z</time></trkpt><trkpt lat="42.135970412747426" lon="12.810807142905025"><ele>599.3333333333334</ele><time>2026-04-12T07:30:41Z</time></trkpt><trkpt lat="42.1359696924537" lon="12.810899842491516"><ele>597.0</ele><time>2026-04-12T07:30:43Z</time></trkpt><trkpt lat="42.13596878488671" lon="12.811016643552302"><ele>594.6666666666666</ele><time>2026-04-12T07:30:45Z</time></trkpt><trkpt lat="42.13596789195262" lon="12.811131561021481"><ele>592.3333333333333</ele><time>2026-04-12T07:30:48Z</time></trkpt><trkpt lat="42.13595560209223" lon="12.811273305583434"><ele>590.0</ele><time>2026-04-12T07:30:50Z</time></trkpt><trkpt lat="42.13593260453963" lon="12.811365395107089"><ele>589.3333333333333</ele><time>2026-04-12T07:30:52Z</time></trkpt><trkpt lat="42.13596746801172" lon="12.811485061425333"><ele>588.6666666666666</ele><time>2026-04-12T07:30:53Z</time></trkpt><trkpt lat="42.13591900863679" lon="12.811578883855704"><ele>588.0</ele><time>2026-04-12T07:30:55Z</time></trkpt><trkpt lat="42.13593463930382" lon="12.811709618497217"><ele>587.3333333333334</ele><time>2026-04-12T07:31:01Z</time></trkpt><trkpt lat="42.135947008606145" lon="12.811803625078362"><ele>586.6666666666667</ele><time>2026-04-12T07:31:03Z</time></trkpt><trkpt lat="42.13593317752984" lon="12.811890873506568"><ele>586.0</ele><time>2026-04-12T07:31:04Z</time></trkpt><trkpt lat="42.135914678125474" lon="12.812005708621257"><ele>586.0</ele><time>2026-04-12T07:31:05Z</time></trkpt><trkpt lat="42.135911803718564" lon="12.81212360597902"><ele>586.0</ele><time>2026-04-12T07:31:06Z</time></trkpt><trkpt lat="42.13592363514771" lon="12.812227629283298"><ele>586.0</ele><time>2026-04-12T07:31:07Z</time></trkpt><trkpt lat="42.135922302181775" lon="12.812383219115125"><ele>586.0</ele><time>2026-04-12T07:31:09Z</time></trkpt><trkpt lat="42.13593087022993" lon="12.812474288221056"><ele>586.0</ele><time>2026-04-12T07:31:10Z</time></trkpt><trkpt lat="42.13595497962513" lon="12.81256765418554"><ele>586.0</ele><time>2026-04-12T07:31:11Z</time></trkpt><trkpt lat="42.135962376406695" lon="12.812670350585535"><ele>587.0</ele><time>2026-04-12T07:31:12Z</time></trkpt><trkpt lat="42.135982712936624" lon="12.812783841046183"><ele>588.0</ele><time>2026-04-12T07:31:13Z</time></trkpt><trkpt lat="42.136012496098196" lon="12.812909614135446"><ele>589.0</ele><time>2026-04-12T07:31:14Z</time></trkpt><trkpt lat="42.13602654643528" lon="12.813037699616789"><ele>590.0</ele><time>2026-04-12T07:31:15Z</time></trkpt><trkpt lat="42.13605156344463" lon="12.813160203541182"><ele>591.0</ele><time>2026-04-12T07:31:16Z</time></trkpt><trkpt lat="42.136072184469725" lon="12.81327563806758"><ele>591.0</ele><time>2026-04-12T07:31:17Z</time></trkpt><trkpt lat="42.136081667098935" lon="12.813404579094415"><ele>591.0</ele><time>2026-04-12T07:31:18Z</time></trkpt><trkpt lat="42.13609385817784" lon="12.813548858822045"><ele>591.0</ele><time>2026-04-12T07:31:19Z</time></trkpt><trkpt lat="42.136086702945676" lon="12.813710869545092"><ele>591.0</ele><time>2026-04-12T07:31:19.999Z</time></trkpt><trkpt lat="42.13606804245866" lon="12.81387989468197"><ele>590.4</ele><time>2026-04-12T07:31:20.999Z</time></trkpt><trkpt lat="42.136056993114266" lon="12.814058096678671"><ele>589.8</ele><time>2026-04-12T07:31:21.999Z</time></trkpt><trkpt lat="42.136069643199654" lon="12.814225848770096"><ele>589.1999999999999</ele><time>2026-04-12T07:31:22.999Z</time></trkpt><trkpt lat="42.136095520635244" lon="12.81434681163718"><ele>588.6</ele><time>2026-04-12T07:31:23.999Z</time></trkpt><trkpt lat="42.13613307505366" lon="12.814432233908779"><ele>588.0</ele><time>2026-04-12T07:31:24.999Z</time></trkpt><trkpt lat="42.136205540629874" lon="12.81451565955238"><ele>586.8</ele><time>2026-04-12T07:31:26.999Z</time></trkpt><trkpt lat="42.13627779202899" lon="12.814621145766877"><ele>585.5999999999999</ele><time>2026-04-12T07:31:28.999Z</time></trkpt><trkpt lat="42.136333741307816" lon="12.814690516940647"><ele>584.4000000000001</ele><time>2026-04-12T07:31:29.999Z</time></trkpt><trkpt lat="42.13632523781211" lon="12.814883074817336"><ele>583.2</ele><time>2026-04-12T07:31:31.999Z</time></trkpt><trkpt lat="42.13623575176298" lon="12.814998516850734"><ele>582.0</ele><time>2026-04-12T07:31:33.999Z</time></trkpt><trkpt lat="42.13617345041511" lon="12.815069225177407"><ele>582.0</ele><time>2026-04-12T07:31:34.999Z</time></trkpt><trkpt lat="42.13611239437226" lon="12.815142893795077"><ele>582.0</ele><time>2026-04-12T07:31:35.999Z</time></trkpt><trkpt lat="42.136034353636084" lon="12.815182887948044"><ele>582.0</ele><time>2026-04-12T07:31:36.999Z</time></trkpt><trkpt lat="42.135969911358956" lon="12.815234945711984"><ele>582.0</ele><time>2026-04-12T07:31:37.999Z</time></trkpt><trkpt lat="42.13591738599129" lon="12.815320379760031"><ele>582.0</ele><time>2026-04-12T07:31:38.999Z</time></trkpt><trkpt lat="42.135872561184684" lon="12.815441426988562"><ele>582.0</ele><time>2026-04-12T07:31:39.999Z</time></trkpt><trkpt lat="42.135814460319736" lon="12.815575089413512"><ele>581.8000000000001</ele><time>2026-04-12T07:31:40.999Z</time></trkpt><trkpt lat="42.135754792557485" lon="12.815699046597768"><ele>581.6</ele><time>2026-04-12T07:31:41.999Z</time></trkpt><trkpt lat="42.13569431043416" lon="12.815817126459855"><ele>581.4000000000001</ele><time>2026-04-12T07:31:42.999Z</time></trkpt><trkpt lat="42.135636104669935" lon="12.815946935404954"><ele>581.2</ele><time>2026-04-12T07:31:43.999Z</time></trkpt><trkpt lat="42.13556596771068" lon="12.816061915457718"><ele>581.0</ele><time>2026-04-12T07:31:44.999Z</time></trkpt><trkpt lat="42.1355074945895" lon="12.816196005663885"><ele>577.0</ele><time>2026-04-12T07:31:45.999Z</time></trkpt><trkpt lat="42.135428104613545" lon="12.81631185028353"><ele>573.0</ele><time>2026-04-12T07:31:46.999Z</time></trkpt><trkpt lat="42.13536358181804" lon="12.816437726347315"><ele>569.0</ele><time>2026-04-12T07:31:47.999Z</time></trkpt><trkpt lat="42.135324839937724" lon="12.816581309021643"><ele>565.0</ele><time>2026-04-12T07:31:48.999Z</time></trkpt><trkpt lat="42.135315673935835" lon="12.816749757865118"><ele>564.25</ele><time>2026-04-12T07:31:49.999Z</time></trkpt><trkpt lat="42.13530914292214" lon="12.816930513579447"><ele>563.5</ele><time>2026-04-12T07:31:50.999Z</time></trkpt><trkpt lat="42.13530480588762" lon="12.817095395576754"><ele>562.75</ele><time>2026-04-12T07:31:51.999Z</time></trkpt><trkpt lat="42.13526467495873" lon="12.817240520255332"><ele>562.0</ele><time>2026-04-12T07:31:52.999Z</time></trkpt><trkpt lat="42.13525398003504" lon="12.817378653366582"><ele>562.0</ele><time>2026-04-12T07:31:53.999Z</time></trkpt><trkpt lat="42.13525301127132" lon="12.817502189058295"><ele>562.0</ele><time>2026-04-12T07:31:54.999Z</time></trkpt><trkpt lat="42.135280401011336" lon="12.817600583089318"><ele>562.0</ele><time>2026-04-12T07:31:55.999Z</time></trkpt><trkpt lat="42.135328062696" lon="12.817677249838646"><ele>562.0</ele><time>2026-04-12T07:31:56.999Z</time></trkpt><trkpt lat="42.135394971725354" lon="12.817760800151687"><ele>562.0</ele><time>2026-04-12T07:31:57.999Z</time></trkpt><trkpt lat="42.13547866963349" lon="12.817833688628626"><ele>562.0</ele><time>2026-04-12T07:31:58.999Z</time></trkpt><trkpt lat="42.135562814091585" lon="12.817908520524288"><ele>560.6</ele><time>2026-04-12T07:31:59.999Z</time></trkpt><trkpt lat="42.135642365146104" lon="12.817995184091874"><ele>559.2</ele><time>2026-04-12T07:32:00.999Z</time></trkpt><trkpt lat="42.135724841967104" lon="12.818079670916427"><ele>557.8</ele><time>2026-04-12T07:32:01.999Z</time></trkpt><trkpt lat="42.135807711534206" lon="12.818142122932144"><ele>556.4</ele><time>2026-04-12T07:32:02.999Z</time></trkpt><trkpt lat="42.13590123243194" lon="12.818175669928745"><ele>555.0</ele><time>2026-04-12T07:32:03.999Z</time></trkpt><trkpt lat="42.13600050245583" lon="12.818183288175426"><ele>555.0</ele><time>2026-04-12T07:32:04.999Z</time></trkpt><trkpt lat="42.1361042706997" lon="12.818191555994161"><ele>555.0</ele><time>2026-04-12T07:32:05.999Z</time></trkpt><trkpt lat="42.136207041170294" lon="12.818211971149138"><ele>555.0</ele><time>2026-04-12T07:32:06.999Z</time></trkpt><trkpt lat="42.13631756529579" lon="12.818240930689837"><ele>555.0</ele><time>2026-04-12T07:32:07.999Z</time></trkpt><trkpt lat="42.136439486250055" lon="12.818278945320962"><ele>555.0</ele><time>2026-04-12T07:32:08.999Z</time></trkpt><trkpt lat="42.136566297111926" lon="12.818320765324236"><ele>552.75</ele><time>2026-04-12T07:32:09.999Z</time></trkpt><trkpt lat="42.136701392820555" lon="12.818363246216036"><ele>550.5</ele><time>2026-04-12T07:32:10.999Z</time></trkpt><trkpt lat="42.136830498170184" lon="12.818380225497142"><ele>548.25</ele><time>2026-04-12T07:32:11.999Z</time></trkpt><trkpt lat="42.13692565466013" lon="12.81838850132461"><ele>546.0</ele><time>2026-04-12T07:32:12.999Z</time></trkpt><trkpt lat="42.137026556348204" lon="12.818366028465755"><ele>546.0</ele><time>2026-04-12T07:32:13.999Z</time></trkpt><trkpt lat="42.13712651541311" lon="12.818351084812058"><ele>546.0</ele><time>2026-04-12T07:32:14.999Z</time></trkpt><trkpt lat="42.13723358567506" lon="12.81835186753807"><ele>546.0</ele><time>2026-04-12T07:32:15.999Z</time></trkpt><trkpt lat="42.137359365569864" lon="12.818367042800096"><ele>546.0</ele><time>2026-04-12T07:32:16.999Z</time></trkpt><trkpt lat="42.13748862915575" lon="12.818409729987723"><ele>548.6</ele><time>2026-04-12T07:32:18Z</time></trkpt><trkpt lat="42.137603527266975" lon="12.818438061279558"><ele>551.2</ele><time>2026-04-12T07:32:19Z</time></trkpt><trkpt lat="42.137709346785485" lon="12.818499451440593"><ele>553.8</ele><time>2026-04-12T07:32:20Z</time></trkpt><trkpt lat="42.137811745104464" lon="12.818557055273859"><ele>556.4</ele><time>2026-04-12T07:32:21Z</time></trkpt><trkpt lat="42.13790710186032" lon="12.818620537064726"><ele>559.0</ele><time>2026-04-12T07:32:22Z</time></trkpt><trkpt lat="42.137983965692385" lon="12.818695522208998"><ele>559.0</ele><time>2026-04-12T07:32:23Z</time></trkpt><trkpt lat="42.138052973656094" lon="12.818779873415103"><ele>559.0</ele><time>2026-04-12T07:32:24Z</time></trkpt><trkpt lat="42.13811085651515" lon="12.818859241649184"><ele>559.0</ele><time>2026-04-12T07:32:25Z</time></trkpt><trkpt lat="42.13814540256601" lon="12.818941897468008"><ele>559.0</ele><time>2026-04-12T07:32:26Z</time></trkpt><trkpt lat="42.138192706387436" lon="12.819089364310699"><ele>559.0</ele><time>2026-04-12T07:32:28Z</time></trkpt><trkpt lat="42.13819846302565" lon="12.81918424620538"><ele>559.0</ele><time>2026-04-12T07:32:29Z</time></trkpt><trkpt lat="42.138183150540165" lon="12.819302393922918"><ele>561.0</ele><time>2026-04-12T07:32:30Z</time></trkpt><trkpt lat="42.13814112916547" lon="12.819416928758665"><ele>563.0</ele><time>2026-04-12T07:32:31Z</time></trkpt><trkpt lat="42.13812249316078" lon="12.819528141160495"><ele>565.0</ele><time>2026-04-12T07:32:32Z</time></trkpt><trkpt lat="42.138148048014635" lon="12.819652701019987"><ele>567.0</ele><time>2026-04-12T07:32:33Z</time></trkpt><trkpt lat="42.13818386669583" lon="12.819804686132231"><ele>569.0</ele><time>2026-04-12T07:32:34Z</time></trkpt><trkpt lat="42.13822527082158" lon="12.819973733883483"><ele>564.5</ele><time>2026-04-12T07:32:35Z</time></trkpt><trkpt lat="42.138305723682734" lon="12.820086788413542"><ele>560.0</ele><time>2026-04-12T07:32:36Z</time></trkpt><trkpt lat="42.13835681673992" lon="12.820195655488183"><ele>555.5</ele><time>2026-04-12T07:32:37Z</time></trkpt><trkpt lat="42.13839420202349" lon="12.820290875036749"><ele>551.0</ele><time>2026-04-12T07:32:38Z</time></trkpt><trkpt lat="42.13839874318073" lon="12.820387454431849"><ele>546.5</ele><time>2026-04-12T07:32:39Z</time></trkpt><trkpt lat="42.1384051624978" lon="12.820490134877362"><ele>542.0</ele><time>2026-04-12T07:32:40Z</time></trkpt><trkpt lat="42.13842299703743" lon="12.820619222814843"><ele>542.0</ele><time>2026-04-12T07:32:41Z</time></trkpt><trkpt lat="42.13845191729075" lon="12.820714268051384"><ele>542.0</ele><time>2026-04-12T07:32:42Z</time></trkpt><trkpt lat="42.13847006944026" lon="12.820842634242476"><ele>542.0</ele><time>2026-04-12T07:32:43Z</time></trkpt><trkpt lat="42.1385268121492" lon="12.82098794872867"><ele>542.0</ele><time>2026-04-12T07:32:44Z</time></trkpt><trkpt lat="42.1386011909644" lon="12.821148064326021"><ele>542.0</ele><time>2026-04-12T07:32:45Z</time></trkpt><trkpt lat="42.138652035818716" lon="12.82129920043018"><ele>541.4</ele><time>2026-04-12T07:32:46Z</time></trkpt><trkpt lat="42.13869000224659" lon="12.821436629671402"><ele>540.8000000000001</ele><time>2026-04-12T07:32:47Z</time></trkpt><trkpt lat="42.138725244636895" lon="12.821564183678014"><ele>540.2</ele><time>2026-04-12T07:32:48Z</time></trkpt><trkpt lat="42.13876995910747" lon="12.821689877844795"><ele>539.6</ele><time>2026-04-12T07:32:49Z</time></trkpt><trkpt lat="42.13881736226018" lon="12.821820814271486"><ele>539.0</ele><time>2026-04-12T07:32:50Z</time></trkpt><trkpt lat="42.138850663050306" lon="12.821957582427764"><ele>539.0</ele><time>2026-04-12T07:32:51Z</time></trkpt><trkpt lat="42.138873455399654" lon="12.822091512890466"><ele>539.0</ele><time>2026-04-12T07:32:52Z</time></trkpt><trkpt lat="42.138872700651135" lon="12.822235895591588"><ele>539.0</ele><time>2026-04-12T07:32:53Z</time></trkpt><trkpt lat="42.13885650731812" lon="12.822380915586676"><ele>539.0</ele><time>2026-04-12T07:32:54Z</time></trkpt><trkpt lat="42.13884381721066" lon="12.822516682648649"><ele>539.0</ele><time>2026-04-12T07:32:55Z</time></trkpt><trkpt lat="42.13883640592849" lon="12.822640088639796"><ele>534.6</ele><time>2026-04-12T07:32:56Z</time></trkpt><trkpt lat="42.13882242053009" lon="12.82274413061276"><ele>530.2</ele><time>2026-04-12T07:32:57Z</time></trkpt><trkpt lat="42.13878361883018" lon="12.822844995286411"><ele>525.8000000000001</ele><time>2026-04-12T07:32:58Z</time></trkpt><trkpt lat="42.13873079286733" lon="12.822961578551858"><ele>521.4</ele><time>2026-04-12T07:32:59Z</time></trkpt><trkpt lat="42.13865541699743" lon="12.823096666667297"><ele>517.0</ele><time>2026-04-12T07:33:00Z</time></trkpt><trkpt lat="42.13857971008258" lon="12.823242744795497"><ele>517.0</ele><time>2026-04-12T07:33:01Z</time></trkpt><trkpt lat="42.13849604562986" lon="12.823387824035105"><ele>517.0</ele><time>2026-04-12T07:33:02Z</time></trkpt><trkpt lat="42.13839501482238" lon="12.823534780685808"><ele>517.0</ele><time>2026-04-12T07:33:03Z</time></trkpt><trkpt lat="42.13828489033544" lon="12.82369898265416"><ele>517.0</ele><time>2026-04-12T07:33:04Z</time></trkpt><trkpt lat="42.13817231181551" lon="12.823876731972495"><ele>518.75</ele><time>2026-04-12T07:33:05Z</time></trkpt><trkpt lat="42.13806675855458" lon="12.824043849093885"><ele>520.5</ele><time>2026-04-12T07:33:06Z</time></trkpt><trkpt lat="42.13796112641223" lon="12.824162079121916"><ele>522.25</ele><time>2026-04-12T07:33:07Z</time></trkpt><trkpt lat="42.13787188895429" lon="12.824277470126875"><ele>524.0</ele><time>2026-04-12T07:33:08Z</time></trkpt><trkpt lat="42.137788996000424" lon="12.824404847747145"><ele>522.0</ele><time>2026-04-12T07:33:09Z</time></trkpt><trkpt lat="42.13772565370114" lon="12.824511586641062"><ele>520.0</ele><time>2026-04-12T07:33:10Z</time></trkpt><trkpt lat="42.13768106979977" lon="12.824573677146383"><ele>518.0</ele><time>2026-04-12T07:33:11Z</time></trkpt><trkpt lat="42.13757534721799" lon="12.824626065272957"><ele>516.0</ele><time>2026-04-12T07:33:13Z</time></trkpt><trkpt lat="42.13750961110214" lon="12.82461717531794"><ele>514.0</ele><time>2026-04-12T07:33:14Z</time></trkpt><trkpt lat="42.1374259477529" lon="12.824601507973052"><ele>512.0</ele><time>2026-04-12T07:33:15Z</time></trkpt><trkpt lat="42.13733694079112" lon="12.824565666939337"><ele>512.0</ele><time>2026-04-12T07:33:16Z</time></trkpt><trkpt lat="42.137240234788045" lon="12.824507652929224"><ele>512.0</ele><time>2026-04-12T07:33:17Z</time></trkpt><trkpt lat="42.137135005917656" lon="12.82444916331966"><ele>512.0</ele><time>2026-04-12T07:33:18Z</time></trkpt><trkpt lat="42.13703799780163" lon="12.824406217687768"><ele>512.0</ele><time>2026-04-12T07:33:19Z</time></trkpt><trkpt lat="42.136948820985786" lon="12.824386441427988"><ele>512.0</ele><time>2026-04-12T07:33:20Z</time></trkpt><trkpt lat="42.136872416865735" lon="12.824385244629662"><ele>512.0</ele><time>2026-04-12T07:33:21Z</time></trkpt><trkpt lat="42.13680611691683" lon="12.8245359182664"><ele>512.0</ele><time>2026-04-12T07:33:23Z</time></trkpt><trkpt lat="42.136759328417035" lon="12.824673644370232"><ele>512.0</ele><time>2026-04-12T07:33:24Z</time></trkpt><trkpt lat="42.13670138682093" lon="12.824844155783435"><ele>512.0</ele><time>2026-04-12T07:33:25Z</time></trkpt><trkpt lat="42.13662769924471" lon="12.824981632858943"><ele>512.0</ele><time>2026-04-12T07:33:26Z</time></trkpt><trkpt lat="42.1365899772263" lon="12.82512758849491"><ele>512.0</ele><time>2026-04-12T07:33:26.999Z</time></trkpt><trkpt lat="42.13654522615314" lon="12.825262792010948"><ele>512.0</ele><time>2026-04-12T07:33:27.999Z</time></trkpt><trkpt lat="42.136518600817546" lon="12.825394145809971"><ele>512.0</ele><time>2026-04-12T07:33:28.999Z</time></trkpt><trkpt lat="42.13651290915619" lon="12.82554505612984"><ele>512.0</ele><time>2026-04-12T07:33:29.999Z</time></trkpt><trkpt lat="42.13649267554321" lon="12.82569978279279"><ele>510.0</ele><time>2026-04-12T07:33:30.999Z</time></trkpt><trkpt lat="42.13647794012941" lon="12.825834693031663"><ele>508.00000000000006</ele><time>2026-04-12T07:33:31.999Z</time></trkpt><trkpt lat="42.13646504214458" lon="12.825964421243947"><ele>506.00000000000006</ele><time>2026-04-12T07:33:32.999Z</time></trkpt><trkpt lat="42.136423611408674" lon="12.826071250383238"><ele>504.0</ele><time>2026-04-12T07:33:33.999Z</time></trkpt><trkpt lat="42.13634924425778" lon="12.826141640939168"><ele>502.0</ele><time>2026-04-12T07:33:34.999Z</time></trkpt><trkpt lat="42.13629090574382" lon="12.826259159621742"><ele>502.0</ele><time>2026-04-12T07:33:35.999Z</time></trkpt><trkpt lat="42.13622005705304" lon="12.826368823615596"><ele>502.0</ele><time>2026-04-12T07:33:36.999Z</time></trkpt><trkpt lat="42.13615666916944" lon="12.826476830572657"><ele>502.0</ele><time>2026-04-12T07:33:37.999Z</time></trkpt><trkpt lat="42.13608323157105" lon="12.826604626841563"><ele>502.0</ele><time>2026-04-12T07:33:38.999Z</time></trkpt><trkpt lat="42.13601173342349" lon="12.826733978539899"><ele>499.8</ele><time>2026-04-12T07:33:39.999Z</time></trkpt><trkpt lat="42.1359602069316" lon="12.82686683759005"><ele>497.6</ele><time>2026-04-12T07:33:40.999Z</time></trkpt><trkpt lat="42.13593715781105" lon="12.826985126215762"><ele>495.40000000000003</ele><time>2026-04-12T07:33:41.999Z</time></trkpt><trkpt lat="42.13593376062271" lon="12.827114327128108"><ele>493.20000000000005</ele><time>2026-04-12T07:33:42.999Z</time></trkpt><trkpt lat="42.13594091007537" lon="12.827269009493165"><ele>491.0</ele><time>2026-04-12T07:33:43.999Z</time></trkpt><trkpt lat="42.13591864406772" lon="12.827439744666183"><ele>491.0</ele><time>2026-04-12T07:33:44.999Z</time></trkpt><trkpt lat="42.13590436096134" lon="12.827596991227646"><ele>491.0</ele><time>2026-04-12T07:33:45.999Z</time></trkpt><trkpt lat="42.135881977857665" lon="12.827741094532161"><ele>491.0</ele><time>2026-04-12T07:33:46.999Z</time></trkpt><trkpt lat="42.13584850103346" lon="12.827871468205092"><ele>491.0</ele><time>2026-04-12T07:33:47.999Z</time></trkpt><trkpt lat="42.13580087339856" lon="12.827974708265048"><ele>491.0</ele><time>2026-04-12T07:33:48.999Z</time></trkpt><trkpt lat="42.13573897891737" lon="12.828073154906827"><ele>498.25</ele><time>2026-04-12T07:33:49.999Z</time></trkpt><trkpt lat="42.13566625873489" lon="12.828220523802678"><ele>505.5</ele><time>2026-04-12T07:33:50.999Z</time></trkpt><trkpt lat="42.13563702885756" lon="12.828377738160412"><ele>512.75</ele><time>2026-04-12T07:33:51.999Z</time></trkpt><trkpt lat="42.13562239749895" lon="12.82853025998062"><ele>520.0</ele><time>2026-04-12T07:33:52.999Z</time></trkpt><trkpt lat="42.135626347777865" lon="12.828674771779468"><ele>520.5</ele><time>2026-04-12T07:33:53.999Z</time></trkpt><trkpt lat="42.13560376668337" lon="12.828840745856194"><ele>521.0</ele><time>2026-04-12T07:33:54.999Z</time></trkpt><trkpt lat="42.13558469063046" lon="12.82902044784322"><ele>521.5</ele><time>2026-04-12T07:33:55.999Z</time></trkpt><trkpt lat="42.13557668391523" lon="12.82921121108749"><ele>522.0</ele><time>2026-04-12T07:33:56.999Z</time></trkpt><trkpt lat="42.135564769457055" lon="12.829405632913218"><ele>520.0</ele><time>2026-04-12T07:33:57.999Z</time></trkpt><trkpt lat="42.13555441467015" lon="12.829592370994664"><ele>518.0</ele><time>2026-04-12T07:33:58.999Z</time></trkpt><trkpt lat="42.13556305145209" lon="12.829768518341012"><ele>516.0</ele><time>2026-04-12T07:33:59.999Z</time></trkpt><trkpt lat="42.13557243037395" lon="12.829928819031762"><ele>514.0</ele><time>2026-04-12T07:34:00.999Z</time></trkpt><trkpt lat="42.13555610083651" lon="12.830070364330963"><ele>512.0</ele><time>2026-04-12T07:34:01.999Z</time></trkpt><trkpt lat="42.13554231998086" lon="12.830199336763563"><ele>510.0</ele><time>2026-04-12T07:34:02.999Z</time></trkpt><trkpt lat="42.135522433394456" lon="12.830328913563472"><ele>508.0</ele><time>2026-04-12T07:34:03.999Z</time></trkpt><trkpt lat="42.135506190675635" lon="12.83046757301188"><ele>506.0</ele><time>2026-04-12T07:34:04.999Z</time></trkpt><trkpt lat="42.13550684485497" lon="12.830599837008537"><ele>504.0</ele><time>2026-04-12T07:34:05.999Z</time></trkpt><trkpt lat="42.135457121899435" lon="12.830701581842385"><ele>504.0</ele><time>2026-04-12T07:34:06.999Z</time></trkpt><trkpt lat="42.13540743898109" lon="12.83079273746475"><ele>504.0</ele><time>2026-04-12T07:34:07.999Z</time></trkpt><trkpt lat="42.13534513715654" lon="12.83090109139674"><ele>504.0</ele><time>2026-04-12T07:34:08.999Z</time></trkpt><trkpt lat="42.13528482152752" lon="12.831025251017325"><ele>504.0</ele><time>2026-04-12T07:34:09.999Z</time></trkpt><trkpt lat="42.135233501574824" lon="12.831176449878052"><ele>504.0</ele><time>2026-04-12T07:34:10.999Z</time></trkpt><trkpt lat="42.13515425461472" lon="12.831308823071819"><ele>500.0</ele><time>2026-04-12T07:34:11.999Z</time></trkpt><trkpt lat="42.135106306468906" lon="12.831485458381275"><ele>496.0</ele><time>2026-04-12T07:34:12.999Z</time></trkpt><trkpt lat="42.135090281225786" lon="12.831668411138171"><ele>492.0</ele><time>2026-04-12T07:34:13.999Z</time></trkpt><trkpt lat="42.13506695342479" lon="12.831823905103759"><ele>488.0</ele><time>2026-04-12T07:34:14.999Z</time></trkpt><trkpt lat="42.13503478856549" lon="12.831960674034269"><ele>484.99999999999994</ele><time>2026-04-12T07:34:15.999Z</time></trkpt><trkpt lat="42.1350142665719" lon="12.832048405504473"><ele>482.0</ele><time>2026-04-12T07:34:16.999Z</time></trkpt><trkpt lat="42.13497835162747" lon="12.832183508128411"><ele>479.0</ele><time>2026-04-12T07:34:18.999Z</time></trkpt><trkpt lat="42.13491164880926" lon="12.83221112205583"><ele>476.0</ele><time>2026-04-12T07:34:19.999Z</time></trkpt><trkpt lat="42.134871672684355" lon="12.83229607041158"><ele>472.99999999999994</ele><time>2026-04-12T07:34:20.999Z</time></trkpt><trkpt lat="42.134806892120885" lon="12.832371263444786"><ele>470.0</ele><time>2026-04-12T07:34:21.999Z</time></trkpt><trkpt lat="42.13474201081472" lon="12.832477039075723"><ele>475.25</ele><time>2026-04-12T07:34:22.999Z</time></trkpt><trkpt lat="42.134663337983554" lon="12.832589832306406"><ele>480.5</ele><time>2026-04-12T07:34:24Z</time></trkpt><trkpt lat="42.134573973320954" lon="12.832742484399011"><ele>485.75</ele><time>2026-04-12T07:34:25Z</time></trkpt><trkpt lat="42.134464269618974" lon="12.832891608744976"><ele>491.0</ele><time>2026-04-12T07:34:26Z</time></trkpt><trkpt lat="42.13437011952015" lon="12.833012541839807"><ele>491.0</ele><time>2026-04-12T07:34:27Z</time></trkpt><trkpt lat="42.13429298709575" lon="12.83310266587733"><ele>491.0</ele><time>2026-04-12T07:34:28Z</time></trkpt><trkpt lat="42.13425736860515" lon="12.833240523550822"><ele>491.0</ele><time>2026-04-12T07:34:29Z</time></trkpt><trkpt lat="42.13421290490657" lon="12.833379873123176"><ele>491.0</ele><time>2026-04-12T07:34:30Z</time></trkpt><trkpt lat="42.134185543886126" lon="12.833511655928024"><ele>491.0</ele><time>2026-04-12T07:34:31Z</time></trkpt><trkpt lat="42.13418248055357" lon="12.833632406541554"><ele>487.0</ele><time>2026-04-12T07:34:32Z</time></trkpt><trkpt lat="42.13419761504329" lon="12.833759192540906"><ele>483.0</ele><time>2026-04-12T07:34:33Z</time></trkpt><trkpt lat="42.13422264302292" lon="12.833903182721624"><ele>479.0</ele><time>2026-04-12T07:34:34Z</time></trkpt><trkpt lat="42.134231538493594" lon="12.834039862909693"><ele>475.0</ele><time>2026-04-12T07:34:35Z</time></trkpt><trkpt lat="42.13421252401897" lon="12.834133254903564"><ele>471.0</ele><time>2026-04-12T07:34:36Z</time></trkpt><trkpt lat="42.134144334950086" lon="12.834192150021764"><ele>471.0</ele><time>2026-04-12T07:34:37Z</time></trkpt><trkpt lat="42.13408803519498" lon="12.834300324633837"><ele>471.0</ele><time>2026-04-12T07:34:38Z</time></trkpt><trkpt lat="42.13401824677095" lon="12.834432178233165"><ele>471.0</ele><time>2026-04-12T07:34:39Z</time></trkpt><trkpt lat="42.133967522016945" lon="12.834600096302859"><ele>471.0</ele><time>2026-04-12T07:34:40Z</time></trkpt><trkpt lat="42.133919439351075" lon="12.834769134663338"><ele>481.75</ele><time>2026-04-12T07:34:41Z</time></trkpt><trkpt lat="42.133878540616415" lon="12.83493317189435"><ele>492.5</ele><time>2026-04-12T07:34:42Z</time></trkpt><trkpt lat="42.133870526831174" lon="12.83510938815347"><ele>503.25</ele><time>2026-04-12T07:34:43Z</time></trkpt><trkpt lat="42.13385428532922" lon="12.835275393538755"><ele>514.0</ele><time>2026-04-12T07:34:44Z</time></trkpt><trkpt lat="42.13384192164772" lon="12.83545347863996"><ele>514.0</ele><time>2026-04-12T07:34:45Z</time></trkpt><trkpt lat="42.13381745349948" lon="12.83562130390521"><ele>514.0</ele><time>2026-04-12T07:34:46Z</time></trkpt><trkpt lat="42.13381920320355" lon="12.835794938268544"><ele>514.0</ele><time>2026-04-12T07:34:47Z</time></trkpt><trkpt lat="42.13377686278795" lon="12.835963711944943"><ele>514.0</ele><time>2026-04-12T07:34:48Z</time></trkpt><trkpt lat="42.13374505713901" lon="12.83610943427945"><ele>511.79999999999995</ele><time>2026-04-12T07:34:49Z</time></trkpt><trkpt lat="42.13372585163216" lon="12.836251960299402"><ele>509.59999999999997</ele><time>2026-04-12T07:34:50Z</time></trkpt><trkpt lat="42.13371994356804" lon="12.836376434337938"><ele>507.4</ele><time>2026-04-12T07:34:51Z</time></trkpt><trkpt lat="42.13373139465756" lon="12.836515230955795"><ele>505.2</ele><time>2026-04-12T07:34:52Z</time></trkpt><trkpt lat="42.133736122125455" lon="12.836670661815361"><ele>503.0</ele><time>2026-04-12T07:34:53Z</time></trkpt><trkpt lat="42.13375637814598" lon="12.836835764115419"><ele>501.25</ele><time>2026-04-12T07:34:54Z</time></trkpt><trkpt lat="42.133757253789895" lon="12.836991997801857"><ele>499.5</ele><time>2026-04-12T07:34:55Z</time></trkpt><trkpt lat="42.133756696526" lon="12.837154985455088"><ele>497.75</ele><time>2026-04-12T07:34:56Z</time></trkpt><trkpt lat="42.13377153309018" lon="12.83731804245023"><ele>496.0</ele><time>2026-04-12T07:34:57Z</time></trkpt><trkpt lat="42.13376322837579" lon="12.83746165875505"><ele>496.0</ele><time>2026-04-12T07:34:58Z</time></trkpt><trkpt lat="42.13376333637772" lon="12.837608210237036"><ele>496.0</ele><time>2026-04-12T07:34:59Z</time></trkpt><trkpt lat="42.13378689125934" lon="12.837780694864012"><ele>496.0</ele><time>2026-04-12T07:35:00Z</time></trkpt><trkpt lat="42.13383029081314" lon="12.837941923300637"><ele>496.0</ele><time>2026-04-12T07:35:01Z</time></trkpt><trkpt lat="42.13388889391326" lon="12.838065478741349"><ele>496.4</ele><time>2026-04-12T07:35:02Z</time></trkpt><trkpt lat="42.13395593820983" lon="12.838180951785624"><ele>496.8</ele><time>2026-04-12T07:35:03Z</time></trkpt><trkpt lat="42.13403392789192" lon="12.838281259052422"><ele>497.19999999999993</ele><time>2026-04-12T07:35:04Z</time></trkpt><trkpt lat="42.13407243730205" lon="12.83836620113466"><ele>497.59999999999997</ele><time>2026-04-12T07:35:05Z</time></trkpt><trkpt lat="42.13413952754955" lon="12.838458699157274"><ele>498.0</ele><time>2026-04-12T07:35:07Z</time></trkpt><trkpt lat="42.13418640164917" lon="12.838529259686824"><ele>494.79999999999995</ele><time>2026-04-12T07:35:10Z</time></trkpt><trkpt lat="42.13426415643623" lon="12.838459038655415"><ele>491.59999999999997</ele><time>2026-04-12T07:35:13Z</time></trkpt><trkpt lat="42.13429030555981" lon="12.83835038523279"><ele>488.40000000000003</ele><time>2026-04-12T07:35:15Z</time></trkpt><trkpt lat="42.13433336349602" lon="12.838153936486256"><ele>485.20000000000005</ele><time>2026-04-12T07:35:17Z</time></trkpt><trkpt lat="42.134354283981004" lon="12.838043119492355"><ele>482.0</ele><time>2026-04-12T07:35:18Z</time></trkpt><trkpt lat="42.13436712940073" lon="12.837928483267955"><ele>481.99999999999994</ele><time>2026-04-12T07:35:19Z</time></trkpt><trkpt lat="42.134368697137866" lon="12.837784116529313"><ele>482.0</ele><time>2026-04-12T07:35:20Z</time></trkpt><trkpt lat="42.134379299289556" lon="12.837657634497194"><ele>482.0</ele><time>2026-04-12T07:35:21Z</time></trkpt><trkpt lat="42.13439161089802" lon="12.837558965426082"><ele>482.0</ele><time>2026-04-12T07:35:22Z</time></trkpt><trkpt lat="42.13440777546401" lon="12.83747450454444"><ele>481.99999999999994</ele><time>2026-04-12T07:35:23Z</time></trkpt><trkpt lat="42.134462917097366" lon="12.837360718792084"><ele>482.0</ele><time>2026-04-12T07:35:25Z</time></trkpt><trkpt lat="42.13452171580059" lon="12.837214232581504"><ele>481.40000000000003</ele><time>2026-04-12T07:35:26.999Z</time></trkpt><trkpt lat="42.134556085551466" lon="12.837142381391732"><ele>480.80000000000007</ele><time>2026-04-12T07:35:27.999Z</time></trkpt><trkpt lat="42.13457422426674" lon="12.837023476704967"><ele>480.2</ele><time>2026-04-12T07:35:28.999Z</time></trkpt><trkpt lat="42.13460967337953" lon="12.83688569952317"><ele>479.6</ele><time>2026-04-12T07:35:29.999Z</time></trkpt><trkpt lat="42.1346607062952" lon="12.836718712566721"><ele>479.0</ele><time>2026-04-12T07:35:30.999Z</time></trkpt><trkpt lat="42.13467866393875" lon="12.836556279780421"><ele>478.2</ele><time>2026-04-12T07:35:31.999Z</time></trkpt><trkpt lat="42.134687332199874" lon="12.836425658613614"><ele>477.4</ele><time>2026-04-12T07:35:32.999Z</time></trkpt><trkpt lat="42.134691504055034" lon="12.836308358017098"><ele>476.6</ele><time>2026-04-12T07:35:33.999Z</time></trkpt><trkpt lat="42.13471798441154" lon="12.83621725701755"><ele>475.8</ele><time>2026-04-12T07:35:34.999Z</time></trkpt><trkpt lat="42.13478234778396" lon="12.836116038133884"><ele>475.0</ele><time>2026-04-12T07:35:35.999Z</time></trkpt><trkpt lat="42.134849385823976" lon="12.83597233528373"><ele>481.75</ele><time>2026-04-12T07:35:36.999Z</time></trkpt><trkpt lat="42.13491535797539" lon="12.835804742038835"><ele>488.5</ele><time>2026-04-12T07:35:37.999Z</time></trkpt><trkpt lat="42.13498482882413" lon="12.835618156263243"><ele>495.25</ele><time>2026-04-12T07:35:38.999Z</time></trkpt><trkpt lat="42.13503923971235" lon="12.83546596320158"><ele>502.0</ele><time>2026-04-12T07:35:39.999Z</time></trkpt><trkpt lat="42.135082021256096" lon="12.835337100634309"><ele>502.0</ele><time>2026-04-12T07:35:40.999Z</time></trkpt><trkpt lat="42.1351335042255" lon="12.835230129845657"><ele>502.00000000000006</ele><time>2026-04-12T07:35:41.999Z</time></trkpt><trkpt lat="42.13519082728999" lon="12.835130336496205"><ele>502.00000000000006</ele><time>2026-04-12T07:35:42.999Z</time></trkpt><trkpt lat="42.13525380628365" lon="12.8350337146243"><ele>502.0</ele><time>2026-04-12T07:35:43.999Z</time></trkpt><trkpt lat="42.13534128698907" lon="12.83491615815428"><ele>502.0</ele><time>2026-04-12T07:35:44.999Z</time></trkpt><trkpt lat="42.135418863525366" lon="12.834796403553657"><ele>505.83333333333337</ele><time>2026-04-12T07:35:45.999Z</time></trkpt><trkpt lat="42.135479041375646" lon="12.834698138660107"><ele>509.6666666666667</ele><time>2026-04-12T07:35:46.999Z</time></trkpt><trkpt lat="42.13551731272278" lon="12.834615349215223"><ele>513.5</ele><time>2026-04-12T07:35:47.999Z</time></trkpt><trkpt lat="42.13555824946284" lon="12.83454324678776"><ele>517.3333333333334</ele><time>2026-04-12T07:35:48.999Z</time></trkpt><trkpt lat="42.13566272757455" lon="12.834464658402128"><ele>521.1666666666666</ele><time>2026-04-12T07:35:50.999Z</time></trkpt><trkpt lat="42.13572284359257" lon="12.834428068350269"><ele>525.0</ele><time>2026-04-12T07:35:51.999Z</time></trkpt><trkpt lat="42.13579825391044" lon="12.834411627397666"><ele>525.0</ele><time>2026-04-12T07:35:52.999Z</time></trkpt><trkpt lat="42.13587125285675" lon="12.834399662115676"><ele>525.0</ele><time>2026-04-12T07:35:53.999Z</time></trkpt><trkpt lat="42.135956719563886" lon="12.83437998046787"><ele>525.0</ele><time>2026-04-12T07:35:54.999Z</time></trkpt><trkpt lat="42.13602700783417" lon="12.834340333312502"><ele>525.0</ele><time>2026-04-12T07:35:55.999Z</time></trkpt><trkpt lat="42.13611041563781" lon="12.834270504738418"><ele>525.0</ele><time>2026-04-12T07:35:56.999Z</time></trkpt><trkpt lat="42.13620824167741" lon="12.834166287329026"><ele>517.0</ele><time>2026-04-12T07:35:57.999Z</time></trkpt><trkpt lat="42.13626771291989" lon="12.834097598773354"><ele>509.0</ele><time>2026-04-12T07:35:58.999Z</time></trkpt><trkpt lat="42.136325492570734" lon="12.833975283699237"><ele>501.0</ele><time>2026-04-12T07:35:59.999Z</time></trkpt><trkpt lat="42.13638382596492" lon="12.8338576017694"><ele>493.0</ele><time>2026-04-12T07:36:00.999Z</time></trkpt><trkpt lat="42.13643521100473" lon="12.83373079068013"><ele>485.0</ele><time>2026-04-12T07:36:01.999Z</time></trkpt><trkpt lat="42.13649413998901" lon="12.833646407208883"><ele>485.6</ele><time>2026-04-12T07:36:02.999Z</time></trkpt><trkpt lat="42.136560871188706" lon="12.833549324665182"><ele>486.2</ele><time>2026-04-12T07:36:03.999Z</time></trkpt><trkpt lat="42.13663968572503" lon="12.833429062615084"><ele>486.79999999999995</ele><time>2026-04-12T07:36:04.999Z</time></trkpt><trkpt lat="42.136702249280056" lon="12.833332847494669"><ele>487.4</ele><time>2026-04-12T07:36:05.999Z</time></trkpt><trkpt lat="42.13676854356808" lon="12.833229438077634"><ele>488.0</ele><time>2026-04-12T07:36:06.999Z</time></trkpt><trkpt lat="42.136843348620104" lon="12.833088866774183"><ele>488.0</ele><time>2026-04-12T07:36:07.999Z</time></trkpt><trkpt lat="42.13691159600368" lon="12.83292259633963"><ele>488.0</ele><time>2026-04-12T07:36:08.999Z</time></trkpt><trkpt lat="42.136968086992844" lon="12.832782460274172"><ele>488.0</ele><time>2026-04-12T07:36:09.999Z</time></trkpt><trkpt lat="42.13704142056908" lon="12.832669917891495"><ele>488.0</ele><time>2026-04-12T07:36:10.999Z</time></trkpt><trkpt lat="42.137135366931254" lon="12.832540272508574"><ele>490.79999999999995</ele><time>2026-04-12T07:36:11.999Z</time></trkpt><trkpt lat="42.13721922024677" lon="12.832415161866548"><ele>493.59999999999997</ele><time>2026-04-12T07:36:12.999Z</time></trkpt><trkpt lat="42.13728671823282" lon="12.832318237212816"><ele>496.40000000000003</ele><time>2026-04-12T07:36:13.999Z</time></trkpt><trkpt lat="42.13734757724557" lon="12.832250325979823"><ele>499.20000000000005</ele><time>2026-04-12T07:36:14.999Z</time></trkpt><trkpt lat="42.13741718052622" lon="12.832218288791879"><ele>502.0</ele><time>2026-04-12T07:36:15.999Z</time></trkpt><trkpt lat="42.13748874630647" lon="12.832185250881755"><ele>502.00000000000006</ele><time>2026-04-12T07:36:16.999Z</time></trkpt><trkpt lat="42.1375782533801" lon="12.832163182150065"><ele>502.0</ele><time>2026-04-12T07:36:17.999Z</time></trkpt><trkpt lat="42.13767100008295" lon="12.832127708132049"><ele>502.0</ele><time>2026-04-12T07:36:18.999Z</time></trkpt><trkpt lat="42.13775694875743" lon="12.8320974154664"><ele>502.0</ele><time>2026-04-12T07:36:19.999Z</time></trkpt><trkpt lat="42.13781454738187" lon="12.832027288862912"><ele>502.00000000000006</ele><time>2026-04-12T07:36:20.999Z</time></trkpt><trkpt lat="42.13786749123704" lon="12.831938434196905"><ele>502.0</ele><time>2026-04-12T07:36:21.999Z</time></trkpt><trkpt lat="42.137920110418946" lon="12.831879715018433"><ele>497.33333333333337</ele><time>2026-04-12T07:36:22.999Z</time></trkpt><trkpt lat="42.13797733914837" lon="12.831800930185132"><ele>492.6666666666667</ele><time>2026-04-12T07:36:23.999Z</time></trkpt><trkpt lat="42.13804114219609" lon="12.831737915833385"><ele>488.0</ele><time>2026-04-12T07:36:24.999Z</time></trkpt><trkpt lat="42.1381030836702" lon="12.831667968691162"><ele>483.33333333333337</ele><time>2026-04-12T07:36:25.999Z</time></trkpt><trkpt lat="42.13816202692739" lon="12.831601867593198"><ele>478.6666666666667</ele><time>2026-04-12T07:36:26.999Z</time></trkpt><trkpt lat="42.138219631555984" lon="12.831544316658096"><ele>474.0</ele><time>2026-04-12T07:36:27.999Z</time></trkpt><trkpt lat="42.13827371656747" lon="12.831491209143312"><ele>474.0</ele><time>2026-04-12T07:36:28.999Z</time></trkpt><trkpt lat="42.138327491451925" lon="12.831443160915951"><ele>474.0</ele><time>2026-04-12T07:36:30Z</time></trkpt><trkpt lat="42.13843040272201" lon="12.8314262837122"><ele>474.0</ele><time>2026-04-12T07:36:32Z</time></trkpt><trkpt lat="42.13853237652743" lon="12.831466391395985"><ele>474.0</ele><time>2026-04-12T07:36:35Z</time></trkpt><trkpt lat="42.138604308732035" lon="12.831553562564563"><ele>474.0</ele><time>2026-04-12T07:36:40Z</time></trkpt><trkpt lat="42.13863338099232" lon="12.831665673426606"><ele>474.0</ele><time>2026-04-12T07:36:41Z</time></trkpt><trkpt lat="42.13868821312669" lon="12.831784691404366"><ele>474.0</ele><time>2026-04-12T07:36:42Z</time></trkpt><trkpt lat="42.138769411559245" lon="12.831878159962747"><ele>474.0</ele><time>2026-04-12T07:36:43Z</time></trkpt><trkpt lat="42.13882400074852" lon="12.831952006705805"><ele>474.0</ele><time>2026-04-12T07:36:44Z</time></trkpt><trkpt lat="42.138867687778756" lon="12.832028784595233"><ele>474.0</ele><time>2026-04-12T07:36:45Z</time></trkpt><trkpt lat="42.13896967752209" lon="12.832143167416657"><ele>481.4</ele><time>2026-04-12T07:36:47Z</time></trkpt><trkpt lat="42.13904441301488" lon="12.832154152765154"><ele>488.79999999999995</ele><time>2026-04-12T07:36:48Z</time></trkpt><trkpt lat="42.139133540442415" lon="12.83217519472665"><ele>496.20000000000005</ele><time>2026-04-12T07:36:49Z</time></trkpt><trkpt lat="42.139239932715455" lon="12.83216521841542"><ele>503.6</ele><time>2026-04-12T07:36:51Z</time></trkpt><trkpt lat="42.13936323670511" lon="12.832134522273451"><ele>511.0</ele><time>2026-04-12T07:36:53Z</time></trkpt><trkpt lat="42.13948449410221" lon="12.832068541757907"><ele>511.00000000000006</ele><time>2026-04-12T07:36:55Z</time></trkpt><trkpt lat="42.13954176430159" lon="12.832023798489855"><ele>511.0</ele><time>2026-04-12T07:36:56Z</time></trkpt><trkpt lat="42.139618473947884" lon="12.831944034982126"><ele>511.0</ele><time>2026-04-12T07:36:58Z</time></trkpt><trkpt lat="42.13968236748561" lon="12.831888864477264"><ele>511.0</ele><time>2026-04-12T07:37:00Z</time></trkpt><trkpt lat="42.13974174250854" lon="12.83182313861118"><ele>511.00000000000006</ele><time>2026-04-12T07:37:02Z</time></trkpt><trkpt lat="42.13982905408942" lon="12.831789577653048"><ele>511.0</ele><time>2026-04-12T07:37:04Z</time></trkpt><trkpt lat="42.13989805234678" lon="12.831767127026286"><ele>504.20000000000005</ele><time>2026-04-12T07:37:06Z</time></trkpt><trkpt lat="42.13999821086828" lon="12.831768608482314"><ele>497.40000000000003</ele><time>2026-04-12T07:37:08Z</time></trkpt><trkpt lat="42.14007388450498" lon="12.831709054203596"><ele>490.6</ele><time>2026-04-12T07:37:10Z</time></trkpt><trkpt lat="42.140181118385904" lon="12.831695744250933"><ele>483.8</ele><time>2026-04-12T07:37:12Z</time></trkpt><trkpt lat="42.14026361700241" lon="12.831669499568426"><ele>477.0</ele><time>2026-04-12T07:37:13Z</time></trkpt><trkpt lat="42.14033385226042" lon="12.831644287068315"><ele>477.0</ele><time>2026-04-12T07:37:14Z</time></trkpt><trkpt lat="42.14046037700349" lon="12.831627441537195"><ele>477.00000000000006</ele><time>2026-04-12T07:37:16Z</time></trkpt><trkpt lat="42.14052754484874" lon="12.831602744343781"><ele>477.00000000000006</ele><time>2026-04-12T07:37:17Z</time></trkpt><trkpt lat="42.14060013526975" lon="12.83157688380528"><ele>477.0</ele><time>2026-04-12T07:37:18Z</time></trkpt><trkpt lat="42.14069574809406" lon="12.831526115156374"><ele>477.0</ele><time>2026-04-12T07:37:20Z</time></trkpt><trkpt lat="42.14079481485753" lon="12.831531431330351"><ele>480.20000000000005</ele><time>2026-04-12T07:37:22Z</time></trkpt><trkpt lat="42.1408698233036" lon="12.83147737925869"><ele>483.40000000000003</ele><time>2026-04-12T07:37:24Z</time></trkpt><trkpt lat="42.14090837452606" lon="12.831318256721897"><ele>486.59999999999997</ele><time>2026-04-12T07:37:26Z</time></trkpt><trkpt lat="42.1409184955213" lon="12.83122312491007"><ele>489.79999999999995</ele><time>2026-04-12T07:37:27Z</time></trkpt><trkpt lat="42.14097285792104" lon="12.831148372858642"><ele>493.0</ele><time>2026-04-12T07:37:28.999Z</time></trkpt><trkpt lat="42.14104951867567" lon="12.831078871427163"><ele>493.00000000000006</ele><time>2026-04-12T07:37:30.999Z</time></trkpt><trkpt lat="42.14116116938999" lon="12.831009068754007"><ele>493.0</ele><time>2026-04-12T07:37:32.999Z</time></trkpt><trkpt lat="42.141236849395874" lon="12.830973347450605"><ele>493.0</ele><time>2026-04-12T07:37:33.999Z</time></trkpt><trkpt lat="42.14133139240875" lon="12.830958184342304"><ele>493.0</ele><time>2026-04-12T07:37:34.999Z</time></trkpt><trkpt lat="42.14140723830072" lon="12.83093324128486"><ele>493.00000000000006</ele><time>2026-04-12T07:37:35.999Z</time></trkpt><trkpt lat="42.14146486913468" lon="12.830889245905686"><ele>493.0</ele><time>2026-04-12T07:37:36.999Z</time></trkpt><trkpt lat="42.14154831827963" lon="12.830835445216678"><ele>492.1666666666667</ele><time>2026-04-12T07:37:38.999Z</time></trkpt><trkpt lat="42.14159669192167" lon="12.830742988601276"><ele>491.33333333333337</ele><time>2026-04-12T07:37:39.999Z</time></trkpt><trkpt lat="42.14166472860988" lon="12.830686869784865"><ele>490.5</ele><time>2026-04-12T07:37:40.999Z</time></trkpt><trkpt lat="42.14171673678389" lon="12.83062379269113"><ele>489.66666666666663</ele><time>2026-04-12T07:37:41.999Z</time></trkpt><trkpt lat="42.14181378336234" lon="12.830559863599014"><ele>488.8333333333333</ele><time>2026-04-12T07:37:43.999Z</time></trkpt><trkpt lat="42.14189972868216" lon="12.830532064757625"><ele>488.0</ele><time>2026-04-12T07:37:45.999Z</time></trkpt><trkpt lat="42.14203248200934" lon="12.830533594233675"><ele>488.0</ele><time>2026-04-12T07:37:47.999Z</time></trkpt><trkpt lat="42.14215031604998" lon="12.83056541919579"><ele>488.0</ele><time>2026-04-12T07:37:49.999Z</time></trkpt><trkpt lat="42.14229402039526" lon="12.830562283027561"><ele>488.0</ele><time>2026-04-12T07:37:51.999Z</time></trkpt><trkpt lat="42.142421083304" lon="12.830508823426985"><ele>488.0</ele><time>2026-04-12T07:37:53.999Z</time></trkpt><trkpt lat="42.142493603183574" lon="12.830436994459092"><ele>489.3333333333333</ele><time>2026-04-12T07:37:54.999Z</time></trkpt><trkpt lat="42.14256148811772" lon="12.830392149503906"><ele>490.66666666666663</ele><time>2026-04-12T07:37:55.999Z</time></trkpt><trkpt lat="42.142626725719" lon="12.830317518036663"><ele>492.0</ele><time>2026-04-12T07:37:56.999Z</time></trkpt><trkpt lat="42.14269278341742" lon="12.83025547076081"><ele>493.33333333333337</ele><time>2026-04-12T07:37:57.999Z</time></trkpt><trkpt lat="42.14274932647351" lon="12.830199338181282"><ele>494.6666666666667</ele><time>2026-04-12T07:37:58.999Z</time></trkpt><trkpt lat="42.14280915568317" lon="12.830172686759012"><ele>496.0</ele><time>2026-04-12T07:37:59.999Z</time></trkpt><trkpt lat="42.14287714492017" lon="12.830130216478764"><ele>495.4</ele><time>2026-04-12T07:38:00.999Z</time></trkpt><trkpt lat="42.14295951896621" lon="12.83008917765122"><ele>494.8</ele><time>2026-04-12T07:38:01.999Z</time></trkpt><trkpt lat="42.14305152548447" lon="12.83005351164912"><ele>494.19999999999993</ele><time>2026-04-12T07:38:02.999Z</time></trkpt><trkpt lat="42.143116333290045" lon="12.82997182910898"><ele>493.59999999999997</ele><time>2026-04-12T07:38:03.999Z</time></trkpt><trkpt lat="42.143223631516456" lon="12.829887478231756"><ele>493.0</ele><time>2026-04-12T07:38:05.999Z</time></trkpt><trkpt lat="42.14329520044522" lon="12.829841467246634"><ele>493.0</ele><time>2026-04-12T07:38:06.999Z</time></trkpt><trkpt lat="42.143364589806865" lon="12.82980135816922"><ele>492.99999999999994</ele><time>2026-04-12T07:38:07.999Z</time></trkpt><trkpt lat="42.14346073074951" lon="12.829748344525479"><ele>492.99999999999994</ele><time>2026-04-12T07:38:09.999Z</time></trkpt><trkpt lat="42.143525694759546" lon="12.829708449449692"><ele>493.0</ele><time>2026-04-12T07:38:10.999Z</time></trkpt><trkpt lat="42.14362855051461" lon="12.82965543595332"><ele>493.0</ele><time>2026-04-12T07:38:12.999Z</time></trkpt><trkpt lat="42.143648620967284" lon="12.829512959726362"><ele>493.00000000000006</ele><time>2026-04-12T07:38:14.999Z</time></trkpt><trkpt lat="42.14364898134675" lon="12.829416876473827"><ele>493.0</ele><time>2026-04-12T07:38:15.999Z</time></trkpt><trkpt lat="42.14364733723043" lon="12.829315563830423"><ele>493.0</ele><time>2026-04-12T07:38:16.999Z</time></trkpt><trkpt lat="42.143645735599904" lon="12.829204058877131"><ele>493.0</ele><time>2026-04-12T07:38:17.999Z</time></trkpt><trkpt lat="42.14363474099409" lon="12.829085146934716"><ele>493.00000000000006</ele><time>2026-04-12T07:38:18.999Z</time></trkpt><trkpt lat="42.14361934962273" lon="12.828977635502957"><ele>493.0</ele><time>2026-04-12T07:38:19.999Z</time></trkpt><trkpt lat="42.14360740626057" lon="12.82888995927585"><ele>488.33333333333337</ele><time>2026-04-12T07:38:20.999Z</time></trkpt><trkpt lat="42.143613445552774" lon="12.828803078791244"><ele>483.6666666666667</ele><time>2026-04-12T07:38:50Z</time></trkpt><trkpt lat="42.143586004654864" lon="12.828689255368525"><ele>479.0</ele><time>2026-04-12T07:40:34.999Z</time></trkpt><trkpt lat="42.14358956612278" lon="12.82860185670701"><ele>474.33333333333337</ele><time>2026-04-12T07:41:19Z</time></trkpt><trkpt lat="42.14358189763779" lon="12.828508965176558"><ele>469.6666666666667</ele><time>2026-04-12T07:41:36.999Z</time></trkpt><trkpt lat="42.1436371863218" lon="12.82841414906993"><ele>465.0</ele><time>2026-04-12T07:41:40.999Z</time></trkpt><trkpt lat="42.14368671137233" lon="12.828311295477478"><ele>462.5</ele><time>2026-04-12T07:41:42.999Z</time></trkpt><trkpt lat="42.14374016768062" lon="12.828259652548072"><ele>460.0</ele><time>2026-04-12T07:41:44.999Z</time></trkpt><trkpt lat="42.14365820956892" lon="12.828242264108107"><ele>457.5</ele><time>2026-04-12T07:41:51.999Z</time></trkpt><trkpt lat="42.14357268005026" lon="12.828234614612033"><ele>455.0</ele><time>2026-04-12T07:41:53.999Z</time></trkpt><trkpt lat="42.143621982615734" lon="12.828147183064925"><ele>452.5</ele><time>2026-04-12T07:41:57.999Z</time></trkpt><trkpt lat="42.14369069567766" lon="12.828099543623416"><ele>450.0</ele><time>2026-04-12T07:44:51.999Z</time></trkpt><trkpt lat="42.14379125400742" lon="12.828077416605602"><ele>450.0</ele><time>2026-04-12T07:44:54Z</time></trkpt><trkpt lat="42.14387059892271" lon="12.828049925893163"><ele>450.0</ele><time>2026-04-12T07:44:55Z</time></trkpt><trkpt lat="42.14394158578576" lon="12.828001598232891"><ele>450.0</ele><time>2026-04-12T07:44:56Z</time></trkpt><trkpt lat="42.14398044231723" lon="12.827912126270691"><ele>450.0</ele><time>2026-04-12T07:44:57Z</time></trkpt><trkpt lat="42.144008993873484" lon="12.827793136529959"><ele>450.0</ele><time>2026-04-12T07:44:58Z</time></trkpt><trkpt lat="42.14406486787471" lon="12.827690845777553"><ele>450.0</ele><time>2026-04-12T07:44:59Z</time></trkpt><trkpt lat="42.14413210813263" lon="12.8275956394625"><ele>450.4</ele><time>2026-04-12T07:45:00Z</time></trkpt><trkpt lat="42.144203904584515" lon="12.827496434111303"><ele>450.8</ele><time>2026-04-12T07:45:01Z</time></trkpt><trkpt lat="42.1442796497172" lon="12.82740612363579"><ele>451.20000000000005</ele><time>2026-04-12T07:45:02Z</time></trkpt><trkpt lat="42.14437720419133" lon="12.827298786744372"><ele>451.6</ele><time>2026-04-12T07:45:03Z</time></trkpt><trkpt lat="42.14446476238825" lon="12.827219128081127"><ele>452.0</ele><time>2026-04-12T07:45:04Z</time></trkpt><trkpt lat="42.144521303296564" lon="12.827159000099607"><ele>452.0</ele><time>2026-04-12T07:45:05Z</time></trkpt><trkpt lat="42.14458438801461" lon="12.827103364089517"><ele>452.00000000000006</ele><time>2026-04-12T07:45:06Z</time></trkpt><trkpt lat="42.144671318836224" lon="12.827021867245945"><ele>452.00000000000006</ele><time>2026-04-12T07:45:07Z</time></trkpt><trkpt lat="42.14478360950353" lon="12.826947311657163"><ele>452.0</ele><time>2026-04-12T07:45:08Z</time></trkpt><trkpt lat="42.1449033585874" lon="12.82689746199594"><ele>452.0</ele><time>2026-04-12T07:45:09Z</time></trkpt><trkpt lat="42.14502795863044" lon="12.82680506969249"><ele>451.20000000000005</ele><time>2026-04-12T07:45:10Z</time></trkpt><trkpt lat="42.145136579975656" lon="12.826737669447636"><ele>450.40000000000003</ele><time>2026-04-12T07:45:11Z</time></trkpt><trkpt lat="42.14521193846281" lon="12.82667185347982"><ele>449.59999999999997</ele><time>2026-04-12T07:45:12Z</time></trkpt><trkpt lat="42.145297084236354" lon="12.826574903612494"><ele>448.79999999999995</ele><time>2026-04-12T07:45:13Z</time></trkpt><trkpt lat="42.14538600057872" lon="12.826492347020586"><ele>448.0</ele><time>2026-04-12T07:45:14Z</time></trkpt><trkpt lat="42.14545368683673" lon="12.82641578499986"><ele>448.0</ele><time>2026-04-12T07:45:15Z</time></trkpt><trkpt lat="42.14548776496021" lon="12.826326192418742"><ele>447.99999999999994</ele><time>2026-04-12T07:45:16Z</time></trkpt><trkpt lat="42.14551098187767" lon="12.82622586585097"><ele>447.99999999999994</ele><time>2026-04-12T07:45:17Z</time></trkpt><trkpt lat="42.145546650854975" lon="12.826097338503786"><ele>448.0</ele><time>2026-04-12T07:45:18Z</time></trkpt><trkpt lat="42.145594259457745" lon="12.825957143719176"><ele>448.0</ele><time>2026-04-12T07:45:19Z</time></trkpt><trkpt lat="42.14562719248193" lon="12.825801455579658"><ele>445.0</ele><time>2026-04-12T07:45:20Z</time></trkpt><trkpt lat="42.14565254656506" lon="12.825648459355383"><ele>441.99999999999994</ele><time>2026-04-12T07:45:21Z</time></trkpt><trkpt lat="42.14567495494304" lon="12.825499701121721"><ele>438.99999999999994</ele><time>2026-04-12T07:45:22Z</time></trkpt><trkpt lat="42.14569119432536" lon="12.825377114077767"><ele>436.0</ele><time>2026-04-12T07:45:23Z</time></trkpt><trkpt lat="42.14572259094053" lon="12.825235819355148"><ele>433.0</ele><time>2026-04-12T07:45:25Z</time></trkpt><trkpt lat="42.14578873620879" lon="12.825266100066854"><ele>433.0</ele><time>2026-04-12T07:45:28Z</time></trkpt><trkpt lat="42.14589189428844" lon="12.825415604966794"><ele>433.0</ele><time>2026-04-12T07:45:30Z</time></trkpt><trkpt lat="42.14597502074634" lon="12.825518854500197"><ele>433.0</ele><time>2026-04-12T07:45:31Z</time></trkpt><trkpt lat="42.14607596477405" lon="12.825615523933424"><ele>433.0</ele><time>2026-04-12T07:45:32Z</time></trkpt><trkpt lat="42.14620622150167" lon="12.82571259394216"><ele>433.0</ele><time>2026-04-12T07:45:33Z</time></trkpt><trkpt lat="42.14634360410922" lon="12.825840399799487"><ele>433.0</ele><time>2026-04-12T07:45:34Z</time></trkpt><trkpt lat="42.14647599789784" lon="12.825982235360314"><ele>433.0</ele><time>2026-04-12T07:45:35Z</time></trkpt><trkpt lat="42.14659247205076" lon="12.826114925596785"><ele>436.5</ele><time>2026-04-12T07:45:36Z</time></trkpt><trkpt lat="42.14668679579766" lon="12.826251450729016"><ele>440.0</ele><time>2026-04-12T07:45:37Z</time></trkpt><trkpt lat="42.1467650337079" lon="12.826400407402083"><ele>443.5</ele><time>2026-04-12T07:45:38Z</time></trkpt><trkpt lat="42.14686524524227" lon="12.826526004975657"><ele>447.0</ele><time>2026-04-12T07:45:39Z</time></trkpt><trkpt lat="42.146976580217846" lon="12.826624441348656"><ele>447.0</ele><time>2026-04-12T07:45:40Z</time></trkpt><trkpt lat="42.14708394652864" lon="12.82671808758176"><ele>447.0</ele><time>2026-04-12T07:45:41Z</time></trkpt><trkpt lat="42.14718259496601" lon="12.826807420281622"><ele>447.0</ele><time>2026-04-12T07:45:42Z</time></trkpt><trkpt lat="42.14727653504223" lon="12.826890129829858"><ele>447.0</ele><time>2026-04-12T07:45:43Z</time></trkpt><trkpt lat="42.14735813459358" lon="12.826968961385292"><ele>447.40000000000003</ele><time>2026-04-12T07:45:43.999Z</time></trkpt><trkpt lat="42.147428451126316" lon="12.827049821991903"><ele>447.80000000000007</ele><time>2026-04-12T07:45:44.999Z</time></trkpt><trkpt lat="42.147477325958945" lon="12.827123075646996"><ele>448.2</ele><time>2026-04-12T07:45:45.999Z</time></trkpt><trkpt lat="42.14750025566318" lon="12.827275540272636"><ele>448.6</ele><time>2026-04-12T07:45:47.999Z</time></trkpt><trkpt lat="42.14747954525187" lon="12.827377777194219"><ele>449.0</ele><time>2026-04-12T07:45:48.999Z</time></trkpt><trkpt lat="42.14744730807316" lon="12.827491730141595"><ele>449.0</ele><time>2026-04-12T07:45:49.999Z</time></trkpt><trkpt lat="42.14740632904349" lon="12.82763951497764"><ele>449.0</ele><time>2026-04-12T07:45:50.999Z</time></trkpt><trkpt lat="42.147380092522134" lon="12.827799011341725"><ele>449.0</ele><time>2026-04-12T07:45:51.999Z</time></trkpt><trkpt lat="42.147321115401" lon="12.827954866107406"><ele>449.0</ele><time>2026-04-12T07:45:52.999Z</time></trkpt><trkpt lat="42.147279686505755" lon="12.828101960139424"><ele>456.75</ele><time>2026-04-12T07:45:53.999Z</time></trkpt><trkpt lat="42.14722758188247" lon="12.82825756112"><ele>464.5</ele><time>2026-04-12T07:45:54.999Z</time></trkpt><trkpt lat="42.147161637444796" lon="12.828418668586576"><ele>472.25</ele><time>2026-04-12T07:45:55.999Z</time></trkpt><trkpt lat="42.14712745819949" lon="12.828593263787193"><ele>480.0</ele><time>2026-04-12T07:45:56.999Z</time></trkpt><trkpt lat="42.147094068559525" lon="12.82875292328407"><ele>480.0</ele><time>2026-04-12T07:45:57.999Z</time></trkpt><trkpt lat="42.14704487375347" lon="12.828897177081988"><ele>480.0</ele><time>2026-04-12T07:45:58.999Z</time></trkpt><trkpt lat="42.14700879399136" lon="12.829040551469644"><ele>480.0</ele><time>2026-04-12T07:45:59.999Z</time></trkpt><trkpt lat="42.146974422496356" lon="12.829189679446138"><ele>480.0</ele><time>2026-04-12T07:46:00.999Z</time></trkpt><trkpt lat="42.146943057463226" lon="12.829329193839223"><ele>480.2</ele><time>2026-04-12T07:46:01.999Z</time></trkpt><trkpt lat="42.146941662094356" lon="12.829480859561144"><ele>480.4</ele><time>2026-04-12T07:46:02.999Z</time></trkpt><trkpt lat="42.14696007340322" lon="12.829627013569937"><ele>480.6</ele><time>2026-04-12T07:46:03.999Z</time></trkpt><trkpt lat="42.14698001042771" lon="12.829765607643061"><ele>480.8</ele><time>2026-04-12T07:46:04.999Z</time></trkpt><trkpt lat="42.14699132267326" lon="12.829908530310172"><ele>481.0</ele><time>2026-04-12T07:46:05.999Z</time></trkpt><trkpt lat="42.146995654952825" lon="12.830056562855546"><ele>483.6</ele><time>2026-04-12T07:46:06.999Z</time></trkpt><trkpt lat="42.14701489342836" lon="12.830176891391634"><ele>486.20000000000005</ele><time>2026-04-12T07:46:07.999Z</time></trkpt><trkpt lat="42.147071388183235" lon="12.830269595045976"><ele>488.79999999999995</ele><time>2026-04-12T07:46:08.999Z</time></trkpt><trkpt lat="42.147147896064396" lon="12.830329000456516"><ele>491.4</ele><time>2026-04-12T07:46:09.999Z</time></trkpt><trkpt lat="42.147238210605835" lon="12.830366413263217"><ele>494.0</ele><time>2026-04-12T07:46:10.999Z</time></trkpt><trkpt lat="42.147334959449516" lon="12.830409668254225"><ele>493.16666666666663</ele><time>2026-04-12T07:46:11.999Z</time></trkpt><trkpt lat="42.147424542135035" lon="12.830445068402508"><ele>492.3333333333333</ele><time>2026-04-12T07:46:12.999Z</time></trkpt><trkpt lat="42.1475039839481" lon="12.830474775351805"><ele>491.5</ele><time>2026-04-12T07:46:13.999Z</time></trkpt><trkpt lat="42.147573291123514" lon="12.83051710308845"><ele>490.66666666666663</ele><time>2026-04-12T07:46:14.999Z</time></trkpt><trkpt lat="42.14763714002475" lon="12.830534907188852"><ele>489.8333333333333</ele><time>2026-04-12T07:46:15.999Z</time></trkpt><trkpt lat="42.147676289326895" lon="12.830656951491767"><ele>489.0</ele><time>2026-04-12T07:46:16.999Z</time></trkpt><trkpt lat="42.14774355159464" lon="12.830736004415762"><ele>489.0</ele><time>2026-04-12T07:46:17.999Z</time></trkpt><trkpt lat="42.14780178007756" lon="12.83082786400058"><ele>489.0</ele><time>2026-04-12T07:46:18.999Z</time></trkpt><trkpt lat="42.147869617829464" lon="12.83090895417149"><ele>489.0</ele><time>2026-04-12T07:46:19.999Z</time></trkpt><trkpt lat="42.14794240324887" lon="12.830985939374528"><ele>489.0</ele><time>2026-04-12T07:46:20.999Z</time></trkpt><trkpt lat="42.14801567715277" lon="12.831061669441022"><ele>489.0</ele><time>2026-04-12T07:46:21.999Z</time></trkpt><trkpt lat="42.14807799565193" lon="12.831152530644726"><ele>491.6</ele><time>2026-04-12T07:46:22.999Z</time></trkpt><trkpt lat="42.14813046733128" lon="12.83126799975013"><ele>494.2</ele><time>2026-04-12T07:46:23.999Z</time></trkpt><trkpt lat="42.148168597152974" lon="12.831400768978282"><ele>496.80000000000007</ele><time>2026-04-12T07:46:24.999Z</time></trkpt><trkpt lat="42.14820949630539" lon="12.831507948303"><ele>499.40000000000003</ele><time>2026-04-12T07:46:25.999Z</time></trkpt><trkpt lat="42.14827783592258" lon="12.831630827030722"><ele>502.0</ele><time>2026-04-12T07:46:26.999Z</time></trkpt><trkpt lat="42.1483466037227" lon="12.831748880084495"><ele>501.99999999999994</ele><time>2026-04-12T07:46:27.999Z</time></trkpt><trkpt lat="42.14841318076368" lon="12.831803663119564"><ele>502.0</ele><time>2026-04-12T07:46:28.999Z</time></trkpt><trkpt lat="42.14848187032797" lon="12.83183676738261"><ele>501.99999999999994</ele><time>2026-04-12T07:46:29.999Z</time></trkpt><trkpt lat="42.148525529676654" lon="12.83190080006323"><ele>501.99999999999994</ele><time>2026-04-12T07:46:30.999Z</time></trkpt><trkpt lat="42.14852860704879" lon="12.83199335674025"><ele>502.0</ele><time>2026-04-12T07:46:31.999Z</time></trkpt><trkpt lat="42.148540818366165" lon="12.832086520836341"><ele>501.99999999999994</ele><time>2026-04-12T07:46:32.999Z</time></trkpt><trkpt lat="42.14856311504914" lon="12.832188464949976"><ele>501.99999999999994</ele><time>2026-04-12T07:46:33.999Z</time></trkpt><trkpt lat="42.14859848736311" lon="12.832289365835303"><ele>508.0</ele><time>2026-04-12T07:46:34.999Z</time></trkpt><trkpt lat="42.14865061456926" lon="12.83237593218284"><ele>514.0</ele><time>2026-04-12T07:46:35.999Z</time></trkpt><trkpt lat="42.1487052652386" lon="12.83246083758203"><ele>520.0</ele><time>2026-04-12T07:46:36.999Z</time></trkpt><trkpt lat="42.14876936062435" lon="12.832572636767487"><ele>526.0</ele><time>2026-04-12T07:46:37.999Z</time></trkpt><trkpt lat="42.148827190531044" lon="12.832679381740594"><ele>532.0</ele><time>2026-04-12T07:46:38.999Z</time></trkpt><trkpt lat="42.14886178509506" lon="12.832790897586248"><ele>537.0</ele><time>2026-04-12T07:46:39.999Z</time></trkpt><trkpt lat="42.14887488651073" lon="12.832914868830585"><ele>542.0</ele><time>2026-04-12T07:46:40.999Z</time></trkpt><trkpt lat="42.14891481284022" lon="12.833056849747852"><ele>547.0</ele><time>2026-04-12T07:46:41.999Z</time></trkpt><trkpt lat="42.148963105826674" lon="12.833180572742313"><ele>552.0</ele><time>2026-04-12T07:46:42.999Z</time></trkpt><trkpt lat="42.14895485204662" lon="12.833317533862822"><ele>557.0</ele><time>2026-04-12T07:46:43.999Z</time></trkpt><trkpt lat="42.148970433113" lon="12.833457536387412"><ele>561.2</ele><time>2026-04-12T07:46:44.999Z</time></trkpt><trkpt lat="42.148974619048296" lon="12.833600194967993"><ele>565.4000000000001</ele><time>2026-04-12T07:46:45.999Z</time></trkpt><trkpt lat="42.14897701678063" lon="12.833743443045345"><ele>569.5999999999999</ele><time>2026-04-12T07:46:46.999Z</time></trkpt><trkpt lat="42.14896947439359" lon="12.833894000184419"><ele>573.8</ele><time>2026-04-12T07:46:47.999Z</time></trkpt><trkpt lat="42.14897250548499" lon="12.83405929627693"><ele>578.0</ele><time>2026-04-12T07:46:48.999Z</time></trkpt><trkpt lat="42.14897062101124" lon="12.834200836914944"><ele>582.5</ele><time>2026-04-12T07:46:49.999Z</time></trkpt><trkpt lat="42.14897839590316" lon="12.834355028916182"><ele>587.0</ele><time>2026-04-12T07:46:50.999Z</time></trkpt><trkpt lat="42.149008444826045" lon="12.834505598742556"><ele>591.5</ele><time>2026-04-12T07:46:51.999Z</time></trkpt><trkpt lat="42.14902377128391" lon="12.834661432642692"><ele>596.0</ele><time>2026-04-12T07:46:52.999Z</time></trkpt><trkpt lat="42.14906048301565" lon="12.834803975389152"><ele>587.4</ele><time>2026-04-12T07:46:53.999Z</time></trkpt><trkpt lat="42.14911626870216" lon="12.83494348221405"><ele>578.8</ele><time>2026-04-12T07:46:54.999Z</time></trkpt><trkpt lat="42.149182177666376" lon="12.835081358386262"><ele>570.1999999999999</ele><time>2026-04-12T07:46:55.999Z</time></trkpt><trkpt lat="42.149218076498" lon="12.835195545932269"><ele>561.6</ele><time>2026-04-12T07:46:56.999Z</time></trkpt><trkpt lat="42.149292770333645" lon="12.835257228986663"><ele>553.0</ele><time>2026-04-12T07:46:58Z</time></trkpt><trkpt lat="42.14938357190746" lon="12.835323296029259"><ele>553.0</ele><time>2026-04-12T07:46:59Z</time></trkpt><trkpt lat="42.14947027461175" lon="12.835420858330467"><ele>553.0</ele><time>2026-04-12T07:47:00Z</time></trkpt><trkpt lat="42.14953572067558" lon="12.835481225631936"><ele>553.0</ele><time>2026-04-12T07:47:01Z</time></trkpt><trkpt lat="42.14960121869227" lon="12.835534180381645"><ele>553.0</ele><time>2026-04-12T07:47:02Z</time></trkpt><trkpt lat="42.149691864576226" lon="12.835602384556758"><ele>553.0</ele><time>2026-04-12T07:47:03Z</time></trkpt><trkpt lat="42.149794225241386" lon="12.835677534032381"><ele>553.0</ele><time>2026-04-12T07:47:04Z</time></trkpt><trkpt lat="42.1498448238439" lon="12.835765147322782"><ele>553.0</ele><time>2026-04-12T07:47:05Z</time></trkpt><trkpt lat="42.149896058258115" lon="12.83587731272403"><ele>553.0</ele><time>2026-04-12T07:47:07Z</time></trkpt><trkpt lat="42.14996828317532" lon="12.835982225377569"><ele>553.0</ele><time>2026-04-12T07:47:08Z</time></trkpt><trkpt lat="42.150052213395725" lon="12.83610989239353"><ele>553.0</ele><time>2026-04-12T07:47:09Z</time></trkpt><trkpt lat="42.15010586809162" lon="12.836260539690434"><ele>553.0</ele><time>2026-04-12T07:47:10Z</time></trkpt><trkpt lat="42.15017026106805" lon="12.836398865855843"><ele>553.0</ele><time>2026-04-12T07:47:11Z</time></trkpt><trkpt lat="42.15023836923608" lon="12.836520610566017"><ele>553.0</ele><time>2026-04-12T07:47:12Z</time></trkpt><trkpt lat="42.15032785150781" lon="12.836605245004648"><ele>553.0</ele><time>2026-04-12T07:47:13Z</time></trkpt><trkpt lat="42.15041588703692" lon="12.836676225968224"><ele>553.0</ele><time>2026-04-12T07:47:14Z</time></trkpt><trkpt lat="42.15050074380205" lon="12.83677139426335"><ele>553.3333333333334</ele><time>2026-04-12T07:47:15Z</time></trkpt><trkpt lat="42.15057496031479" lon="12.836838595853619"><ele>553.6666666666667</ele><time>2026-04-12T07:47:16Z</time></trkpt><trkpt lat="42.15063005370911" lon="12.836903338305355"><ele>554.0</ele><time>2026-04-12T07:47:17Z</time></trkpt><trkpt lat="42.150672041460254" lon="12.837049659704322"><ele>554.3333333333334</ele><time>2026-04-12T07:47:19Z</time></trkpt><trkpt lat="42.15071794283666" lon="12.837142600241233"><ele>554.6666666666666</ele><time>2026-04-12T07:47:20Z</time></trkpt><trkpt lat="42.150763416636124" lon="12.837238833596443"><ele>555.0</ele><time>2026-04-12T07:47:21Z</time></trkpt><trkpt lat="42.150830353443524" lon="12.837324751116267"><ele>555.0</ele><time>2026-04-12T07:47:22Z</time></trkpt><trkpt lat="42.15090600169566" lon="12.837398690859773"><ele>555.0</ele><time>2026-04-12T07:47:23Z</time></trkpt><trkpt lat="42.15098559349407" lon="12.837479489515623"><ele>555.0</ele><time>2026-04-12T07:47:24Z</time></trkpt><trkpt lat="42.15107586888263" lon="12.837578738289874"><ele>555.0</ele><time>2026-04-12T07:47:25Z</time></trkpt><trkpt lat="42.15115393757046" lon="12.837706019999983"><ele>555.0</ele><time>2026-04-12T07:47:26Z</time></trkpt><trkpt lat="42.15121437921155" lon="12.8378373886984"><ele>556.25</ele><time>2026-04-12T07:47:27Z</time></trkpt><trkpt lat="42.15129275896659" lon="12.837944869464677"><ele>557.5</ele><time>2026-04-12T07:47:28Z</time></trkpt><trkpt lat="42.1513671692763" lon="12.838054009863571"><ele>558.75</ele><time>2026-04-12T07:47:29Z</time></trkpt><trkpt lat="42.151469523328025" lon="12.838132963779444"><ele>560.0</ele><time>2026-04-12T07:47:30Z</time></trkpt><trkpt lat="42.15158529142848" lon="12.838171357674653"><ele>560.0</ele><time>2026-04-12T07:47:31Z</time></trkpt><trkpt lat="42.15171246781233" lon="12.838196847180864"><ele>560.0</ele><time>2026-04-12T07:47:32Z</time></trkpt><trkpt lat="42.15182077641013" lon="12.838239250744442"><ele>560.0</ele><time>2026-04-12T07:47:33Z</time></trkpt><trkpt lat="42.15190427309821" lon="12.83832394421784"><ele>560.0</ele><time>2026-04-12T07:47:34Z</time></trkpt><trkpt lat="42.15201482547766" lon="12.83838775042006"><ele>560.0</ele><time>2026-04-12T07:47:35Z</time></trkpt><trkpt lat="42.15212180973279" lon="12.83846033142429"><ele>560.0</ele><time>2026-04-12T07:47:36Z</time></trkpt><trkpt lat="42.15219032572638" lon="12.838543036302122"><ele>560.0</ele><time>2026-04-12T07:47:37Z</time></trkpt><trkpt lat="42.15223801317196" lon="12.838633619611688"><ele>560.0</ele><time>2026-04-12T07:47:38Z</time></trkpt><trkpt lat="42.15230650311998" lon="12.838727982962434"><ele>560.0</ele><time>2026-04-12T07:47:39Z</time></trkpt><trkpt lat="42.15238322650366" lon="12.83882341926478"><ele>562.6</ele><time>2026-04-12T07:47:40Z</time></trkpt><trkpt lat="42.15245062055649" lon="12.838928888206693"><ele>565.2</ele><time>2026-04-12T07:47:41Z</time></trkpt><trkpt lat="42.15249700535536" lon="12.83905516618575"><ele>567.8</ele><time>2026-04-12T07:47:42Z</time></trkpt><trkpt lat="42.15255551125682" lon="12.83915575164135"><ele>570.4</ele><time>2026-04-12T07:47:43Z</time></trkpt><trkpt lat="42.152609465395564" lon="12.839228317908319"><ele>573.0</ele><time>2026-04-12T07:47:44Z</time></trkpt><trkpt lat="42.15268558199829" lon="12.839263318236759"><ele>573.0</ele><time>2026-04-12T07:47:45Z</time></trkpt><trkpt lat="42.152778343725686" lon="12.839287633296337"><ele>573.0</ele><time>2026-04-12T07:47:46Z</time></trkpt><trkpt lat="42.15286742107648" lon="12.83934488332936"><ele>573.0</ele><time>2026-04-12T07:47:46.999Z</time></trkpt><trkpt lat="42.152949842407565" lon="12.839412725710567"><ele>573.0</ele><time>2026-04-12T07:47:47.999Z</time></trkpt><trkpt lat="42.15303084771209" lon="12.839482532447981"><ele>573.0</ele><time>2026-04-12T07:47:48.999Z</time></trkpt><trkpt lat="42.1531278211535" lon="12.839572098940788"><ele>574.25</ele><time>2026-04-12T07:47:49.999Z</time></trkpt><trkpt lat="42.1532368984078" lon="12.839657699156298"><ele>575.5</ele><time>2026-04-12T07:47:50.999Z</time></trkpt><trkpt lat="42.153329221355946" lon="12.839769927810647"><ele>576.75</ele><time>2026-04-12T07:47:51.999Z</time></trkpt><trkpt lat="42.153419681459" lon="12.839881783739967"><ele>578.0</ele><time>2026-04-12T07:47:52.999Z</time></trkpt><trkpt lat="42.15350262120379" lon="12.839976315292548"><ele>578.0</ele><time>2026-04-12T07:47:53.999Z</time></trkpt><trkpt lat="42.153593299240825" lon="12.840053363929986"><ele>578.0</ele><time>2026-04-12T07:47:54.999Z</time></trkpt><trkpt lat="42.153677862917746" lon="12.840121939923336"><ele>578.0</ele><time>2026-04-12T07:47:55.999Z</time></trkpt><trkpt lat="42.15377995367647" lon="12.840170968400574"><ele>578.0</ele><time>2026-04-12T07:47:56.999Z</time></trkpt><trkpt lat="42.15385550697559" lon="12.84023998123634"><ele>578.0</ele><time>2026-04-12T07:47:57.999Z</time></trkpt><trkpt lat="42.153934424496306" lon="12.840292023443812"><ele>579.8</ele><time>2026-04-12T07:47:58.999Z</time></trkpt><trkpt lat="42.15400683848058" lon="12.840334600105123"><ele>581.5999999999999</ele><time>2026-04-12T07:47:59.999Z</time></trkpt><trkpt lat="42.15408872640963" lon="12.840390589960208"><ele>583.4000000000001</ele><time>2026-04-12T07:48:00.999Z</time></trkpt><trkpt lat="42.1541742926492" lon="12.840437744978304"><ele>585.2</ele><time>2026-04-12T07:48:01.999Z</time></trkpt><trkpt lat="42.15426664903596" lon="12.840483245214829"><ele>587.0</ele><time>2026-04-12T07:48:02.999Z</time></trkpt><trkpt lat="42.15436599218627" lon="12.84052124673287"><ele>587.0</ele><time>2026-04-12T07:48:03.999Z</time></trkpt><trkpt lat="42.15446532022927" lon="12.840547229346795"><ele>587.0</ele><time>2026-04-12T07:48:04.999Z</time></trkpt><trkpt lat="42.15455707855049" lon="12.840566646890164"><ele>587.0</ele><time>2026-04-12T07:48:05.999Z</time></trkpt><trkpt lat="42.15462579171394" lon="12.840625234907298"><ele>587.0</ele><time>2026-04-12T07:48:06.999Z</time></trkpt><trkpt lat="42.154705149324734" lon="12.84064382834491"><ele>587.0</ele><time>2026-04-12T07:48:07.999Z</time></trkpt><trkpt lat="42.15478415462314" lon="12.840673149158416"><ele>587.0</ele><time>2026-04-12T07:48:08.999Z</time></trkpt><trkpt lat="42.15486802126495" lon="12.840677869855476"><ele>586.0</ele><time>2026-04-12T07:48:09.999Z</time></trkpt><trkpt lat="42.15496632704258" lon="12.840663356204303"><ele>585.0</ele><time>2026-04-12T07:48:10.999Z</time></trkpt><trkpt lat="42.15507341934824" lon="12.840644153993841"><ele>584.0</ele><time>2026-04-12T07:48:11.999Z</time></trkpt><trkpt lat="42.155167976041724" lon="12.840649378649639"><ele>583.0</ele><time>2026-04-12T07:48:12.999Z</time></trkpt><trkpt lat="42.15526435254472" lon="12.840653448939857"><ele>582.0</ele><time>2026-04-12T07:48:13.999Z</time></trkpt><trkpt lat="42.1553512479594" lon="12.840623388392666"><ele>582.0</ele><time>2026-04-12T07:48:14.999Z</time></trkpt><trkpt lat="42.1554337856388" lon="12.840636017910354"><ele>582.0</ele><time>2026-04-12T07:48:15.999Z</time></trkpt><trkpt lat="42.155529841602245" lon="12.840644668532557"><ele>582.0</ele><time>2026-04-12T07:48:16.999Z</time></trkpt><trkpt lat="42.15563462290235" lon="12.840667946158074"><ele>582.0</ele><time>2026-04-12T07:48:17.999Z</time></trkpt><trkpt lat="42.15573752037416" lon="12.840700385761254"><ele>582.0</ele><time>2026-04-12T07:48:18.999Z</time></trkpt><trkpt lat="42.15583231312425" lon="12.840724622008656"><ele>580.8333333333334</ele><time>2026-04-12T07:48:19.999Z</time></trkpt><trkpt lat="42.15592215649927" lon="12.840742273522386"><ele>579.6666666666666</ele><time>2026-04-12T07:48:20.999Z</time></trkpt><trkpt lat="42.1560035445536" lon="12.840770435901266"><ele>578.5</ele><time>2026-04-12T07:48:21.999Z</time></trkpt><trkpt lat="42.15608433166641" lon="12.840814128289265"><ele>577.3333333333333</ele><time>2026-04-12T07:48:22.999Z</time></trkpt><trkpt lat="42.156169210827535" lon="12.840867581328276"><ele>576.1666666666666</ele><time>2026-04-12T07:48:23.999Z</time></trkpt><trkpt lat="42.15625355247276" lon="12.840922963223754"><ele>575.0</ele><time>2026-04-12T07:48:24.999Z</time></trkpt><trkpt lat="42.156337521948814" lon="12.84099023501307"><ele>576.2</ele><time>2026-04-12T07:48:25.999Z</time></trkpt><trkpt lat="42.156427395319724" lon="12.841068246053469"><ele>577.4</ele><time>2026-04-12T07:48:26.999Z</time></trkpt><trkpt lat="42.15651058396644" lon="12.84116200706635"><ele>578.6</ele><time>2026-04-12T07:48:27.999Z</time></trkpt><trkpt lat="42.156603405180206" lon="12.841239340345968"><ele>579.8</ele><time>2026-04-12T07:48:28.999Z</time></trkpt><trkpt lat="42.15670739049871" lon="12.841275063119125"><ele>581.0</ele><time>2026-04-12T07:48:29.999Z</time></trkpt><trkpt lat="42.15680052924285" lon="12.841297575188644"><ele>581.0</ele><time>2026-04-12T07:48:30.999Z</time></trkpt><trkpt lat="42.15688501593157" lon="12.84132571355529"><ele>581.0</ele><time>2026-04-12T07:48:31.999Z</time></trkpt><trkpt lat="42.1569758991498" lon="12.8413630346075"><ele>581.0</ele><time>2026-04-12T07:48:32.999Z</time></trkpt><trkpt lat="42.157064202817516" lon="12.84142846301057"><ele>581.0</ele><time>2026-04-12T07:48:33.999Z</time></trkpt><trkpt lat="42.15713858393538" lon="12.8414824161011"><ele>581.0</ele><time>2026-04-12T07:48:34.999Z</time></trkpt><trkpt lat="42.15720380788342" lon="12.841512809723842"><ele>581.0</ele><time>2026-04-12T07:48:35.999Z</time></trkpt><trkpt lat="42.157266441357386" lon="12.841547323835215"><ele>578.8</ele><time>2026-04-12T07:48:36.999Z</time></trkpt><trkpt lat="42.157373548869366" lon="12.841621575775562"><ele>576.6</ele><time>2026-04-12T07:48:38.999Z</time></trkpt><trkpt lat="42.15743658231577" lon="12.84166952323492"><ele>574.4</ele><time>2026-04-12T07:48:39.999Z</time></trkpt><trkpt lat="42.15750364237451" lon="12.841731493397855"><ele>572.2</ele><time>2026-04-12T07:48:40.999Z</time></trkpt><trkpt lat="42.15756074767454" lon="12.841823000797353"><ele>570.0</ele><time>2026-04-12T07:48:41.999Z</time></trkpt><trkpt lat="42.15761316082026" lon="12.84194320735385"><ele>575.4</ele><time>2026-04-12T07:48:42.999Z</time></trkpt><trkpt lat="42.15768204774093" lon="12.842055292570436"><ele>580.8</ele><time>2026-04-12T07:48:43.999Z</time></trkpt><trkpt lat="42.15776531841378" lon="12.842133032858884"><ele>586.2</ele><time>2026-04-12T07:48:44.999Z</time></trkpt><trkpt lat="42.15785354064671" lon="12.842190445863922"><ele>591.6</ele><time>2026-04-12T07:48:45.999Z</time></trkpt><trkpt lat="42.1579507714677" lon="12.842228145543528"><ele>597.0</ele><time>2026-04-12T07:48:46.999Z</time></trkpt><trkpt lat="42.15805120117856" lon="12.842264149135223"><ele>597.0</ele><time>2026-04-12T07:48:47.999Z</time></trkpt><trkpt lat="42.15815149614311" lon="12.842296369182225"><ele>597.0</ele><time>2026-04-12T07:48:48.999Z</time></trkpt><trkpt lat="42.15824358441579" lon="12.842335229337083"><ele>597.0</ele><time>2026-04-12T07:48:49.999Z</time></trkpt><trkpt lat="42.158335186864115" lon="12.842374685650228"><ele>597.0</ele><time>2026-04-12T07:48:50.999Z</time></trkpt><trkpt lat="42.15842339182235" lon="12.842421529518775"><ele>597.0</ele><time>2026-04-12T07:48:51.999Z</time></trkpt><trkpt lat="42.15850698380252" lon="12.842477013936646"><ele>595.6</ele><time>2026-04-12T07:48:52.999Z</time></trkpt><trkpt lat="42.15858658282361" lon="12.842544695720706"><ele>594.2</ele><time>2026-04-12T07:48:53.999Z</time></trkpt><trkpt lat="42.15866588918614" lon="12.842607740434937"><ele>592.8</ele><time>2026-04-12T07:48:54.999Z</time></trkpt><trkpt lat="42.1587514108076" lon="12.842678642324781"><ele>591.4</ele><time>2026-04-12T07:48:55.999Z</time></trkpt><trkpt lat="42.158841390912094" lon="12.84274381211517"><ele>590.0</ele><time>2026-04-12T07:48:56.999Z</time></trkpt><trkpt lat="42.158929569313024" lon="12.842814223671121"><ele>590.0</ele><time>2026-04-12T07:48:57.999Z</time></trkpt><trkpt lat="42.159018546017144" lon="12.842896940212043"><ele>590.0</ele><time>2026-04-12T07:48:58.999Z</time></trkpt><trkpt lat="42.159103126539954" lon="12.842984201800357"><ele>590.0</ele><time>2026-04-12T07:48:59.999Z</time></trkpt><trkpt lat="42.159194896951774" lon="12.843052762542111"><ele>590.0</ele><time>2026-04-12T07:49:00.999Z</time></trkpt><trkpt lat="42.15929642037212" lon="12.843101491111026"><ele>590.0</ele><time>2026-04-12T07:49:01.999Z</time></trkpt><trkpt lat="42.15939356626628" lon="12.84312485809409"><ele>583.6</ele><time>2026-04-12T07:49:02.999Z</time></trkpt><trkpt lat="42.159492891114624" lon="12.84314251186377"><ele>577.2</ele><time>2026-04-12T07:49:04Z</time></trkpt><trkpt lat="42.159594658366025" lon="12.843169728147316"><ele>570.8</ele><time>2026-04-12T07:49:05Z</time></trkpt><trkpt lat="42.15968290036598" lon="12.843222370237697"><ele>564.4</ele><time>2026-04-12T07:49:06Z</time></trkpt><trkpt lat="42.15976140018234" lon="12.843267695565407"><ele>558.0</ele><time>2026-04-12T07:49:07Z</time></trkpt><trkpt lat="42.15983180588146" lon="12.843328097038407"><ele>556.1666666666666</ele><time>2026-04-12T07:49:08Z</time></trkpt><trkpt lat="42.15989493741444" lon="12.843402628690576"><ele>554.3333333333334</ele><time>2026-04-12T07:49:09Z</time></trkpt><trkpt lat="42.159953674838064" lon="12.843490168963191"><ele>552.5</ele><time>2026-04-12T07:49:10Z</time></trkpt><trkpt lat="42.15999327483423" lon="12.84359733254611"><ele>550.6666666666667</ele><time>2026-04-12T07:49:11Z</time></trkpt><trkpt lat="42.16002684884518" lon="12.843704287574727"><ele>548.8333333333334</ele><time>2026-04-12T07:49:12Z</time></trkpt><trkpt lat="42.160069274572805" lon="12.843807955405136"><ele>547.0</ele><time>2026-04-12T07:49:13Z</time></trkpt><trkpt lat="42.16011251069795" lon="12.843913228527141"><ele>547.0</ele><time>2026-04-12T07:49:14Z</time></trkpt><trkpt lat="42.16015974751063" lon="12.84401605786403"><ele>547.0</ele><time>2026-04-12T07:49:15Z</time></trkpt><trkpt lat="42.160202299620174" lon="12.844118491158953"><ele>547.0</ele><time>2026-04-12T07:49:16Z</time></trkpt><trkpt lat="42.16023961103492" lon="12.84422389583392"><ele>547.0</ele><time>2026-04-12T07:49:17Z</time></trkpt><trkpt lat="42.160283283925565" lon="12.844341263150215"><ele>547.0</ele><time>2026-04-12T07:49:18Z</time></trkpt><trkpt lat="42.16034024385839" lon="12.84445615837872"><ele>552.2</ele><time>2026-04-12T07:49:19Z</time></trkpt><trkpt lat="42.16040332168705" lon="12.844573275704427"><ele>557.4000000000001</ele><time>2026-04-12T07:49:20Z</time></trkpt><trkpt lat="42.16047014569425" lon="12.844682498592782"><ele>562.5999999999999</ele><time>2026-04-12T07:49:21Z</time></trkpt><trkpt lat="42.16054643650238" lon="12.844781300317726"><ele>567.8</ele><time>2026-04-12T07:49:22Z</time></trkpt><trkpt lat="42.160611929095275" lon="12.84489764037269"><ele>573.0</ele><time>2026-04-12T07:49:23Z</time></trkpt><trkpt lat="42.16066344936368" lon="12.845030405780312"><ele>570.25</ele><time>2026-04-12T07:49:24Z</time></trkpt><trkpt lat="42.16072918849207" lon="12.845192032765393"><ele>567.5</ele><time>2026-04-12T07:49:25Z</time></trkpt><trkpt lat="42.16080437278122" lon="12.845360352539615"><ele>564.75</ele><time>2026-04-12T07:49:26Z</time></trkpt><trkpt lat="42.1608818708905" lon="12.845513795593405"><ele>562.0</ele><time>2026-04-12T07:49:27Z</time></trkpt><trkpt lat="42.1609331357986" lon="12.845642208175699"><ele>562.0</ele><time>2026-04-12T07:49:28Z</time></trkpt><trkpt lat="42.16098343348089" lon="12.84573486227183"><ele>562.0</ele><time>2026-04-12T07:49:29Z</time></trkpt><trkpt lat="42.16103736455116" lon="12.84579967208192"><ele>562.0</ele><time>2026-04-12T07:49:30Z</time></trkpt><trkpt lat="42.16112831949509" lon="12.845873796989647"><ele>562.0</ele><time>2026-04-12T07:49:32Z</time></trkpt><trkpt lat="42.16119688623068" lon="12.845957179979573"><ele>562.0</ele><time>2026-04-12T07:49:34Z</time></trkpt><trkpt lat="42.161247245832584" lon="12.846112348742295"><ele>564.3333333333334</ele><time>2026-04-12T07:49:36Z</time></trkpt><trkpt lat="42.16128932059118" lon="12.846246556647344"><ele>566.6666666666667</ele><time>2026-04-12T07:49:38Z</time></trkpt><trkpt lat="42.16138518278027" lon="12.846232755979356"><ele>569.0</ele><time>2026-04-12T07:49:40Z</time></trkpt><trkpt lat="42.161440280709165" lon="12.846186541561641"><ele>571.3333333333334</ele><time>2026-04-12T07:49:41Z</time></trkpt><trkpt lat="42.16150364200515" lon="12.846166061027848"><ele>573.6666666666666</ele><time>2026-04-12T07:49:42Z</time></trkpt><trkpt lat="42.16156524778176" lon="12.846147148096376"><ele>576.0</ele><time>2026-04-12T07:49:43Z</time></trkpt><trkpt lat="42.16164238471554" lon="12.846188905529184"><ele>575.0</ele><time>2026-04-12T07:49:45Z</time></trkpt><trkpt lat="42.16163464975508" lon="12.846280541610305"><ele>574.0</ele><time>2026-04-12T07:49:47Z</time></trkpt><trkpt lat="42.16165765315839" lon="12.846433260485597"><ele>573.0</ele><time>2026-04-12T07:49:48.999Z</time></trkpt><trkpt lat="42.16162066175074" lon="12.846517711430423"><ele>572.0</ele><time>2026-04-12T07:49:49.999Z</time></trkpt><trkpt lat="42.16159037684094" lon="12.84661401556951"><ele>571.0</ele><time>2026-04-12T07:49:50.999Z</time></trkpt><trkpt lat="42.16155816226604" lon="12.846721146074918"><ele>570.0</ele><time>2026-04-12T07:49:51.999Z</time></trkpt><trkpt lat="42.161520389614864" lon="12.846846760115541"><ele>570.0</ele><time>2026-04-12T07:49:52.999Z</time></trkpt><trkpt lat="42.16147468892427" lon="12.846998739097714"><ele>570.0</ele><time>2026-04-12T07:49:53.999Z</time></trkpt><trkpt lat="42.161430857715374" lon="12.847144500979883"><ele>570.0</ele><time>2026-04-12T07:49:54.999Z</time></trkpt><trkpt lat="42.161388249902785" lon="12.847286194450223"><ele>570.0</ele><time>2026-04-12T07:49:55.999Z</time></trkpt><trkpt lat="42.16134053193559" lon="12.847448288632005"><ele>570.0</ele><time>2026-04-12T07:49:56.999Z</time></trkpt><trkpt lat="42.16129318335154" lon="12.847610095821803"><ele>570.0</ele><time>2026-04-12T07:49:57.999Z</time></trkpt><trkpt lat="42.16124985626092" lon="12.84775911809261"><ele>570.0</ele><time>2026-04-12T07:49:58.999Z</time></trkpt><trkpt lat="42.16121021275295" lon="12.847896549002723"><ele>570.0</ele><time>2026-04-12T07:49:59.999Z</time></trkpt><trkpt lat="42.16118280815923" lon="12.848040383072172"><ele>568.8</ele><time>2026-04-12T07:50:00.999Z</time></trkpt><trkpt lat="42.16114274107241" lon="12.848176355004185"><ele>567.6</ele><time>2026-04-12T07:50:01.999Z</time></trkpt><trkpt lat="42.16109724063925" lon="12.848298118511314"><ele>566.4</ele><time>2026-04-12T07:50:02.999Z</time></trkpt><trkpt lat="42.16105950521173" lon="12.848390377861605"><ele>565.2</ele><time>2026-04-12T07:50:03.999Z</time></trkpt><trkpt lat="42.16103004650935" lon="12.848473667785111"><ele>564.0</ele><time>2026-04-12T07:50:04.999Z</time></trkpt><trkpt lat="42.16099306469439" lon="12.84861667697008"><ele>562.1666666666666</ele><time>2026-04-12T07:50:06.999Z</time></trkpt><trkpt lat="42.160962904373925" lon="12.84872478326217"><ele>560.3333333333334</ele><time>2026-04-12T07:50:08.999Z</time></trkpt><trkpt lat="42.16101854579114" lon="12.848823948097053"><ele>558.5</ele><time>2026-04-12T07:50:11.999Z</time></trkpt><trkpt lat="42.16110629862988" lon="12.848813953867849"><ele>556.6666666666667</ele><time>2026-04-12T07:50:13.999Z</time></trkpt><trkpt lat="42.16111341559337" lon="12.848913599657784"><ele>554.8333333333334</ele><time>2026-04-12T07:50:18.999Z</time></trkpt><trkpt lat="42.161059853672334" lon="12.848978497501955"><ele>553.0</ele><time>2026-04-12T07:50:19.999Z</time></trkpt><trkpt lat="42.1609931583059" lon="12.849069473147969"><ele>553.0</ele><time>2026-04-12T07:50:20.999Z</time></trkpt><trkpt lat="42.16093020107417" lon="12.849176864414398"><ele>553.0</ele><time>2026-04-12T07:50:21.999Z</time></trkpt><trkpt lat="42.16087808110492" lon="12.849275648546351"><ele>553.0</ele><time>2026-04-12T07:50:22.999Z</time></trkpt><trkpt lat="42.160829701062625" lon="12.849371282656913"><ele>553.0</ele><time>2026-04-12T07:50:23.999Z</time></trkpt><trkpt lat="42.160785186474094" lon="12.849463714562782"><ele>553.0</ele><time>2026-04-12T07:50:24.999Z</time></trkpt><trkpt lat="42.16074287938996" lon="12.849555835886033"><ele>553.0</ele><time>2026-04-12T07:50:25.999Z</time></trkpt><trkpt lat="42.16070087478289" lon="12.849651177533863"><ele>555.5</ele><time>2026-04-12T07:50:26.999Z</time></trkpt><trkpt lat="42.1606463828711" lon="12.849773243564519"><ele>558.0</ele><time>2026-04-12T07:50:27.999Z</time></trkpt><trkpt lat="42.160571809085525" lon="12.84990684242034"><ele>560.5</ele><time>2026-04-12T07:50:28.999Z</time></trkpt><trkpt lat="42.16049417980472" lon="12.850052976471297"><ele>563.0</ele><time>2026-04-12T07:50:29.999Z</time></trkpt><trkpt lat="42.160437605881555" lon="12.850178069371045"><ele>563.0</ele><time>2026-04-12T07:50:30.999Z</time></trkpt><trkpt lat="42.160399015494335" lon="12.850270602920626"><ele>563.0</ele><time>2026-04-12T07:50:31.999Z</time></trkpt><trkpt lat="42.160375704498506" lon="12.850349541410667"><ele>563.0</ele><time>2026-04-12T07:50:32.999Z</time></trkpt><trkpt lat="42.16034309879092" lon="12.850469978720364"><ele>563.0</ele><time>2026-04-12T07:50:34.999Z</time></trkpt><trkpt lat="42.16047090558366" lon="12.850655825334137"><ele>563.0</ele><time>2026-04-12T07:50:36.999Z</time></trkpt><trkpt lat="42.160518067159494" lon="12.850772374962961"><ele>563.0</ele><time>2026-04-12T07:50:37.999Z</time></trkpt><trkpt lat="42.160572204436" lon="12.850880333547275"><ele>563.0</ele><time>2026-04-12T07:50:38.999Z</time></trkpt><trkpt lat="42.16062502638155" lon="12.850982652118978"><ele>563.0</ele><time>2026-04-12T07:50:39.999Z</time></trkpt><trkpt lat="42.160686224879456" lon="12.851096311971567"><ele>563.0</ele><time>2026-04-12T07:50:40.999Z</time></trkpt><trkpt lat="42.16078406745846" lon="12.851200815715654"><ele>563.0</ele><time>2026-04-12T07:50:41.999Z</time></trkpt><trkpt lat="42.16086168537517" lon="12.85132365059456"><ele>561.0</ele><time>2026-04-12T07:50:42.999Z</time></trkpt><trkpt lat="42.16092930977532" lon="12.851436061309327"><ele>559.0</ele><time>2026-04-12T07:50:43.999Z</time></trkpt><trkpt lat="42.16098917504269" lon="12.85154387003579"><ele>557.0</ele><time>2026-04-12T07:50:44.999Z</time></trkpt><trkpt lat="42.16105169612758" lon="12.85164642791087"><ele>555.0</ele><time>2026-04-12T07:50:45.999Z</time></trkpt><trkpt lat="42.161133429392294" lon="12.851754971978355"><ele>553.0</ele><time>2026-04-12T07:50:46.999Z</time></trkpt><trkpt lat="42.16122533076177" lon="12.85188167289559"><ele>553.0</ele><time>2026-04-12T07:50:47.999Z</time></trkpt><trkpt lat="42.161335901985154" lon="12.851987491027245"><ele>553.0</ele><time>2026-04-12T07:50:48.999Z</time></trkpt><trkpt lat="42.16142469595969" lon="12.852092233554373"><ele>553.0</ele><time>2026-04-12T07:50:49.999Z</time></trkpt><trkpt lat="42.161495878703995" lon="12.852188470163803"><ele>553.0</ele><time>2026-04-12T07:50:50.999Z</time></trkpt><trkpt lat="42.161553430460884" lon="12.85226795137511"><ele>553.0</ele><time>2026-04-12T07:50:51.999Z</time></trkpt><trkpt lat="42.16160168503047" lon="12.852334517118079"><ele>548.8333333333334</ele><time>2026-04-12T07:50:52.999Z</time></trkpt><trkpt lat="42.16166330796405" lon="12.85242060581827"><ele>544.6666666666667</ele><time>2026-04-12T07:50:53.999Z</time></trkpt><trkpt lat="42.16172645723298" lon="12.85250613197752"><ele>540.5</ele><time>2026-04-12T07:50:54.999Z</time></trkpt><trkpt lat="42.16178240634476" lon="12.852566836193786"><ele>536.3333333333334</ele><time>2026-04-12T07:50:55.999Z</time></trkpt><trkpt lat="42.16184664583588" lon="12.852633315733009"><ele>532.1666666666666</ele><time>2026-04-12T07:50:56.999Z</time></trkpt><trkpt lat="42.16191947602107" lon="12.852687828743358"><ele>528.0</ele><time>2026-04-12T07:50:57.999Z</time></trkpt><trkpt lat="42.16199549304451" lon="12.852740212839304"><ele>528.0</ele><time>2026-04-12T07:50:58.999Z</time></trkpt><trkpt lat="42.16206616152922" lon="12.85277818648942"><ele>528.0</ele><time>2026-04-12T07:50:59.999Z</time></trkpt><trkpt lat="42.16212039321063" lon="12.852840153225948"><ele>528.0</ele><time>2026-04-12T07:51:00.999Z</time></trkpt><trkpt lat="42.162209931278746" lon="12.852875858432679"><ele>528.0</ele><time>2026-04-12T07:51:02.999Z</time></trkpt><trkpt lat="42.16227499220004" lon="12.852749156064721"><ele>528.0</ele><time>2026-04-12T07:51:04.999Z</time></trkpt><trkpt lat="42.1623089287543" lon="12.852661982057752"><ele>528.0</ele><time>2026-04-12T07:51:05.999Z</time></trkpt><trkpt lat="42.16234040897161" lon="12.85255292750227"><ele>524.3333333333334</ele><time>2026-04-12T07:51:06.999Z</time></trkpt><trkpt lat="42.1623854271118" lon="12.852422595876853"><ele>520.6666666666666</ele><time>2026-04-12T07:51:07.999Z</time></trkpt><trkpt lat="42.16243319208108" lon="12.852338535295349"><ele>517.0</ele><time>2026-04-12T07:51:08.999Z</time></trkpt><trkpt lat="42.1624763421741" lon="12.852263821654395"><ele>513.3333333333333</ele><time>2026-04-12T07:51:10Z</time></trkpt><trkpt lat="42.16252964119277" lon="12.852206826143867"><ele>509.66666666666663</ele><time>2026-04-12T07:51:11Z</time></trkpt><trkpt lat="42.162587957048295" lon="12.852148594821875"><ele>506.0</ele><time>2026-04-12T07:51:12Z</time></trkpt><trkpt lat="42.16263098225148" lon="12.85206358042835"><ele>506.0</ele><time>2026-04-12T07:51:13Z</time></trkpt><trkpt lat="42.16266420118274" lon="12.851979150259286"><ele>506.0</ele><time>2026-04-12T07:51:14Z</time></trkpt><trkpt lat="42.16269392344765" lon="12.851854817781804"><ele>506.0</ele><time>2026-04-12T07:51:15Z</time></trkpt><trkpt lat="42.1627238993083" lon="12.851753983774943"><ele>506.0</ele><time>2026-04-12T07:51:16Z</time></trkpt><trkpt lat="42.162824205794415" lon="12.851719122470053"><ele>506.0</ele><time>2026-04-12T07:51:18Z</time></trkpt><trkpt lat="42.162866958758464" lon="12.851580612781751"><ele>505.8</ele><time>2026-04-12T07:51:21Z</time></trkpt><trkpt lat="42.16285975178718" lon="12.851444692618514"><ele>505.6</ele><time>2026-04-12T07:51:27Z</time></trkpt><trkpt lat="42.16285265059268" lon="12.851332864265268"><ele>505.4</ele><time>2026-04-12T07:51:28Z</time></trkpt><trkpt lat="42.162818729682726" lon="12.85120136584248"><ele>505.2</ele><time>2026-04-12T07:51:29Z</time></trkpt><trkpt lat="42.16277676946753" lon="12.851045852666548"><ele>505.0</ele><time>2026-04-12T07:51:30Z</time></trkpt><trkpt lat="42.1627377043474" lon="12.850864063342646"><ele>505.0</ele><time>2026-04-12T07:51:31Z</time></trkpt><trkpt lat="42.162739074151155" lon="12.850686653058972"><ele>505.0</ele><time>2026-04-12T07:51:32Z</time></trkpt><trkpt lat="42.162732892834235" lon="12.850531252193713"><ele>505.0</ele><time>2026-04-12T07:51:33Z</time></trkpt><trkpt lat="42.162760645258835" lon="12.850419966752245"><ele>505.0</ele><time>2026-04-12T07:51:34Z</time></trkpt><trkpt lat="42.16280012231628" lon="12.850278493676646"><ele>505.0</ele><time>2026-04-12T07:51:35Z</time></trkpt><trkpt lat="42.16285379423146" lon="12.850116584118732"><ele>507.5</ele><time>2026-04-12T07:51:36Z</time></trkpt><trkpt lat="42.16291174411052" lon="12.849953892581922"><ele>510.0</ele><time>2026-04-12T07:51:37Z</time></trkpt><trkpt lat="42.16295945582736" lon="12.849792057116312"><ele>512.5</ele><time>2026-04-12T07:51:38Z</time></trkpt><trkpt lat="42.162992823798916" lon="12.849638304824433"><ele>515.0</ele><time>2026-04-12T07:51:39Z</time></trkpt><trkpt lat="42.16304457158485" lon="12.849498319076167"><ele>515.0</ele><time>2026-04-12T07:51:40Z</time></trkpt><trkpt lat="42.16308408080991" lon="12.849357201345772"><ele>515.0</ele><time>2026-04-12T07:51:41Z</time></trkpt><trkpt lat="42.16313147636125" lon="12.84923241101446"><ele>515.0</ele><time>2026-04-12T07:51:42Z</time></trkpt><trkpt lat="42.16313373610026" lon="12.849133915237928"><ele>515.0</ele><time>2026-04-12T07:51:43Z</time></trkpt><trkpt lat="42.163133245611" lon="12.849020003828635"><ele>515.0</ele><time>2026-04-12T07:51:45Z</time></trkpt><trkpt lat="42.163202268639395" lon="12.84915025509081"><ele>510.6</ele><time>2026-04-12T07:51:51.999Z</time></trkpt><trkpt lat="42.1632591051772" lon="12.849194031589686"><ele>506.2</ele><time>2026-04-12T07:51:53.999Z</time></trkpt><trkpt lat="42.16331503535212" lon="12.849242381023974"><ele>501.79999999999995</ele><time>2026-04-12T07:51:54.999Z</time></trkpt><trkpt lat="42.16342689068443" lon="12.849219839908846"><ele>497.4</ele><time>2026-04-12T07:51:56.999Z</time></trkpt><trkpt lat="42.163513705784666" lon="12.849105717941056"><ele>493.0</ele><time>2026-04-12T07:51:58.999Z</time></trkpt><trkpt lat="42.16353645120413" lon="12.84899639537944"><ele>493.0</ele><time>2026-04-12T07:51:59.999Z</time></trkpt><trkpt lat="42.1635384673446" lon="12.848841682046197"><ele>493.0</ele><time>2026-04-12T07:52:00.999Z</time></trkpt><trkpt lat="42.163522860692886" lon="12.848658810977005"><ele>493.0</ele><time>2026-04-12T07:52:01.999Z</time></trkpt><trkpt lat="42.163529960833934" lon="12.848478559127683"><ele>493.0</ele><time>2026-04-12T07:52:02.999Z</time></trkpt><trkpt lat="42.16354637686939" lon="12.848332345915422"><ele>492.83333333333337</ele><time>2026-04-12T07:52:03.999Z</time></trkpt><trkpt lat="42.16356395852361" lon="12.848209740727418"><ele>492.6666666666667</ele><time>2026-04-12T07:52:04.999Z</time></trkpt><trkpt lat="42.1635838510925" lon="12.84810300908864"><ele>492.5</ele><time>2026-04-12T07:52:05.999Z</time></trkpt><trkpt lat="42.163607025990906" lon="12.848003150936622"><ele>492.33333333333337</ele><time>2026-04-12T07:52:06.999Z</time></trkpt><trkpt lat="42.16361808301308" lon="12.847911138369511"><ele>492.1666666666667</ele><time>2026-04-12T07:52:07.999Z</time></trkpt><trkpt lat="42.16368341836734" lon="12.847767308356815"><ele>492.0</ele><time>2026-04-12T07:52:09.999Z</time></trkpt><trkpt lat="42.16371720577341" lon="12.847686587243464"><ele>492.0</ele><time>2026-04-12T07:52:10.999Z</time></trkpt><trkpt lat="42.16375727599574" lon="12.847598160513241"><ele>492.0</ele><time>2026-04-12T07:52:11.999Z</time></trkpt><trkpt lat="42.16379797335434" lon="12.84750290807521"><ele>492.0</ele><time>2026-04-12T07:52:12.999Z</time></trkpt><trkpt lat="42.163834814981875" lon="12.84740140283261"><ele>492.0</ele><time>2026-04-12T07:52:13.999Z</time></trkpt><trkpt lat="42.163876756245664" lon="12.847297814411547"><ele>492.0</ele><time>2026-04-12T07:52:14.999Z</time></trkpt><trkpt lat="42.163923998824366" lon="12.847192922363867"><ele>492.0</ele><time>2026-04-12T07:52:15.999Z</time></trkpt><trkpt lat="42.16398426325903" lon="12.847105545313276"><ele>488.20000000000005</ele><time>2026-04-12T07:52:16.999Z</time></trkpt><trkpt lat="42.16403703707975" lon="12.84700371747071"><ele>484.40000000000003</ele><time>2026-04-12T07:52:17.999Z</time></trkpt><trkpt lat="42.16409691836255" lon="12.84690779194515"><ele>480.59999999999997</ele><time>2026-04-12T07:52:18.999Z</time></trkpt><trkpt lat="42.164157022841614" lon="12.84681598221163"><ele>476.79999999999995</ele><time>2026-04-12T07:52:19.999Z</time></trkpt><trkpt lat="42.164211566159125" lon="12.846712997323095"><ele>473.0</ele><time>2026-04-12T07:52:20.999Z</time></trkpt><trkpt lat="42.1642836702128" lon="12.84663219135077"><ele>473.0</ele><time>2026-04-12T07:52:21.999Z</time></trkpt><trkpt lat="42.16435369118461" lon="12.846548057783416"><ele>472.99999999999994</ele><time>2026-04-12T07:52:22.999Z</time></trkpt><trkpt lat="42.1644258688664" lon="12.846466566819883"><ele>472.99999999999994</ele><time>2026-04-12T07:52:23.999Z</time></trkpt><trkpt lat="42.16450466205364" lon="12.846397947446045"><ele>473.0</ele><time>2026-04-12T07:52:24.999Z</time></trkpt><trkpt lat="42.16459036672697" lon="12.846338147356134"><ele>473.0</ele><time>2026-04-12T07:52:25.999Z</time></trkpt><trkpt lat="42.16467979120412" lon="12.846286406498049"><ele>473.0</ele><time>2026-04-12T07:52:26.999Z</time></trkpt><trkpt lat="42.164773437794764" lon="12.846247031718642"><ele>472.99999999999994</ele><time>2026-04-12T07:52:27.999Z</time></trkpt><trkpt lat="42.1648683193946" lon="12.846214488095972"><ele>472.99999999999994</ele><time>2026-04-12T07:52:28.999Z</time></trkpt><trkpt lat="42.16496132257822" lon="12.846181900160813"><ele>473.0</ele><time>2026-04-12T07:52:29.999Z</time></trkpt><trkpt lat="42.16505837617653" lon="12.846151647373198"><ele>473.0</ele><time>2026-04-12T07:52:30.999Z</time></trkpt><trkpt lat="42.16516067076703" lon="12.846126891742749"><ele>469.79999999999995</ele><time>2026-04-12T07:52:31.999Z</time></trkpt><trkpt lat="42.165261132165924" lon="12.846098058192956"><ele>466.59999999999997</ele><time>2026-04-12T07:52:32.999Z</time></trkpt><trkpt lat="42.165363302697806" lon="12.846071147055637"><ele>463.40000000000003</ele><time>2026-04-12T07:52:33.999Z</time></trkpt><trkpt lat="42.165469138909764" lon="12.8460449029628"><ele>460.20000000000005</ele><time>2026-04-12T07:52:34.999Z</time></trkpt><trkpt lat="42.16556882577459" lon="12.846021921451644"><ele>457.0</ele><time>2026-04-12T07:52:35.999Z</time></trkpt><trkpt lat="42.16567489774096" lon="12.845994566862828"><ele>457.8</ele><time>2026-04-12T07:52:36.999Z</time></trkpt><trkpt lat="42.165781566415845" lon="12.845969531334894"><ele>458.6</ele><time>2026-04-12T07:52:37.999Z</time></trkpt><trkpt lat="42.16589014057934" lon="12.845952842468433"><ele>459.40000000000003</ele><time>2026-04-12T07:52:38.999Z</time></trkpt><trkpt lat="42.166001605587496" lon="12.845943910461537"><ele>460.20000000000005</ele><time>2026-04-12T07:52:39.999Z</time></trkpt><trkpt lat="42.16610933170206" lon="12.845927455249026"><ele>461.0</ele><time>2026-04-12T07:52:40.999Z</time></trkpt><trkpt lat="42.16622122947164" lon="12.845911720147923"><ele>461.0</ele><time>2026-04-12T07:52:41.999Z</time></trkpt><trkpt lat="42.16633471196057" lon="12.84591330936017"><ele>461.0</ele><time>2026-04-12T07:52:42.999Z</time></trkpt><trkpt lat="42.16645078404224" lon="12.84592945259547"><ele>461.0</ele><time>2026-04-12T07:52:43.999Z</time></trkpt><trkpt lat="42.16656658396842" lon="12.845951667835328"><ele>461.0</ele><time>2026-04-12T07:52:44.999Z</time></trkpt><trkpt lat="42.16668287409829" lon="12.845973795696636"><ele>454.75</ele><time>2026-04-12T07:52:45.999Z</time></trkpt><trkpt lat="42.16679742946221" lon="12.846001141879983"><ele>448.5</ele><time>2026-04-12T07:52:46.999Z</time></trkpt><trkpt lat="42.1669113523865" lon="12.84603174956322"><ele>442.25</ele><time>2026-04-12T07:52:47.999Z</time></trkpt><trkpt lat="42.16702639278616" lon="12.846055293953222"><ele>436.0</ele><time>2026-04-12T07:52:48.999Z</time></trkpt><trkpt lat="42.167137343236725" lon="12.846090827336106"><ele>436.0</ele><time>2026-04-12T07:52:49.999Z</time></trkpt><trkpt lat="42.16725015153493" lon="12.846122847332754"><ele>436.0</ele><time>2026-04-12T07:52:50.999Z</time></trkpt><trkpt lat="42.1673639682508" lon="12.84615153288923"><ele>436.0</ele><time>2026-04-12T07:52:51.999Z</time></trkpt><trkpt lat="42.167478144238515" lon="12.846180222865037"><ele>436.0</ele><time>2026-04-12T07:52:52.999Z</time></trkpt><trkpt lat="42.16758065346956" lon="12.846215132994402"><ele>435.00000000000006</ele><time>2026-04-12T07:52:53.999Z</time></trkpt><trkpt lat="42.16767373677616" lon="12.846250738171053"><ele>434.0</ele><time>2026-04-12T07:52:54.999Z</time></trkpt><trkpt lat="42.16775509169188" lon="12.84629210774022"><ele>433.0</ele><time>2026-04-12T07:52:55.999Z</time></trkpt><trkpt lat="42.167832071643005" lon="12.84634305808977"><ele>432.0</ele><time>2026-04-12T07:52:56.999Z</time></trkpt><trkpt lat="42.167910755932134" lon="12.84640259628693"><ele>431.00000000000006</ele><time>2026-04-12T07:52:57.999Z</time></trkpt><trkpt lat="42.167984569756605" lon="12.846463037651741"><ele>430.0</ele><time>2026-04-12T07:52:58.999Z</time></trkpt><trkpt lat="42.16805364977988" lon="12.84652002377453"><ele>430.00000000000006</ele><time>2026-04-12T07:52:59.999Z</time></trkpt><trkpt lat="42.16811817176834" lon="12.846578057682832"><ele>430.0</ele><time>2026-04-12T07:53:00.999Z</time></trkpt><trkpt lat="42.16816902909686" lon="12.846646514620646"><ele>430.0</ele><time>2026-04-12T07:53:01.999Z</time></trkpt><trkpt lat="42.1681991916764" lon="12.846726338555634"><ele>430.0</ele><time>2026-04-12T07:53:02.999Z</time></trkpt><trkpt lat="42.168183187115275" lon="12.846823932770167"><ele>430.00000000000006</ele><time>2026-04-12T07:53:03.999Z</time></trkpt><trkpt lat="42.168203835592465" lon="12.84693648437204"><ele>430.0</ele><time>2026-04-12T07:53:04.999Z</time></trkpt><trkpt lat="42.16821524650338" lon="12.847058354658223"><ele>429.8</ele><time>2026-04-12T07:53:05.999Z</time></trkpt><trkpt lat="42.16821872953372" lon="12.847197302169606"><ele>429.6</ele><time>2026-04-12T07:53:06.999Z</time></trkpt><trkpt lat="42.16825326849727" lon="12.847339562913103"><ele>429.4</ele><time>2026-04-12T07:53:07.999Z</time></trkpt><trkpt lat="42.16825346951623" lon="12.84748544609025"><ele>429.2</ele><time>2026-04-12T07:53:08.999Z</time></trkpt><trkpt lat="42.16829859309352" lon="12.847627866531203"><ele>429.0</ele><time>2026-04-12T07:53:09.999Z</time></trkpt><trkpt lat="42.16836565917243" lon="12.847764019594853"><ele>425.0</ele><time>2026-04-12T07:53:10.999Z</time></trkpt><trkpt lat="42.16843244780974" lon="12.847909616721736"><ele>421.0</ele><time>2026-04-12T07:53:11.999Z</time></trkpt><trkpt lat="42.16850157486381" lon="12.84804716824514"><ele>417.0</ele><time>2026-04-12T07:53:12.999Z</time></trkpt><trkpt lat="42.16855154626141" lon="12.848184475389719"><ele>413.0</ele><time>2026-04-12T07:53:13.999Z</time></trkpt><trkpt lat="42.168595341244185" lon="12.848325260554194"><ele>411.25</ele><time>2026-04-12T07:53:14.999Z</time></trkpt><trkpt lat="42.1685856156809" lon="12.848490580538956"><ele>409.5</ele><time>2026-04-12T07:53:16Z</time></trkpt><trkpt lat="42.16860456179483" lon="12.848658573828075"><ele>407.75</ele><time>2026-04-12T07:53:17Z</time></trkpt><trkpt lat="42.16861799289975" lon="12.84882323363248"><ele>406.0</ele><time>2026-04-12T07:53:18Z</time></trkpt><trkpt lat="42.16864558443914" lon="12.848984122626513"><ele>406.0</ele><time>2026-04-12T07:53:19Z</time></trkpt><trkpt lat="42.16868818938192" lon="12.849129456574191"><ele>406.0</ele><time>2026-04-12T07:53:20Z</time></trkpt><trkpt lat="42.168747623655065" lon="12.849275800631396"><ele>406.0</ele><time>2026-04-12T07:53:21Z</time></trkpt><trkpt lat="42.16880643987725" lon="12.849409037923422"><ele>406.0</ele><time>2026-04-12T07:53:22Z</time></trkpt><trkpt lat="42.16886039212088" lon="12.849549007774291"><ele>405.8</ele><time>2026-04-12T07:53:23Z</time></trkpt><trkpt lat="42.168903308607966" lon="12.849677764883173"><ele>405.6</ele><time>2026-04-12T07:53:24Z</time></trkpt><trkpt lat="42.16895060127917" lon="12.849797466631717"><ele>405.4</ele><time>2026-04-12T07:53:25Z</time></trkpt><trkpt lat="42.169007842948766" lon="12.84990811288345"><ele>405.2</ele><time>2026-04-12T07:53:26Z</time></trkpt><trkpt lat="42.169058380671814" lon="12.850024849833341"><ele>405.0</ele><time>2026-04-12T07:53:27Z</time></trkpt><trkpt lat="42.16909691910246" lon="12.850132289644415"><ele>401.4</ele><time>2026-04-12T07:53:28Z</time></trkpt><trkpt lat="42.169155352662905" lon="12.850236046989831"><ele>397.8</ele><time>2026-04-12T07:53:29Z</time></trkpt><trkpt lat="42.169242579568525" lon="12.850319459705641"><ele>394.20000000000005</ele><time>2026-04-12T07:53:30Z</time></trkpt><trkpt lat="42.169337870382435" lon="12.850411933305267"><ele>390.6</ele><time>2026-04-12T07:53:31Z</time></trkpt><trkpt lat="42.16943397248085" lon="12.850514885754222"><ele>387.0</ele><time>2026-04-12T07:53:32Z</time></trkpt><trkpt lat="42.16952582538618" lon="12.850640797030202"><ele>387.0</ele><time>2026-04-12T07:53:33Z</time></trkpt><trkpt lat="42.169609633952355" lon="12.850782145558457"><ele>387.0</ele><time>2026-04-12T07:53:34Z</time></trkpt><trkpt lat="42.16969169019425" lon="12.850924358374376"><ele>387.0</ele><time>2026-04-12T07:53:35Z</time></trkpt><trkpt lat="42.16977278947042" lon="12.851051735000313"><ele>387.0</ele><time>2026-04-12T07:53:36Z</time></trkpt><trkpt lat="42.16985966910503" lon="12.851160997167257"><ele>382.0</ele><time>2026-04-12T07:53:37Z</time></trkpt><trkpt lat="42.16996098398695" lon="12.851242029097163"><ele>377.0</ele><time>2026-04-12T07:53:38Z</time></trkpt><trkpt lat="42.17007794525455" lon="12.851317196790841"><ele>372.0</ele><time>2026-04-12T07:53:39Z</time></trkpt><trkpt lat="42.1702000839378" lon="12.851393893244866"><ele>367.0</ele><time>2026-04-12T07:53:40Z</time></trkpt><trkpt lat="42.170311314429874" lon="12.851489895818272"><ele>367.0</ele><time>2026-04-12T07:53:41Z</time></trkpt><trkpt lat="42.17042160997802" lon="12.85160284907956"><ele>367.0</ele><time>2026-04-12T07:53:42Z</time></trkpt><trkpt lat="42.17053841835297" lon="12.851700099286436"><ele>367.0</ele><time>2026-04-12T07:53:43Z</time></trkpt><trkpt lat="42.17066708843266" lon="12.851773090498233"><ele>367.0</ele><time>2026-04-12T07:53:44Z</time></trkpt><trkpt lat="42.17078897078365" lon="12.851859720198393"><ele>365.25</ele><time>2026-04-12T07:53:45Z</time></trkpt><trkpt lat="42.17089373729843" lon="12.851969757617132"><ele>363.5</ele><time>2026-04-12T07:53:46Z</time></trkpt><trkpt lat="42.17098119159922" lon="12.852096041501557"><ele>361.75</ele><time>2026-04-12T07:53:47Z</time></trkpt><trkpt lat="42.17107120905161" lon="12.852213794574507"><ele>360.0</ele><time>2026-04-12T07:53:48Z</time></trkpt><trkpt lat="42.171157071253326" lon="12.85232520575275"><ele>360.0</ele><time>2026-04-12T07:53:49Z</time></trkpt><trkpt lat="42.171237755580044" lon="12.852430428943366"><ele>360.0</ele><time>2026-04-12T07:53:50Z</time></trkpt><trkpt lat="42.17131051935654" lon="12.852536410308582"><ele>360.0</ele><time>2026-04-12T07:53:51Z</time></trkpt><trkpt lat="42.17137702907489" lon="12.852637599369684"><ele>360.0</ele><time>2026-04-12T07:53:52Z</time></trkpt><trkpt lat="42.17144355931331" lon="12.852721446887292"><ele>360.0</ele><time>2026-04-12T07:53:53Z</time></trkpt><trkpt lat="42.171490369070234" lon="12.852811705017697"><ele>360.5</ele><time>2026-04-12T07:53:54Z</time></trkpt><trkpt lat="42.1715214688487" lon="12.85289302123862"><ele>361.0</ele><time>2026-04-12T07:53:55Z</time></trkpt><trkpt lat="42.1715759638064" lon="12.853016381127174"><ele>361.5</ele><time>2026-04-12T07:53:56.999Z</time></trkpt><trkpt lat="42.17162446806971" lon="12.853093429954805"><ele>362.0</ele><time>2026-04-12T07:53:57.999Z</time></trkpt><trkpt lat="42.17168848494981" lon="12.853181004249436"><ele>362.5</ele><time>2026-04-12T07:53:58.999Z</time></trkpt><trkpt lat="42.17176805958696" lon="12.85326867072053"><ele>363.0</ele><time>2026-04-12T07:53:59.999Z</time></trkpt><trkpt lat="42.17184839790813" lon="12.853360380838401"><ele>365.0</ele><time>2026-04-12T07:54:00.999Z</time></trkpt><trkpt lat="42.17191556841005" lon="12.853474843687422"><ele>367.0</ele><time>2026-04-12T07:54:01.999Z</time></trkpt><trkpt lat="42.17197119830897" lon="12.853604609319444"><ele>369.0</ele><time>2026-04-12T07:54:02.999Z</time></trkpt><trkpt lat="42.17202936561029" lon="12.853749420872365"><ele>371.0</ele><time>2026-04-12T07:54:03.999Z</time></trkpt><trkpt lat="42.17208636293497" lon="12.853902073164356"><ele>371.0</ele><time>2026-04-12T07:54:04.999Z</time></trkpt><trkpt lat="42.17213586417778" lon="12.854068103255315"><ele>371.0</ele><time>2026-04-12T07:54:05.999Z</time></trkpt><trkpt lat="42.172173831713614" lon="12.854227073138293"><ele>371.0</ele><time>2026-04-12T07:54:06.999Z</time></trkpt><trkpt lat="42.17220684873974" lon="12.854369486951066"><ele>371.0</ele><time>2026-04-12T07:54:07.999Z</time></trkpt><trkpt lat="42.17224246180593" lon="12.854496013927573"><ele>370.85714285714283</ele><time>2026-04-12T07:54:08.999Z</time></trkpt><trkpt lat="42.17228533738083" lon="12.85460527705716"><ele>370.7142857142857</ele><time>2026-04-12T07:54:09.999Z</time></trkpt><trkpt lat="42.17233269591603" lon="12.854696681509434"><ele>370.57142857142856</ele><time>2026-04-12T07:54:10.999Z</time></trkpt><trkpt lat="42.17237996357343" lon="12.854774056871346"><ele>370.42857142857144</ele><time>2026-04-12T07:54:11.999Z</time></trkpt><trkpt lat="42.17242801968426" lon="12.854829677582753"><ele>370.2857142857143</ele><time>2026-04-12T07:54:12.999Z</time></trkpt><trkpt lat="42.17249072626758" lon="12.854847482289198"><ele>370.1428571428571</ele><time>2026-04-12T07:54:14.999Z</time></trkpt><trkpt lat="42.17255211630058" lon="12.8548139612669"><ele>370.0</ele><time>2026-04-12T08:03:06.999Z</time></trkpt><trkpt lat="42.172506289597436" lon="12.85489224325398"><ele>370.0</ele><time>2026-04-12T08:03:10.999Z</time></trkpt><trkpt lat="42.17244175908591" lon="12.854843217384518"><ele>370.0</ele><time>2026-04-12T08:03:15.999Z</time></trkpt><trkpt lat="42.17239220266705" lon="12.85475811795327"><ele>370.0</ele><time>2026-04-12T08:03:17.999Z</time></trkpt><trkpt lat="42.172321312553514" lon="12.854668828183566"><ele>370.0</ele><time>2026-04-12T08:03:18.999Z</time></trkpt><trkpt lat="42.172259490081444" lon="12.854556358235806"><ele>370.0</ele><time>2026-04-12T08:03:19.999Z</time></trkpt><trkpt lat="42.17221528135001" lon="12.854403321132708"><ele>370.25</ele><time>2026-04-12T08:03:20.999Z</time></trkpt><trkpt lat="42.172186005485216" lon="12.854234139102337"><ele>370.5</ele><time>2026-04-12T08:03:21.999Z</time></trkpt><trkpt lat="42.17215600295965" lon="12.854084672818647"><ele>370.75</ele><time>2026-04-12T08:03:22.999Z</time></trkpt><trkpt lat="42.172121941404825" lon="12.853932368045998"><ele>371.0</ele><time>2026-04-12T08:03:23.999Z</time></trkpt><trkpt lat="42.172065010009796" lon="12.853773327552364"><ele>371.0</ele><time>2026-04-12T08:03:24.999Z</time></trkpt><trkpt lat="42.17199573876277" lon="12.853627867699952"><ele>371.0</ele><time>2026-04-12T08:03:25.999Z</time></trkpt><trkpt lat="42.17193486018722" lon="12.853499632261478"><ele>371.0</ele><time>2026-04-12T08:03:26.999Z</time></trkpt><trkpt lat="42.171896600821334" lon="12.85338296704282"><ele>371.0</ele><time>2026-04-12T08:03:27.999Z</time></trkpt><trkpt lat="42.17183801682923" lon="12.853276413837623"><ele>371.0</ele><time>2026-04-12T08:03:28.999Z</time></trkpt><trkpt lat="42.17177037535718" lon="12.853211845357627"><ele>369.83333333333337</ele><time>2026-04-12T08:03:29.999Z</time></trkpt><trkpt lat="42.17170330632389" lon="12.853150843946223"><ele>368.6666666666667</ele><time>2026-04-12T08:03:30.999Z</time></trkpt><trkpt lat="42.171634102220324" lon="12.853086360940685"><ele>367.5</ele><time>2026-04-12T08:03:31.999Z</time></trkpt><trkpt lat="42.171578840556705" lon="12.853017253954985"><ele>366.3333333333333</ele><time>2026-04-12T08:03:32.999Z</time></trkpt><trkpt lat="42.17154615798322" lon="12.852941143018649"><ele>365.16666666666663</ele><time>2026-04-12T08:03:33.999Z</time></trkpt><trkpt lat="42.171517203327014" lon="12.852843165447258"><ele>364.0</ele><time>2026-04-12T08:03:34.999Z</time></trkpt><trkpt lat="42.171476438977415" lon="12.85274279557257"><ele>363.8333333333333</ele><time>2026-04-12T08:03:35.999Z</time></trkpt><trkpt lat="42.171416376664766" lon="12.852652944890393"><ele>363.66666666666663</ele><time>2026-04-12T08:03:36.999Z</time></trkpt><trkpt lat="42.171336370653314" lon="12.852567953845384"><ele>363.5</ele><time>2026-04-12T08:03:37.999Z</time></trkpt><trkpt lat="42.17126884124288" lon="12.85248714826424"><ele>363.3333333333333</ele><time>2026-04-12T08:03:38.999Z</time></trkpt><trkpt lat="42.17121391528335" lon="12.852410415882273"><ele>363.1666666666667</ele><time>2026-04-12T08:03:39.999Z</time></trkpt><trkpt lat="42.171168180014355" lon="12.852336645667888"><ele>363.0</ele><time>2026-04-12T08:03:40.999Z</time></trkpt><trkpt lat="42.17108230041232" lon="12.852205908789397"><ele>362.5</ele><time>2026-04-12T08:03:42.999Z</time></trkpt><trkpt lat="42.17102771754555" lon="12.852154982513337"><ele>362.0</ele><time>2026-04-12T08:03:43.999Z</time></trkpt><trkpt lat="42.17096096209764" lon="12.852084274054144"><ele>361.5</ele><time>2026-04-12T08:03:44.999Z</time></trkpt><trkpt lat="42.17090010832435" lon="12.852014279767527"><ele>361.0</ele><time>2026-04-12T08:03:46Z</time></trkpt><trkpt lat="42.17083687499294" lon="12.851949114711513"><ele>360.5</ele><time>2026-04-12T08:03:47Z</time></trkpt><trkpt lat="42.170780184985475" lon="12.851864907499928"><ele>360.0</ele><time>2026-04-12T08:03:48Z</time></trkpt><trkpt lat="42.17070388289013" lon="12.851794185090537"><ele>361.75</ele><time>2026-04-12T08:03:49Z</time></trkpt><trkpt lat="42.170598979081994" lon="12.851730993473613"><ele>363.5</ele><time>2026-04-12T08:03:50Z</time></trkpt><trkpt lat="42.17049877198887" lon="12.851662428859466"><ele>365.25</ele><time>2026-04-12T08:03:51Z</time></trkpt><trkpt lat="42.17039463301165" lon="12.851568101890475"><ele>367.0</ele><time>2026-04-12T08:03:52Z</time></trkpt><trkpt lat="42.17027025980641" lon="12.851449151042372"><ele>367.0</ele><time>2026-04-12T08:03:53Z</time></trkpt><trkpt lat="42.17012596604933" lon="12.851338583616153"><ele>367.0</ele><time>2026-04-12T08:03:54Z</time></trkpt><trkpt lat="42.16996330689506" lon="12.851242692373203"><ele>367.0</ele><time>2026-04-12T08:03:55Z</time></trkpt><trkpt lat="42.16983510163561" lon="12.851139173598193"><ele>371.5</ele><time>2026-04-12T08:03:56Z</time></trkpt><trkpt lat="42.169733139479" lon="12.851020659711965"><ele>376.0</ele><time>2026-04-12T08:03:57Z</time></trkpt><trkpt lat="42.16966013607067" lon="12.850893133201621"><ele>380.5</ele><time>2026-04-12T08:03:58Z</time></trkpt><trkpt lat="42.16959476057325" lon="12.85076280837595"><ele>385.0</ele><time>2026-04-12T08:03:59Z</time></trkpt><trkpt lat="42.16952653823834" lon="12.850634573158734"><ele>385.5</ele><time>2026-04-12T08:04:00Z</time></trkpt><trkpt lat="42.16945164883639" lon="12.850529763840608"><ele>386.0</ele><time>2026-04-12T08:04:01Z</time></trkpt><trkpt lat="42.1693602519832" lon="12.85043522043044"><ele>386.5</ele><time>2026-04-12T08:04:02Z</time></trkpt><trkpt lat="42.16927762646485" lon="12.85033774727332"><ele>387.0</ele><time>2026-04-12T08:04:03Z</time></trkpt><trkpt lat="42.169184160881855" lon="12.850238022206875"><ele>387.0</ele><time>2026-04-12T08:04:04Z</time></trkpt><trkpt lat="42.169102837666706" lon="12.850151005493226"><ele>387.0</ele><time>2026-04-12T08:04:05Z</time></trkpt><trkpt lat="42.169044661690585" lon="12.850039743199703"><ele>387.0</ele><time>2026-04-12T08:04:06Z</time></trkpt><trkpt lat="42.168991434226704" lon="12.84993313628311"><ele>387.0</ele><time>2026-04-12T08:04:07Z</time></trkpt><trkpt lat="42.16895786540408" lon="12.849815376322077"><ele>387.0</ele><time>2026-04-12T08:04:08Z</time></trkpt><trkpt lat="42.168918729233184" lon="12.849700944811424"><ele>390.6</ele><time>2026-04-12T08:04:09Z</time></trkpt><trkpt lat="42.16887447467595" lon="12.849575492262414"><ele>394.20000000000005</ele><time>2026-04-12T08:04:10Z</time></trkpt><trkpt lat="42.16882464104894" lon="12.849442819192829"><ele>397.8</ele><time>2026-04-12T08:04:11Z</time></trkpt><trkpt lat="42.1687759826869" lon="12.849302951966816"><ele>401.4</ele><time>2026-04-12T08:04:12Z</time></trkpt><trkpt lat="42.168718454814474" lon="12.849165281789618"><ele>405.0</ele><time>2026-04-12T08:04:12.999Z</time></trkpt><trkpt lat="42.168665157035065" lon="12.849026032046003"><ele>405.2</ele><time>2026-04-12T08:04:13.999Z</time></trkpt><trkpt lat="42.16862954905158" lon="12.848887900912656"><ele>405.4</ele><time>2026-04-12T08:04:14.999Z</time></trkpt><trkpt lat="42.1686158916389" lon="12.848739403539003"><ele>405.6</ele><time>2026-04-12T08:04:15.999Z</time></trkpt><trkpt lat="42.16860328769462" lon="12.848593220395145"><ele>405.8</ele><time>2026-04-12T08:04:16.999Z</time></trkpt><trkpt lat="42.16859856558361" lon="12.84844483747472"><ele>406.0</ele><time>2026-04-12T08:04:17.999Z</time></trkpt><trkpt lat="42.16858521161225" lon="12.848304181727816"><ele>407.4</ele><time>2026-04-12T08:04:18.999Z</time></trkpt><trkpt lat="42.16855657259789" lon="12.848167019525496"><ele>408.8</ele><time>2026-04-12T08:04:19.999Z</time></trkpt><trkpt lat="42.168503613544495" lon="12.84803225697669"><ele>410.2</ele><time>2026-04-12T08:04:20.999Z</time></trkpt><trkpt lat="42.16844006088149" lon="12.847902698554549"><ele>411.59999999999997</ele><time>2026-04-12T08:04:21.999Z</time></trkpt><trkpt lat="42.16837230643989" lon="12.847781439333842"><ele>413.0</ele><time>2026-04-12T08:04:22.999Z</time></trkpt><trkpt lat="42.168310610632204" lon="12.847650169426"><ele>416.2</ele><time>2026-04-12T08:04:23.999Z</time></trkpt><trkpt lat="42.168260419659255" lon="12.847512916297514"><ele>419.4</ele><time>2026-04-12T08:04:24.999Z</time></trkpt><trkpt lat="42.16823329415413" lon="12.847360771802023"><ele>422.59999999999997</ele><time>2026-04-12T08:04:25.999Z</time></trkpt><trkpt lat="42.16823046513449" lon="12.847216560328622"><ele>425.79999999999995</ele><time>2026-04-12T08:04:26.999Z</time></trkpt><trkpt lat="42.16821951511098" lon="12.847097066783759"><ele>429.0</ele><time>2026-04-12T08:04:27.999Z</time></trkpt><trkpt lat="42.168203550091825" lon="12.846971868864012"><ele>429.1666666666667</ele><time>2026-04-12T08:04:28.999Z</time></trkpt><trkpt lat="42.16819115800234" lon="12.846843921103316"><ele>429.33333333333337</ele><time>2026-04-12T08:04:29.999Z</time></trkpt><trkpt lat="42.16818184898162" lon="12.846715588092877"><ele>429.5</ele><time>2026-04-12T08:04:30.999Z</time></trkpt><trkpt lat="42.16815595737423" lon="12.846627082298454"><ele>429.6666666666667</ele><time>2026-04-12T08:04:31.999Z</time></trkpt><trkpt lat="42.16809503329357" lon="12.84655937948319"><ele>429.83333333333337</ele><time>2026-04-12T08:04:32.999Z</time></trkpt><trkpt lat="42.16801601894585" lon="12.846482704875125"><ele>430.0</ele><time>2026-04-12T08:04:33.999Z</time></trkpt><trkpt lat="42.16791039641084" lon="12.846404430368976"><ele>430.0</ele><time>2026-04-12T08:04:34.999Z</time></trkpt><trkpt lat="42.1678081721618" lon="12.84631320374272"><ele>430.0</ele><time>2026-04-12T08:04:35.999Z</time></trkpt><trkpt lat="42.1676971957859" lon="12.846243545143194"><ele>430.0</ele><time>2026-04-12T08:04:36.999Z</time></trkpt><trkpt lat="42.16757065771424" lon="12.84618480775263"><ele>430.0</ele><time>2026-04-12T08:04:37.999Z</time></trkpt><trkpt lat="42.167430182577114" lon="12.846116515149307"><ele>432.0</ele><time>2026-04-12T08:04:38.999Z</time></trkpt><trkpt lat="42.16727124348814" lon="12.846075017454448"><ele>434.0</ele><time>2026-04-12T08:04:39.999Z</time></trkpt><trkpt lat="42.16710126431945" lon="12.846035341124496"><ele>436.0</ele><time>2026-04-12T08:04:40.999Z</time></trkpt><trkpt lat="42.16693346704056" lon="12.845995493636453"><ele>441.33333333333337</ele><time>2026-04-12T08:04:41.999Z</time></trkpt><trkpt lat="42.16676672631657" lon="12.845954611725633"><ele>446.66666666666663</ele><time>2026-04-12T08:04:42.999Z</time></trkpt><trkpt lat="42.166596787551974" lon="12.845917694934116"><ele>452.0</ele><time>2026-04-12T08:04:43.999Z</time></trkpt><trkpt lat="42.16642740094368" lon="12.845886443157179"><ele>455.0</ele><time>2026-04-12T08:04:44.999Z</time></trkpt><trkpt lat="42.16625809322293" lon="12.845871350441332"><ele>458.0</ele><time>2026-04-12T08:04:45.999Z</time></trkpt><trkpt lat="42.16609435186623" lon="12.845896691027939"><ele>461.0</ele><time>2026-04-12T08:04:46.999Z</time></trkpt><trkpt lat="42.16592552697689" lon="12.845932908227656"><ele>461.0</ele><time>2026-04-12T08:04:47.999Z</time></trkpt><trkpt lat="42.16576173774747" lon="12.845961191923417"><ele>461.0</ele><time>2026-04-12T08:04:48.999Z</time></trkpt><trkpt lat="42.16562311093126" lon="12.845983741752573"><ele>461.0</ele><time>2026-04-12T08:04:49.999Z</time></trkpt><trkpt lat="42.16548244295675" lon="12.84600924964029"><ele>461.0</ele><time>2026-04-12T08:04:50.999Z</time></trkpt><trkpt lat="42.16534281974447" lon="12.84605135406673"><ele>460.0</ele><time>2026-04-12T08:04:51.999Z</time></trkpt><trkpt lat="42.165202565752075" lon="12.846085337223515"><ele>459.0</ele><time>2026-04-12T08:04:52.999Z</time></trkpt><trkpt lat="42.16506793295585" lon="12.846112818906796"><ele>458.0</ele><time>2026-04-12T08:04:53.999Z</time></trkpt><trkpt lat="42.16493589422097" lon="12.846150253594983"><ele>457.0</ele><time>2026-04-12T08:04:54.999Z</time></trkpt><trkpt lat="42.16480797859894" lon="12.846198906173033"><ele>461.0</ele><time>2026-04-12T08:04:55.999Z</time></trkpt><trkpt lat="42.16467695238711" lon="12.846255601201737"><ele>465.0</ele><time>2026-04-12T08:04:56.999Z</time></trkpt><trkpt lat="42.16454783756643" lon="12.846327364582498"><ele>469.0</ele><time>2026-04-12T08:04:57.999Z</time></trkpt><trkpt lat="42.16442440999675" lon="12.846420828146185"><ele>473.0</ele><time>2026-04-12T08:04:58.999Z</time></trkpt><trkpt lat="42.16430687924188" lon="12.846536462870182"><ele>473.0</ele><time>2026-04-12T08:04:59.999Z</time></trkpt><trkpt lat="42.16419787272973" lon="12.84666956314835"><ele>473.0</ele><time>2026-04-12T08:05:00.999Z</time></trkpt><trkpt lat="42.164096459692274" lon="12.846813088728808"><ele>473.0</ele><time>2026-04-12T08:05:01.999Z</time></trkpt><trkpt lat="42.16400498820642" lon="12.84696582874013"><ele>473.0</ele><time>2026-04-12T08:05:02.999Z</time></trkpt><trkpt lat="42.16392943945465" lon="12.8471108966616"><ele>477.75</ele><time>2026-04-12T08:05:03.999Z</time></trkpt><trkpt lat="42.163868906342024" lon="12.847250544604996"><ele>482.5</ele><time>2026-04-12T08:05:04.999Z</time></trkpt><trkpt lat="42.163811932557486" lon="12.847406970597142"><ele>487.25</ele><time>2026-04-12T08:05:05.999Z</time></trkpt><trkpt lat="42.1637486204198" lon="12.84756846613737"><ele>492.0</ele><time>2026-04-12T08:05:06.999Z</time></trkpt><trkpt lat="42.16366063077717" lon="12.847740574377138"><ele>492.0</ele><time>2026-04-12T08:05:07.999Z</time></trkpt><trkpt lat="42.16358776488786" lon="12.847908395976589"><ele>492.0</ele><time>2026-04-12T08:05:08.999Z</time></trkpt><trkpt lat="42.163541886377054" lon="12.848099874334617"><ele>492.0</ele><time>2026-04-12T08:05:09.999Z</time></trkpt><trkpt lat="42.16351325711917" lon="12.84830374889842"><ele>492.0</ele><time>2026-04-12T08:05:10.999Z</time></trkpt><trkpt lat="42.163504379950375" lon="12.848508255754695"><ele>492.25</ele><time>2026-04-12T08:05:11.999Z</time></trkpt><trkpt lat="42.16351030338721" lon="12.848703357548185"><ele>492.5</ele><time>2026-04-12T08:05:12.999Z</time></trkpt><trkpt lat="42.16351686812657" lon="12.848871337029916"><ele>492.75</ele><time>2026-04-12T08:05:13.999Z</time></trkpt><trkpt lat="42.16350839684759" lon="12.849017548400889"><ele>493.0</ele><time>2026-04-12T08:05:14.999Z</time></trkpt><trkpt lat="42.163473162814135" lon="12.849138234147397"><ele>493.0</ele><time>2026-04-12T08:05:15.999Z</time></trkpt><trkpt lat="42.16341813977721" lon="12.849210100985772"><ele>493.0</ele><time>2026-04-12T08:05:16.999Z</time></trkpt><trkpt lat="42.16335130985265" lon="12.849219450727745"><ele>493.0</ele><time>2026-04-12T08:05:17.999Z</time></trkpt><trkpt lat="42.16327701191872" lon="12.849196829160132"><ele>493.0</ele><time>2026-04-12T08:05:18.999Z</time></trkpt><trkpt lat="42.163215185720595" lon="12.849132651426826"><ele>493.0</ele><time>2026-04-12T08:05:19.999Z</time></trkpt><trkpt lat="42.163188220448404" lon="12.849046617385078"><ele>493.0</ele><time>2026-04-12T08:05:20.999Z</time></trkpt><trkpt lat="42.16317791726658" lon="12.84895011547841"><ele>493.0</ele><time>2026-04-12T08:05:22.999Z</time></trkpt><trkpt lat="42.163089990080906" lon="12.84904962410825"><ele>496.6666666666667</ele><time>2026-04-12T08:05:24.999Z</time></trkpt><trkpt lat="42.163123389730735" lon="12.849147081755609"><ele>500.33333333333337</ele><time>2026-04-12T08:05:26.999Z</time></trkpt><trkpt lat="42.16310783884226" lon="12.84923604232554"><ele>504.0</ele><time>2026-04-12T08:05:27.999Z</time></trkpt><trkpt lat="42.16306748194147" lon="12.849322382789437"><ele>507.66666666666663</ele><time>2026-04-12T08:05:28.999Z</time></trkpt><trkpt lat="42.16303601376499" lon="12.849453616875627"><ele>511.3333333333333</ele><time>2026-04-12T08:05:29.999Z</time></trkpt><trkpt lat="42.16298760748422" lon="12.849604412559167"><ele>515.0</ele><time>2026-04-12T08:05:30.999Z</time></trkpt><trkpt lat="42.16292518290914" lon="12.849772385163508"><ele>515.0</ele><time>2026-04-12T08:05:31.999Z</time></trkpt><trkpt lat="42.16286978659385" lon="12.849933751845567"><ele>515.0</ele><time>2026-04-12T08:05:32.999Z</time></trkpt><trkpt lat="42.16283032257166" lon="12.850099907804449"><ele>515.0</ele><time>2026-04-12T08:05:33.999Z</time></trkpt><trkpt lat="42.162776452408515" lon="12.850258032469783"><ele>515.0</ele><time>2026-04-12T08:05:34.999Z</time></trkpt><trkpt lat="42.162737084831285" lon="12.850393631602856"><ele>513.0</ele><time>2026-04-12T08:05:35.999Z</time></trkpt><trkpt lat="42.1627175646729" lon="12.850479414890394"><ele>511.0</ele><time>2026-04-12T08:05:36.999Z</time></trkpt><trkpt lat="42.16271568028521" lon="12.850612158706411"><ele>509.0</ele><time>2026-04-12T08:05:37.999Z</time></trkpt><trkpt lat="42.16270960476538" lon="12.850754307846605"><ele>507.0</ele><time>2026-04-12T08:05:38.999Z</time></trkpt><trkpt lat="42.162724662563434" lon="12.85091492313698"><ele>505.0</ele><time>2026-04-12T08:05:39.999Z</time></trkpt><trkpt lat="42.1627432656285" lon="12.851059886379051"><ele>504.83333333333337</ele><time>2026-04-12T08:05:40.999Z</time></trkpt><trkpt lat="42.162779898869886" lon="12.851196584267388"><ele>504.6666666666667</ele><time>2026-04-12T08:05:41.999Z</time></trkpt><trkpt lat="42.16281909731382" lon="12.851306428188611"><ele>504.5</ele><time>2026-04-12T08:05:42.999Z</time></trkpt><trkpt lat="42.162837207607865" lon="12.851395295244854"><ele>504.33333333333337</ele><time>2026-04-12T08:05:43.999Z</time></trkpt><trkpt lat="42.162837946109455" lon="12.851490297177772"><ele>504.1666666666667</ele><time>2026-04-12T08:05:44.999Z</time></trkpt><trkpt lat="42.162838468976865" lon="12.851606260645752"><ele>504.0</ele><time>2026-04-12T08:05:46.999Z</time></trkpt><trkpt lat="42.16282529207291" lon="12.851704740984037"><ele>504.0</ele><time>2026-04-12T08:05:49.998Z</time></trkpt><trkpt lat="42.16273182664496" lon="12.85172930580526"><ele>504.0</ele><time>2026-04-12T08:05:50.998Z</time></trkpt><trkpt lat="42.16268180214418" lon="12.851787225339713"><ele>504.0</ele><time>2026-04-12T08:05:53Z</time></trkpt><trkpt lat="42.16267692395636" lon="12.851877006099702"><ele>504.0</ele><time>2026-04-12T08:05:59Z</time></trkpt><trkpt lat="42.16265308009321" lon="12.851969137985137"><ele>504.0</ele><time>2026-04-12T08:06:00Z</time></trkpt><trkpt lat="42.16261919722478" lon="12.852059474415224"><ele>504.0</ele><time>2026-04-12T08:06:01Z</time></trkpt><trkpt lat="42.162575537973744" lon="12.85212652934405"><ele>504.0</ele><time>2026-04-12T08:06:02Z</time></trkpt><trkpt lat="42.162506047601205" lon="12.85217254957489"><ele>504.4</ele><time>2026-04-12T08:06:03Z</time></trkpt><trkpt lat="42.16241907849282" lon="12.852248268023283"><ele>504.79999999999995</ele><time>2026-04-12T08:06:04Z</time></trkpt><trkpt lat="42.16238697002734" lon="12.852353257080726"><ele>505.20000000000005</ele><time>2026-04-12T08:06:05Z</time></trkpt><trkpt lat="42.16233589920937" lon="12.852490790471165"><ele>505.6</ele><time>2026-04-12T08:06:06Z</time></trkpt><trkpt lat="42.16228920959276" lon="12.85266119062384"><ele>506.0</ele><time>2026-04-12T08:06:07Z</time></trkpt><trkpt lat="42.16223436462644" lon="12.852804890022103"><ele>509.6</ele><time>2026-04-12T08:06:08Z</time></trkpt><trkpt lat="42.162177452819606" lon="12.852878380864883"><ele>513.2</ele><time>2026-04-12T08:06:09Z</time></trkpt><trkpt lat="42.162132195327" lon="12.852797940633875"><ele>516.8</ele><time>2026-04-12T08:06:13Z</time></trkpt><trkpt lat="42.16201557180164" lon="12.852718135293197"><ele>520.4</ele><time>2026-04-12T08:06:15Z</time></trkpt><trkpt lat="42.161938349685855" lon="12.852684128579307"><ele>524.0</ele><time>2026-04-12T08:06:16Z</time></trkpt><trkpt lat="42.16186382953487" lon="12.852603603411744"><ele>525.0</ele><time>2026-04-12T08:06:17Z</time></trkpt><trkpt lat="42.161766667251754" lon="12.852514930620153"><ele>526.0</ele><time>2026-04-12T08:06:18Z</time></trkpt><trkpt lat="42.161712510042435" lon="12.85242474651308"><ele>527.0</ele><time>2026-04-12T08:06:19Z</time></trkpt><trkpt lat="42.161635655708224" lon="12.852330076799861"><ele>528.0</ele><time>2026-04-12T08:06:19.999Z</time></trkpt><trkpt lat="42.161534861535266" lon="12.85217811522348"><ele>530.25</ele><time>2026-04-12T08:06:20.999Z</time></trkpt><trkpt lat="42.16144741489759" lon="12.852059491994295"><ele>532.5</ele><time>2026-04-12T08:06:21.999Z</time></trkpt><trkpt lat="42.16134183041231" lon="12.851937234111519"><ele>534.75</ele><time>2026-04-12T08:06:22.999Z</time></trkpt><trkpt lat="42.16121497467023" lon="12.851816348069281"><ele>537.0</ele><time>2026-04-12T08:06:23.999Z</time></trkpt><trkpt lat="42.16109945295803" lon="12.851683782678517"><ele>537.0</ele><time>2026-04-12T08:06:24.999Z</time></trkpt><trkpt lat="42.161018942166486" lon="12.85155195103498"><ele>537.0</ele><time>2026-04-12T08:06:25.999Z</time></trkpt><trkpt lat="42.16092982999454" lon="12.851413754377857"><ele>537.0</ele><time>2026-04-12T08:06:26.999Z</time></trkpt><trkpt lat="42.160831410544574" lon="12.85127831691139"><ele>537.0</ele><time>2026-04-12T08:06:27.999Z</time></trkpt><trkpt lat="42.16073790769181" lon="12.851131250739481"><ele>543.25</ele><time>2026-04-12T08:06:28.999Z</time></trkpt><trkpt lat="42.16064770935885" lon="12.850982527900848"><ele>549.5</ele><time>2026-04-12T08:06:29.999Z</time></trkpt><trkpt lat="42.16057587141058" lon="12.850836820589173"><ele>555.75</ele><time>2026-04-12T08:06:30.999Z</time></trkpt><trkpt lat="42.16051096765425" lon="12.850705176875188"><ele>562.0</ele><time>2026-04-12T08:06:31.999Z</time></trkpt><trkpt lat="42.16044736306699" lon="12.850598600968523"><ele>562.2</ele><time>2026-04-12T08:06:32.999Z</time></trkpt><trkpt lat="42.16039991444562" lon="12.850512302249106"><ele>562.4000000000001</ele><time>2026-04-12T08:06:33.999Z</time></trkpt><trkpt lat="42.16037099744245" lon="12.850426091840088"><ele>562.5999999999999</ele><time>2026-04-12T08:06:34.999Z</time></trkpt><trkpt lat="42.16045728691617" lon="12.850265192798926"><ele>562.8</ele><time>2026-04-12T08:06:36.999Z</time></trkpt><trkpt lat="42.160502457568974" lon="12.850162885944343"><ele>563.0</ele><time>2026-04-12T08:06:37.999Z</time></trkpt><trkpt lat="42.16055503497785" lon="12.850046127858723"><ele>565.1999999999999</ele><time>2026-04-12T08:06:38.999Z</time></trkpt><trkpt lat="42.16060918151469" lon="12.849922518894147"><ele>567.4</ele><time>2026-04-12T08:06:39.999Z</time></trkpt><trkpt lat="42.16066004333185" lon="12.849805838245828"><ele>569.5999999999999</ele><time>2026-04-12T08:06:40.999Z</time></trkpt><trkpt lat="42.160717058228585" lon="12.849676165286054"><ele>571.8</ele><time>2026-04-12T08:06:41.999Z</time></trkpt><trkpt lat="42.16077812149263" lon="12.84954307374365"><ele>574.0</ele><time>2026-04-12T08:06:42.999Z</time></trkpt><trkpt lat="42.160842931833834" lon="12.849414708180214"><ele>569.8</ele><time>2026-04-12T08:06:43.999Z</time></trkpt><trkpt lat="42.16090913322916" lon="12.849294162316692"><ele>565.5999999999999</ele><time>2026-04-12T08:06:44.999Z</time></trkpt><trkpt lat="42.16097423761235" lon="12.849176372841244"><ele>561.4</ele><time>2026-04-12T08:06:45.999Z</time></trkpt><trkpt lat="42.16102955413599" lon="12.84907281096394"><ele>557.1999999999999</ele><time>2026-04-12T08:06:46.999Z</time></trkpt><trkpt lat="42.16106932754554" lon="12.848975402304918"><ele>553.0</ele><time>2026-04-12T08:06:47.999Z</time></trkpt><trkpt lat="42.16111441175817" lon="12.848904395903418"><ele>553.0</ele><time>2026-04-12T08:06:48.999Z</time></trkpt><trkpt lat="42.16117159969096" lon="12.848805624966158"><ele>553.0</ele><time>2026-04-12T08:06:50.999Z</time></trkpt><trkpt lat="42.161073391552414" lon="12.848805047849863"><ele>553.0</ele><time>2026-04-12T08:06:55.999Z</time></trkpt><trkpt lat="42.16099690558722" lon="12.84878364697655"><ele>553.0</ele><time>2026-04-12T08:06:57.999Z</time></trkpt><trkpt lat="42.16090255696393" lon="12.84873585462238"><ele>553.0</ele><time>2026-04-12T08:07:00.999Z</time></trkpt><trkpt lat="42.16092905936345" lon="12.848616356173988"><ele>553.0</ele><time>2026-04-12T08:07:02.999Z</time></trkpt><trkpt lat="42.16088586267933" lon="12.84852881439093"><ele>553.0</ele><time>2026-04-12T08:07:04.999Z</time></trkpt><trkpt lat="42.160787040607964" lon="12.84846822739428"><ele>553.0</ele><time>2026-04-12T08:07:06.999Z</time></trkpt><trkpt lat="42.16074982405733" lon="12.84833694777134"><ele>553.0</ele><time>2026-04-12T08:07:08.999Z</time></trkpt><trkpt lat="42.160725750455555" lon="12.848205394757203"><ele>553.0</ele><time>2026-04-12T08:07:10.999Z</time></trkpt><trkpt lat="42.16070755493314" lon="12.848103187051304"><ele>566.0</ele><time>2026-04-12T08:07:12.999Z</time></trkpt><trkpt lat="42.160685322178566" lon="12.847991667849183"><ele>579.0</ele><time>2026-04-12T08:07:14.999Z</time></trkpt><trkpt lat="42.16065966363848" lon="12.847862195729785"><ele>592.0</ele><time>2026-04-12T08:07:16.999Z</time></trkpt><trkpt lat="42.160646608596224" lon="12.847725984341807"><ele>605.0</ele><time>2026-04-12T08:07:18.999Z</time></trkpt><trkpt lat="42.160636157673885" lon="12.84764202266949"><ele>618.0</ele><time>2026-04-12T08:07:19.999Z</time></trkpt><trkpt lat="42.16063920226837" lon="12.8474955494789"><ele>620.6</ele><time>2026-04-12T08:07:21.999Z</time></trkpt><trkpt lat="42.160654189547024" lon="12.847338865983776"><ele>623.1999999999999</ele><time>2026-04-12T08:07:23.999Z</time></trkpt><trkpt lat="42.16067543430884" lon="12.847201620253342"><ele>625.8</ele><time>2026-04-12T08:07:25.999Z</time></trkpt><trkpt lat="42.160719046102045" lon="12.8471284254893"><ele>628.4</ele><time>2026-04-12T08:07:27.999Z</time></trkpt><trkpt lat="42.16070102011195" lon="12.846974444193863"><ele>631.0</ele><time>2026-04-12T08:07:30.999Z</time></trkpt><trkpt lat="42.16071714063498" lon="12.846804199215851"><ele>630.8</ele><time>2026-04-12T08:07:32.999Z</time></trkpt><trkpt lat="42.16071877510164" lon="12.846657240657839"><ele>630.6</ele><time>2026-04-12T08:07:34.999Z</time></trkpt><trkpt lat="42.16071446340689" lon="12.846500738643066"><ele>630.4</ele><time>2026-04-12T08:07:36.999Z</time></trkpt><trkpt lat="42.1606940486844" lon="12.846401695999624"><ele>630.2</ele><time>2026-04-12T08:07:37.999Z</time></trkpt><trkpt lat="42.1606513627197" lon="12.846303207463919"><ele>630.0</ele><time>2026-04-12T08:07:39.999Z</time></trkpt><trkpt lat="42.16056824949999" lon="12.846203707104094"><ele>630.0</ele><time>2026-04-12T08:07:41.999Z</time></trkpt><trkpt lat="42.16048080322725" lon="12.846137363518269"><ele>630.0</ele><time>2026-04-12T08:07:43.999Z</time></trkpt><trkpt lat="42.16039124325614" lon="12.846044054398398"><ele>630.0</ele><time>2026-04-12T08:07:45.999Z</time></trkpt><trkpt lat="42.16030490052834" lon="12.845980454681476"><ele>630.0</ele><time>2026-04-12T08:07:47.999Z</time></trkpt><trkpt lat="42.1602059977237" lon="12.845884443687726"><ele>630.0</ele><time>2026-04-12T08:07:49.999Z</time></trkpt><trkpt lat="42.160147981452106" lon="12.845851091397437"><ele>626.2</ele><time>2026-04-12T08:07:50.999Z</time></trkpt><trkpt lat="42.16004302472805" lon="12.845800410831558"><ele>622.4</ele><time>2026-04-12T08:07:52.999Z</time></trkpt><trkpt lat="42.159965107487906" lon="12.84576192706285"><ele>618.6</ele><time>2026-04-12T08:07:54.999Z</time></trkpt><trkpt lat="42.15989556745359" lon="12.845700298635572"><ele>614.8</ele><time>2026-04-12T08:07:57Z</time></trkpt><trkpt lat="42.159817875535346" lon="12.845626850103839"><ele>611.0</ele><time>2026-04-12T08:07:59Z</time></trkpt><trkpt lat="42.15975065827987" lon="12.84557220222455"><ele>618.8333333333333</ele><time>2026-04-12T08:08:01Z</time></trkpt><trkpt lat="42.15967969475287" lon="12.8455314152914"><ele>626.6666666666666</ele><time>2026-04-12T08:08:03Z</time></trkpt><trkpt lat="42.159614083697186" lon="12.84545795150627"><ele>634.5</ele><time>2026-04-12T08:08:05Z</time></trkpt><trkpt lat="42.15956149748637" lon="12.845371823471522"><ele>642.3333333333334</ele><time>2026-04-12T08:08:11Z</time></trkpt><trkpt lat="42.15949655302872" lon="12.845326191968516"><ele>650.1666666666667</ele><time>2026-04-12T08:08:15Z</time></trkpt><trkpt lat="42.15943273927712" lon="12.845301887043483"><ele>658.0</ele><time>2026-04-12T08:08:33.999Z</time></trkpt><trkpt lat="42.159360363165874" lon="12.845304839823182"><ele>658.0</ele><time>2026-04-12T08:08:59.999Z</time></trkpt><trkpt lat="42.15927639984514" lon="12.845290153310076"><ele>658.0</ele><time>2026-04-12T08:09:04.999Z</time></trkpt><trkpt lat="42.159213234231174" lon="12.845297180833727"><ele>658.0</ele><time>2026-04-12T08:09:06.999Z</time></trkpt><trkpt lat="42.159115093972034" lon="12.845261859183815"><ele>658.0</ele><time>2026-04-12T08:09:09.999Z</time></trkpt><trkpt lat="42.15903141260201" lon="12.845180418114431"><ele>658.0</ele><time>2026-04-12T08:09:11.999Z</time></trkpt><trkpt lat="42.15897928025748" lon="12.845128036484784"><ele>658.0</ele><time>2026-04-12T08:09:12.999Z</time></trkpt><trkpt lat="42.15889015857575" lon="12.845031727180283"><ele>659.4</ele><time>2026-04-12T08:09:14.999Z</time></trkpt><trkpt lat="42.15880262784419" lon="12.844944132277863"><ele>660.8</ele><time>2026-04-12T08:09:17.999Z</time></trkpt><trkpt lat="42.15872399154945" lon="12.844874111663426"><ele>662.2</ele><time>2026-04-12T08:09:19.999Z</time></trkpt><trkpt lat="42.15864003517218" lon="12.844838645496477"><ele>663.6</ele><time>2026-04-12T08:09:22.999Z</time></trkpt><trkpt lat="42.158556889795776" lon="12.844833330479727"><ele>665.0</ele><time>2026-04-12T08:09:24.999Z</time></trkpt><trkpt lat="42.158488348254686" lon="12.844782731647818"><ele>665.0</ele><time>2026-04-12T08:09:28.999Z</time></trkpt><trkpt lat="42.158418865388676" lon="12.844712201190724"><ele>665.0</ele><time>2026-04-12T08:09:30.999Z</time></trkpt><trkpt lat="42.15832991385071" lon="12.844659282764965"><ele>665.0</ele><time>2026-04-12T08:09:32.999Z</time></trkpt><trkpt lat="42.15826839255308" lon="12.844595294251743"><ele>665.0</ele><time>2026-04-12T08:09:33.999Z</time></trkpt><trkpt lat="42.158210505354894" lon="12.844547007186412"><ele>665.0</ele><time>2026-04-12T08:09:34.999Z</time></trkpt><trkpt lat="42.158114870512655" lon="12.844465692261386"><ele>665.0</ele><time>2026-04-12T08:09:36.999Z</time></trkpt><trkpt lat="42.15805760564978" lon="12.844406377206658"><ele>667.0</ele><time>2026-04-12T08:09:37.999Z</time></trkpt><trkpt lat="42.15800036996548" lon="12.844359800288805"><ele>669.0</ele><time>2026-04-12T08:09:38.999Z</time></trkpt><trkpt lat="42.157909553571564" lon="12.844281786076024"><ele>671.0</ele><time>2026-04-12T08:09:40.999Z</time></trkpt><trkpt lat="42.15785888520374" lon="12.84417505736347"><ele>673.0</ele><time>2026-04-12T08:09:42.999Z</time></trkpt><trkpt lat="42.15781459921007" lon="12.844064094849807"><ele>675.0</ele><time>2026-04-12T08:09:44.999Z</time></trkpt><trkpt lat="42.15775549955349" lon="12.844014833326163"><ele>677.0</ele><time>2026-04-12T08:09:46.999Z</time></trkpt><trkpt lat="42.15766754326284" lon="12.843959852676932"><ele>677.0</ele><time>2026-04-12T08:09:48.999Z</time></trkpt><trkpt lat="42.15761266470261" lon="12.843908478971011"><ele>677.0</ele><time>2026-04-12T08:09:49.999Z</time></trkpt><trkpt lat="42.15756489129027" lon="12.843850370060897"><ele>677.0</ele><time>2026-04-12T08:09:50.999Z</time></trkpt><trkpt lat="42.15749195077837" lon="12.843803905193742"><ele>677.0</ele><time>2026-04-12T08:09:53.999Z</time></trkpt><trkpt lat="42.157430863816195" lon="12.843776591204524"><ele>677.0</ele><time>2026-04-12T08:09:55.998Z</time></trkpt><trkpt lat="42.157332195461045" lon="12.843712370081636"><ele>677.0</ele><time>2026-04-12T08:09:58.998Z</time></trkpt><trkpt lat="42.15726634378523" lon="12.843682299255473"><ele>685.0</ele><time>2026-04-12T08:09:59.998Z</time></trkpt><trkpt lat="42.15719403408228" lon="12.843645625821352"><ele>693.0</ele><time>2026-04-12T08:10:00.998Z</time></trkpt><trkpt lat="42.15712221115031" lon="12.843604051986002"><ele>701.0</ele><time>2026-04-12T08:10:01.998Z</time></trkpt><trkpt lat="42.15705933063961" lon="12.843548539795282"><ele>709.0</ele><time>2026-04-12T08:10:03Z</time></trkpt><trkpt lat="42.15695551856796" lon="12.84352489406704"><ele>717.0</ele><time>2026-04-12T08:10:05Z</time></trkpt><trkpt lat="42.156867909987085" lon="12.843492495011596"><ele>725.0</ele><time>2026-04-12T08:10:06Z</time></trkpt><trkpt lat="42.15678213037458" lon="12.843474151009987"><ele>717.6666666666666</ele><time>2026-04-12T08:10:07Z</time></trkpt><trkpt lat="42.15671021955418" lon="12.84345993162981"><ele>710.3333333333333</ele><time>2026-04-12T08:10:08Z</time></trkpt><trkpt lat="42.15662990613563" lon="12.843403434255462"><ele>703.0</ele><time>2026-04-12T08:10:10Z</time></trkpt><trkpt lat="42.156553781555765" lon="12.843407172799612"><ele>695.6666666666666</ele><time>2026-04-12T08:10:13Z</time></trkpt><trkpt lat="42.1564732016039" lon="12.843378862969452"><ele>688.3333333333334</ele><time>2026-04-12T08:10:16Z</time></trkpt><trkpt lat="42.15641417888473" lon="12.843336301157303"><ele>681.0</ele><time>2026-04-12T08:10:30Z</time></trkpt><trkpt lat="42.156462460596416" lon="12.843428250761344"><ele>689.8</ele><time>2026-04-12T08:10:43Z</time></trkpt><trkpt lat="42.156535401153626" lon="12.84352944266802"><ele>698.5999999999999</ele><time>2026-04-12T08:10:45Z</time></trkpt><trkpt lat="42.15662312585295" lon="12.843667389490015"><ele>707.4</ele><time>2026-04-12T08:10:47Z</time></trkpt><trkpt lat="42.15668740110171" lon="12.843742702080563"><ele>716.2</ele><time>2026-04-12T08:10:48Z</time></trkpt><trkpt lat="42.15675051909266" lon="12.843787777812786"><ele>725.0</ele><time>2026-04-12T08:10:49Z</time></trkpt><trkpt lat="42.156809117000314" lon="12.843850899294878"><ele>725.0</ele><time>2026-04-12T08:10:50Z</time></trkpt><trkpt lat="42.15687115924092" lon="12.843925094935493"><ele>725.0</ele><time>2026-04-12T08:10:51Z</time></trkpt><trkpt lat="42.1569286070024" lon="12.843979180677506"><ele>725.0</ele><time>2026-04-12T08:10:52Z</time></trkpt><trkpt lat="42.157016086624445" lon="12.843966787982238"><ele>725.0</ele><time>2026-04-12T08:10:53Z</time></trkpt><trkpt lat="42.15709204738596" lon="12.843998138471928"><ele>725.0</ele><time>2026-04-12T08:10:55Z</time></trkpt><trkpt lat="42.15709923522845" lon="12.844132426903958"><ele>725.0</ele><time>2026-04-12T08:10:57Z</time></trkpt><trkpt lat="42.1570941753306" lon="12.844217444738213"><ele>733.1666666666666</ele><time>2026-04-12T08:11:02Z</time></trkpt><trkpt lat="42.157101963113924" lon="12.844341570585946"><ele>741.3333333333333</ele><time>2026-04-12T08:11:05Z</time></trkpt><trkpt lat="42.15712722536875" lon="12.844464847700172"><ele>749.5</ele><time>2026-04-12T08:11:08Z</time></trkpt><trkpt lat="42.15715772667946" lon="12.844553095117009"><ele>757.6666666666666</ele><time>2026-04-12T08:11:11Z</time></trkpt><trkpt lat="42.157184054921395" lon="12.844638190071072"><ele>765.8333333333334</ele><time>2026-04-12T08:11:18Z</time></trkpt><trkpt lat="42.15723130909521" lon="12.844725667151913"><ele>774.0</ele><time>2026-04-12T08:11:22Z</time></trkpt><trkpt lat="42.157310242020614" lon="12.844803340976558"><ele>774.0</ele><time>2026-04-12T08:11:25Z</time></trkpt><trkpt lat="42.15734773515875" lon="12.844885093837178"><ele>774.0</ele><time>2026-04-12T08:11:27Z</time></trkpt><trkpt lat="42.157440056813215" lon="12.844952900089067"><ele>774.0</ele><time>2026-04-12T08:11:29Z</time></trkpt><trkpt lat="42.15752704005653" lon="12.84502273693443"><ele>774.0</ele><time>2026-04-12T08:11:31Z</time></trkpt><trkpt lat="42.15760932296873" lon="12.845083929015722"><ele>774.0</ele><time>2026-04-12T08:11:33Z</time></trkpt><trkpt lat="42.15763287066144" lon="12.845200239708912"><ele>771.8000000000001</ele><time>2026-04-12T08:11:35Z</time></trkpt><trkpt lat="42.15765749736497" lon="12.845321699383591"><ele>769.6</ele><time>2026-04-12T08:11:37Z</time></trkpt><trkpt lat="42.157697919587534" lon="12.845434153143534"><ele>767.4</ele><time>2026-04-12T08:11:39Z</time></trkpt><trkpt lat="42.15771853025956" lon="12.845564767906232"><ele>765.2</ele><time>2026-04-12T08:11:41Z</time></trkpt><trkpt lat="42.157731747843705" lon="12.845649396532165"><ele>763.0</ele><time>2026-04-12T08:11:42Z</time></trkpt><trkpt lat="42.1577847767045" lon="12.84576914627242"><ele>763.0</ele><time>2026-04-12T08:11:44Z</time></trkpt><trkpt lat="42.15785369533903" lon="12.845835228276131"><ele>763.0</ele><time>2026-04-12T08:11:46Z</time></trkpt><trkpt lat="42.15792153899115" lon="12.845922605168843"><ele>763.0</ele><time>2026-04-12T08:11:48Z</time></trkpt><trkpt lat="42.15802140176916" lon="12.845987666710771"><ele>763.0</ele><time>2026-04-12T08:11:50Z</time></trkpt><trkpt lat="42.158064684137884" lon="12.846128200326548"><ele>763.0</ele><time>2026-04-12T08:11:53Z</time></trkpt><trkpt lat="42.15806580005618" lon="12.84627575108827"><ele>766.2</ele><time>2026-04-12T08:11:54.999Z</time></trkpt><trkpt lat="42.15805103073962" lon="12.846375177185074"><ele>769.4</ele><time>2026-04-12T08:11:56.999Z</time></trkpt><trkpt lat="42.15801992612771" lon="12.84649368344734"><ele>772.6</ele><time>2026-04-12T08:11:59.999Z</time></trkpt><trkpt lat="42.15797861107934" lon="12.846661651660344"><ele>775.8000000000001</ele><time>2026-04-12T08:12:01.999Z</time></trkpt><trkpt lat="42.157961489851054" lon="12.846803794404517"><ele>779.0</ele><time>2026-04-12T08:12:03.999Z</time></trkpt><trkpt lat="42.15793028315664" lon="12.846909381749278"><ele>779.0000000000001</ele><time>2026-04-12T08:12:05.999Z</time></trkpt><trkpt lat="42.15790470390727" lon="12.847022484351093"><ele>779.0</ele><time>2026-04-12T08:12:08Z</time></trkpt><trkpt lat="42.157876411469644" lon="12.847112543071441"><ele>779.0</ele><time>2026-04-12T08:12:09Z</time></trkpt><trkpt lat="42.15784776607451" lon="12.847226083612885"><ele>779.0</ele><time>2026-04-12T08:12:10Z</time></trkpt><trkpt lat="42.157820235498576" lon="12.84734936355576"><ele>779.0000000000001</ele><time>2026-04-12T08:12:11Z</time></trkpt><trkpt lat="42.157787917553804" lon="12.847455731478762"><ele>779.0</ele><time>2026-04-12T08:12:12Z</time></trkpt><trkpt lat="42.157762066643485" lon="12.84754536162915"><ele>776.2</ele><time>2026-04-12T08:12:13Z</time></trkpt><trkpt lat="42.15772209723129" lon="12.847653952535566"><ele>773.4000000000001</ele><time>2026-04-12T08:12:14Z</time></trkpt><trkpt lat="42.15770364168185" lon="12.84773953381156"><ele>770.6</ele><time>2026-04-12T08:12:15Z</time></trkpt><trkpt lat="42.157680579171355" lon="12.847864493673784"><ele>767.8</ele><time>2026-04-12T08:12:16Z</time></trkpt><trkpt lat="42.15764880467446" lon="12.847961003553593"><ele>765.0</ele><time>2026-04-12T08:12:17Z</time></trkpt><trkpt lat="42.157605432027026" lon="12.848124019469552"><ele>765.0</ele><time>2026-04-12T08:12:19Z</time></trkpt><trkpt lat="42.15756482302081" lon="12.848196899822359"><ele>765.0</ele><time>2026-04-12T08:12:20Z</time></trkpt><trkpt lat="42.15753305194969" lon="12.848273768438618"><ele>765.0</ele><time>2026-04-12T08:12:21Z</time></trkpt><trkpt lat="42.15744967860329" lon="12.848378363944816"><ele>765.0</ele><time>2026-04-12T08:12:23Z</time></trkpt><trkpt lat="42.15739244976241" lon="12.848441301912889"><ele>765.0</ele><time>2026-04-12T08:12:24Z</time></trkpt><trkpt lat="42.157321942095784" lon="12.848496730819571"><ele>765.0</ele><time>2026-04-12T08:12:26Z</time></trkpt><trkpt lat="42.157264262833884" lon="12.848549848279065"><ele>766.8333333333334</ele><time>2026-04-12T08:12:27Z</time></trkpt><trkpt lat="42.15717506287111" lon="12.848618813447464"><ele>768.6666666666667</ele><time>2026-04-12T08:12:29Z</time></trkpt><trkpt lat="42.1571040655977" lon="12.84866425806246"><ele>770.5</ele><time>2026-04-12T08:12:44Z</time></trkpt><trkpt lat="42.15703884587024" lon="12.848701510168707"><ele>772.3333333333334</ele><time>2026-04-12T08:12:52Z</time></trkpt><trkpt lat="42.15698028710141" lon="12.84876941605758"><ele>774.1666666666667</ele><time>2026-04-12T08:12:56Z</time></trkpt><trkpt lat="42.15692804394754" lon="12.848837824182736"><ele>776.0</ele><time>2026-04-12T08:13:00Z</time></trkpt><trkpt lat="42.156868888235" lon="12.84888139684103"><ele>776.0000000000001</ele><time>2026-04-12T08:13:03Z</time></trkpt><trkpt lat="42.156781054888185" lon="12.848904207343192"><ele>776.0</ele><time>2026-04-12T08:13:11Z</time></trkpt><trkpt lat="42.15668530900284" lon="12.848914230146482"><ele>776.0</ele><time>2026-04-12T08:13:14Z</time></trkpt><trkpt lat="42.15662406833825" lon="12.848882757186779"><ele>776.0</ele><time>2026-04-12T08:13:16Z</time></trkpt><trkpt lat="42.15656049495832" lon="12.84887388481497"><ele>776.0000000000001</ele><time>2026-04-12T08:13:18Z</time></trkpt><trkpt lat="42.15658441428932" lon="12.848783637169838"><ele>776.0</ele><time>2026-04-12T08:14:00.999Z</time></trkpt><trkpt lat="42.15662922520344" lon="12.848722643955147"><ele>776.0</ele><time>2026-04-12T08:14:03.999Z</time></trkpt><trkpt lat="42.15659689033052" lon="12.848645551784376"><ele>776.0</ele><time>2026-04-12T08:15:13Z</time></trkpt><trkpt lat="42.15653038832188" lon="12.848594929306289"><ele>776.0</ele><time>2026-04-12T08:15:23Z</time></trkpt><trkpt lat="42.15646753257901" lon="12.848624907745048"><ele>776.0</ele><time>2026-04-12T08:15:26Z</time></trkpt><trkpt lat="42.15639596787699" lon="12.848637401542204"><ele>776.0</ele><time>2026-04-12T08:15:58Z</time></trkpt><trkpt lat="42.15632428762355" lon="12.848587763457283"><ele>776.0</ele><time>2026-04-12T08:16:01.999Z</time></trkpt><trkpt lat="42.15627461657229" lon="12.848518764384538"><ele>776.0</ele><time>2026-04-12T08:16:05.999Z</time></trkpt><trkpt lat="42.15620143180205" lon="12.848488045257538"><ele>782.5000000000001</ele><time>2026-04-12T08:16:08.999Z</time></trkpt><trkpt lat="42.15613626357631" lon="12.848445212901499"><ele>789.0</ele><time>2026-04-12T08:16:10.999Z</time></trkpt><trkpt lat="42.156046334470574" lon="12.848445652241463"><ele>795.5</ele><time>2026-04-12T08:16:12.999Z</time></trkpt><trkpt lat="42.15595660844494" lon="12.84843367021905"><ele>802.0</ele><time>2026-04-12T08:16:14.999Z</time></trkpt><trkpt lat="42.155893691853066" lon="12.848438701632787"><ele>808.5000000000001</ele><time>2026-04-12T08:16:23Z</time></trkpt><trkpt lat="42.15582365135798" lon="12.84839297335024"><ele>815.0</ele><time>2026-04-12T08:16:32Z</time></trkpt><trkpt lat="42.15577372764361" lon="12.848330596350896"><ele>817.6</ele><time>2026-04-12T08:16:38Z</time></trkpt><trkpt lat="42.155689590097424" lon="12.84832402684161"><ele>820.2</ele><time>2026-04-12T08:16:42Z</time></trkpt><trkpt lat="42.15559539237954" lon="12.848302547152912"><ele>822.8</ele><time>2026-04-12T08:16:45Z</time></trkpt><trkpt lat="42.155527893536174" lon="12.84833126285123"><ele>825.4</ele><time>2026-04-12T08:16:48Z</time></trkpt><trkpt lat="42.155458853935656" lon="12.848308917019777"><ele>828.0</ele><time>2026-04-12T08:16:51Z</time></trkpt><trkpt lat="42.15536579212806" lon="12.848131700429223"><ele>828.0</ele><time>2026-04-12T08:23:28Z</time></trkpt><trkpt lat="42.155309029009466" lon="12.848074517500883"><ele>828.0</ele><time>2026-04-12T08:23:29Z</time></trkpt><trkpt lat="42.15518532795732" lon="12.84808000026362"><ele>828.0</ele><time>2026-04-12T08:23:31Z</time></trkpt><trkpt lat="42.15512193222851" lon="12.84807619031303"><ele>828.0</ele><time>2026-04-12T08:23:32Z</time></trkpt><trkpt lat="42.155049591757944" lon="12.848062650229435"><ele>828.0</ele><time>2026-04-12T08:23:33Z</time></trkpt><trkpt lat="42.15496813377246" lon="12.848004721231272"><ele>828.0</ele><time>2026-04-12T08:23:34Z</time></trkpt><trkpt lat="42.154897708911314" lon="12.84794888061727"><ele>828.0</ele><time>2026-04-12T08:23:35Z</time></trkpt><trkpt lat="42.154819647625246" lon="12.84790324293835"><ele>828.0</ele><time>2026-04-12T08:23:36Z</time></trkpt><trkpt lat="42.15476035922312" lon="12.847859952010307"><ele>828.0</ele><time>2026-04-12T08:23:37Z</time></trkpt><trkpt lat="42.15465450340561" lon="12.847789639473557"><ele>828.0</ele><time>2026-04-12T08:23:39Z</time></trkpt><trkpt lat="42.15458634664484" lon="12.847756049019257"><ele>828.0</ele><time>2026-04-12T08:23:41Z</time></trkpt><trkpt lat="42.15452357599095" lon="12.847735185255496"><ele>828.0</ele><time>2026-04-12T08:23:43Z</time></trkpt><trkpt lat="42.154480570176524" lon="12.847814547990069"><ele>828.0</ele><time>2026-04-12T08:23:45Z</time></trkpt><trkpt lat="42.15446059471341" lon="12.84793907133612"><ele>828.0</ele><time>2026-04-12T08:23:46Z</time></trkpt><trkpt lat="42.15441203108953" lon="12.848047035795089"><ele>828.0</ele><time>2026-04-12T08:23:47Z</time></trkpt><trkpt lat="42.15432266729367" lon="12.848129991926932"><ele>828.0</ele><time>2026-04-12T08:23:48Z</time></trkpt><trkpt lat="42.154229742899105" lon="12.848203081428432"><ele>828.0</ele><time>2026-04-12T08:23:49Z</time></trkpt><trkpt lat="42.15414851887756" lon="12.848263607087944"><ele>828.0</ele><time>2026-04-12T08:23:50Z</time></trkpt><trkpt lat="42.15409439089956" lon="12.848332251910497"><ele>828.0</ele><time>2026-04-12T08:23:51Z</time></trkpt><trkpt lat="42.15406363585681" lon="12.848411687661258"><ele>828.0</ele><time>2026-04-12T08:23:52Z</time></trkpt><trkpt lat="42.154010921626686" lon="12.848527348418958"><ele>828.0</ele><time>2026-04-12T08:23:53Z</time></trkpt><trkpt lat="42.15395477245431" lon="12.848624377356707"><ele>828.0</ele><time>2026-04-12T08:23:54Z</time></trkpt><trkpt lat="42.15391724983307" lon="12.84873321446802"><ele>828.0</ele><time>2026-04-12T08:23:55Z</time></trkpt><trkpt lat="42.1538864755093" lon="12.848841097627826"><ele>828.2</ele><time>2026-04-12T08:23:56Z</time></trkpt><trkpt lat="42.15386100170689" lon="12.848959859080367"><ele>828.4</ele><time>2026-04-12T08:23:57Z</time></trkpt><trkpt lat="42.15381736129968" lon="12.849074020592736"><ele>828.6</ele><time>2026-04-12T08:23:58Z</time></trkpt><trkpt lat="42.1537636036358" lon="12.849175106100454"><ele>828.8000000000001</ele><time>2026-04-12T08:23:59Z</time></trkpt><trkpt lat="42.153705363126925" lon="12.84928218360598"><ele>829.0</ele><time>2026-04-12T08:24:00Z</time></trkpt><trkpt lat="42.153652149154276" lon="12.849380571874631"><ele>830.8000000000001</ele><time>2026-04-12T08:24:01Z</time></trkpt><trkpt lat="42.15360767456905" lon="12.849469265025853"><ele>832.6</ele><time>2026-04-12T08:24:02Z</time></trkpt><trkpt lat="42.15357607588176" lon="12.849570933436992"><ele>834.4</ele><time>2026-04-12T08:24:03Z</time></trkpt><trkpt lat="42.153518305327566" lon="12.849662948166053"><ele>836.2</ele><time>2026-04-12T08:24:04Z</time></trkpt><trkpt lat="42.15345125792273" lon="12.849760058342104"><ele>838.0</ele><time>2026-04-12T08:24:05Z</time></trkpt><trkpt lat="42.15337803768551" lon="12.849856859049721"><ele>838.0</ele><time>2026-04-12T08:24:06Z</time></trkpt><trkpt lat="42.15331208465449" lon="12.849954303319098"><ele>838.0</ele><time>2026-04-12T08:24:07Z</time></trkpt><trkpt lat="42.15325479930086" lon="12.850051666233739"><ele>838.0</ele><time>2026-04-12T08:24:08Z</time></trkpt><trkpt lat="42.15320225383497" lon="12.850161914248092"><ele>838.0</ele><time>2026-04-12T08:24:09Z</time></trkpt><trkpt lat="42.153148559155966" lon="12.85026832320649"><ele>838.0</ele><time>2026-04-12T08:24:10Z</time></trkpt><trkpt lat="42.15308284610526" lon="12.85037107375727"><ele>837.2</ele><time>2026-04-12T08:24:10.999Z</time></trkpt><trkpt lat="42.15301095435779" lon="12.850474635400886"><ele>836.4</ele><time>2026-04-12T08:24:11.999Z</time></trkpt><trkpt lat="42.15296740857399" lon="12.850567523639505"><ele>835.6</ele><time>2026-04-12T08:24:12.999Z</time></trkpt><trkpt lat="42.152923535022445" lon="12.850667471816923"><ele>834.8000000000001</ele><time>2026-04-12T08:24:13.999Z</time></trkpt><trkpt lat="42.15287676474475" lon="12.850774126899234"><ele>834.0</ele><time>2026-04-12T08:24:14.999Z</time></trkpt><trkpt lat="42.1528149977939" lon="12.850888212019091"><ele>835.8000000000001</ele><time>2026-04-12T08:24:15.999Z</time></trkpt><trkpt lat="42.152757661099386" lon="12.85097426120268"><ele>837.6</ele><time>2026-04-12T08:24:16.999Z</time></trkpt><trkpt lat="42.15271743522721" lon="12.851041709852408"><ele>839.4</ele><time>2026-04-12T08:24:17.999Z</time></trkpt><trkpt lat="42.152638928696014" lon="12.851128791964566"><ele>841.2</ele><time>2026-04-12T08:24:19.999Z</time></trkpt><trkpt lat="42.1525883616667" lon="12.851288224964307"><ele>843.0</ele><time>2026-04-12T08:24:21.999Z</time></trkpt><trkpt lat="42.152544670160765" lon="12.851378835491932"><ele>843.0</ele><time>2026-04-12T08:24:23.999Z</time></trkpt><trkpt lat="42.15255239430819" lon="12.851525106151033"><ele>843.0</ele><time>2026-04-12T08:24:25.999Z</time></trkpt><trkpt lat="42.15257778679214" lon="12.85174180617685"><ele>843.0</ele><time>2026-04-12T08:24:28.999Z</time></trkpt><trkpt lat="42.15253416179322" lon="12.851815709214492"><ele>843.0</ele><time>2026-04-12T08:24:37.999Z</time></trkpt><trkpt lat="42.152442486971864" lon="12.851864621644218"><ele>843.0</ele><time>2026-04-12T08:24:40.999Z</time></trkpt><trkpt lat="42.15237742494903" lon="12.851888076656135"><ele>841.5</ele><time>2026-04-12T08:24:43Z</time></trkpt><trkpt lat="42.1523442395308" lon="12.851978935758694"><ele>840.0</ele><time>2026-04-12T08:24:46Z</time></trkpt><trkpt lat="42.152227705599124" lon="12.852115942530059"><ele>838.5</ele><time>2026-04-12T08:24:48Z</time></trkpt><trkpt lat="42.15219042285755" lon="12.85218968097481"><ele>837.0</ele><time>2026-04-12T08:24:51Z</time></trkpt><trkpt lat="42.1521505323869" lon="12.85228713202154"><ele>835.5</ele><time>2026-04-12T08:24:53Z</time></trkpt><trkpt lat="42.15216451490206" lon="12.85237950312298"><ele>834.0</ele><time>2026-04-12T08:24:55Z</time></trkpt><trkpt lat="42.15216951812979" lon="12.852491859148714"><ele>834.0</ele><time>2026-04-12T08:24:57Z</time></trkpt><trkpt lat="42.15219407126884" lon="12.852613708340531"><ele>834.0</ele><time>2026-04-12T08:24:59Z</time></trkpt><trkpt lat="42.15214281795935" lon="12.85271388386342"><ele>834.0</ele><time>2026-04-12T08:25:02Z</time></trkpt><trkpt lat="42.1521115106683" lon="12.852826208081394"><ele>834.0</ele><time>2026-04-12T08:25:04Z</time></trkpt><trkpt lat="42.152091782325506" lon="12.852945244788206"><ele>834.0</ele><time>2026-04-12T08:25:06Z</time></trkpt><trkpt lat="42.15209658895229" lon="12.853038474546807"><ele>834.0</ele><time>2026-04-12T08:25:09Z</time></trkpt><trkpt lat="42.152115186089404" lon="12.853205472035718"><ele>833.8333333333334</ele><time>2026-04-12T08:25:11Z</time></trkpt><trkpt lat="42.15212049224949" lon="12.853314997351482"><ele>833.6666666666667</ele><time>2026-04-12T08:25:12Z</time></trkpt><trkpt lat="42.15211667667533" lon="12.8534129469663"><ele>833.5</ele><time>2026-04-12T08:25:13Z</time></trkpt><trkpt lat="42.15211853248004" lon="12.853515605049173"><ele>833.3333333333334</ele><time>2026-04-12T08:25:14Z</time></trkpt><trkpt lat="42.15212112813785" lon="12.853619954577155"><ele>833.1666666666667</ele><time>2026-04-12T08:25:15Z</time></trkpt><trkpt lat="42.15213250909789" lon="12.85372477461884"><ele>833.0</ele><time>2026-04-12T08:25:17Z</time></trkpt><trkpt lat="42.1521600836944" lon="12.853827006533502"><ele>833.0000000000001</ele><time>2026-04-12T08:25:21Z</time></trkpt><trkpt lat="42.15216645223454" lon="12.85394878118826"><ele>833.0</ele><time>2026-04-12T08:25:23Z</time></trkpt><trkpt lat="42.1521792142654" lon="12.854034913834072"><ele>833.0</ele><time>2026-04-12T08:25:25Z</time></trkpt><trkpt lat="42.152194840275776" lon="12.854174401997831"><ele>833.0</ele><time>2026-04-12T08:25:27Z</time></trkpt><trkpt lat="42.15218613654239" lon="12.854304841891121"><ele>833.0000000000001</ele><time>2026-04-12T08:25:29Z</time></trkpt><trkpt lat="42.15215267641514" lon="12.85441452639522"><ele>833.0</ele><time>2026-04-12T08:25:32Z</time></trkpt><trkpt lat="42.15215566169361" lon="12.854536523035131"><ele>833.1666666666667</ele><time>2026-04-12T08:25:35Z</time></trkpt><trkpt lat="42.15211682284813" lon="12.854637902271296"><ele>833.3333333333334</ele><time>2026-04-12T08:25:38Z</time></trkpt><trkpt lat="42.152100143460416" lon="12.854736021613068"><ele>833.5</ele><time>2026-04-12T08:25:41Z</time></trkpt><trkpt lat="42.15208675454986" lon="12.854843243641781"><ele>833.6666666666667</ele><time>2026-04-12T08:25:47Z</time></trkpt><trkpt lat="42.1520684270783" lon="12.854967620712648"><ele>833.8333333333334</ele><time>2026-04-12T08:25:49Z</time></trkpt><trkpt lat="42.15204529505391" lon="12.855059118888104"><ele>834.0</ele><time>2026-04-12T08:25:51Z</time></trkpt><trkpt lat="42.151986863719856" lon="12.855142917077822"><ele>832.8571428571429</ele><time>2026-04-12T08:25:53Z</time></trkpt><trkpt lat="42.15194029569044" lon="12.855204671771183"><ele>831.7142857142857</ele><time>2026-04-12T08:25:54Z</time></trkpt><trkpt lat="42.15189026144023" lon="12.855279701753343"><ele>830.5714285714286</ele><time>2026-04-12T08:25:55Z</time></trkpt><trkpt lat="42.15182817664024" lon="12.855303967782154"><ele>829.4285714285714</ele><time>2026-04-12T08:25:57Z</time></trkpt><trkpt lat="42.15176242817465" lon="12.855321416898501"><ele>828.2857142857142</ele><time>2026-04-12T08:25:59Z</time></trkpt><trkpt lat="42.15169496747341" lon="12.855353412927002"><ele>827.1428571428571</ele><time>2026-04-12T08:26:02Z</time></trkpt><trkpt lat="42.151617178865145" lon="12.855363856323335"><ele>826.0</ele><time>2026-04-12T08:26:04Z</time></trkpt><trkpt lat="42.15156071358137" lon="12.855311088823468"><ele>827.9999999999999</ele><time>2026-04-12T08:27:01Z</time></trkpt><trkpt lat="42.151497722737645" lon="12.855304315915664"><ele>830.0</ele><time>2026-04-12T08:27:03Z</time></trkpt><trkpt lat="42.15143348051186" lon="12.85531972443577"><ele>832.0</ele><time>2026-04-12T08:27:05Z</time></trkpt><trkpt lat="42.151353757583166" lon="12.855320307378028"><ele>834.0</ele><time>2026-04-12T08:27:07Z</time></trkpt><trkpt lat="42.15125572769882" lon="12.855315296194046"><ele>835.9999999999999</ele><time>2026-04-12T08:27:09Z</time></trkpt><trkpt lat="42.151165224313694" lon="12.855336350120641"><ele>838.0</ele><time>2026-04-12T08:27:11Z</time></trkpt><trkpt lat="42.1510614529869" lon="12.855350708205878"><ele>837.9999999999999</ele><time>2026-04-12T08:27:13Z</time></trkpt><trkpt lat="42.15100178538194" lon="12.855385282358894"><ele>838.0</ele><time>2026-04-12T08:27:14Z</time></trkpt><trkpt lat="42.15093929763752" lon="12.85540542278627"><ele>838.0</ele><time>2026-04-12T08:27:15Z</time></trkpt><trkpt lat="42.15084083292852" lon="12.855439706579165"><ele>838.0</ele><time>2026-04-12T08:27:17Z</time></trkpt><trkpt lat="42.15077457285242" lon="12.85545161623967"><ele>837.9999999999999</ele><time>2026-04-12T08:27:19Z</time></trkpt><trkpt lat="42.15069004812956" lon="12.855449332358033"><ele>838.0</ele><time>2026-04-12T08:27:21Z</time></trkpt><trkpt lat="42.150589651422706" lon="12.855461270966748"><ele>841.1666666666666</ele><time>2026-04-12T08:27:23Z</time></trkpt><trkpt lat="42.15052397723601" lon="12.8554561699841"><ele>844.3333333333333</ele><time>2026-04-12T08:27:33Z</time></trkpt><trkpt lat="42.150426450279085" lon="12.8554765169798"><ele>847.5</ele><time>2026-04-12T08:27:35Z</time></trkpt><trkpt lat="42.15036201661683" lon="12.855489196360503"><ele>850.6666666666667</ele><time>2026-04-12T08:27:36Z</time></trkpt><trkpt lat="42.150266951273125" lon="12.85548193223981"><ele>853.8333333333334</ele><time>2026-04-12T08:27:38Z</time></trkpt><trkpt lat="42.150174834617744" lon="12.85546215335865"><ele>857.0</ele><time>2026-04-12T08:27:40Z</time></trkpt><trkpt lat="42.15007154582098" lon="12.855406739336006"><ele>857.0000000000001</ele><time>2026-04-12T08:27:42Z</time></trkpt><trkpt lat="42.1499797278327" lon="12.855357641521854"><ele>857.0</ele><time>2026-04-12T08:27:44Z</time></trkpt><trkpt lat="42.14988164675964" lon="12.855302494924148"><ele>857.0</ele><time>2026-04-12T08:27:46Z</time></trkpt><trkpt lat="42.14979640577317" lon="12.855297696905811"><ele>857.0</ele><time>2026-04-12T08:27:48Z</time></trkpt><trkpt lat="42.14972146565468" lon="12.855339248585727"><ele>857.0000000000001</ele><time>2026-04-12T08:27:50Z</time></trkpt><trkpt lat="42.14966181245305" lon="12.85538042846422"><ele>857.0</ele><time>2026-04-12T08:27:52Z</time></trkpt><trkpt lat="42.149577213293284" lon="12.855409546853625"><ele>861.6666666666667</ele><time>2026-04-12T08:27:54Z</time></trkpt><trkpt lat="42.14948754733703" lon="12.85542503071137"><ele>866.3333333333334</ele><time>2026-04-12T08:27:56Z</time></trkpt><trkpt lat="42.14940233785888" lon="12.855424209945483"><ele>871.0</ele><time>2026-04-12T08:27:58Z</time></trkpt><trkpt lat="42.14932007552943" lon="12.85538338627778"><ele>875.6666666666667</ele><time>2026-04-12T08:28:00Z</time></trkpt><trkpt lat="42.14925793134817" lon="12.85532701685417"><ele>880.3333333333334</ele><time>2026-04-12T08:28:02Z</time></trkpt><trkpt lat="42.14916498289484" lon="12.855272864435655"><ele>885.0</ele><time>2026-04-12T08:28:04Z</time></trkpt><trkpt lat="42.14903847794929" lon="12.855274680727133"><ele>889.2</ele><time>2026-04-12T08:28:06Z</time></trkpt><trkpt lat="42.14893198707687" lon="12.855337596939789"><ele>893.4</ele><time>2026-04-12T08:28:08Z</time></trkpt><trkpt lat="42.14881816791372" lon="12.85534901070468"><ele>897.5999999999999</ele><time>2026-04-12T08:28:10Z</time></trkpt><trkpt lat="42.14869821487347" lon="12.855351845925213"><ele>901.8</ele><time>2026-04-12T08:28:12Z</time></trkpt><trkpt lat="42.14862485540715" lon="12.855334390726378"><ele>906.0</ele><time>2026-04-12T08:28:13Z</time></trkpt><trkpt lat="42.14855758226077" lon="12.855314978833466"><ele>906.0</ele><time>2026-04-12T08:28:14Z</time></trkpt><trkpt lat="42.14845970886938" lon="12.855378101554981"><ele>906.0</ele><time>2026-04-12T08:28:16Z</time></trkpt><trkpt lat="42.14841750055374" lon="12.855444979782863"><ele>906.0</ele><time>2026-04-12T08:28:17Z</time></trkpt><trkpt lat="42.14837228907957" lon="12.855511580283348"><ele>906.0</ele><time>2026-04-12T08:28:18Z</time></trkpt><trkpt lat="42.14831208199808" lon="12.855602167052737"><ele>906.0</ele><time>2026-04-12T08:28:20Z</time></trkpt><trkpt lat="42.14825198740133" lon="12.855630959250371"><ele>906.0</ele><time>2026-04-12T08:28:20.999Z</time></trkpt><trkpt lat="42.148168043251026" lon="12.855659912507686"><ele>908.4</ele><time>2026-04-12T08:28:21.999Z</time></trkpt><trkpt lat="42.14808726634846" lon="12.855718705849968"><ele>910.8</ele><time>2026-04-12T08:28:22.999Z</time></trkpt><trkpt lat="42.14803021037622" lon="12.855759932228347"><ele>913.1999999999999</ele><time>2026-04-12T08:28:23.999Z</time></trkpt><trkpt lat="42.14794164086494" lon="12.855770016791306"><ele>915.5999999999999</ele><time>2026-04-12T08:28:24.999Z</time></trkpt><trkpt lat="42.147836958604856" lon="12.85580837895877"><ele>918.0</ele><time>2026-04-12T08:28:25.999Z</time></trkpt><trkpt lat="42.14769931827126" lon="12.855823297707497"><ele>918.0</ele><time>2026-04-12T08:28:26.999Z</time></trkpt><trkpt lat="42.14755680547966" lon="12.855825538581307"><ele>918.0</ele><time>2026-04-12T08:28:27.999Z</time></trkpt><trkpt lat="42.14744529622291" lon="12.855863587709917"><ele>918.0</ele><time>2026-04-12T08:28:28.999Z</time></trkpt><trkpt lat="42.147322884913876" lon="12.855902443440119"><ele>918.0</ele><time>2026-04-12T08:28:29.999Z</time></trkpt><trkpt lat="42.14722490442884" lon="12.855911829997677"><ele>919.5</ele><time>2026-04-12T08:28:30.999Z</time></trkpt><trkpt lat="42.147151117708404" lon="12.855908816855832"><ele>921.0</ele><time>2026-04-12T08:28:31.999Z</time></trkpt><trkpt lat="42.14708069041562" lon="12.855938544791762"><ele>922.5</ele><time>2026-04-12T08:28:32.999Z</time></trkpt><trkpt lat="42.14699990327224" lon="12.855994800832068"><ele>924.0</ele><time>2026-04-12T08:28:33.999Z</time></trkpt><trkpt lat="42.14692726701012" lon="12.856037900725882"><ele>925.5</ele><time>2026-04-12T08:28:34.999Z</time></trkpt><trkpt lat="42.146826772565696" lon="12.856057865584354"><ele>927.0</ele><time>2026-04-12T08:28:36.999Z</time></trkpt><trkpt lat="42.14673909489309" lon="12.856084437824634"><ele>929.1666666666666</ele><time>2026-04-12T08:28:38.999Z</time></trkpt><trkpt lat="42.14667059625531" lon="12.856086752867107"><ele>931.3333333333333</ele><time>2026-04-12T08:28:39.999Z</time></trkpt><trkpt lat="42.14657915770336" lon="12.85604494202125"><ele>933.5</ele><time>2026-04-12T08:28:40.999Z</time></trkpt><trkpt lat="42.146501613713696" lon="12.856011391202182"><ele>935.6666666666666</ele><time>2026-04-12T08:28:41.999Z</time></trkpt><trkpt lat="42.146425566802094" lon="12.856015846199046"><ele>937.8333333333333</ele><time>2026-04-12T08:28:43.999Z</time></trkpt><trkpt lat="42.14633502673174" lon="12.855987741787137"><ele>940.0</ele><time>2026-04-12T08:28:46.999Z</time></trkpt><trkpt lat="42.146261430829774" lon="12.855962788582032"><ele>939.9999999999999</ele><time>2026-04-12T08:28:49.999Z</time></trkpt><trkpt lat="42.14618642794903" lon="12.855984530598267"><ele>940.0</ele><time>2026-04-12T08:28:55Z</time></trkpt><trkpt lat="42.14609643178278" lon="12.855986133711538"><ele>940.0</ele><time>2026-04-12T08:28:57Z</time></trkpt><trkpt lat="42.14603214175033" lon="12.85600654993487"><ele>940.0</ele><time>2026-04-12T08:28:59Z</time></trkpt><trkpt lat="42.14596395976288" lon="12.856029610848195"><ele>939.9999999999999</ele><time>2026-04-12T08:29:01Z</time></trkpt><trkpt lat="42.145912005677694" lon="12.856078868017354"><ele>940.0</ele><time>2026-04-12T08:29:04Z</time></trkpt><trkpt lat="42.14588440299857" lon="12.856188651395458"><ele>939.9999999999999</ele><time>2026-04-12T08:29:06Z</time></trkpt><trkpt lat="42.14588947504228" lon="12.856277145794403"><ele>940.0</ele><time>2026-04-12T08:29:09Z</time></trkpt><trkpt lat="42.14591053945266" lon="12.856398539247765"><ele>940.0</ele><time>2026-04-12T08:29:23Z</time></trkpt><trkpt lat="42.1458897252403" lon="12.856532055524285"><ele>940.0</ele><time>2026-04-12T08:29:25Z</time></trkpt><trkpt lat="42.14586323244702" lon="12.85660986847426"><ele>939.9999999999999</ele><time>2026-04-12T08:29:26Z</time></trkpt><trkpt lat="42.14584504824931" lon="12.856697377252903"><ele>940.0</ele><time>2026-04-12T08:29:27Z</time></trkpt><trkpt lat="42.145816226507115" lon="12.856817245534375"><ele>940.9999999999999</ele><time>2026-04-12T08:29:29Z</time></trkpt><trkpt lat="42.14582222237695" lon="12.856903501603805"><ele>942.0</ele><time>2026-04-12T08:29:31Z</time></trkpt><trkpt lat="42.1458263251554" lon="12.857088588847516"><ele>943.0</ele><time>2026-04-12T08:29:33Z</time></trkpt><trkpt lat="42.14581083187902" lon="12.857206801306297"><ele>944.0</ele><time>2026-04-12T08:29:34Z</time></trkpt><trkpt lat="42.145792524071794" lon="12.857302688429233"><ele>944.9999999999999</ele><time>2026-04-12T08:29:35Z</time></trkpt><trkpt lat="42.145767292377435" lon="12.857385954828564"><ele>946.0</ele><time>2026-04-12T08:29:36Z</time></trkpt><trkpt lat="42.14573399303108" lon="12.85754995768051"><ele>946.8571428571429</ele><time>2026-04-12T08:29:38Z</time></trkpt><trkpt lat="42.14570699792703" lon="12.857650519602668"><ele>947.7142857142857</ele><time>2026-04-12T08:29:39Z</time></trkpt><trkpt lat="42.14568950320326" lon="12.85775910819822"><ele>948.5714285714286</ele><time>2026-04-12T08:29:40Z</time></trkpt><trkpt lat="42.145673571453216" lon="12.857851679596786"><ele>949.4285714285714</ele><time>2026-04-12T08:29:41Z</time></trkpt><trkpt lat="42.14565056426393" lon="12.857945224652413"><ele>950.2857142857142</ele><time>2026-04-12T08:29:42Z</time></trkpt><trkpt lat="42.14563259794735" lon="12.85804121410357"><ele>951.1428571428571</ele><time>2026-04-12T08:29:43Z</time></trkpt><trkpt lat="42.14562350004647" lon="12.858126404942936"><ele>952.0</ele><time>2026-04-12T08:29:44Z</time></trkpt><trkpt lat="42.14555496785937" lon="12.858260043607567"><ele>951.9999999999999</ele><time>2026-04-12T08:29:46Z</time></trkpt><trkpt lat="42.14554075704962" lon="12.858370439655774"><ele>952.0</ele><time>2026-04-12T08:29:48Z</time></trkpt><trkpt lat="42.145489267957636" lon="12.858482693895988"><ele>952.0</ele><time>2026-04-12T08:29:52Z</time></trkpt><trkpt lat="42.14542958566709" lon="12.858545545829452"><ele>952.0</ele><time>2026-04-12T08:29:54Z</time></trkpt><trkpt lat="42.14536955503556" lon="12.858577715573212"><ele>951.9999999999999</ele><time>2026-04-12T08:29:56Z</time></trkpt><trkpt lat="42.145297726191096" lon="12.858624895531978"><ele>952.0</ele><time>2026-04-12T08:29:59Z</time></trkpt><trkpt lat="42.14520609191344" lon="12.85867798637159"><ele>951.4999999999999</ele><time>2026-04-12T08:30:02Z</time></trkpt><trkpt lat="42.14513394845918" lon="12.858723089278339"><ele>951.0</ele><time>2026-04-12T08:30:04Z</time></trkpt><trkpt lat="42.145072164444976" lon="12.85878073131968"><ele>950.5</ele><time>2026-04-12T08:30:06Z</time></trkpt><trkpt lat="42.145011787780035" lon="12.858837735978172"><ele>950.0</ele><time>2026-04-12T08:30:08Z</time></trkpt><trkpt lat="42.14492112210117" lon="12.858916233629449"><ele>949.4999999999999</ele><time>2026-04-12T08:30:10Z</time></trkpt><trkpt lat="42.14488639231903" lon="12.859027157029896"><ele>949.0</ele><time>2026-04-12T08:30:12Z</time></trkpt><trkpt lat="42.14483726214102" lon="12.859138566586005"><ele>948.1666666666666</ele><time>2026-04-12T08:30:14Z</time></trkpt><trkpt lat="42.144781604496465" lon="12.85924241049412"><ele>947.3333333333333</ele><time>2026-04-12T08:30:16Z</time></trkpt><trkpt lat="42.144688346200454" lon="12.85928394097932"><ele>946.5</ele><time>2026-04-12T08:30:18Z</time></trkpt><trkpt lat="42.14460022792845" lon="12.85929854455197"><ele>945.6666666666667</ele><time>2026-04-12T08:30:20Z</time></trkpt><trkpt lat="42.14453206701126" lon="12.85936884782992"><ele>944.8333333333334</ele><time>2026-04-12T08:30:22.999Z</time></trkpt><trkpt lat="42.14446001495327" lon="12.859367523783744"><ele>944.0</ele><time>2026-04-12T08:30:24.999Z</time></trkpt><trkpt lat="42.14440047672337" lon="12.859407051642094"><ele>944.0000000000001</ele><time>2026-04-12T08:30:26.999Z</time></trkpt><trkpt lat="42.14434117417034" lon="12.859484464500898"><ele>944.0</ele><time>2026-04-12T08:30:29.999Z</time></trkpt><trkpt lat="42.14426441906875" lon="12.859534632704378"><ele>944.0</ele><time>2026-04-12T08:30:32.999Z</time></trkpt><trkpt lat="42.144200388865016" lon="12.859521738955996"><ele>944.0</ele><time>2026-04-12T08:30:34.999Z</time></trkpt><trkpt lat="42.14410969570186" lon="12.859486383917522"><ele>944.0000000000001</ele><time>2026-04-12T08:30:36.999Z</time></trkpt><trkpt lat="42.14403168422922" lon="12.859464947246776"><ele>944.0</ele><time>2026-04-12T08:30:39.999Z</time></trkpt><trkpt lat="42.14395534076961" lon="12.859431459605164"><ele>942.5000000000001</ele><time>2026-04-12T08:30:41.999Z</time></trkpt><trkpt lat="42.143875565495264" lon="12.859392247915453"><ele>941.0</ele><time>2026-04-12T08:30:43.999Z</time></trkpt><trkpt lat="42.14377685175603" lon="12.859364655565669"><ele>939.5</ele><time>2026-04-12T08:30:45.999Z</time></trkpt><trkpt lat="42.14371509799137" lon="12.859402530792673"><ele>938.0</ele><time>2026-04-12T08:30:47.999Z</time></trkpt><trkpt lat="42.14363830962276" lon="12.859371860868402"><ele>936.5000000000001</ele><time>2026-04-12T08:30:50.999Z</time></trkpt><trkpt lat="42.143537360394525" lon="12.859342172355639"><ele>935.0</ele><time>2026-04-12T08:30:52.999Z</time></trkpt><trkpt lat="42.14345328552813" lon="12.859340978941832"><ele>935.0</ele><time>2026-04-12T08:30:54.999Z</time></trkpt><trkpt lat="42.1433538552422" lon="12.859342633637675"><ele>935.0</ele><time>2026-04-12T08:30:56.999Z</time></trkpt><trkpt lat="42.143256251450126" lon="12.85933647700547"><ele>935.0</ele><time>2026-04-12T08:30:58.999Z</time></trkpt><trkpt lat="42.143162272794854" lon="12.85930997651459"><ele>935.0</ele><time>2026-04-12T08:31:01Z</time></trkpt><trkpt lat="42.14304787624103" lon="12.859274264964201"><ele>935.0</ele><time>2026-04-12T08:31:03Z</time></trkpt><trkpt lat="42.14294115859183" lon="12.859257233843666"><ele>935.6666666666667</ele><time>2026-04-12T08:31:05Z</time></trkpt><trkpt lat="42.14287624404904" lon="12.859243727596263"><ele>936.3333333333334</ele><time>2026-04-12T08:31:06Z</time></trkpt><trkpt lat="42.14281030058411" lon="12.859245699786184"><ele>937.0</ele><time>2026-04-12T08:31:07Z</time></trkpt><trkpt lat="42.14272672158522" lon="12.859260242203773"><ele>937.6666666666667</ele><time>2026-04-12T08:31:09Z</time></trkpt><trkpt lat="42.142628605809136" lon="12.85928241844128"><ele>938.3333333333334</ele><time>2026-04-12T08:31:11Z</time></trkpt><trkpt lat="42.14256028361177" lon="12.859291314764686"><ele>939.0</ele><time>2026-04-12T08:31:13Z</time></trkpt><trkpt lat="42.142492241140836" lon="12.859338170684431"><ele>940.6666666666666</ele><time>2026-04-12T08:31:17Z</time></trkpt><trkpt lat="42.14241799308949" lon="12.85937005893884"><ele>942.3333333333333</ele><time>2026-04-12T08:31:21Z</time></trkpt><trkpt lat="42.14234692214192" lon="12.859380919802113"><ele>944.0</ele><time>2026-04-12T08:31:25Z</time></trkpt><trkpt lat="42.14226788076102" lon="12.859379694033807"><ele>945.6666666666666</ele><time>2026-04-12T08:31:29Z</time></trkpt><trkpt lat="42.142206080894915" lon="12.859342933784312"><ele>947.3333333333333</ele><time>2026-04-12T08:31:34Z</time></trkpt><trkpt lat="42.142178625111946" lon="12.859256714742129"><ele>949.0</ele><time>2026-04-12T08:31:38Z</time></trkpt><trkpt lat="42.14217717644019" lon="12.85913118439865"><ele>949.6666666666666</ele><time>2026-04-12T08:31:41Z</time></trkpt><trkpt lat="42.14217923041269" lon="12.859031651196183"><ele>950.3333333333333</ele><time>2026-04-12T08:32:08Z</time></trkpt><trkpt lat="42.142140213905435" lon="12.859119158386592"><ele>951.0</ele><time>2026-04-12T08:47:51Z</time></trkpt><trkpt lat="42.14207992668857" lon="12.859091047815717"><ele>951.6666666666667</ele><time>2026-04-12T08:47:56Z</time></trkpt><trkpt lat="42.14202859088995" lon="12.859020007965126"><ele>952.3333333333334</ele><time>2026-04-12T08:47:58Z</time></trkpt><trkpt lat="42.14196207191634" lon="12.858894249623347"><ele>953.0</ele><time>2026-04-12T08:48:00Z</time></trkpt><trkpt lat="42.14194587336858" lon="12.858786601699498"><ele>953.0</ele><time>2026-04-12T08:48:02Z</time></trkpt><trkpt lat="42.14194315311208" lon="12.858692467175047"><ele>953.0</ele><time>2026-04-12T08:48:04Z</time></trkpt><trkpt lat="42.14192761329406" lon="12.858603098363005"><ele>953.0</ele><time>2026-04-12T08:48:05Z</time></trkpt><trkpt lat="42.141951837256975" lon="12.858513310066664"><ele>953.0</ele><time>2026-04-12T08:48:07Z</time></trkpt><trkpt lat="42.14197264943056" lon="12.858425692181301"><ele>953.0</ele><time>2026-04-12T08:48:09Z</time></trkpt><trkpt lat="42.14197334417184" lon="12.85830479668081"><ele>953.0</ele><time>2026-04-12T08:48:11Z</time></trkpt><trkpt lat="42.14199578252108" lon="12.85819862682572"><ele>953.0</ele><time>2026-04-12T08:48:13Z</time></trkpt><trkpt lat="42.1420322753961" lon="12.858111042129718"><ele>954.0</ele><time>2026-04-12T08:48:16Z</time></trkpt><trkpt lat="42.14200067190375" lon="12.858028086491098"><ele>955.0</ele><time>2026-04-12T08:48:23Z</time></trkpt><trkpt lat="42.14195510333966" lon="12.85796356262966"><ele>956.0</ele><time>2026-04-12T08:48:29Z</time></trkpt><trkpt lat="42.14188096310374" lon="12.857936532087367"><ele>957.0</ele><time>2026-04-12T08:48:31Z</time></trkpt><trkpt lat="42.14181795610807" lon="12.857917441080739"><ele>958.0</ele><time>2026-04-12T08:48:34Z</time></trkpt><trkpt lat="42.14172312312537" lon="12.857922085970158"><ele>959.0</ele><time>2026-04-12T08:48:51.999Z</time></trkpt><trkpt lat="42.14165972323635" lon="12.857884501294885"><ele>960.0</ele><time>2026-04-12T08:48:53.999Z</time></trkpt><trkpt lat="42.141583085584045" lon="12.857858621234122"><ele>960.4285714285714</ele><time>2026-04-12T08:48:55.999Z</time></trkpt><trkpt lat="42.14151031695281" lon="12.857849961313027"><ele>960.8571428571429</ele><time>2026-04-12T08:48:57.999Z</time></trkpt><trkpt lat="42.141442109489326" lon="12.857852846435772"><ele>961.2857142857143</ele><time>2026-04-12T08:48:59.999Z</time></trkpt><trkpt lat="42.141365419292306" lon="12.857856440518717"><ele>961.7142857142858</ele><time>2026-04-12T08:49:01.999Z</time></trkpt><trkpt lat="42.141285990417074" lon="12.857880905615156"><ele>962.1428571428571</ele><time>2026-04-12T08:49:04.999Z</time></trkpt><trkpt lat="42.1412175794016" lon="12.85793401053864"><ele>962.5714285714287</ele><time>2026-04-12T08:49:06.999Z</time></trkpt><trkpt lat="42.14116997427809" lon="12.858002349189393"><ele>963.0000000000001</ele><time>2026-04-12T08:49:09.999Z</time></trkpt><trkpt lat="42.141165976089724" lon="12.858097643250149"><ele>963.0</ele><time>2026-04-12T08:49:17.999Z</time></trkpt><trkpt lat="42.14115378795199" lon="12.858221059929134"><ele>963.0</ele><time>2026-04-12T08:49:21.999Z</time></trkpt><trkpt lat="42.14112185781456" lon="12.858324831270698"><ele>963.0</ele><time>2026-04-12T08:49:34.999Z</time></trkpt><trkpt lat="42.141102388023356" lon="12.858410922326048"><ele>963.0</ele><time>2026-04-12T08:49:36.999Z</time></trkpt><trkpt lat="42.1410700914739" lon="12.858490138902738"><ele>963.0</ele><time>2026-04-12T08:49:38.999Z</time></trkpt><trkpt lat="42.14103381024184" lon="12.858571249428827"><ele>963.0</ele><time>2026-04-12T08:49:40.999Z</time></trkpt><trkpt lat="42.14098189227719" lon="12.858649308933533"><ele>965.1666666666666</ele><time>2026-04-12T08:49:44.999Z</time></trkpt><trkpt lat="42.140929834140444" lon="12.858723950811202"><ele>967.3333333333333</ele><time>2026-04-12T08:49:47.999Z</time></trkpt><trkpt lat="42.14088736597098" lon="12.858824418457095"><ele>969.5</ele><time>2026-04-12T08:49:49.999Z</time></trkpt><trkpt lat="42.140853328571474" lon="12.858922897533528"><ele>971.6666666666666</ele><time>2026-04-12T08:50:14Z</time></trkpt><trkpt lat="42.1408140945633" lon="12.859037188906983"><ele>973.8333333333333</ele><time>2026-04-12T08:50:16Z</time></trkpt><trkpt lat="42.140796727975605" lon="12.859133904290752"><ele>976.0</ele><time>2026-04-12T08:50:19Z</time></trkpt><trkpt lat="42.1407342418944" lon="12.859220479888124"><ele>978.4999999999999</ele><time>2026-04-12T08:50:22Z</time></trkpt><trkpt lat="42.140701899056424" lon="12.859330161405195"><ele>981.0</ele><time>2026-04-12T08:50:24Z</time></trkpt><trkpt lat="42.140675636821655" lon="12.859435544428704"><ele>983.5</ele><time>2026-04-12T08:50:26Z</time></trkpt><trkpt lat="42.14061801566841" lon="12.859528883468561"><ele>986.0</ele><time>2026-04-12T08:50:29Z</time></trkpt><trkpt lat="42.14058875305082" lon="12.859605376274164"><ele>988.4999999999999</ele><time>2026-04-12T08:50:32Z</time></trkpt><trkpt lat="42.14051814881995" lon="12.859700160563419"><ele>991.0</ele><time>2026-04-12T08:50:47Z</time></trkpt><trkpt lat="42.14045371998837" lon="12.859797650243882"><ele>990.9999999999999</ele><time>2026-04-12T08:50:48.999Z</time></trkpt><trkpt lat="42.14040890787359" lon="12.859864396742092"><ele>991.0</ele><time>2026-04-12T08:50:50.999Z</time></trkpt><trkpt lat="42.140332645870295" lon="12.859943881762124"><ele>991.0</ele><time>2026-04-12T08:50:52.999Z</time></trkpt><trkpt lat="42.14026641546893" lon="12.860050744903585"><ele>991.0</ele><time>2026-04-12T08:50:54.999Z</time></trkpt><trkpt lat="42.140218122443336" lon="12.860124244767063"><ele>990.9999999999999</ele><time>2026-04-12T08:50:57.999Z</time></trkpt><trkpt lat="42.14017710176853" lon="12.860208915497031"><ele>991.0</ele><time>2026-04-12T08:50:59.999Z</time></trkpt><trkpt lat="42.14014013912329" lon="12.860288712353517"><ele>994.2857142857144</ele><time>2026-04-12T08:51:01.999Z</time></trkpt><trkpt lat="42.14012204214736" lon="12.860377399404062"><ele>997.5714285714287</ele><time>2026-04-12T08:51:03.999Z</time></trkpt><trkpt lat="42.14007892392381" lon="12.86047493702879"><ele>1000.8571428571429</ele><time>2026-04-12T08:51:06.999Z</time></trkpt><trkpt lat="42.140045949735956" lon="12.860557918940993"><ele>1004.1428571428572</ele><time>2026-04-12T08:51:08.999Z</time></trkpt><trkpt lat="42.14001228180194" lon="12.86064888014249"><ele>1007.4285714285716</ele><time>2026-04-12T08:51:11.999Z</time></trkpt><trkpt lat="42.139968252576615" lon="12.860729467845664"><ele>1010.7142857142857</ele><time>2026-04-12T08:51:15.999Z</time></trkpt><trkpt lat="42.13990227248905" lon="12.860725982131079"><ele>1014.0</ele><time>2026-04-12T08:51:55.999Z</time></trkpt><trkpt lat="42.13986434562996" lon="12.860806851292361"><ele>1016.6666666666666</ele><time>2026-04-12T08:51:59Z</time></trkpt><trkpt lat="42.13979812725263" lon="12.860885224509754"><ele>1019.3333333333333</ele><time>2026-04-12T08:52:01Z</time></trkpt><trkpt lat="42.13974447139265" lon="12.8609631037576"><ele>1022.0</ele><time>2026-04-12T08:52:03Z</time></trkpt><trkpt lat="42.139674259774345" lon="12.861032335974578"><ele>1024.6666666666665</ele><time>2026-04-12T08:52:05Z</time></trkpt><trkpt lat="42.13959813869403" lon="12.861085571306246"><ele>1027.3333333333333</ele><time>2026-04-12T08:52:07Z</time></trkpt><trkpt lat="42.13952780489136" lon="12.861100036478305"><ele>1030.0</ele><time>2026-04-12T08:52:09Z</time></trkpt><trkpt lat="42.13944329019028" lon="12.861063557951518"><ele>1033.3333333333333</ele><time>2026-04-12T08:52:11Z</time></trkpt><trkpt lat="42.139384584259744" lon="12.861022171529086"><ele>1036.6666666666665</ele><time>2026-04-12T08:52:13Z</time></trkpt><trkpt lat="42.13929922505876" lon="12.860993560808804"><ele>1040.0</ele><time>2026-04-12T08:52:16Z</time></trkpt><trkpt lat="42.13920309441531" lon="12.861014104948298"><ele>1043.3333333333333</ele><time>2026-04-12T08:52:19Z</time></trkpt><trkpt lat="42.13913029233315" lon="12.86099024383493"><ele>1046.6666666666667</ele><time>2026-04-12T08:52:22Z</time></trkpt><trkpt lat="42.13904559456229" lon="12.860964639754942"><ele>1050.0</ele><time>2026-04-12T08:52:26Z</time></trkpt><trkpt lat="42.13896598203252" lon="12.860962341403427"><ele>1053.3333333333333</ele><time>2026-04-12T08:52:28Z</time></trkpt><trkpt lat="42.13889249251773" lon="12.86094053790636"><ele>1056.6666666666667</ele><time>2026-04-12T08:52:30Z</time></trkpt><trkpt lat="42.138805556040005" lon="12.860929514898777"><ele>1060.0</ele><time>2026-04-12T08:52:32Z</time></trkpt><trkpt lat="42.13870340510438" lon="12.860911503834167"><ele>1063.3333333333335</ele><time>2026-04-12T08:52:34Z</time></trkpt><trkpt lat="42.13862469921417" lon="12.860912097067962"><ele>1066.6666666666667</ele><time>2026-04-12T08:52:36Z</time></trkpt><trkpt lat="42.13857313417823" lon="12.860852919991174"><ele>1070.0</ele><time>2026-04-12T08:52:51.999Z</time></trkpt><trkpt lat="42.138509799145034" lon="12.860853512819823"><ele>1070.0</ele><time>2026-04-12T08:52:53.999Z</time></trkpt><trkpt lat="42.138441031310066" lon="12.86080989123311"><ele>1070.0</ele><time>2026-04-12T08:52:56.999Z</time></trkpt><trkpt lat="42.138357091638895" lon="12.86080096226068"><ele>1070.0</ele><time>2026-04-12T08:53:01.999Z</time></trkpt><trkpt lat="42.138288018696215" lon="12.860751872250521"><ele>1070.0</ele><time>2026-04-12T08:53:04.999Z</time></trkpt><trkpt lat="42.13822178007945" lon="12.860753548568363"><ele>1070.0</ele><time>2026-04-12T08:53:13.999Z</time></trkpt><trkpt lat="42.13815237497897" lon="12.860706253515081"><ele>1070.0</ele><time>2026-04-12T08:53:16.999Z</time></trkpt><trkpt lat="42.138085660333196" lon="12.860683894457315"><ele>1072.6666666666667</ele><time>2026-04-12T08:54:42Z</time></trkpt><trkpt lat="42.137991762602184" lon="12.860629699679404"><ele>1075.3333333333335</ele><time>2026-04-12T08:54:45Z</time></trkpt><trkpt lat="42.13792034870209" lon="12.860581703769261"><ele>1078.0</ele><time>2026-04-12T08:54:48Z</time></trkpt><trkpt lat="42.137837332151534" lon="12.860585956899257"><ele>1080.6666666666667</ele><time>2026-04-12T08:55:11.999Z</time></trkpt><trkpt lat="42.13776895284605" lon="12.86055556682073"><ele>1083.3333333333333</ele><time>2026-04-12T08:55:17.999Z</time></trkpt><trkpt lat="42.137701346776424" lon="12.86059610343561"><ele>1086.0</ele><time>2026-04-12T08:55:20.999Z</time></trkpt><trkpt lat="42.13763662798645" lon="12.860637497398205"><ele>1086.0</ele><time>2026-04-12T08:56:07.999Z</time></trkpt><trkpt lat="42.13756977675441" lon="12.860654599402029"><ele>1086.0</ele><time>2026-04-12T08:56:13Z</time></trkpt><trkpt lat="42.13749938631813" lon="12.860668559284365"><ele>1086.0</ele><time>2026-04-12T08:56:18Z</time></trkpt><trkpt lat="42.137416238685915" lon="12.860703653750269"><ele>1086.0</ele><time>2026-04-12T08:56:23Z</time></trkpt><trkpt lat="42.137341947811905" lon="12.860743833697903"><ele>1086.0</ele><time>2026-04-12T08:56:31Z</time></trkpt><trkpt lat="42.137261179854505" lon="12.860771810955532"><ele>1086.0</ele><time>2026-04-12T08:56:34Z</time></trkpt><trkpt lat="42.13720929157685" lon="12.860820961646109"><ele>1084.8333333333333</ele><time>2026-04-12T08:56:37Z</time></trkpt><trkpt lat="42.137141603475705" lon="12.860856711029108"><ele>1083.6666666666667</ele><time>2026-04-12T08:56:41Z</time></trkpt><trkpt lat="42.13707386513412" lon="12.860883848288497"><ele>1082.5</ele><time>2026-04-12T08:56:51Z</time></trkpt><trkpt lat="42.1370063659069" lon="12.860904132938067"><ele>1081.3333333333335</ele><time>2026-04-12T08:56:54Z</time></trkpt><trkpt lat="42.1369329408061" lon="12.860885669856229"><ele>1080.1666666666667</ele><time>2026-04-12T08:56:56.999Z</time></trkpt><trkpt lat="42.13686445634976" lon="12.860908655379083"><ele>1079.0</ele><time>2026-04-12T08:57:12.999Z</time></trkpt><trkpt lat="42.13677042682481" lon="12.86094850329073"><ele>1084.0</ele><time>2026-04-12T08:58:06.999Z</time></trkpt><trkpt lat="42.136701671037386" lon="12.860959125834142"><ele>1089.0</ele><time>2026-04-12T08:58:09.999Z</time></trkpt><trkpt lat="42.136644614659474" lon="12.860999101697924"><ele>1094.0</ele><time>2026-04-12T08:59:06.999Z</time></trkpt><trkpt lat="42.13658481784408" lon="12.86103204859435"><ele>1099.0</ele><time>2026-04-12T08:59:09.999Z</time></trkpt><trkpt lat="42.136494307683535" lon="12.861084269154935"><ele>1104.0</ele><time>2026-04-12T08:59:51.999Z</time></trkpt><trkpt lat="42.13654915437136" lon="12.861037081069219"><ele>1109.0</ele><time>2026-04-12T09:01:57.999Z</time></trkpt><trkpt lat="42.1366059845565" lon="12.860985295658184"><ele>1114.0</ele><time>2026-04-12T09:02:19.999Z</time></trkpt><trkpt lat="42.13667790257934" lon="12.860951108195456"><ele>1108.1666666666665</ele><time>2026-04-12T09:02:30Z</time></trkpt><trkpt lat="42.13677705259177" lon="12.860933987142756"><ele>1102.3333333333333</ele><time>2026-04-12T09:02:33Z</time></trkpt><trkpt lat="42.13684818934509" lon="12.860903557603452"><ele>1096.5</ele><time>2026-04-12T09:02:38Z</time></trkpt><trkpt lat="42.13691018157625" lon="12.860873285578583"><ele>1090.6666666666667</ele><time>2026-04-12T09:02:43Z</time></trkpt><trkpt lat="42.13698853708417" lon="12.860873174816723"><ele>1084.8333333333335</ele><time>2026-04-12T09:02:47Z</time></trkpt><trkpt lat="42.13705813586569" lon="12.860859231953146"><ele>1079.0</ele><time>2026-04-12T09:02:52Z</time></trkpt><trkpt lat="42.13711720886657" lon="12.860783831894121"><ele>1079.0</ele><time>2026-04-12T09:03:24.999Z</time></trkpt><trkpt lat="42.137212344741805" lon="12.860747392652947"><ele>1079.0</ele><time>2026-04-12T09:03:28.999Z</time></trkpt><trkpt lat="42.13729673556106" lon="12.860709208131272"><ele>1079.0</ele><time>2026-04-12T09:03:30.999Z</time></trkpt><trkpt lat="42.137353257091036" lon="12.860671533877946"><ele>1079.0</ele><time>2026-04-12T09:03:32.999Z</time></trkpt><trkpt lat="42.137418425187036" lon="12.860625208283793"><ele>1079.0</ele><time>2026-04-12T09:03:35.999Z</time></trkpt><trkpt lat="42.1375031204922" lon="12.860604885199248"><ele>1079.0</ele><time>2026-04-12T09:03:38.999Z</time></trkpt><trkpt lat="42.137574824235664" lon="12.860569055524849"><ele>1080.0</ele><time>2026-04-12T09:03:47.999Z</time></trkpt><trkpt lat="42.13764387339796" lon="12.860554880174828"><ele>1081.0</ele><time>2026-04-12T09:03:51.999Z</time></trkpt><trkpt lat="42.13772580413081" lon="12.860526036869404"><ele>1082.0</ele><time>2026-04-12T09:03:55.999Z</time></trkpt><trkpt lat="42.13778798701768" lon="12.860506392240024"><ele>1083.0</ele><time>2026-04-12T09:03:57.999Z</time></trkpt><trkpt lat="42.13785317705268" lon="12.860527986907437"><ele>1084.0</ele><time>2026-04-12T09:04:08.999Z</time></trkpt><trkpt lat="42.137801764317594" lon="12.86057725537283"><ele>1085.0</ele><time>2026-04-12T09:04:15.999Z</time></trkpt><trkpt lat="42.137746328481086" lon="12.860619524413162"><ele>1086.0</ele><time>2026-04-12T09:04:37Z</time></trkpt><trkpt lat="42.137674683110525" lon="12.860642202922568"><ele>1086.0</ele><time>2026-04-12T09:04:52Z</time></trkpt><trkpt lat="42.137651283587346" lon="12.860728294441813"><ele>1086.0</ele><time>2026-04-12T09:07:25.999Z</time></trkpt><trkpt lat="42.13759384020562" lon="12.860782144853555"><ele>1086.0</ele><time>2026-04-12T09:08:04.999Z</time></trkpt><trkpt lat="42.137541774988186" lon="12.860849658576193"><ele>1086.0</ele><time>2026-04-12T09:08:07.999Z</time></trkpt><trkpt lat="42.13754421809472" lon="12.860935337085257"><ele>1086.0</ele><time>2026-04-12T09:08:13.999Z</time></trkpt><trkpt lat="42.13749156106201" lon="12.860982374189232"><ele>1086.0</ele><time>2026-04-12T09:08:36.999Z</time></trkpt><trkpt lat="42.13741748913627" lon="12.861016357678185"><ele>1086.0</ele><time>2026-04-12T09:10:16.999Z</time></trkpt><trkpt lat="42.13735950586933" lon="12.861087828584685"><ele>1090.2857142857142</ele><time>2026-04-12T09:10:20.999Z</time></trkpt><trkpt lat="42.13729814637663" lon="12.861151949846292"><ele>1094.5714285714284</ele><time>2026-04-12T09:10:25.999Z</time></trkpt><trkpt lat="42.13724030716092" lon="12.861195638918439"><ele>1098.8571428571427</ele><time>2026-04-12T09:10:28.999Z</time></trkpt><trkpt lat="42.137183957951414" lon="12.861263511344905"><ele>1103.142857142857</ele><time>2026-04-12T09:10:37.999Z</time></trkpt><trkpt lat="42.13711940804819" lon="12.861259735168359"><ele>1107.4285714285713</ele><time>2026-04-12T09:10:53Z</time></trkpt><trkpt lat="42.13705017092218" lon="12.861250451437812"><ele>1111.7142857142856</ele><time>2026-04-12T09:11:01Z</time></trkpt><trkpt lat="42.13696013596901" lon="12.861256311487663"><ele>1116.0</ele><time>2026-04-12T09:11:04Z</time></trkpt><trkpt lat="42.13689920394054" lon="12.861287606226558"><ele>1115.9999999999998</ele><time>2026-04-12T09:11:08Z</time></trkpt><trkpt lat="42.13682941852466" lon="12.861269442435578"><ele>1116.0</ele><time>2026-04-12T09:19:40.999Z</time></trkpt><trkpt lat="42.136767805406066" lon="12.861311601997393"><ele>1116.0</ele><time>2026-04-12T09:19:42.999Z</time></trkpt><trkpt lat="42.13671686104838" lon="12.861369282747122"><ele>1116.0</ele><time>2026-04-12T09:20:54.999Z</time></trkpt><trkpt lat="42.13677494774782" lon="12.861427900534428"><ele>1116.0</ele><time>2026-04-12T09:21:25Z</time></trkpt><trkpt lat="42.13683871365756" lon="12.861421828684799"><ele>1115.9999999999998</ele><time>2026-04-12T09:24:26Z</time></trkpt><trkpt lat="42.13690457391768" lon="12.86141654362813"><ele>1116.0</ele><time>2026-04-12T09:26:34Z</time></trkpt><trkpt lat="42.13697287697138" lon="12.861446501164751"><ele>1116.0</ele><time>2026-04-12T09:26:36Z</time></trkpt><trkpt lat="42.13707038036835" lon="12.861461418971498"><ele>1116.0</ele><time>2026-04-12T09:26:47Z</time></trkpt><trkpt lat="42.13711549489901" lon="12.861524399961457"><ele>1116.0</ele><time>2026-04-12T09:26:54Z</time></trkpt><trkpt lat="42.13719803192851" lon="12.86153260180017"><ele>1116.0</ele><time>2026-04-12T09:26:59Z</time></trkpt><trkpt lat="42.13726802467926" lon="12.861544252710429"><ele>1116.0</ele><time>2026-04-12T09:27:02Z</time></trkpt><trkpt lat="42.137345285887406" lon="12.861554483732055"><ele>1116.0</ele><time>2026-04-12T09:27:05Z</time></trkpt><trkpt lat="42.1374505525765" lon="12.861574775808341"><ele>1116.3333333333333</ele><time>2026-04-12T09:27:30.999Z</time></trkpt><trkpt lat="42.137516166174606" lon="12.861613330137137"><ele>1116.6666666666667</ele><time>2026-04-12T09:27:34Z</time></trkpt><trkpt lat="42.13759944124324" lon="12.861635630103123"><ele>1117.0</ele><time>2026-04-12T09:27:38Z</time></trkpt><trkpt lat="42.13766767705264" lon="12.861662416352738"><ele>1117.3333333333335</ele><time>2026-04-12T09:27:41Z</time></trkpt><trkpt lat="42.13774586383398" lon="12.86172386026204"><ele>1117.6666666666667</ele><time>2026-04-12T09:27:44Z</time></trkpt><trkpt lat="42.13777353007988" lon="12.861810082342732"><ele>1118.0</ele><time>2026-04-12T09:27:47Z</time></trkpt><trkpt lat="42.137700773071124" lon="12.861843986320025"><ele>1120.142857142857</ele><time>2026-04-12T09:27:53Z</time></trkpt><trkpt lat="42.13764880516107" lon="12.861915083252056"><ele>1122.2857142857144</ele><time>2026-04-12T09:27:56Z</time></trkpt><trkpt lat="42.137580234630384" lon="12.861916781211065"><ele>1124.4285714285716</ele><time>2026-04-12T09:30:58Z</time></trkpt><trkpt lat="42.13751639411823" lon="12.861962498054615"><ele>1126.5714285714287</ele><time>2026-04-12T09:31:00Z</time></trkpt><trkpt lat="42.13745594048448" lon="12.86202853889075"><ele>1128.7142857142858</ele><time>2026-04-12T09:31:02Z</time></trkpt><trkpt lat="42.13740189336123" lon="12.862086238741778"><ele>1130.857142857143</ele><time>2026-04-12T09:31:04Z</time></trkpt><trkpt lat="42.13733322287654" lon="12.862141552493298"><ele>1133.0</ele><time>2026-04-12T09:31:06Z</time></trkpt><trkpt lat="42.13727173594561" lon="12.862202166602456"><ele>1136.1666666666667</ele><time>2026-04-12T09:31:08Z</time></trkpt><trkpt lat="42.13724809491554" lon="12.862324438916003"><ele>1139.3333333333335</ele><time>2026-04-12T09:31:11Z</time></trkpt><trkpt lat="42.137173370451066" lon="12.862346400448388"><ele>1142.5</ele><time>2026-04-12T09:31:19Z</time></trkpt><trkpt lat="42.137103650232014" lon="12.86235542739345"><ele>1145.6666666666667</ele><time>2026-04-12T09:31:25.999Z</time></trkpt><trkpt lat="42.137064187920124" lon="12.8624221821968"><ele>1148.8333333333333</ele><time>2026-04-12T09:31:47Z</time></trkpt><trkpt lat="42.13701573412496" lon="12.862504085909782"><ele>1152.0</ele><time>2026-04-12T09:31:50Z</time></trkpt><trkpt lat="42.136951730080064" lon="12.862563763691494"><ele>1152.0000000000002</ele><time>2026-04-12T09:32:29Z</time></trkpt><trkpt lat="42.13689106634386" lon="12.86260978285188"><ele>1152.0</ele><time>2026-04-12T09:32:32Z</time></trkpt><trkpt lat="42.136829482885084" lon="12.862575195500687"><ele>1152.0</ele><time>2026-04-12T09:33:24Z</time></trkpt><trkpt lat="42.136759462346696" lon="12.862591725206787"><ele>1152.0</ele><time>2026-04-12T09:33:45.999Z</time></trkpt><trkpt lat="42.13682174388001" lon="12.86261951102925"><ele>1152.0</ele><time>2026-04-12T09:34:27Z</time></trkpt><trkpt lat="42.136827627707135" lon="12.862716933547693"><ele>1152.0000000000002</ele><time>2026-04-12T09:34:42Z</time></trkpt><trkpt lat="42.13675858218462" lon="12.862705163690936"><ele>1152.0</ele><time>2026-04-12T09:34:51Z</time></trkpt><trkpt lat="42.136689929074095" lon="12.862752503200817"><ele>1151.4285714285716</ele><time>2026-04-12T09:34:54Z</time></trkpt><trkpt lat="42.136633549826975" lon="12.862800502943776"><ele>1150.857142857143</ele><time>2026-04-12T09:35:35.999Z</time></trkpt><trkpt lat="42.13657070886301" lon="12.862842081044418"><ele>1150.2857142857142</ele><time>2026-04-12T09:36:42Z</time></trkpt><trkpt lat="42.136507735485644" lon="12.862859016098495"><ele>1149.7142857142858</ele><time>2026-04-12T09:37:40.999Z</time></trkpt><trkpt lat="42.13644875190552" lon="12.86289232376532"><ele>1149.142857142857</ele><time>2026-04-12T09:39:33Z</time></trkpt><trkpt lat="42.13638807458922" lon="12.862860286860982"><ele>1148.5714285714287</ele><time>2026-04-12T09:39:45.999Z</time></trkpt><trkpt lat="42.13631878973528" lon="12.86286885443725"><ele>1148.0</ele><time>2026-04-12T09:39:50.999Z</time></trkpt><trkpt lat="42.136247993845856" lon="12.862891715391639"><ele>1150.7142857142858</ele><time>2026-04-12T09:39:53.999Z</time></trkpt><trkpt lat="42.13617484534187" lon="12.862918648174983"><ele>1153.4285714285716</ele><time>2026-04-12T09:39:57.999Z</time></trkpt><trkpt lat="42.13608955557171" lon="12.862910340529908"><ele>1156.142857142857</ele><time>2026-04-12T09:40:01.999Z</time></trkpt><trkpt lat="42.13602587642967" lon="12.862869294306257"><ele>1158.857142857143</ele><time>2026-04-12T09:40:04.999Z</time></trkpt><trkpt lat="42.135953876077906" lon="12.86284492853395"><ele>1161.5714285714287</ele><time>2026-04-12T09:40:08Z</time></trkpt><trkpt lat="42.13590825235898" lon="12.862778268903346"><ele>1164.2857142857142</ele><time>2026-04-12T09:42:26Z</time></trkpt><trkpt lat="42.1358453365667" lon="12.86279828037528"><ele>1167.0</ele><time>2026-04-12T09:43:52.999Z</time></trkpt><trkpt lat="42.13592290127836" lon="12.862820507819682"><ele>1167.0</ele><time>2026-04-12T09:46:59Z</time></trkpt><trkpt lat="42.13582651832919" lon="12.862782466633071"><ele>1167.0</ele><time>2026-04-12T09:49:19Z</time></trkpt><trkpt lat="42.13576400658052" lon="12.86282035589211"><ele>1167.0</ele><time>2026-04-12T09:49:21Z</time></trkpt><trkpt lat="42.13570603396347" lon="12.862904181211105"><ele>1167.0</ele><time>2026-04-12T09:49:24Z</time></trkpt><trkpt lat="42.13562670210171" lon="12.862977559874336"><ele>1167.0</ele><time>2026-04-12T09:49:26Z</time></trkpt><trkpt lat="42.13556480134181" lon="12.863012948084483"><ele>1167.0</ele><time>2026-04-12T09:49:28Z</time></trkpt><trkpt lat="42.135491115066756" lon="12.863074442065994"><ele>1167.75</ele><time>2026-04-12T09:49:32Z</time></trkpt><trkpt lat="42.13540974318725" lon="12.86315141015004"><ele>1168.5</ele><time>2026-04-12T09:49:34Z</time></trkpt><trkpt lat="42.135335253997454" lon="12.863253362686997"><ele>1169.25</ele><time>2026-04-12T09:49:37Z</time></trkpt><trkpt lat="42.135271713922975" lon="12.863320192473601"><ele>1170.0</ele><time>2026-04-12T09:49:39Z</time></trkpt><trkpt lat="42.13512924858602" lon="12.863461321319456"><ele>1170.1666666666667</ele><time>2026-04-12T09:49:42Z</time></trkpt><trkpt lat="42.13508578748155" lon="12.863539840097326"><ele>1170.3333333333333</ele><time>2026-04-12T09:49:44.999Z</time></trkpt><trkpt lat="42.135023603576" lon="12.863602567541403"><ele>1170.5</ele><time>2026-04-12T09:49:46.999Z</time></trkpt><trkpt lat="42.13495916341357" lon="12.863702017765984"><ele>1170.6666666666665</ele><time>2026-04-12T09:49:48.999Z</time></trkpt><trkpt lat="42.1348994863401" lon="12.86378336207267"><ele>1170.8333333333333</ele><time>2026-04-12T09:49:50.999Z</time></trkpt><trkpt lat="42.13485246790445" lon="12.863869344143884"><ele>1171.0</ele><time>2026-04-12T09:49:52.999Z</time></trkpt><trkpt lat="42.13483233449991" lon="12.863959743280056"><ele>1169.8333333333333</ele><time>2026-04-12T09:49:55.999Z</time></trkpt><trkpt lat="42.134782233784975" lon="12.864045351210631"><ele>1168.6666666666665</ele><time>2026-04-12T09:49:57.999Z</time></trkpt><trkpt lat="42.1347199105314" lon="12.864126290281765"><ele>1167.5</ele><time>2026-04-12T09:49:59.999Z</time></trkpt><trkpt lat="42.13467807549869" lon="12.864205587209202"><ele>1166.3333333333333</ele><time>2026-04-12T09:50:01.999Z</time></trkpt><trkpt lat="42.13467464563401" lon="12.864297419094143"><ele>1165.1666666666667</ele><time>2026-04-12T09:50:03.999Z</time></trkpt><trkpt lat="42.13466297007998" lon="12.864415134905581"><ele>1164.0</ele><time>2026-04-12T09:50:05.999Z</time></trkpt><trkpt lat="42.134635168452924" lon="12.864550668013456"><ele>1163.0</ele><time>2026-04-12T09:50:07.999Z</time></trkpt><trkpt lat="42.13460334302162" lon="12.864680044270902"><ele>1162.0</ele><time>2026-04-12T09:50:09.999Z</time></trkpt><trkpt lat="42.13459107814181" lon="12.864795251450225"><ele>1161.0</ele><time>2026-04-12T09:50:11.999Z</time></trkpt><trkpt lat="42.13458248545146" lon="12.864892686257026"><ele>1160.0</ele><time>2026-04-12T09:50:13.999Z</time></trkpt><trkpt lat="42.13458754824925" lon="12.864990956457193"><ele>1159.0</ele><time>2026-04-12T09:50:15.999Z</time></trkpt><trkpt lat="42.134555310290565" lon="12.865082632199554"><ele>1158.0</ele><time>2026-04-12T09:50:18.999Z</time></trkpt><trkpt lat="42.134483623014034" lon="12.865221838538332"><ele>1157.1666666666667</ele><time>2026-04-12T09:50:20.999Z</time></trkpt><trkpt lat="42.134438923285494" lon="12.865317150135937"><ele>1156.3333333333333</ele><time>2026-04-12T09:50:22.999Z</time></trkpt><trkpt lat="42.13441906056884" lon="12.865433216850763"><ele>1155.5</ele><time>2026-04-12T09:50:24.999Z</time></trkpt><trkpt lat="42.13441563001353" lon="12.865538465239176"><ele>1154.6666666666665</ele><time>2026-04-12T09:50:26.999Z</time></trkpt><trkpt lat="42.13445252776357" lon="12.865609408844188"><ele>1153.8333333333333</ele><time>2026-04-12T09:50:30.999Z</time></trkpt><trkpt lat="42.13451245031945" lon="12.865700433682466"><ele>1153.0</ele><time>2026-04-12T09:50:32.999Z</time></trkpt><trkpt lat="42.13455600777498" lon="12.865798966265801"><ele>1153.0</ele><time>2026-04-12T09:50:34.999Z</time></trkpt><trkpt lat="42.13452621888168" lon="12.865888950634513"><ele>1153.0</ele><time>2026-04-12T09:50:36Z</time></trkpt><trkpt lat="42.13447257187781" lon="12.86596482202212"><ele>1153.0</ele><time>2026-04-12T09:50:38Z</time></trkpt><trkpt lat="42.13442258078426" lon="12.866021673008921"><ele>1153.0</ele><time>2026-04-12T09:50:43Z</time></trkpt><trkpt lat="42.13438040579144" lon="12.866098412584666"><ele>1153.0</ele><time>2026-04-12T09:50:46Z</time></trkpt><trkpt lat="42.134328160990606" lon="12.866183840333996"><ele>1153.0</ele><time>2026-04-12T09:50:49Z</time></trkpt><trkpt lat="42.13427439096931" lon="12.866244835139618"><ele>1153.0</ele><time>2026-04-12T09:50:51Z</time></trkpt><trkpt lat="42.134149460916476" lon="12.86634770326373"><ele>1151.3333333333333</ele><time>2026-04-12T09:50:53Z</time></trkpt><trkpt lat="42.13409407405057" lon="12.866404924654356"><ele>1149.6666666666665</ele><time>2026-04-12T09:50:55Z</time></trkpt><trkpt lat="42.13402821539611" lon="12.866464363716046"><ele>1148.0</ele><time>2026-04-12T09:50:57Z</time></trkpt><trkpt lat="42.13396392739495" lon="12.866545890380122"><ele>1146.3333333333333</ele><time>2026-04-12T09:50:59Z</time></trkpt><trkpt lat="42.13392794641328" lon="12.866621046922836"><ele>1144.6666666666667</ele><time>2026-04-12T09:51:02Z</time></trkpt><trkpt lat="42.13391234720168" lon="12.866707736500377"><ele>1143.0</ele><time>2026-04-12T09:51:06Z</time></trkpt><trkpt lat="42.13387223138711" lon="12.866805574800074"><ele>1139.0</ele><time>2026-04-12T09:51:10Z</time></trkpt><trkpt lat="42.13382756802349" lon="12.866915731790227"><ele>1135.0</ele><time>2026-04-12T09:51:13Z</time></trkpt><trkpt lat="42.133784177913476" lon="12.866982489111995"><ele>1131.0</ele><time>2026-04-12T09:51:15Z</time></trkpt><trkpt lat="42.13371073071698" lon="12.867026809802567"><ele>1127.0</ele><time>2026-04-12T09:51:18Z</time></trkpt><trkpt lat="42.13363429554115" lon="12.867090756977218"><ele>1123.0</ele><time>2026-04-12T09:51:21Z</time></trkpt><trkpt lat="42.13358470508957" lon="12.867145503953683"><ele>1119.0</ele><time>2026-04-12T09:51:23Z</time></trkpt><trkpt lat="42.133517117505" lon="12.867236712479382"><ele>1119.0</ele><time>2026-04-12T09:51:26Z</time></trkpt><trkpt lat="42.13338804884242" lon="12.86742599995398"><ele>1119.0</ele><time>2026-04-12T09:51:28Z</time></trkpt><trkpt lat="42.13333474683904" lon="12.867559827359198"><ele>1119.0</ele><time>2026-04-12T09:51:30Z</time></trkpt><trkpt lat="42.13330183734641" lon="12.867659570225799"><ele>1119.0</ele><time>2026-04-12T09:51:32Z</time></trkpt><trkpt lat="42.133265547977" lon="12.867740647545418"><ele>1114.8333333333333</ele><time>2026-04-12T09:51:34Z</time></trkpt><trkpt lat="42.13320231675242" lon="12.867762834681466"><ele>1110.6666666666667</ele><time>2026-04-12T09:51:39Z</time></trkpt><trkpt lat="42.13313255892994" lon="12.867829177910172"><ele>1106.5</ele><time>2026-04-12T09:51:42Z</time></trkpt><trkpt lat="42.13307772376418" lon="12.8678948100493"><ele>1102.3333333333335</ele><time>2026-04-12T09:51:45Z</time></trkpt><trkpt lat="42.13302496882663" lon="12.867947439089225"><ele>1098.1666666666667</ele><time>2026-04-12T09:51:49Z</time></trkpt><trkpt lat="42.13296595007411" lon="12.868004767906955"><ele>1094.0</ele><time>2026-04-12T09:52:09.999Z</time></trkpt><trkpt lat="42.132873748040296" lon="12.868000829562398"><ele>1094.0</ele><time>2026-04-12T09:52:14.999Z</time></trkpt><trkpt lat="42.13283084372229" lon="12.868073321238072"><ele>1094.0</ele><time>2026-04-12T09:52:17.999Z</time></trkpt><trkpt lat="42.13274861385721" lon="12.868143792222085"><ele>1094.0</ele><time>2026-04-12T09:52:20.999Z</time></trkpt><trkpt lat="42.132675786713364" lon="12.86820690703282"><ele>1094.0</ele><time>2026-04-12T09:52:23.999Z</time></trkpt><trkpt lat="42.1326649644951" lon="12.86830403991765"><ele>1094.0</ele><time>2026-04-12T09:52:26.999Z</time></trkpt><trkpt lat="42.13258042956591" lon="12.868400968833607"><ele>1094.0</ele><time>2026-04-12T09:52:28.999Z</time></trkpt><trkpt lat="42.13247704028402" lon="12.868467767260311"><ele>1090.5</ele><time>2026-04-12T09:52:30.999Z</time></trkpt><trkpt lat="42.1324074705015" lon="12.868563669754877"><ele>1087.0</ele><time>2026-04-12T09:52:32.999Z</time></trkpt><trkpt lat="42.13235501360011" lon="12.868650176787687"><ele>1083.5</ele><time>2026-04-12T09:52:34.999Z</time></trkpt><trkpt lat="42.13229594176732" lon="12.868722474635115"><ele>1080.0</ele><time>2026-04-12T09:52:36.999Z</time></trkpt><trkpt lat="42.132221520364716" lon="12.86879681451595"><ele>1076.5</ele><time>2026-04-12T09:52:38.999Z</time></trkpt><trkpt lat="42.13217447769277" lon="12.868893750885228"><ele>1073.0</ele><time>2026-04-12T09:52:41Z</time></trkpt><trkpt lat="42.13213341947699" lon="12.868977583202643"><ele>1073.0</ele><time>2026-04-12T09:52:43Z</time></trkpt><trkpt lat="42.132082447541706" lon="12.869095974649635"><ele>1073.0</ele><time>2026-04-12T09:52:45Z</time></trkpt><trkpt lat="42.13204673551984" lon="12.86917769250896"><ele>1073.0</ele><time>2026-04-12T09:52:47Z</time></trkpt><trkpt lat="42.13200182096184" lon="12.869258054467945"><ele>1073.0</ele><time>2026-04-12T09:52:49Z</time></trkpt><trkpt lat="42.131930082122" lon="12.86934513705473"><ele>1073.0</ele><time>2026-04-12T09:52:51Z</time></trkpt><trkpt lat="42.131884822104354" lon="12.86940818921966"><ele>1073.0</ele><time>2026-04-12T09:52:52Z</time></trkpt><trkpt lat="42.131802670852075" lon="12.869464253909076"><ele>1070.8333333333335</ele><time>2026-04-12T09:52:54Z</time></trkpt><trkpt lat="42.13172318581458" lon="12.869483390345644"><ele>1068.6666666666667</ele><time>2026-04-12T09:52:57Z</time></trkpt><trkpt lat="42.131648640908935" lon="12.869501086980035"><ele>1066.5</ele><time>2026-04-12T09:52:59Z</time></trkpt><trkpt lat="42.13159641451493" lon="12.869604633211772"><ele>1064.3333333333333</ele><time>2026-04-12T09:53:01Z</time></trkpt><trkpt lat="42.13152575679365" lon="12.869671164595927"><ele>1062.1666666666665</ele><time>2026-04-12T09:53:03Z</time></trkpt><trkpt lat="42.131470907349716" lon="12.869762609792197"><ele>1060.0</ele><time>2026-04-12T09:53:05Z</time></trkpt><trkpt lat="42.13142222381986" lon="12.869855673538202"><ele>1060.0</ele><time>2026-04-12T09:53:07Z</time></trkpt><trkpt lat="42.13134907241759" lon="12.869943468131792"><ele>1060.0</ele><time>2026-04-12T09:53:09Z</time></trkpt><trkpt lat="42.13130822358887" lon="12.870018646213339"><ele>1060.0</ele><time>2026-04-12T09:53:10Z</time></trkpt><trkpt lat="42.13126137069491" lon="12.870101874254068"><ele>1060.0</ele><time>2026-04-12T09:53:11Z</time></trkpt><trkpt lat="42.131170096489896" lon="12.870171462325262"><ele>1060.0</ele><time>2026-04-12T09:53:13Z</time></trkpt><trkpt lat="42.13111034966846" lon="12.870201301956461"><ele>1060.0</ele><time>2026-04-12T09:53:14Z</time></trkpt><trkpt lat="42.131026743191505" lon="12.870255691594563"><ele>1059.6666666666665</ele><time>2026-04-12T09:53:16Z</time></trkpt><trkpt lat="42.130978966600395" lon="12.870352595484448"><ele>1059.3333333333333</ele><time>2026-04-12T09:53:18Z</time></trkpt><trkpt lat="42.13092305892627" lon="12.870480262478301"><ele>1059.0</ele><time>2026-04-12T09:53:20Z</time></trkpt><trkpt lat="42.13084289767188" lon="12.870518295877433"><ele>1058.6666666666667</ele><time>2026-04-12T09:53:21Z</time></trkpt><trkpt lat="42.1307842084809" lon="12.870554888054443"><ele>1058.3333333333335</ele><time>2026-04-12T09:53:22Z</time></trkpt><trkpt lat="42.13069944595078" lon="12.870565371011159"><ele>1058.0</ele><time>2026-04-12T09:53:24Z</time></trkpt><trkpt lat="42.130615113506344" lon="12.870644061216339"><ele>1057.6</ele><time>2026-04-12T09:53:26Z</time></trkpt><trkpt lat="42.130534512330044" lon="12.870728880072436"><ele>1057.1999999999998</ele><time>2026-04-12T09:53:28Z</time></trkpt><trkpt lat="42.13046241505904" lon="12.8708447988654"><ele>1056.8</ele><time>2026-04-12T09:53:30Z</time></trkpt><trkpt lat="42.130350892397146" lon="12.870934845063003"><ele>1056.3999999999999</ele><time>2026-04-12T09:53:32Z</time></trkpt><trkpt lat="42.13027647945599" lon="12.871001697021708"><ele>1056.0</ele><time>2026-04-12T09:53:34Z</time></trkpt><trkpt lat="42.130101206528856" lon="12.871116065670018"><ele>1055.2</ele><time>2026-04-12T09:53:36Z</time></trkpt><trkpt lat="42.13001754385494" lon="12.871172603080737"><ele>1054.3999999999999</ele><time>2026-04-12T09:53:37Z</time></trkpt><trkpt lat="42.12993127060129" lon="12.87123606893577"><ele>1053.6</ele><time>2026-04-12T09:53:38Z</time></trkpt><trkpt lat="42.12986688768321" lon="12.871304464860977"><ele>1052.8</ele><time>2026-04-12T09:53:39Z</time></trkpt><trkpt lat="42.12980593027909" lon="12.871361515199762"><ele>1052.0</ele><time>2026-04-12T09:53:40Z</time></trkpt><trkpt lat="42.129687145968994" lon="12.871381752112836"><ele>1052.0</ele><time>2026-04-12T09:53:42Z</time></trkpt><trkpt lat="42.12961255096231" lon="12.87139871471193"><ele>1052.0</ele><time>2026-04-12T09:53:43Z</time></trkpt><trkpt lat="42.12949996625863" lon="12.871441171990714"><ele>1052.0</ele><time>2026-04-12T09:53:44Z</time></trkpt><trkpt lat="42.12939259097861" lon="12.871461990924214"><ele>1052.0</ele><time>2026-04-12T09:53:45Z</time></trkpt><trkpt lat="42.12932433563081" lon="12.871453929959678"><ele>1052.0</ele><time>2026-04-12T09:53:46Z</time></trkpt><trkpt lat="42.12925632878526" lon="12.87146980066461"><ele>1052.0</ele><time>2026-04-12T09:54:38.999Z</time></trkpt><trkpt lat="42.12918979451271" lon="12.871487802629217"><ele>1052.0</ele><time>2026-04-12T09:54:39.999Z</time></trkpt><trkpt lat="42.129094053287766" lon="12.871495705300871"><ele>1052.0</ele><time>2026-04-12T09:54:40.999Z</time></trkpt><trkpt lat="42.129019606022815" lon="12.871515271114914"><ele>1052.0</ele><time>2026-04-12T09:54:41.999Z</time></trkpt><trkpt lat="42.12894530293106" lon="12.871549482699756"><ele>1052.0</ele><time>2026-04-12T09:54:42.999Z</time></trkpt><trkpt lat="42.12886888485692" lon="12.87155506158682"><ele>1052.0</ele><time>2026-04-12T09:54:43.999Z</time></trkpt><trkpt lat="42.12875481311609" lon="12.871585947173545"><ele>1052.0</ele><time>2026-04-12T09:54:46Z</time></trkpt><trkpt lat="42.12869537867532" lon="12.871615167235381"><ele>1049.2</ele><time>2026-04-12T09:54:47Z</time></trkpt><trkpt lat="42.12860398107361" lon="12.87169763725704"><ele>1046.4</ele><time>2026-04-12T09:54:49Z</time></trkpt><trkpt lat="42.128566350415205" lon="12.871770752415477"><ele>1043.6</ele><time>2026-04-12T09:54:50Z</time></trkpt><trkpt lat="42.12852199157355" lon="12.871842741944404"><ele>1040.8</ele><time>2026-04-12T09:54:51Z</time></trkpt><trkpt lat="42.128449249052665" lon="12.871955547506287"><ele>1038.0</ele><time>2026-04-12T09:54:53Z</time></trkpt><trkpt lat="42.12837170494713" lon="12.872090627972373"><ele>1035.4</ele><time>2026-04-12T09:54:55Z</time></trkpt><trkpt lat="42.12829899597193" lon="12.872203917718382"><ele>1032.8</ele><time>2026-04-12T09:54:57Z</time></trkpt><trkpt lat="42.12824051919691" lon="12.872271217539819"><ele>1030.2</ele><time>2026-04-12T09:54:58Z</time></trkpt><trkpt lat="42.128159016923256" lon="12.872370110138089"><ele>1027.6</ele><time>2026-04-12T09:55:00Z</time></trkpt><trkpt lat="42.128093235003945" lon="12.872449986508897"><ele>1025.0</ele><time>2026-04-12T09:55:02Z</time></trkpt><trkpt lat="42.1280026778331" lon="12.872553940905728"><ele>1024.6666666666667</ele><time>2026-04-12T09:55:04Z</time></trkpt><trkpt lat="42.12795170947193" lon="12.872632519362776"><ele>1024.3333333333335</ele><time>2026-04-12T09:55:06Z</time></trkpt><trkpt lat="42.127874034663066" lon="12.872721858313325"><ele>1024.0</ele><time>2026-04-12T09:55:08Z</time></trkpt><trkpt lat="42.127823644831516" lon="12.872787395654306"><ele>1023.6666666666667</ele><time>2026-04-12T09:55:10Z</time></trkpt><trkpt lat="42.1277909409183" lon="12.872866628170994"><ele>1023.3333333333334</ele><time>2026-04-12T09:55:23Z</time></trkpt><trkpt lat="42.12772263197888" lon="12.87296656461469"><ele>1023.0</ele><time>2026-04-12T09:55:26Z</time></trkpt><trkpt lat="42.12765626904089" lon="12.87301373463122"><ele>1023.0</ele><time>2026-04-12T09:55:28Z</time></trkpt><trkpt lat="42.12757889189397" lon="12.873102552628845"><ele>1023.0</ele><time>2026-04-12T09:55:30Z</time></trkpt><trkpt lat="42.12749352274564" lon="12.873141052453972"><ele>1023.0</ele><time>2026-04-12T09:55:32Z</time></trkpt><trkpt lat="42.12742998631102" lon="12.873169245874106"><ele>1023.0</ele><time>2026-04-12T09:55:33Z</time></trkpt><trkpt lat="42.127321353209" lon="12.873220789091924"><ele>1023.0</ele><time>2026-04-12T09:55:35Z</time></trkpt><trkpt lat="42.12724255509924" lon="12.873266702801361"><ele>1023.5999999999999</ele><time>2026-04-12T09:55:37Z</time></trkpt><trkpt lat="42.127162349155896" lon="12.873352821520042"><ele>1024.1999999999998</ele><time>2026-04-12T09:55:39Z</time></trkpt><trkpt lat="42.127093925172396" lon="12.873462586441008"><ele>1024.8</ele><time>2026-04-12T09:55:41Z</time></trkpt><trkpt lat="42.127028051596696" lon="12.873591695200117"><ele>1025.3999999999999</ele><time>2026-04-12T09:55:43Z</time></trkpt><trkpt lat="42.126999359244415" lon="12.873722945748534"><ele>1026.0</ele><time>2026-04-12T09:55:45Z</time></trkpt><trkpt lat="42.126986494606975" lon="12.873842660108451"><ele>1026.0</ele><time>2026-04-12T09:55:47Z</time></trkpt><trkpt lat="42.12698230758356" lon="12.873948719158255"><ele>1026.0</ele><time>2026-04-12T09:55:49Z</time></trkpt><trkpt lat="42.12697854609728" lon="12.874041427288578"><ele>1026.0</ele><time>2026-04-12T09:55:50Z</time></trkpt><trkpt lat="42.12696511251806" lon="12.87412878751552"><ele>1026.0</ele><time>2026-04-12T09:55:51Z</time></trkpt><trkpt lat="42.12692957143384" lon="12.874264976685069"><ele>1026.0</ele><time>2026-04-12T09:55:53Z</time></trkpt><trkpt lat="42.126939507065266" lon="12.874377842849281"><ele>1026.0</ele><time>2026-04-12T09:55:55Z</time></trkpt><trkpt lat="42.12692301793024" lon="12.874521149666863"><ele>1028.3999999999999</ele><time>2026-04-12T09:55:57Z</time></trkpt><trkpt lat="42.12694885129739" lon="12.874680212662412"><ele>1030.8</ele><time>2026-04-12T09:55:59Z</time></trkpt><trkpt lat="42.126974857291465" lon="12.87481032064339"><ele>1033.1999999999998</ele><time>2026-04-12T09:56:01.999Z</time></trkpt><trkpt lat="42.12703785492369" lon="12.874886300453136"><ele>1035.6</ele><time>2026-04-12T09:56:03.999Z</time></trkpt><trkpt lat="42.127025681156724" lon="12.875024052475046"><ele>1038.0</ele><time>2026-04-12T09:56:05.999Z</time></trkpt><trkpt lat="42.127003397415" lon="12.875161737653636"><ele>1040.2</ele><time>2026-04-12T09:56:07.999Z</time></trkpt><trkpt lat="42.12696037553595" lon="12.875269637815364"><ele>1042.4</ele><time>2026-04-12T09:56:09.999Z</time></trkpt><trkpt lat="42.12691989162753" lon="12.875356473543663"><ele>1044.6000000000001</ele><time>2026-04-12T09:56:11.999Z</time></trkpt><trkpt lat="42.12691259154433" lon="12.875455708509714"><ele>1046.8</ele><time>2026-04-12T09:56:13.999Z</time></trkpt><trkpt lat="42.12690054642602" lon="12.875606453354052"><ele>1049.0</ele><time>2026-04-12T09:56:16.999Z</time></trkpt><trkpt lat="42.126871524282706" lon="12.875742332231875"><ele>1049.0</ele><time>2026-04-12T09:56:18.999Z</time></trkpt><trkpt lat="42.126844679466316" lon="12.875823117987865"><ele>1049.0</ele><time>2026-04-12T09:56:19.999Z</time></trkpt><trkpt lat="42.1267605463778" lon="12.87596363584405"><ele>1049.0</ele><time>2026-04-12T09:56:21.999Z</time></trkpt><trkpt lat="42.12670507379201" lon="12.876119968402593"><ele>1049.0</ele><time>2026-04-12T09:56:23.999Z</time></trkpt><trkpt lat="42.126672617640565" lon="12.876207152048538"><ele>1049.0</ele><time>2026-04-12T09:56:24.999Z</time></trkpt><trkpt lat="42.12662268128595" lon="12.876284277250644"><ele>1049.1666666666667</ele><time>2026-04-12T09:56:25.999Z</time></trkpt><trkpt lat="42.12657614958042" lon="12.876342063798873"><ele>1049.3333333333335</ele><time>2026-04-12T09:56:26.999Z</time></trkpt><trkpt lat="42.12649642061727" lon="12.876474757016785"><ele>1049.5</ele><time>2026-04-12T09:56:28.999Z</time></trkpt><trkpt lat="42.126425587471054" lon="12.876549802272812"><ele>1049.6666666666667</ele><time>2026-04-12T09:56:30.999Z</time></trkpt><trkpt lat="42.1263966067754" lon="12.876653204105661"><ele>1049.8333333333333</ele><time>2026-04-12T09:56:32.999Z</time></trkpt><trkpt lat="42.12639870829198" lon="12.876767077737863"><ele>1050.0</ele><time>2026-04-12T09:56:34.999Z</time></trkpt><trkpt lat="42.12633033781808" lon="12.876899560661318"><ele>1053.1666666666667</ele><time>2026-04-12T09:56:36.999Z</time></trkpt><trkpt lat="42.126249423479734" lon="12.877023169942182"><ele>1056.3333333333333</ele><time>2026-04-12T09:56:38.999Z</time></trkpt><trkpt lat="42.126205398344695" lon="12.877127438538166"><ele>1059.5</ele><time>2026-04-12T09:56:40.999Z</time></trkpt><trkpt lat="42.126174618669275" lon="12.877226552651035"><ele>1062.6666666666665</ele><time>2026-04-12T09:56:45.999Z</time></trkpt><trkpt lat="42.12614182029802" lon="12.877325091563172"><ele>1065.8333333333333</ele><time>2026-04-12T09:56:49.999Z</time></trkpt><trkpt lat="42.12608531907493" lon="12.877387744276758"><ele>1069.0</ele><time>2026-04-12T09:56:53Z</time></trkpt><trkpt lat="42.12599856421986" lon="12.877470047727416"><ele>1069.0</ele><time>2026-04-12T09:56:56Z</time></trkpt><trkpt lat="42.125929689974896" lon="12.87751270411902"><ele>1069.0</ele><time>2026-04-12T09:56:57Z</time></trkpt><trkpt lat="42.12588462781317" lon="12.877619038513853"><ele>1069.0</ele><time>2026-04-12T09:57:00Z</time></trkpt><trkpt lat="42.12583921167474" lon="12.877688928650025"><ele>1069.0</ele><time>2026-04-12T09:57:02Z</time></trkpt><trkpt lat="42.12579183078351" lon="12.877749245209197"><ele>1069.0</ele><time>2026-04-12T09:57:04Z</time></trkpt><trkpt lat="42.12575151594458" lon="12.877840037110508"><ele>1069.0</ele><time>2026-04-12T09:57:06Z</time></trkpt><trkpt lat="42.12573045330402" lon="12.877927455849823"><ele>1069.0</ele><time>2026-04-12T09:57:08Z</time></trkpt><trkpt lat="42.125701171469586" lon="12.878030143645683"><ele>1067.0</ele><time>2026-04-12T09:57:11Z</time></trkpt><trkpt lat="42.12566584167464" lon="12.87813259184081"><ele>1065.0</ele><time>2026-04-12T09:57:14Z</time></trkpt><trkpt lat="42.125647659527054" lon="12.878239312042036"><ele>1063.0</ele><time>2026-04-12T09:57:17Z</time></trkpt><trkpt lat="42.12561436664634" lon="12.878346213184132"><ele>1061.0</ele><time>2026-04-12T09:57:20Z</time></trkpt><trkpt lat="42.125618287287345" lon="12.87845432054776"><ele>1059.0</ele><time>2026-04-12T09:57:23Z</time></trkpt><trkpt lat="42.12565046787059" lon="12.87855690891256"><ele>1057.0</ele><time>2026-04-12T09:57:25Z</time></trkpt><trkpt lat="42.12559608247117" lon="12.878648393931428"><ele>1056.5</ele><time>2026-04-12T09:57:28Z</time></trkpt><trkpt lat="42.125572052881026" lon="12.878740714318065"><ele>1056.0</ele><time>2026-04-12T09:57:30Z</time></trkpt><trkpt lat="42.12553710869204" lon="12.878816676310677"><ele>1055.5</ele><time>2026-04-12T09:57:32Z</time></trkpt><trkpt lat="42.125494613594825" lon="12.878898623113898"><ele>1055.0</ele><time>2026-04-12T09:57:34Z</time></trkpt><trkpt lat="42.12546591472931" lon="12.87899499354173"><ele>1054.5</ele><time>2026-04-12T09:57:36Z</time></trkpt><trkpt lat="42.1254149508805" lon="12.87914896148724"><ele>1054.0</ele><time>2026-04-12T09:57:38Z</time></trkpt><trkpt lat="42.12537944860383" lon="12.879233730574613"><ele>1054.3333333333333</ele><time>2026-04-12T09:57:41Z</time></trkpt><trkpt lat="42.1253435909673" lon="12.879329464183476"><ele>1054.6666666666665</ele><time>2026-04-12T09:57:43Z</time></trkpt><trkpt lat="42.1252687221387" lon="12.8794324386746"><ele>1055.0</ele><time>2026-04-12T09:57:45Z</time></trkpt><trkpt lat="42.12520730493176" lon="12.87946645557815"><ele>1055.3333333333333</ele><time>2026-04-12T09:57:48Z</time></trkpt><trkpt lat="42.125182157382525" lon="12.879545691979592"><ele>1055.6666666666667</ele><time>2026-04-12T09:57:50Z</time></trkpt><trkpt lat="42.12513233155491" lon="12.87962907135504"><ele>1056.0</ele><time>2026-04-12T09:57:52Z</time></trkpt><trkpt lat="42.125092047510854" lon="12.879695577128853"><ele>1056.0</ele><time>2026-04-12T09:57:54Z</time></trkpt><trkpt lat="42.12504048181115" lon="12.879772736367851"><ele>1056.0</ele><time>2026-04-12T09:57:56Z</time></trkpt><trkpt lat="42.124980933448306" lon="12.879848297525609"><ele>1056.0</ele><time>2026-04-12T09:57:58Z</time></trkpt><trkpt lat="42.12492783580483" lon="12.879936245813646"><ele>1056.0</ele><time>2026-04-12T09:58:00Z</time></trkpt><trkpt lat="42.1248215374809" lon="12.88003592174636"><ele>1056.0</ele><time>2026-04-12T09:58:03Z</time></trkpt><trkpt lat="42.12477179950459" lon="12.880100907266085"><ele>1056.0</ele><time>2026-04-12T09:58:04Z</time></trkpt><trkpt lat="42.124726492557954" lon="12.880161132571493"><ele>1055.5</ele><time>2026-04-12T09:58:04.999Z</time></trkpt><trkpt lat="42.1246591717977" lon="12.880185698946077"><ele>1055.0</ele><time>2026-04-12T09:58:06.999Z</time></trkpt><trkpt lat="42.12456750345074" lon="12.880211702221066"><ele>1054.5</ele><time>2026-04-12T09:58:09.999Z</time></trkpt><trkpt lat="42.12450391577078" lon="12.880217398554349"><ele>1054.0</ele><time>2026-04-12T09:58:11.999Z</time></trkpt><trkpt lat="42.124430444356314" lon="12.880221770497396"><ele>1053.5</ele><time>2026-04-12T09:58:13.999Z</time></trkpt><trkpt lat="42.1243620228171" lon="12.88026273922136"><ele>1053.0</ele><time>2026-04-12T09:58:15.999Z</time></trkpt><trkpt lat="42.124280219522426" lon="12.880339748122541"><ele>1053.0</ele><time>2026-04-12T09:58:18.999Z</time></trkpt><trkpt lat="42.12421493681137" lon="12.880367912342884"><ele>1053.0</ele><time>2026-04-12T09:58:21.999Z</time></trkpt><trkpt lat="42.12415974495591" lon="12.880449643685314"><ele>1053.0</ele><time>2026-04-12T09:58:24.999Z</time></trkpt><trkpt lat="42.12414698313629" lon="12.8805932634756"><ele>1053.0</ele><time>2026-04-12T09:58:28.999Z</time></trkpt><trkpt lat="42.12412080635295" lon="12.880702667082847"><ele>1053.0</ele><time>2026-04-12T09:58:31.999Z</time></trkpt><trkpt lat="42.12411366428307" lon="12.880815286874974"><ele>1053.0</ele><time>2026-04-12T09:58:33.999Z</time></trkpt><trkpt lat="42.12408488414765" lon="12.880922632656496"><ele>1053.1666666666667</ele><time>2026-04-12T09:58:36.999Z</time></trkpt><trkpt lat="42.12408021054725" lon="12.881008846820484"><ele>1053.3333333333333</ele><time>2026-04-12T09:58:37.999Z</time></trkpt><trkpt lat="42.12406971495557" lon="12.881108725195023"><ele>1053.5</ele><time>2026-04-12T09:58:38.999Z</time></trkpt><trkpt lat="42.124057456304236" lon="12.881226232301245"><ele>1053.6666666666665</ele><time>2026-04-12T09:58:40.999Z</time></trkpt><trkpt lat="42.12404287858765" lon="12.881369433652742"><ele>1053.8333333333333</ele><time>2026-04-12T09:58:42.999Z</time></trkpt><trkpt lat="42.12401208541872" lon="12.881489214750717"><ele>1054.0</ele><time>2026-04-12T09:58:44.999Z</time></trkpt><trkpt lat="42.12401926645596" lon="12.881583220510834"><ele>1049.3333333333333</ele><time>2026-04-12T09:58:46.999Z</time></trkpt><trkpt lat="42.12399913372972" lon="12.88171026125476"><ele>1044.6666666666665</ele><time>2026-04-12T09:58:49.999Z</time></trkpt><trkpt lat="42.123994255311175" lon="12.881812059585695"><ele>1040.0</ele><time>2026-04-12T09:58:51.999Z</time></trkpt><trkpt lat="42.123990873154085" lon="12.881906821349688"><ele>1035.3333333333333</ele><time>2026-04-12T09:58:53.999Z</time></trkpt><trkpt lat="42.123991923260775" lon="12.882032797974393"><ele>1030.6666666666667</ele><time>2026-04-12T09:58:55.999Z</time></trkpt><trkpt lat="42.12398372502286" lon="12.88215403488617"><ele>1026.0</ele><time>2026-04-12T09:58:58Z</time></trkpt><trkpt lat="42.123967479266256" lon="12.882246701430716"><ele>1026.0</ele><time>2026-04-12T09:59:00Z</time></trkpt><trkpt lat="42.123943661467536" lon="12.882381710508481"><ele>1026.0</ele><time>2026-04-12T09:59:02Z</time></trkpt><trkpt lat="42.123913711595186" lon="12.882488176839376"><ele>1026.0</ele><time>2026-04-12T09:59:04Z</time></trkpt><trkpt lat="42.12393483437444" lon="12.882580501714983"><ele>1026.0</ele><time>2026-04-12T09:59:06Z</time></trkpt><trkpt lat="42.12393694729374" lon="12.88269607337195"><ele>1026.0</ele><time>2026-04-12T09:59:08Z</time></trkpt><trkpt lat="42.123997243278744" lon="12.882816851900538"><ele>1028.5</ele><time>2026-04-12T09:59:11Z</time></trkpt><trkpt lat="42.12400072945216" lon="12.88294020319812"><ele>1031.0</ele><time>2026-04-12T09:59:14Z</time></trkpt><trkpt lat="42.124001380108616" lon="12.883026668271466"><ele>1033.5</ele><time>2026-04-12T09:59:16Z</time></trkpt><trkpt lat="42.12400742214913" lon="12.883140697464908"><ele>1036.0</ele><time>2026-04-12T09:59:19Z</time></trkpt><trkpt lat="42.12403438284883" lon="12.883221276918137"><ele>1038.5</ele><time>2026-04-12T09:59:21Z</time></trkpt><trkpt lat="42.12402169048751" lon="12.883328548535214"><ele>1041.0</ele><time>2026-04-12T09:59:24Z</time></trkpt><trkpt lat="42.123997466042454" lon="12.883450529281848"><ele>1040.8333333333333</ele><time>2026-04-12T10:00:13.999Z</time></trkpt><trkpt lat="42.12403203003358" lon="12.883543848078132"><ele>1040.6666666666667</ele><time>2026-04-12T10:02:58.999Z</time></trkpt><trkpt lat="42.1240812249131" lon="12.88361082621905"><ele>1040.5</ele><time>2026-04-12T10:03:02.999Z</time></trkpt><trkpt lat="42.1241494351855" lon="12.8836450262966"><ele>1040.3333333333335</ele><time>2026-04-12T10:03:05.999Z</time></trkpt><trkpt lat="42.12421620544011" lon="12.883624871491438"><ele>1040.1666666666667</ele><time>2026-04-12T10:03:07.999Z</time></trkpt><trkpt lat="42.124300169630146" lon="12.883646983810001"><ele>1040.0</ele><time>2026-04-12T10:03:10Z</time></trkpt><trkpt lat="42.124382133167124" lon="12.883628704328755"><ele>1040.0</ele><time>2026-04-12T10:03:12Z</time></trkpt><trkpt lat="42.12446980319505" lon="12.883538179014122"><ele>1040.0</ele><time>2026-04-12T10:03:14Z</time></trkpt><trkpt lat="42.12453182893109" lon="12.883462851759727"><ele>1040.0</ele><time>2026-04-12T10:03:16Z</time></trkpt><trkpt lat="42.12460631260608" lon="12.88342405696022"><ele>1040.0</ele><time>2026-04-12T10:03:18Z</time></trkpt><trkpt lat="42.12464735188659" lon="12.883342107787476"><ele>1040.0</ele><time>2026-04-12T10:03:20Z</time></trkpt><trkpt lat="42.12466881190874" lon="12.88321474211102"><ele>1040.0</ele><time>2026-04-12T10:03:22Z</time></trkpt><trkpt lat="42.12471896938146" lon="12.883052932062299"><ele>1039.5</ele><time>2026-04-12T10:03:24Z</time></trkpt><trkpt lat="42.12474321742254" lon="12.88296591423937"><ele>1039.0</ele><time>2026-04-12T10:03:25Z</time></trkpt><trkpt lat="42.12477441858901" lon="12.88288646692005"><ele>1038.5</ele><time>2026-04-12T10:03:26Z</time></trkpt><trkpt lat="42.12483382160178" lon="12.882798949674003"><ele>1038.0</ele><time>2026-04-12T10:03:27Z</time></trkpt><trkpt lat="42.12491377998813" lon="12.882711318389324"><ele>1037.5</ele><time>2026-04-12T10:03:29Z</time></trkpt><trkpt lat="42.12497505777578" lon="12.8826383152104"><ele>1037.0</ele><time>2026-04-12T10:03:31Z</time></trkpt><trkpt lat="42.12504863814313" lon="12.882537745461804"><ele>1033.3333333333335</ele><time>2026-04-12T10:03:33Z</time></trkpt><trkpt lat="42.12506364382" lon="12.88243544174494"><ele>1029.6666666666667</ele><time>2026-04-12T10:03:35Z</time></trkpt><trkpt lat="42.125044747863456" lon="12.882331567451045"><ele>1026.0</ele><time>2026-04-12T10:03:38Z</time></trkpt><trkpt lat="42.12505566296734" lon="12.88224008918225"><ele>1022.3333333333333</ele><time>2026-04-12T10:03:40Z</time></trkpt><trkpt lat="42.12511524589772" lon="12.882150021039797"><ele>1018.6666666666666</ele><time>2026-04-12T10:03:43Z</time></trkpt><trkpt lat="42.12516908954641" lon="12.882086284536992"><ele>1015.0</ele><time>2026-04-12T10:03:45Z</time></trkpt><trkpt lat="42.125204774081475" lon="12.882007314875427"><ele>1014.9999999999999</ele><time>2026-04-12T10:03:47Z</time></trkpt><trkpt lat="42.12523173215157" lon="12.881913635885496"><ele>1015.0</ele><time>2026-04-12T10:03:51Z</time></trkpt><trkpt lat="42.12528606693161" lon="12.8818449216418"><ele>1015.0</ele><time>2026-04-12T10:03:54Z</time></trkpt><trkpt lat="42.1253316258948" lon="12.881779467872095"><ele>1015.0</ele><time>2026-04-12T10:03:56Z</time></trkpt><trkpt lat="42.12540646984499" lon="12.88167904328872"><ele>1014.9999999999999</ele><time>2026-04-12T10:03:58Z</time></trkpt><trkpt lat="42.125464720196575" lon="12.881615444659161"><ele>1015.0</ele><time>2026-04-12T10:03:59Z</time></trkpt><trkpt lat="42.12551404050219" lon="12.88155689196714"><ele>1015.9999999999999</ele><time>2026-04-12T10:04:00Z</time></trkpt><trkpt lat="42.12556996819474" lon="12.881469501441295"><ele>1017.0</ele><time>2026-04-12T10:04:02Z</time></trkpt><trkpt lat="42.125624736303514" lon="12.881379716448384"><ele>1018.0</ele><time>2026-04-12T10:04:04Z</time></trkpt><trkpt lat="42.125669815185134" lon="12.881279331706484"><ele>1019.0</ele><time>2026-04-12T10:04:06Z</time></trkpt><trkpt lat="42.1257233091512" lon="12.881229804930534"><ele>1019.9999999999999</ele><time>2026-04-12T10:04:08Z</time></trkpt><trkpt lat="42.125781191431685" lon="12.881267999471229"><ele>1021.0</ele><time>2026-04-12T10:04:10Z</time></trkpt><trkpt lat="42.12583733622575" lon="12.881337091353823"><ele>1010.4</ele><time>2026-04-12T10:04:11.999Z</time></trkpt><trkpt lat="42.12582273713354" lon="12.881496103120032"><ele>999.8</ele><time>2026-04-12T10:04:14.999Z</time></trkpt><trkpt lat="42.12584200265221" lon="12.881706469004616"><ele>989.1999999999999</ele><time>2026-04-12T10:04:15.999Z</time></trkpt><trkpt lat="42.12585487492048" lon="12.881845129986088"><ele>978.5999999999999</ele><time>2026-04-12T10:04:16.999Z</time></trkpt><trkpt lat="42.125867968126485" lon="12.881934777629185"><ele>968.0</ele><time>2026-04-12T10:04:17.999Z</time></trkpt><trkpt lat="42.12589608575995" lon="12.882047847081424"><ele>968.5000000000001</ele><time>2026-04-12T10:04:18.999Z</time></trkpt><trkpt lat="42.12589975278335" lon="12.882135566350431"><ele>969.0</ele><time>2026-04-12T10:04:19.999Z</time></trkpt><trkpt lat="42.125897839044455" lon="12.882234514369749"><ele>969.5</ele><time>2026-04-12T10:04:20.999Z</time></trkpt><trkpt lat="42.12589469146549" lon="12.882350592059858"><ele>970.0</ele><time>2026-04-12T10:04:21.999Z</time></trkpt><trkpt lat="42.12588763092934" lon="12.88245773456566"><ele>970.5000000000001</ele><time>2026-04-12T10:04:22.999Z</time></trkpt><trkpt lat="42.125870719917835" lon="12.88253950293456"><ele>971.0</ele><time>2026-04-12T10:04:23.999Z</time></trkpt><trkpt lat="42.12593534919285" lon="12.882615816415155"><ele>971.0</ele><time>2026-04-12T10:04:31.999Z</time></trkpt><trkpt lat="42.126025695714105" lon="12.882688023527992"><ele>971.0</ele><time>2026-04-12T10:04:33.999Z</time></trkpt><trkpt lat="42.12612947206245" lon="12.882734516966012"><ele>971.0</ele><time>2026-04-12T10:04:50.999Z</time></trkpt><trkpt lat="42.12629695458306" lon="12.882726567225182"><ele>971.0</ele><time>2026-04-12T10:04:52.999Z</time></trkpt><trkpt lat="42.126410796612994" lon="12.882688510102358"><ele>971.0000000000001</ele><time>2026-04-12T10:04:53.999Z</time></trkpt><trkpt lat="42.126470458475076" lon="12.882612155593813"><ele>971.0</ele><time>2026-04-12T10:05:08.999Z</time></trkpt><trkpt lat="42.126540979144416" lon="12.882507836248314"><ele>971.0</ele><time>2026-04-12T10:05:10.999Z</time></trkpt><trkpt lat="42.1266032825385" lon="12.882422458921953"><ele>971.0</ele><time>2026-04-12T10:05:11.999Z</time></trkpt><trkpt lat="42.12665806073778" lon="12.882316137378504"><ele>971.0000000000001</ele><time>2026-04-12T10:05:12.999Z</time></trkpt><trkpt lat="42.12671850152275" lon="12.882253926529616"><ele>971.0</ele><time>2026-04-12T10:05:13.999Z</time></trkpt><trkpt lat="42.12678039317948" lon="12.88219536987595"><ele>966.6666666666667</ele><time>2026-04-12T10:05:14.999Z</time></trkpt><trkpt lat="42.12683898736676" lon="12.88213810038799"><ele>962.3333333333334</ele><time>2026-04-12T10:05:16Z</time></trkpt><trkpt lat="42.12691403737081" lon="12.882085878839616"><ele>958.0</ele><time>2026-04-12T10:05:17Z</time></trkpt><trkpt lat="42.126979511224974" lon="12.88206986185919"><ele>953.6666666666667</ele><time>2026-04-12T10:05:18Z</time></trkpt><trkpt lat="42.127049939619106" lon="12.882094652823403"><ele>949.3333333333334</ele><time>2026-04-12T10:05:20Z</time></trkpt><trkpt lat="42.127137745309774" lon="12.882113968996725"><ele>945.0</ele><time>2026-04-12T10:05:22Z</time></trkpt><trkpt lat="42.12722584543985" lon="12.882169793345733"><ele>945.0</ele><time>2026-04-12T10:05:24Z</time></trkpt><trkpt lat="42.12729027800692" lon="12.88219500137632"><ele>945.0</ele><time>2026-04-12T10:05:25Z</time></trkpt><trkpt lat="42.12735758785736" lon="12.882182153037567"><ele>945.0</ele><time>2026-04-12T10:05:27Z</time></trkpt><trkpt lat="42.12743664992053" lon="12.88215895535466"><ele>945.0</ele><time>2026-04-12T10:05:29Z</time></trkpt><trkpt lat="42.127502878097765" lon="12.882135762541871"><ele>945.0</ele><time>2026-04-12T10:05:31Z</time></trkpt><trkpt lat="42.127575218433535" lon="12.882065626994422"><ele>945.0</ele><time>2026-04-12T10:05:33Z</time></trkpt><trkpt lat="42.12763126238009" lon="12.882023364385663"><ele>945.0</ele><time>2026-04-12T10:05:35Z</time></trkpt><trkpt lat="42.12769164751202" lon="12.881973320711166"><ele>943.7142857142858</ele><time>2026-04-12T10:05:36Z</time></trkpt><trkpt lat="42.12776423286503" lon="12.881931158492902"><ele>942.4285714285714</ele><time>2026-04-12T10:05:38Z</time></trkpt><trkpt lat="42.127812537154874" lon="12.881873552758814"><ele>941.1428571428571</ele><time>2026-04-12T10:05:40Z</time></trkpt><trkpt lat="42.12785889642863" lon="12.881813215084918"><ele>939.8571428571429</ele><time>2026-04-12T10:05:42Z</time></trkpt><trkpt lat="42.12792373700057" lon="12.881776912478376"><ele>938.5714285714287</ele><time>2026-04-12T10:05:44Z</time></trkpt><trkpt lat="42.12798653763425" lon="12.881738510112717"><ele>937.2857142857143</ele><time>2026-04-12T10:05:46Z</time></trkpt><trkpt lat="42.128049329137795" lon="12.881713325521417"><ele>936.0</ele><time>2026-04-12T10:05:48Z</time></trkpt><trkpt lat="42.12813887954546" lon="12.881697490973618"><ele>934.0</ele><time>2026-04-12T10:05:50Z</time></trkpt><trkpt lat="42.12822861389558" lon="12.881782708596791"><ele>931.9999999999999</ele><time>2026-04-12T10:05:52Z</time></trkpt><trkpt lat="42.128272936051964" lon="12.881949587363332"><ele>929.9999999999999</ele><time>2026-04-12T10:05:54Z</time></trkpt><trkpt lat="42.1282920249562" lon="12.882062238108738"><ele>928.0</ele><time>2026-04-12T10:05:55Z</time></trkpt><trkpt lat="42.12833019214218" lon="12.8821866902557"><ele>926.0</ele><time>2026-04-12T10:05:56Z</time></trkpt><trkpt lat="42.128397648810996" lon="12.882324307791526"><ele>926.0</ele><time>2026-04-12T10:05:57Z</time></trkpt><trkpt lat="42.12849916139094" lon="12.882439845935425"><ele>926.0</ele><time>2026-04-12T10:05:58Z</time></trkpt><trkpt lat="42.128610321220336" lon="12.88260201239642"><ele>926.0</ele><time>2026-04-12T10:05:59Z</time></trkpt><trkpt lat="42.12874259878074" lon="12.88275038067735"><ele>927.0</ele><time>2026-04-12T10:06:00Z</time></trkpt><trkpt lat="42.1288558729336" lon="12.88288312513458"><ele>928.0</ele><time>2026-04-12T10:06:01Z</time></trkpt><trkpt lat="42.12897580157591" lon="12.883011940219756"><ele>929.0</ele><time>2026-04-12T10:06:02Z</time></trkpt><trkpt lat="42.12908856516288" lon="12.88313372230949"><ele>930.0</ele><time>2026-04-12T10:06:03Z</time></trkpt><trkpt lat="42.12918750989298" lon="12.883285322580454"><ele>930.0</ele><time>2026-04-12T10:06:04Z</time></trkpt><trkpt lat="42.12928114196384" lon="12.883409668606777"><ele>930.0</ele><time>2026-04-12T10:06:05Z</time></trkpt><trkpt lat="42.12937317474766" lon="12.883478805682866"><ele>930.0</ele><time>2026-04-12T10:06:06Z</time></trkpt><trkpt lat="42.1294768064274" lon="12.88354588639015"><ele>930.0</ele><time>2026-04-12T10:06:07Z</time></trkpt><trkpt lat="42.12958676030051" lon="12.883583374654588"><ele>932.4</ele><time>2026-04-12T10:06:08Z</time></trkpt><trkpt lat="42.12966631630432" lon="12.883633002447924"><ele>934.8</ele><time>2026-04-12T10:06:09Z</time></trkpt><trkpt lat="42.129725677803094" lon="12.883696519638614"><ele>937.2</ele><time>2026-04-12T10:06:11Z</time></trkpt><trkpt lat="42.12964540142103" lon="12.883801240863164"><ele>939.6</ele><time>2026-04-12T10:06:13.999Z</time></trkpt><trkpt lat="42.129522271428804" lon="12.883794999835185"><ele>942.0</ele><time>2026-04-12T10:06:15.999Z</time></trkpt><trkpt lat="42.12945298678191" lon="12.883792399645255"><ele>942.0</ele><time>2026-04-12T10:06:16.999Z</time></trkpt><trkpt lat="42.12936446998318" lon="12.883782094678581"><ele>942.0</ele><time>2026-04-12T10:06:17.999Z</time></trkpt><trkpt lat="42.12926967849141" lon="12.883774587720753"><ele>942.0</ele><time>2026-04-12T10:06:18.999Z</time></trkpt><trkpt lat="42.12918312787638" lon="12.883769293928882"><ele>942.0</ele><time>2026-04-12T10:06:19.999Z</time></trkpt><trkpt lat="42.12912048053173" lon="12.883797523311449"><ele>942.0</ele><time>2026-04-12T10:06:20.999Z</time></trkpt><trkpt lat="42.129124914858885" lon="12.883968493351064"><ele>942.0</ele><time>2026-04-12T10:06:22.999Z</time></trkpt><trkpt lat="42.129174799767405" lon="12.884038439206044"><ele>942.0</ele><time>2026-04-12T10:06:23.999Z</time></trkpt><trkpt lat="42.12923817095378" lon="12.884107507812223"><ele>942.0</ele><time>2026-04-12T10:06:24.999Z</time></trkpt><trkpt lat="42.129319789215955" lon="12.884146128043758"><ele>942.0</ele><time>2026-04-12T10:06:25.999Z</time></trkpt><trkpt lat="42.129442205660794" lon="12.884179519327262"><ele>942.0</ele><time>2026-04-12T10:06:26.999Z</time></trkpt><trkpt lat="42.12958734133788" lon="12.884228297778828"><ele>944.6</ele><time>2026-04-12T10:06:27.999Z</time></trkpt><trkpt lat="42.129707530086364" lon="12.884316937873884"><ele>947.2</ele><time>2026-04-12T10:06:28.999Z</time></trkpt><trkpt lat="42.129805863710125" lon="12.884381578788686"><ele>949.8</ele><time>2026-04-12T10:06:29.999Z</time></trkpt><trkpt lat="42.12985773291942" lon="12.884449629079548"><ele>952.4</ele><time>2026-04-12T10:06:30.999Z</time></trkpt><trkpt lat="42.12988897347421" lon="12.884525047216506"><ele>955.0</ele><time>2026-04-12T10:06:32.999Z</time></trkpt><trkpt lat="42.129840242278284" lon="12.884641893225574"><ele>954.9999999999999</ele><time>2026-04-12T10:06:34.999Z</time></trkpt><trkpt lat="42.12977768739287" lon="12.884680588025011"><ele>955.0</ele><time>2026-04-12T10:06:36.999Z</time></trkpt><trkpt lat="42.12979648326132" lon="12.884774925239013"><ele>954.9999999999999</ele><time>2026-04-12T10:06:38.999Z</time></trkpt><trkpt lat="42.12974558574428" lon="12.884695364943898"><ele>954.9999999999999</ele><time>2026-04-12T10:06:39.999Z</time></trkpt><trkpt lat="42.12976371532564" lon="12.884801906007095"><ele>955.0</ele><time>2026-04-12T10:06:41.999Z</time></trkpt><trkpt lat="42.12980275779806" lon="12.88487983704493"><ele>954.9999999999999</ele><time>2026-04-12T10:06:43.999Z</time></trkpt><trkpt lat="42.12975006596066" lon="12.884812256090528"><ele>954.9999999999999</ele><time>2026-04-12T10:06:44.999Z</time></trkpt><trkpt lat="42.12975256530503" lon="12.884719732634583"><ele>955.0</ele><time>2026-04-12T10:06:45.999Z</time></trkpt><trkpt lat="42.129734758173285" lon="12.884848654069838"><ele>955.0</ele><time>2026-04-12T10:06:47.999Z</time></trkpt><trkpt lat="42.129738488165714" lon="12.885011004502138"><ele>955.0</ele><time>2026-04-12T10:06:50.999Z</time></trkpt><trkpt lat="42.12989086162721" lon="12.885137889679097"><ele>955.0</ele><time>2026-04-12T10:06:51.999Z</time></trkpt><trkpt lat="42.12988798680854" lon="12.885261890967582"><ele>957.0</ele><time>2026-04-12T10:06:53.999Z</time></trkpt><trkpt lat="42.12981527284869" lon="12.885363107489429"><ele>959.0</ele><time>2026-04-12T10:06:55.999Z</time></trkpt><trkpt lat="42.1297206006693" lon="12.885466768612746"><ele>961.0</ele><time>2026-04-12T10:06:57.999Z</time></trkpt><trkpt lat="42.1297086952305" lon="12.885574748180007"><ele>963.0</ele><time>2026-04-12T10:07:01.999Z</time></trkpt><trkpt lat="42.12974835826459" lon="12.885683997724927"><ele>965.0</ele><time>2026-04-12T10:07:04.999Z</time></trkpt><trkpt lat="42.12969394698322" lon="12.88635138847871"><ele>967.75</ele><time>2026-04-12T10:07:08.999Z</time></trkpt><trkpt lat="42.129678926061" lon="12.886534790494295"><ele>970.5</ele><time>2026-04-12T10:07:09.999Z</time></trkpt><trkpt lat="42.129663997557955" lon="12.886713755691472"><ele>973.25</ele><time>2026-04-12T10:07:10.999Z</time></trkpt><trkpt lat="42.12964830921234" lon="12.886906210845014"><ele>976.0</ele><time>2026-04-12T10:07:11.999Z</time></trkpt><trkpt lat="42.12963332697326" lon="12.887086422706817"><ele>976.4</ele><time>2026-04-12T10:07:12.999Z</time></trkpt><trkpt lat="42.129621615572454" lon="12.887256510489507"><ele>976.8</ele><time>2026-04-12T10:07:13.999Z</time></trkpt><trkpt lat="42.12961871994838" lon="12.887419939389805"><ele>977.1999999999999</ele><time>2026-04-12T10:07:14.999Z</time></trkpt><trkpt lat="42.129617281343684" lon="12.88757963575934"><ele>977.5999999999999</ele><time>2026-04-12T10:07:15.999Z</time></trkpt><trkpt lat="42.12967139189716" lon="12.887643434716102"><ele>978.0</ele><time>2026-04-12T10:07:16.999Z</time></trkpt><trkpt lat="42.12964163877465" lon="12.887756554328012"><ele>978.0</ele><time>2026-04-12T10:07:17.999Z</time></trkpt><trkpt lat="42.129597515539395" lon="12.887880870494566"><ele>978.0</ele><time>2026-04-12T10:07:18.999Z</time></trkpt><trkpt lat="42.12955358240459" lon="12.888000120203777"><ele>978.0</ele><time>2026-04-12T10:07:19.999Z</time></trkpt><trkpt lat="42.12949342652505" lon="12.888076060359925"><ele>978.0</ele><time>2026-04-12T10:07:20.999Z</time></trkpt><trkpt lat="42.12940457366729" lon="12.888150928000496"><ele>978.0</ele><time>2026-04-12T10:07:22Z</time></trkpt><trkpt lat="42.12933689192262" lon="12.88823183132268"><ele>978.0</ele><time>2026-04-12T10:07:23Z</time></trkpt><trkpt lat="42.1292744776858" lon="12.88832752772279"><ele>978.0</ele><time>2026-04-12T10:07:24Z</time></trkpt><trkpt lat="42.129228804440444" lon="12.888424540338974"><ele>978.0</ele><time>2026-04-12T10:07:25Z</time></trkpt><trkpt lat="42.129187377362626" lon="12.888531320926429"><ele>978.0</ele><time>2026-04-12T10:07:26Z</time></trkpt><trkpt lat="42.129153416726375" lon="12.888673420641851"><ele>978.0</ele><time>2026-04-12T10:07:27Z</time></trkpt><trkpt lat="42.12913278488249" lon="12.888818920543189"><ele>978.0</ele><time>2026-04-12T10:07:28Z</time></trkpt><trkpt lat="42.12912349061113" lon="12.888977654450924"><ele>978.0</ele><time>2026-04-12T10:07:29Z</time></trkpt><trkpt lat="42.1291421637248" lon="12.889147942411082"><ele>978.0</ele><time>2026-04-12T10:07:30Z</time></trkpt><trkpt lat="42.12919222454748" lon="12.889328550453541"><ele>978.0</ele><time>2026-04-12T10:07:31Z</time></trkpt><trkpt lat="42.12926444884231" lon="12.889454339731707"><ele>978.5999999999999</ele><time>2026-04-12T10:07:32Z</time></trkpt><trkpt lat="42.12931097512709" lon="12.889568003300473"><ele>979.1999999999999</ele><time>2026-04-12T10:07:33Z</time></trkpt><trkpt lat="42.12937148209959" lon="12.889678893597711"><ele>979.8</ele><time>2026-04-12T10:07:34Z</time></trkpt><trkpt lat="42.12942486156935" lon="12.889779157335415"><ele>980.4</ele><time>2026-04-12T10:07:35Z</time></trkpt><trkpt lat="42.12949815613077" lon="12.88987322446023"><ele>981.0</ele><time>2026-04-12T10:07:36Z</time></trkpt><trkpt lat="42.129555813015436" lon="12.889932406986018"><ele>981.0</ele><time>2026-04-12T10:07:37Z</time></trkpt><trkpt lat="42.12961244241894" lon="12.890045858196894"><ele>980.9999999999999</ele><time>2026-04-12T10:07:38Z</time></trkpt><trkpt lat="42.12963365433413" lon="12.890163999675009"><ele>980.9999999999999</ele><time>2026-04-12T10:07:39Z</time></trkpt><trkpt lat="42.12965451776423" lon="12.890285231907292"><ele>981.0</ele><time>2026-04-12T10:07:40Z</time></trkpt><trkpt lat="42.129649353517486" lon="12.890428324170243"><ele>981.0</ele><time>2026-04-12T10:07:41Z</time></trkpt><trkpt lat="42.12963484635629" lon="12.890570145123288"><ele>979.75</ele><time>2026-04-12T10:07:42Z</time></trkpt><trkpt lat="42.12959068635796" lon="12.890691941637877"><ele>978.5</ele><time>2026-04-12T10:07:43Z</time></trkpt><trkpt lat="42.12954328683805" lon="12.890832049213534"><ele>977.25</ele><time>2026-04-12T10:07:44Z</time></trkpt><trkpt lat="42.129497943564644" lon="12.890975644841307"><ele>976.0</ele><time>2026-04-12T10:07:45Z</time></trkpt><trkpt lat="42.129447574878746" lon="12.891131267144031"><ele>974.25</ele><time>2026-04-12T10:07:46Z</time></trkpt><trkpt lat="42.12941076144611" lon="12.89128275891853"><ele>972.5</ele><time>2026-04-12T10:07:47Z</time></trkpt><trkpt lat="42.129397046623076" lon="12.891442785868557"><ele>970.75</ele><time>2026-04-12T10:07:48Z</time></trkpt><trkpt lat="42.12938671725838" lon="12.891604658443535"><ele>969.0</ele><time>2026-04-12T10:07:49Z</time></trkpt><trkpt lat="42.12939699685975" lon="12.891772844451078"><ele>968.8000000000001</ele><time>2026-04-12T10:07:50Z</time></trkpt><trkpt lat="42.129398569719804" lon="12.891896238277813"><ele>968.6000000000001</ele><time>2026-04-12T10:07:51Z</time></trkpt><trkpt lat="42.12939546272363" lon="12.892020083109683"><ele>968.4</ele><time>2026-04-12T10:07:52Z</time></trkpt><trkpt lat="42.129366492521235" lon="12.892112455079241"><ele>968.2</ele><time>2026-04-12T10:07:53Z</time></trkpt><trkpt lat="42.12931187709576" lon="12.892210792368214"><ele>968.0</ele><time>2026-04-12T10:07:54Z</time></trkpt><trkpt lat="42.12926900473901" lon="12.892360212006471"><ele>968.0</ele><time>2026-04-12T10:07:55Z</time></trkpt><trkpt lat="42.12923045014528" lon="12.892544687595569"><ele>968.0</ele><time>2026-04-12T10:07:56Z</time></trkpt><trkpt lat="42.12920775595778" lon="12.892727746741402"><ele>968.0</ele><time>2026-04-12T10:07:57Z</time></trkpt><trkpt lat="42.129211951772646" lon="12.892882285117215"><ele>968.0</ele><time>2026-04-12T10:07:58Z</time></trkpt><trkpt lat="42.12924632679639" lon="12.893024457955706"><ele>969.0</ele><time>2026-04-12T10:07:59Z</time></trkpt><trkpt lat="42.12930997537305" lon="12.893153383086052"><ele>970.0</ele><time>2026-04-12T10:08:00Z</time></trkpt><trkpt lat="42.129374403535195" lon="12.893275990435075"><ele>971.0</ele><time>2026-04-12T10:08:01Z</time></trkpt><trkpt lat="42.12947184064252" lon="12.893361134698855"><ele>972.0</ele><time>2026-04-12T10:08:02Z</time></trkpt><trkpt lat="42.12957153598391" lon="12.89342735992884"><ele>973.1666666666666</ele><time>2026-04-12T10:08:03Z</time></trkpt><trkpt lat="42.1296671664762" lon="12.893470724759284"><ele>974.3333333333333</ele><time>2026-04-12T10:08:04Z</time></trkpt><trkpt lat="42.12976609613849" lon="12.893519854391656"><ele>975.5</ele><time>2026-04-12T10:08:05Z</time></trkpt><trkpt lat="42.12984718896676" lon="12.893550238752235"><ele>976.6666666666666</ele><time>2026-04-12T10:08:06Z</time></trkpt><trkpt lat="42.129912585179866" lon="12.893604358156233"><ele>977.8333333333333</ele><time>2026-04-12T10:08:07Z</time></trkpt><trkpt lat="42.129970880260366" lon="12.89367986324408"><ele>979.0</ele><time>2026-04-12T10:08:08Z</time></trkpt><trkpt lat="42.13001812537157" lon="12.893787528606062"><ele>974.5</ele><time>2026-04-12T10:08:09Z</time></trkpt><trkpt lat="42.13003875532982" lon="12.893915586342661"><ele>970.0</ele><time>2026-04-12T10:08:10Z</time></trkpt><trkpt lat="42.13003748183088" lon="12.894064331844731"><ele>965.5</ele><time>2026-04-12T10:08:11Z</time></trkpt><trkpt lat="42.13001113419558" lon="12.894225252108818"><ele>961.0</ele><time>2026-04-12T10:08:12Z</time></trkpt><trkpt lat="42.12997063215105" lon="12.894405458504307"><ele>961.0</ele><time>2026-04-12T10:08:13Z</time></trkpt><trkpt lat="42.12992343893193" lon="12.894594739630023"><ele>961.0</ele><time>2026-04-12T10:08:13.999Z</time></trkpt><trkpt lat="42.12990727152031" lon="12.89476539709958"><ele>961.0</ele><time>2026-04-12T10:08:14.999Z</time></trkpt><trkpt lat="42.12992912703861" lon="12.894918894057051"><ele>961.0</ele><time>2026-04-12T10:08:15.999Z</time></trkpt><trkpt lat="42.12997638279584" lon="12.895053146286426"><ele>963.75</ele><time>2026-04-12T10:08:16.999Z</time></trkpt><trkpt lat="42.13005058446578" lon="12.895143957430953"><ele>966.5</ele><time>2026-04-12T10:08:17.999Z</time></trkpt><trkpt lat="42.1301608306385" lon="12.895212476629858"><ele>969.25</ele><time>2026-04-12T10:08:18.999Z</time></trkpt><trkpt lat="42.130253483960146" lon="12.895311030028708"><ele>972.0</ele><time>2026-04-12T10:08:19.999Z</time></trkpt><trkpt lat="42.13036959113114" lon="12.895399676299686"><ele>972.0</ele><time>2026-04-12T10:08:20.999Z</time></trkpt><trkpt lat="42.13049096556327" lon="12.895484571990325"><ele>972.0</ele><time>2026-04-12T10:08:21.999Z</time></trkpt><trkpt lat="42.130617507070646" lon="12.895553484992199"><ele>972.0</ele><time>2026-04-12T10:08:22.999Z</time></trkpt><trkpt lat="42.13075539480622" lon="12.89560410036512"><ele>972.0</ele><time>2026-04-12T10:08:23.999Z</time></trkpt><trkpt lat="42.130881880254464" lon="12.895667515403087"><ele>969.8</ele><time>2026-04-12T10:08:24.999Z</time></trkpt><trkpt lat="42.13096817086745" lon="12.895756733555473"><ele>967.6</ele><time>2026-04-12T10:08:25.999Z</time></trkpt><trkpt lat="42.13099376920818" lon="12.895889730330694"><ele>965.3999999999999</ele><time>2026-04-12T10:08:26.999Z</time></trkpt><trkpt lat="42.13098122788415" lon="12.896026881998239"><ele>963.1999999999999</ele><time>2026-04-12T10:08:27.999Z</time></trkpt><trkpt lat="42.13097403044722" lon="12.896175697469928"><ele>961.0</ele><time>2026-04-12T10:08:28.999Z</time></trkpt><trkpt lat="42.13097721381118" lon="12.896338232433905"><ele>961.0</ele><time>2026-04-12T10:08:29.999Z</time></trkpt><trkpt lat="42.13096069180052" lon="12.896511143919765"><ele>961.0</ele><time>2026-04-12T10:08:30.999Z</time></trkpt><trkpt lat="42.130957160089615" lon="12.896695923002207"><ele>961.0</ele><time>2026-04-12T10:08:31.999Z</time></trkpt><trkpt lat="42.130959143119284" lon="12.896880376186807"><ele>961.0</ele><time>2026-04-12T10:08:32.999Z</time></trkpt><trkpt lat="42.13095647181613" lon="12.897062330505557"><ele>962.5999999999999</ele><time>2026-04-12T10:08:33.999Z</time></trkpt><trkpt lat="42.130972982309615" lon="12.89723923844944"><ele>964.1999999999999</ele><time>2026-04-12T10:08:34.999Z</time></trkpt><trkpt lat="42.13100362024486" lon="12.897387566436812"><ele>965.8000000000001</ele><time>2026-04-12T10:08:35.999Z</time></trkpt><trkpt lat="42.1310637258997" lon="12.897482393244028"><ele>967.4000000000001</ele><time>2026-04-12T10:08:36.999Z</time></trkpt><trkpt lat="42.131144327710196" lon="12.897524938286248"><ele>969.0</ele><time>2026-04-12T10:08:37.999Z</time></trkpt><trkpt lat="42.1312154568915" lon="12.897528501187594"><ele>969.0</ele><time>2026-04-12T10:08:38.999Z</time></trkpt><trkpt lat="42.13128517426099" lon="12.897548762868066"><ele>969.0000000000001</ele><time>2026-04-12T10:08:39.999Z</time></trkpt><trkpt lat="42.13141722544305" lon="12.897616131923975"><ele>969.0000000000001</ele><time>2026-04-12T10:08:41.999Z</time></trkpt><trkpt lat="42.131502591005614" lon="12.897662834956071"><ele>969.0</ele><time>2026-04-12T10:08:42.999Z</time></trkpt><trkpt lat="42.131611349034536" lon="12.897757388402585"><ele>969.0</ele><time>2026-04-12T10:08:43.999Z</time></trkpt><trkpt lat="42.131723119071495" lon="12.897857842936075"><ele>970.0</ele><time>2026-04-12T10:08:44.999Z</time></trkpt><trkpt lat="42.13184858775019" lon="12.897962957004601"><ele>971.0</ele><time>2026-04-12T10:08:45.999Z</time></trkpt><trkpt lat="42.13197761051674" lon="12.89807933946394"><ele>972.0</ele><time>2026-04-12T10:08:46.999Z</time></trkpt><trkpt lat="42.13210943618738" lon="12.898213689537426"><ele>972.0</ele><time>2026-04-12T10:08:47.999Z</time></trkpt><trkpt lat="42.13222448925573" lon="12.89839200819994"><ele>972.0</ele><time>2026-04-12T10:08:48.999Z</time></trkpt><trkpt lat="42.13229642903712" lon="12.898582356852943"><ele>972.0</ele><time>2026-04-12T10:08:49.999Z</time></trkpt><trkpt lat="42.13238567793717" lon="12.898765380226509"><ele>973.5</ele><time>2026-04-12T10:08:50.999Z</time></trkpt><trkpt lat="42.13249912659108" lon="12.898883511037809"><ele>975.0</ele><time>2026-04-12T10:08:51.999Z</time></trkpt><trkpt lat="42.1326156985954" lon="12.899008747097497"><ele>976.5</ele><time>2026-04-12T10:08:52.999Z</time></trkpt><trkpt lat="42.132720784732726" lon="12.899121729512965"><ele>978.0</ele><time>2026-04-12T10:08:53.999Z</time></trkpt><trkpt lat="42.132819116584" lon="12.899282382487897"><ele>980.6666666666667</ele><time>2026-04-12T10:08:54.999Z</time></trkpt><trkpt lat="42.13291150069199" lon="12.89946628790688"><ele>983.3333333333334</ele><time>2026-04-12T10:08:55.999Z</time></trkpt><trkpt lat="42.13300708924715" lon="12.899644938363119"><ele>986.0</ele><time>2026-04-12T10:08:56.999Z</time></trkpt><trkpt lat="42.13310896527859" lon="12.899819988096445"><ele>986.0</ele><time>2026-04-12T10:08:57.999Z</time></trkpt><trkpt lat="42.13320755177087" lon="12.899987258100554"><ele>986.0</ele><time>2026-04-12T10:08:58.999Z</time></trkpt><trkpt lat="42.133295912978156" lon="12.90014910579964"><ele>986.0</ele><time>2026-04-12T10:08:59.999Z</time></trkpt><trkpt lat="42.13340519332282" lon="12.900310594799754"><ele>984.0</ele><time>2026-04-12T10:09:00.999Z</time></trkpt><trkpt lat="42.133501157071585" lon="12.900458546807366"><ele>982.0</ele><time>2026-04-12T10:09:01.999Z</time></trkpt><trkpt lat="42.13358958564811" lon="12.900619394774655"><ele>980.0</ele><time>2026-04-12T10:09:02.999Z</time></trkpt><trkpt lat="42.13368084053139" lon="12.900765771011043"><ele>978.0</ele><time>2026-04-12T10:09:03.999Z</time></trkpt><trkpt lat="42.133778859021604" lon="12.900912636408862"><ele>978.75</ele><time>2026-04-12T10:09:04.999Z</time></trkpt><trkpt lat="42.13387534716227" lon="12.90106442296422"><ele>979.5</ele><time>2026-04-12T10:09:05.999Z</time></trkpt><trkpt lat="42.13396845525844" lon="12.901223705069786"><ele>980.25</ele><time>2026-04-12T10:09:06.999Z</time></trkpt><trkpt lat="42.13406315455215" lon="12.901371771785742"><ele>981.0</ele><time>2026-04-12T10:09:07.999Z</time></trkpt><trkpt lat="42.134157502002566" lon="12.901527247179574"><ele>974.0</ele><time>2026-04-12T10:09:08.999Z</time></trkpt><trkpt lat="42.1342472702422" lon="12.901690034445814"><ele>967.0</ele><time>2026-04-12T10:09:09.999Z</time></trkpt><trkpt lat="42.13433369848111" lon="12.901859486371984"><ele>960.0</ele><time>2026-04-12T10:09:10.999Z</time></trkpt><trkpt lat="42.13440971869685" lon="12.902037215405624"><ele>959.3333333333333</ele><time>2026-04-12T10:09:11.999Z</time></trkpt><trkpt lat="42.13447836132015" lon="12.902221197439825"><ele>958.6666666666666</ele><time>2026-04-12T10:09:12.999Z</time></trkpt><trkpt lat="42.134543661031984" lon="12.902408696419654"><ele>958.0</ele><time>2026-04-12T10:09:13.999Z</time></trkpt><trkpt lat="42.134597848247495" lon="12.902594984091982"><ele>957.0</ele><time>2026-04-12T10:09:14.999Z</time></trkpt><trkpt lat="42.134653480755546" lon="12.902773860785123"><ele>956.0</ele><time>2026-04-12T10:09:15.999Z</time></trkpt><trkpt lat="42.13470945184543" lon="12.902949452481373"><ele>955.0</ele><time>2026-04-12T10:09:16.999Z</time></trkpt><trkpt lat="42.13476251530624" lon="12.903135269736248"><ele>954.0</ele><time>2026-04-12T10:09:17.999Z</time></trkpt><trkpt lat="42.13482209622951" lon="12.903310656675652"><ele>953.0</ele><time>2026-04-12T10:09:18.999Z</time></trkpt><trkpt lat="42.13488007043993" lon="12.903482934701449"><ele>952.0</ele><time>2026-04-12T10:09:19.999Z</time></trkpt><trkpt lat="42.13493856454956" lon="12.903651642277724"><ele>951.0</ele><time>2026-04-12T10:09:20.999Z</time></trkpt><trkpt lat="42.13499572750321" lon="12.90382382062691"><ele>950.0</ele><time>2026-04-12T10:09:21.999Z</time></trkpt><trkpt lat="42.13505145865626" lon="12.903990269151182"><ele>948.0</ele><time>2026-04-12T10:09:22.999Z</time></trkpt><trkpt lat="42.135106641051706" lon="12.90415069886919"><ele>946.0</ele><time>2026-04-12T10:09:23.999Z</time></trkpt><trkpt lat="42.1351596209731" lon="12.90430660821072"><ele>944.0</ele><time>2026-04-12T10:09:24.999Z</time></trkpt><trkpt lat="42.13521159602132" lon="12.904459453590832"><ele>942.0</ele><time>2026-04-12T10:09:25.999Z</time></trkpt><trkpt lat="42.135260708169824" lon="12.904612999297791"><ele>940.6</ele><time>2026-04-12T10:09:27Z</time></trkpt><trkpt lat="42.135305139744865" lon="12.904763094716916"><ele>939.2</ele><time>2026-04-12T10:09:28Z</time></trkpt><trkpt lat="42.13533515200988" lon="12.904879522334639"><ele>937.8</ele><time>2026-04-12T10:09:29Z</time></trkpt><trkpt lat="42.135335439287154" lon="12.904985514655587"><ele>936.4</ele><time>2026-04-12T10:09:31Z</time></trkpt><trkpt lat="42.135285123683765" lon="12.905058264765364"><ele>935.0</ele><time>2026-04-12T10:09:34Z</time></trkpt><trkpt lat="42.13522525133262" lon="12.905176019542445"><ele>933.1666666666667</ele><time>2026-04-12T10:09:36Z</time></trkpt><trkpt lat="42.1351900021278" lon="12.905281253543436"><ele>931.3333333333334</ele><time>2026-04-12T10:09:37Z</time></trkpt><trkpt lat="42.135185720218736" lon="12.90541915940624"><ele>929.5</ele><time>2026-04-12T10:09:38Z</time></trkpt><trkpt lat="42.13519987176858" lon="12.905527194933475"><ele>927.6666666666667</ele><time>2026-04-12T10:09:39Z</time></trkpt><trkpt lat="42.135218357238124" lon="12.905621283186216"><ele>925.8333333333334</ele><time>2026-04-12T10:09:40Z</time></trkpt><trkpt lat="42.135246171386896" lon="12.905701383677398"><ele>924.0</ele><time>2026-04-12T10:09:41Z</time></trkpt><trkpt lat="42.135275753394644" lon="12.905796760433978"><ele>924.0</ele><time>2026-04-12T10:09:42Z</time></trkpt><trkpt lat="42.13533907941111" lon="12.905840646325332"><ele>924.0000000000001</ele><time>2026-04-12T10:09:43Z</time></trkpt><trkpt lat="42.135427593394816" lon="12.905938072217905"><ele>924.0000000000001</ele><time>2026-04-12T10:09:45Z</time></trkpt><trkpt lat="42.13543836812274" lon="12.906042688465028"><ele>924.0</ele><time>2026-04-12T10:09:47Z</time></trkpt><trkpt lat="42.13534342181812" lon="12.906099028994456"><ele>924.0</ele><time>2026-04-12T10:09:49Z</time></trkpt><trkpt lat="42.135260854245786" lon="12.90613806382086"><ele>922.25</ele><time>2026-04-12T10:09:50Z</time></trkpt><trkpt lat="42.135159095782825" lon="12.906177730199985"><ele>920.5</ele><time>2026-04-12T10:09:51Z</time></trkpt><trkpt lat="42.135046806467805" lon="12.906219510117117"><ele>918.75</ele><time>2026-04-12T10:09:52Z</time></trkpt><trkpt lat="42.134929374461045" lon="12.906265039735901"><ele>917.0</ele><time>2026-04-12T10:09:53Z</time></trkpt><trkpt lat="42.13481764583868" lon="12.906315163102601"><ele>917.0</ele><time>2026-04-12T10:09:54Z</time></trkpt><trkpt lat="42.13470601066342" lon="12.90633578649405"><ele>917.0</ele><time>2026-04-12T10:09:55Z</time></trkpt><trkpt lat="42.13457788312786" lon="12.90638655704731"><ele>917.0</ele><time>2026-04-12T10:09:56Z</time></trkpt><trkpt lat="42.13446032966268" lon="12.906450335396157"><ele>917.0</ele><time>2026-04-12T10:09:57Z</time></trkpt><trkpt lat="42.13435483643522" lon="12.906492558975714"><ele>917.0</ele><time>2026-04-12T10:09:58Z</time></trkpt><trkpt lat="42.134272568991086" lon="12.906547613823744"><ele>917.0</ele><time>2026-04-12T10:09:59Z</time></trkpt><trkpt lat="42.134213441089166" lon="12.906604519773438"><ele>917.0</ele><time>2026-04-12T10:10:00Z</time></trkpt><trkpt lat="42.134166344816016" lon="12.906755766109564"><ele>917.0</ele><time>2026-04-12T10:10:02Z</time></trkpt><trkpt lat="42.134185810619115" lon="12.906885991531595"><ele>917.0</ele><time>2026-04-12T10:10:03Z</time></trkpt><trkpt lat="42.13419351350448" lon="12.907006078927001"><ele>915.2</ele><time>2026-04-12T10:10:04Z</time></trkpt><trkpt lat="42.13417787298188" lon="12.907113018521372"><ele>913.4000000000001</ele><time>2026-04-12T10:10:05Z</time></trkpt><trkpt lat="42.13413573440824" lon="12.907245420176912"><ele>911.5999999999999</ele><time>2026-04-12T10:10:06Z</time></trkpt><trkpt lat="42.13410351105365" lon="12.907367033726656"><ele>909.8</ele><time>2026-04-12T10:10:07Z</time></trkpt><trkpt lat="42.1340722683272" lon="12.907528462712898"><ele>908.0</ele><time>2026-04-12T10:10:08Z</time></trkpt><trkpt lat="42.13403577410058" lon="12.90768659707136"><ele>907.0</ele><time>2026-04-12T10:10:09Z</time></trkpt><trkpt lat="42.1340354291892" lon="12.90784306512664"><ele>906.0</ele><time>2026-04-12T10:10:10Z</time></trkpt><trkpt lat="42.134033546608876" lon="12.907990562318059"><ele>905.0</ele><time>2026-04-12T10:10:11Z</time></trkpt><trkpt lat="42.13404167035784" lon="12.908152717155465"><ele>904.0</ele><time>2026-04-12T10:10:12Z</time></trkpt><trkpt lat="42.13403658949854" lon="12.908315197483057"><ele>902.0</ele><time>2026-04-12T10:10:13Z</time></trkpt><trkpt lat="42.13401910946379" lon="12.9084492033371"><ele>900.0000000000001</ele><time>2026-04-12T10:10:14Z</time></trkpt><trkpt lat="42.13396682109812" lon="12.908569593358378"><ele>898.0000000000001</ele><time>2026-04-12T10:10:15Z</time></trkpt><trkpt lat="42.1339004361341" lon="12.908696814235435"><ele>896.0</ele><time>2026-04-12T10:10:16Z</time></trkpt><trkpt lat="42.13382527695014" lon="12.90880005780923"><ele>894.0</ele><time>2026-04-12T10:10:17Z</time></trkpt><trkpt lat="42.13375290731287" lon="12.90889746004591"><ele>894.0</ele><time>2026-04-12T10:10:17.999Z</time></trkpt><trkpt lat="42.133709288081846" lon="12.90904152517408"><ele>894.0</ele><time>2026-04-12T10:10:18.999Z</time></trkpt><trkpt lat="42.133698503620806" lon="12.909216706462665"><ele>894.0</ele><time>2026-04-12T10:10:19.999Z</time></trkpt><trkpt lat="42.13366571624068" lon="12.909419955921715"><ele>894.0</ele><time>2026-04-12T10:10:20.999Z</time></trkpt><trkpt lat="42.13363191041942" lon="12.909656088535376"><ele>894.0</ele><time>2026-04-12T10:10:21.999Z</time></trkpt><trkpt lat="42.13357841398197" lon="12.909824387846117"><ele>894.0</ele><time>2026-04-12T10:10:22.999Z</time></trkpt><trkpt lat="42.1335297336959" lon="12.909998150673838"><ele>894.0</ele><time>2026-04-12T10:10:23.999Z</time></trkpt><trkpt lat="42.13348355191621" lon="12.910184602351253"><ele>894.0</ele><time>2026-04-12T10:10:24.999Z</time></trkpt><trkpt lat="42.13341379186745" lon="12.910356597685475"><ele>894.0</ele><time>2026-04-12T10:10:25.999Z</time></trkpt><trkpt lat="42.133351377489994" lon="12.910510390557635"><ele>894.0000000000001</ele><time>2026-04-12T10:10:26.999Z</time></trkpt><trkpt lat="42.13327370140179" lon="12.910628531202397"><ele>894.0000000000001</ele><time>2026-04-12T10:10:27.999Z</time></trkpt><trkpt lat="42.133206897021545" lon="12.910712372862557"><ele>894.0</ele><time>2026-04-12T10:10:28.999Z</time></trkpt><trkpt lat="42.133115635031295" lon="12.910781481172137"><ele>894.0</ele><time>2026-04-12T10:10:29.999Z</time></trkpt><trkpt lat="42.13302580052274" lon="12.910906480996628"><ele>893.8000000000001</ele><time>2026-04-12T10:10:30.999Z</time></trkpt><trkpt lat="42.13297599806589" lon="12.91102492228402"><ele>893.6000000000001</ele><time>2026-04-12T10:10:31.999Z</time></trkpt><trkpt lat="42.13292912992897" lon="12.911137108869152"><ele>893.4</ele><time>2026-04-12T10:10:32.999Z</time></trkpt><trkpt lat="42.13290235193531" lon="12.911272000269317"><ele>893.2</ele><time>2026-04-12T10:10:33.999Z</time></trkpt><trkpt lat="42.132897969369246" lon="12.911411539638411"><ele>893.0</ele><time>2026-04-12T10:10:34.999Z</time></trkpt><trkpt lat="42.13287164706439" lon="12.911573760906569"><ele>894.25</ele><time>2026-04-12T10:10:35.999Z</time></trkpt><trkpt lat="42.13289495374078" lon="12.91174946451933"><ele>895.5</ele><time>2026-04-12T10:10:36.999Z</time></trkpt><trkpt lat="42.13285756700225" lon="12.911918184138264"><ele>896.75</ele><time>2026-04-12T10:10:37.999Z</time></trkpt><trkpt lat="42.1328388157717" lon="12.9120811840284"><ele>898.0</ele><time>2026-04-12T10:10:38.999Z</time></trkpt><trkpt lat="42.132815026188354" lon="12.912233999359952"><ele>898.0</ele><time>2026-04-12T10:10:39.999Z</time></trkpt><trkpt lat="42.132801951650045" lon="12.91239881390036"><ele>898.0</ele><time>2026-04-12T10:10:40.999Z</time></trkpt><trkpt lat="42.13277482192508" lon="12.912537956297129"><ele>898.0</ele><time>2026-04-12T10:10:41.999Z</time></trkpt><trkpt lat="42.13274996790926" lon="12.912655648049778"><ele>898.0</ele><time>2026-04-12T10:10:42.999Z</time></trkpt><trkpt lat="42.13270874755969" lon="12.912759971738838"><ele>898.0</ele><time>2026-04-12T10:10:43.999Z</time></trkpt><trkpt lat="42.13257254477266" lon="12.912797741842423"><ele>897.7142857142857</ele><time>2026-04-12T10:10:44.999Z</time></trkpt><trkpt lat="42.13252906956293" lon="12.912884397456718"><ele>897.4285714285713</ele><time>2026-04-12T10:10:45.999Z</time></trkpt><trkpt lat="42.13248087991224" lon="12.912956920593889"><ele>897.1428571428571</ele><time>2026-04-12T10:10:46.999Z</time></trkpt><trkpt lat="42.13243193156131" lon="12.913022377316867"><ele>896.8571428571429</ele><time>2026-04-12T10:10:48.999Z</time></trkpt><trkpt lat="42.13238453112064" lon="12.913078672039894"><ele>896.5714285714286</ele><time>2026-04-12T10:11:13.999Z</time></trkpt><trkpt lat="42.13244008587848" lon="12.913160714300254"><ele>896.2857142857142</ele><time>2026-04-12T10:11:18.999Z</time></trkpt><trkpt lat="42.13238870664665" lon="12.913238170129402"><ele>896.0</ele><time>2026-04-12T10:11:27.999Z</time></trkpt><trkpt lat="42.13234716378715" lon="12.913315410855175"><ele>895.0</ele><time>2026-04-12T10:11:30.999Z</time></trkpt><trkpt lat="42.13229069783195" lon="12.913354986687098"><ele>893.9999999999999</ele><time>2026-04-12T10:11:36Z</time></trkpt><trkpt lat="42.132214530083566" lon="12.913469307501606"><ele>892.9999999999999</ele><time>2026-04-12T10:11:38Z</time></trkpt><trkpt lat="42.132156689919164" lon="12.913620176476325"><ele>892.0</ele><time>2026-04-12T10:11:40Z</time></trkpt><trkpt lat="42.13209668471072" lon="12.913712640136874"><ele>891.0</ele><time>2026-04-12T10:11:42Z</time></trkpt><trkpt lat="42.132022529489504" lon="12.913765709809754"><ele>891.0</ele><time>2026-04-12T10:11:44Z</time></trkpt><trkpt lat="42.13193812025471" lon="12.91382203362443"><ele>890.9999999999999</ele><time>2026-04-12T10:11:46Z</time></trkpt><trkpt lat="42.131843745815644" lon="12.913881580563446"><ele>890.9999999999999</ele><time>2026-04-12T10:11:48Z</time></trkpt><trkpt lat="42.131742994968754" lon="12.913973406902482"><ele>891.0</ele><time>2026-04-12T10:11:50Z</time></trkpt><trkpt lat="42.131669336227105" lon="12.914076389824917"><ele>891.0</ele><time>2026-04-12T10:11:52Z</time></trkpt><trkpt lat="42.13161909772543" lon="12.914152684616065"><ele>890.4</ele><time>2026-04-12T10:11:53Z</time></trkpt><trkpt lat="42.131545826712234" lon="12.914247494456577"><ele>889.8</ele><time>2026-04-12T10:11:55Z</time></trkpt><trkpt lat="42.13146784850646" lon="12.914335365978834"><ele>889.1999999999999</ele><time>2026-04-12T10:11:57Z</time></trkpt><trkpt lat="42.13139249077987" lon="12.914429499892549"><ele>888.5999999999999</ele><time>2026-04-12T10:11:59Z</time></trkpt><trkpt lat="42.13131548816491" lon="12.914498020061743"><ele>888.0</ele><time>2026-04-12T10:12:01Z</time></trkpt><trkpt lat="42.13122562924099" lon="12.914553823547024"><ele>888.0</ele><time>2026-04-12T10:12:03Z</time></trkpt><trkpt lat="42.13117414046392" lon="12.914610533231842"><ele>888.0</ele><time>2026-04-12T10:12:04Z</time></trkpt><trkpt lat="42.131122337580045" lon="12.914686312999567"><ele>888.0</ele><time>2026-04-12T10:12:05Z</time></trkpt><trkpt lat="42.131033439013684" lon="12.914782745813365"><ele>888.0</ele><time>2026-04-12T10:12:07Z</time></trkpt><trkpt lat="42.1309772425575" lon="12.914886334686484"><ele>888.0</ele><time>2026-04-12T10:12:11Z</time></trkpt><trkpt lat="42.130916601099756" lon="12.91500997005306"><ele>887.6666666666666</ele><time>2026-04-12T10:12:13Z</time></trkpt><trkpt lat="42.130880078297565" lon="12.915105878171873"><ele>887.3333333333333</ele><time>2026-04-12T10:12:13.999Z</time></trkpt><trkpt lat="42.130836841532485" lon="12.91520899801304"><ele>887.0</ele><time>2026-04-12T10:12:14.999Z</time></trkpt><trkpt lat="42.13080259119426" lon="12.915304666437676"><ele>886.6666666666666</ele><time>2026-04-12T10:12:15.999Z</time></trkpt><trkpt lat="42.1307753239612" lon="12.915401022829684"><ele>886.3333333333333</ele><time>2026-04-12T10:12:16.999Z</time></trkpt><trkpt lat="42.13076390953273" lon="12.91549721003752"><ele>886.0</ele><time>2026-04-12T10:12:17.999Z</time></trkpt><trkpt lat="42.13075329240027" lon="12.915587564725083"><ele>884.9999999999999</ele><time>2026-04-12T10:12:18.999Z</time></trkpt><trkpt lat="42.130672367152236" lon="12.915711193963347"><ele>884.0</ele><time>2026-04-12T10:12:20.999Z</time></trkpt><trkpt lat="42.13061905082832" lon="12.915776070254323"><ele>883.0</ele><time>2026-04-12T10:12:21.999Z</time></trkpt><trkpt lat="42.13058563400083" lon="12.915864595899832"><ele>882.0</ele><time>2026-04-12T10:12:22.999Z</time></trkpt><trkpt lat="42.13055570458791" lon="12.915956443867362"><ele>880.9999999999999</ele><time>2026-04-12T10:12:23.999Z</time></trkpt><trkpt lat="42.130509312051984" lon="12.91607061918115"><ele>880.0</ele><time>2026-04-12T10:12:24.999Z</time></trkpt><trkpt lat="42.13044566358217" lon="12.916191690132845"><ele>878.9999999999999</ele><time>2026-04-12T10:12:25.999Z</time></trkpt><trkpt lat="42.13038504709143" lon="12.916294088219782"><ele>878.0</ele><time>2026-04-12T10:12:26.999Z</time></trkpt><trkpt lat="42.13033797650869" lon="12.916381550904388"><ele>877.0</ele><time>2026-04-12T10:12:27.999Z</time></trkpt><trkpt lat="42.13026806464926" lon="12.916493917577634"><ele>876.0</ele><time>2026-04-12T10:12:29.999Z</time></trkpt><trkpt lat="42.1302183065666" lon="12.916557323089153"><ele>874.9999999999999</ele><time>2026-04-12T10:12:30.999Z</time></trkpt><trkpt lat="42.13019274331243" lon="12.916635322637196"><ele>874.0</ele><time>2026-04-12T10:12:31.999Z</time></trkpt><trkpt lat="42.13015634480288" lon="12.916727918837529"><ele>872.4000000000001</ele><time>2026-04-12T10:12:32.999Z</time></trkpt><trkpt lat="42.13009685094125" lon="12.916844177056177"><ele>870.8000000000001</ele><time>2026-04-12T10:12:34.999Z</time></trkpt><trkpt lat="42.13004518082348" lon="12.91698109117793"><ele>869.1999999999999</ele><time>2026-04-12T10:12:36.999Z</time></trkpt><trkpt lat="42.130017126683875" lon="12.917082212444265"><ele>867.5999999999999</ele><time>2026-04-12T10:12:37.999Z</time></trkpt><trkpt lat="42.130008120656555" lon="12.917170942278467"><ele>866.0</ele><time>2026-04-12T10:12:38.999Z</time></trkpt><trkpt lat="42.12997635598588" lon="12.917316282596593"><ele>866.0</ele><time>2026-04-12T10:12:40.999Z</time></trkpt><trkpt lat="42.129956405017275" lon="12.917437013174439"><ele>865.9999999999999</ele><time>2026-04-12T10:12:42.999Z</time></trkpt><trkpt lat="42.1299497345015" lon="12.917572467648608"><ele>865.9999999999999</ele><time>2026-04-12T10:12:44.999Z</time></trkpt><trkpt lat="42.12996192019057" lon="12.91773469859993"><ele>866.0</ele><time>2026-04-12T10:12:46.999Z</time></trkpt><trkpt lat="42.129973056892986" lon="12.917823747377023"><ele>866.0</ele><time>2026-04-12T10:12:47.999Z</time></trkpt><trkpt lat="42.129998120579664" lon="12.917941507180613"><ele>863.8333333333334</ele><time>2026-04-12T10:12:49.999Z</time></trkpt><trkpt lat="42.12996834165772" lon="12.918091223022735"><ele>861.6666666666667</ele><time>2026-04-12T10:12:51.999Z</time></trkpt><trkpt lat="42.12996910106721" lon="12.918196122219697"><ele>859.5</ele><time>2026-04-12T10:12:52.999Z</time></trkpt><trkpt lat="42.12995203125927" lon="12.91827802529106"><ele>857.3333333333333</ele><time>2026-04-12T10:12:53.999Z</time></trkpt><trkpt lat="42.129926737878705" lon="12.918357156347492"><ele>855.1666666666666</ele><time>2026-04-12T10:12:54.999Z</time></trkpt><trkpt lat="42.1298885754873" lon="12.918506019560255"><ele>853.0</ele><time>2026-04-12T10:12:56.999Z</time></trkpt><trkpt lat="42.12986885163562" lon="12.918597951517238"><ele>850.3333333333333</ele><time>2026-04-12T10:12:57.999Z</time></trkpt><trkpt lat="42.1298736754023" lon="12.91868582628451"><ele>847.6666666666666</ele><time>2026-04-12T10:12:58.999Z</time></trkpt><trkpt lat="42.12988680224175" lon="12.918794581982864"><ele>845.0</ele><time>2026-04-12T10:12:59.999Z</time></trkpt><trkpt lat="42.12987978058356" lon="12.9189035360976"><ele>842.3333333333333</ele><time>2026-04-12T10:13:00.999Z</time></trkpt><trkpt lat="42.12987446906264" lon="12.91902334446784"><ele>839.6666666666666</ele><time>2026-04-12T10:13:01.999Z</time></trkpt><trkpt lat="42.129873281043594" lon="12.919120399180343"><ele>837.0</ele><time>2026-04-12T10:13:02.999Z</time></trkpt><trkpt lat="42.12986980955602" lon="12.919313220456498"><ele>836.6</ele><time>2026-04-12T10:13:04.999Z</time></trkpt><trkpt lat="42.129832328999605" lon="12.919431443871446"><ele>836.2</ele><time>2026-04-12T10:13:06.999Z</time></trkpt><trkpt lat="42.1298289515444" lon="12.919543141910538"><ele>835.8</ele><time>2026-04-12T10:13:08.999Z</time></trkpt><trkpt lat="42.12985918878048" lon="12.91964513669854"><ele>835.4</ele><time>2026-04-12T10:13:10.999Z</time></trkpt><trkpt lat="42.1298573724473" lon="12.91980350817155"><ele>835.0</ele><time>2026-04-12T10:13:12.999Z</time></trkpt><trkpt lat="42.129931651721236" lon="12.919930837007765"><ele>836.2</ele><time>2026-04-12T10:13:14.999Z</time></trkpt><trkpt lat="42.12999107080595" lon="12.920078212686013"><ele>837.4</ele><time>2026-04-12T10:13:16.999Z</time></trkpt><trkpt lat="42.130020683870846" lon="12.920224347160946"><ele>838.5999999999999</ele><time>2026-04-12T10:13:18.999Z</time></trkpt><trkpt lat="42.13000740769406" lon="12.920385310059554"><ele>839.8</ele><time>2026-04-12T10:13:20.999Z</time></trkpt><trkpt lat="42.12997834866048" lon="12.920494301914427"><ele>841.0</ele><time>2026-04-12T10:13:21.999Z</time></trkpt><trkpt lat="42.12996476802213" lon="12.920629704214837"><ele>840.9999999999999</ele><time>2026-04-12T10:13:23.999Z</time></trkpt><trkpt lat="42.129941294499424" lon="12.920726708438533"><ele>841.0</ele><time>2026-04-12T10:13:24.999Z</time></trkpt><trkpt lat="42.12991589958598" lon="12.92084147324678"><ele>841.0</ele><time>2026-04-12T10:13:25.999Z</time></trkpt><trkpt lat="42.12989126607861" lon="12.920964119293208"><ele>841.0</ele><time>2026-04-12T10:13:26.999Z</time></trkpt><trkpt lat="42.12986938743277" lon="12.921063129923374"><ele>840.9999999999999</ele><time>2026-04-12T10:13:27.999Z</time></trkpt><trkpt lat="42.1298543191086" lon="12.921158436485815"><ele>841.0</ele><time>2026-04-12T10:13:28.999Z</time></trkpt><trkpt lat="42.12984592907528" lon="12.92129159176705"><ele>838.0</ele><time>2026-04-12T10:13:30.999Z</time></trkpt><trkpt lat="42.12986240768088" lon="12.921411378377053"><ele>835.0</ele><time>2026-04-12T10:13:32.999Z</time></trkpt><trkpt lat="42.129887302227296" lon="12.921552469990992"><ele>832.0</ele><time>2026-04-12T10:13:34.999Z</time></trkpt><trkpt lat="42.129890158315746" lon="12.92164884783009"><ele>829.0</ele><time>2026-04-12T10:13:35.999Z</time></trkpt><trkpt lat="42.12991648503786" lon="12.921790349328708"><ele>826.0</ele><time>2026-04-12T10:13:37.999Z</time></trkpt><trkpt lat="42.129917464830235" lon="12.921928099420603"><ele>826.0</ele><time>2026-04-12T10:13:40Z</time></trkpt><trkpt lat="42.12994589532552" lon="12.922040788055922"><ele>826.0</ele><time>2026-04-12T10:13:42Z</time></trkpt><trkpt lat="42.12999015042637" lon="12.922115154616783"><ele>826.0</ele><time>2026-04-12T10:13:44Z</time></trkpt><trkpt lat="42.130032918200065" lon="12.92218983167631"><ele>826.0</ele><time>2026-04-12T10:13:46Z</time></trkpt><trkpt lat="42.130076576294314" lon="12.922348390516376"><ele>826.0</ele><time>2026-04-12T10:13:48Z</time></trkpt><trkpt lat="42.13012211640748" lon="12.922490936762726"><ele>824.1999999999999</ele><time>2026-04-12T10:13:50Z</time></trkpt><trkpt lat="42.130174648789016" lon="12.922623960837834"><ele>822.4</ele><time>2026-04-12T10:13:52Z</time></trkpt><trkpt lat="42.13019448595808" lon="12.92275779889995"><ele>820.6</ele><time>2026-04-12T10:13:54Z</time></trkpt><trkpt lat="42.130156556080465" lon="12.922869185017422"><ele>818.8</ele><time>2026-04-12T10:13:56Z</time></trkpt><trkpt lat="42.13010647860336" lon="12.922984080910645"><ele>817.0</ele><time>2026-04-12T10:13:59Z</time></trkpt><trkpt lat="42.13008205226618" lon="12.923124568497302"><ele>816.9999999999999</ele><time>2026-04-12T10:14:01Z</time></trkpt><trkpt lat="42.13003402513146" lon="12.92325584351389"><ele>817.0</ele><time>2026-04-12T10:14:03Z</time></trkpt><trkpt lat="42.13002968274086" lon="12.923404778105594"><ele>817.0</ele><time>2026-04-12T10:14:05Z</time></trkpt><trkpt lat="42.13004660190212" lon="12.923488523455807"><ele>817.0</ele><time>2026-04-12T10:14:07Z</time></trkpt><trkpt lat="42.130045598942516" lon="12.923580709946597"><ele>816.9999999999999</ele><time>2026-04-12T10:14:12Z</time></trkpt><trkpt lat="42.13004893638048" lon="12.923667776647791"><ele>817.0</ele><time>2026-04-12T10:14:19Z</time></trkpt><trkpt lat="42.13005798386229" lon="12.923759986572247"><ele>815.8333333333333</ele><time>2026-04-12T10:14:30.999Z</time></trkpt><trkpt lat="42.13008440702448" lon="12.923846084432862"><ele>814.6666666666666</ele><time>2026-04-12T10:17:21.999Z</time></trkpt><trkpt lat="42.13011365104596" lon="12.923947987427315"><ele>813.5</ele><time>2026-04-12T10:19:49.999Z</time></trkpt><trkpt lat="42.13012728565778" lon="12.924069197926293"><ele>812.3333333333333</ele><time>2026-04-12T10:19:52.999Z</time></trkpt><trkpt lat="42.13010426445241" lon="12.924168792671438"><ele>811.1666666666666</ele><time>2026-04-12T10:19:59Z</time></trkpt><trkpt lat="42.13012667548509" lon="12.924273491614628"><ele>810.0</ele><time>2026-04-12T10:20:02Z</time></trkpt><trkpt lat="42.130137876873924" lon="12.924358693508875"><ele>808.2</ele><time>2026-04-12T10:20:04Z</time></trkpt><trkpt lat="42.13015091481353" lon="12.92450329728829"><ele>806.4</ele><time>2026-04-12T10:20:07Z</time></trkpt><trkpt lat="42.13016395911196" lon="12.924619538352362"><ele>804.5999999999999</ele><time>2026-04-12T10:20:09Z</time></trkpt><trkpt lat="42.13018272330301" lon="12.924755835204087"><ele>802.8</ele><time>2026-04-12T10:20:11Z</time></trkpt><trkpt lat="42.130174388094936" lon="12.924887663471402"><ele>801.0</ele><time>2026-04-12T10:20:13Z</time></trkpt><trkpt lat="42.13020199491859" lon="12.924983000762111"><ele>800.75</ele><time>2026-04-12T10:20:16Z</time></trkpt><trkpt lat="42.130225051205755" lon="12.92509592112462"><ele>800.5</ele><time>2026-04-12T10:20:20Z</time></trkpt><trkpt lat="42.13027192057856" lon="12.925259894989212"><ele>800.25</ele><time>2026-04-12T10:20:22Z</time></trkpt><trkpt lat="42.130321241535356" lon="12.92540651201726"><ele>800.0</ele><time>2026-04-12T10:20:24Z</time></trkpt><trkpt lat="42.13037215996422" lon="12.925559315471995"><ele>800.0000000000001</ele><time>2026-04-12T10:20:26Z</time></trkpt><trkpt lat="42.13040398571468" lon="12.925633619166653"><ele>800.0</ele><time>2026-04-12T10:20:27Z</time></trkpt><trkpt lat="42.130431695745195" lon="12.925720102931175"><ele>800.0</ele><time>2026-04-12T10:20:28Z</time></trkpt><trkpt lat="42.130455568824495" lon="12.925817469540295"><ele>800.0</ele><time>2026-04-12T10:20:28.999Z</time></trkpt><trkpt lat="42.130472803532776" lon="12.925910084759186"><ele>800.0</ele><time>2026-04-12T10:20:29.999Z</time></trkpt><trkpt lat="42.130489829996705" lon="12.926012363168047"><ele>800.0000000000001</ele><time>2026-04-12T10:20:30.999Z</time></trkpt><trkpt lat="42.13051963649374" lon="12.926124619448085"><ele>800.0</ele><time>2026-04-12T10:20:31.999Z</time></trkpt><trkpt lat="42.13053887861527" lon="12.92622882003402"><ele>799.8</ele><time>2026-04-12T10:20:32.999Z</time></trkpt><trkpt lat="42.1305580974033" lon="12.926341763333014"><ele>799.6</ele><time>2026-04-12T10:20:33.999Z</time></trkpt><trkpt lat="42.13058671758412" lon="12.926447343904133"><ele>799.4000000000001</ele><time>2026-04-12T10:20:34.999Z</time></trkpt><trkpt lat="42.1306185358693" lon="12.92653563740152"><ele>799.2</ele><time>2026-04-12T10:20:35.999Z</time></trkpt><trkpt lat="42.13065335086615" lon="12.92668414337722"><ele>799.0</ele><time>2026-04-12T10:20:37.999Z</time></trkpt><trkpt lat="42.13069000024008" lon="12.926810619003819"><ele>799.0</ele><time>2026-04-12T10:20:40.999Z</time></trkpt><trkpt lat="42.130726717606336" lon="12.926944086749414"><ele>799.0</ele><time>2026-04-12T10:20:42.999Z</time></trkpt><trkpt lat="42.13074461153551" lon="12.927055902500683"><ele>799.0</ele><time>2026-04-12T10:20:44.999Z</time></trkpt><trkpt lat="42.13071252090881" lon="12.927175627296913"><ele>799.0</ele><time>2026-04-12T10:20:47.999Z</time></trkpt><trkpt lat="42.13066138232732" lon="12.927286970992498"><ele>799.0</ele><time>2026-04-12T10:20:49.999Z</time></trkpt><trkpt lat="42.13067542313385" lon="12.927457110156896"><ele>799.1666666666666</ele><time>2026-04-12T10:20:51.999Z</time></trkpt><trkpt lat="42.130684537246324" lon="12.927558149640532"><ele>799.3333333333333</ele><time>2026-04-12T10:20:52.999Z</time></trkpt><trkpt lat="42.13069537730268" lon="12.927680797754071"><ele>799.5</ele><time>2026-04-12T10:20:53.999Z</time></trkpt><trkpt lat="42.13071043332205" lon="12.927806552616799"><ele>799.6666666666667</ele><time>2026-04-12T10:20:54.999Z</time></trkpt><trkpt lat="42.130721842643325" lon="12.927899945218874"><ele>799.8333333333334</ele><time>2026-04-12T10:20:55.999Z</time></trkpt><trkpt lat="42.13075988913483" lon="12.928025880441433"><ele>800.0</ele><time>2026-04-12T10:20:56.999Z</time></trkpt><trkpt lat="42.130806625771335" lon="12.928148622437737"><ele>800.4</ele><time>2026-04-12T10:20:57.999Z</time></trkpt><trkpt lat="42.13085144535895" lon="12.928270786945388"><ele>800.8</ele><time>2026-04-12T10:20:58.999Z</time></trkpt><trkpt lat="42.13088310566866" lon="12.928397574870273"><ele>801.2</ele><time>2026-04-12T10:20:59.999Z</time></trkpt><trkpt lat="42.130924205237164" lon="12.928541458529072"><ele>801.6</ele><time>2026-04-12T10:21:00.999Z</time></trkpt><trkpt lat="42.130981192211216" lon="12.928682438235692"><ele>802.0</ele><time>2026-04-12T10:21:01.999Z</time></trkpt><trkpt lat="42.13100840707488" lon="12.928788972223083"><ele>802.8333333333333</ele><time>2026-04-12T10:21:02.999Z</time></trkpt><trkpt lat="42.131033451895604" lon="12.928895397100476"><ele>803.6666666666666</ele><time>2026-04-12T10:21:03.999Z</time></trkpt><trkpt lat="42.13107406773063" lon="12.929006815555343"><ele>804.5</ele><time>2026-04-12T10:21:04.999Z</time></trkpt><trkpt lat="42.13110717451007" lon="12.929107108951456"><ele>805.3333333333333</ele><time>2026-04-12T10:21:05.999Z</time></trkpt><trkpt lat="42.1311304791356" lon="12.92921813888113"><ele>806.1666666666666</ele><time>2026-04-12T10:21:06.999Z</time></trkpt><trkpt lat="42.1311569537057" lon="12.929317359847943"><ele>807.0</ele><time>2026-04-12T10:21:07.999Z</time></trkpt><trkpt lat="42.131186589158645" lon="12.929461882076378"><ele>807.6666666666666</ele><time>2026-04-12T10:21:09.999Z</time></trkpt><trkpt lat="42.13119989208771" lon="12.929570599738819"><ele>808.3333333333333</ele><time>2026-04-12T10:21:11.999Z</time></trkpt><trkpt lat="42.131236860108814" lon="12.929709404087824"><ele>809.0</ele><time>2026-04-12T10:22:22Z</time></trkpt><trkpt lat="42.13127412407001" lon="12.929785515708963"><ele>809.6666666666666</ele><time>2026-04-12T10:22:23Z</time></trkpt><trkpt lat="42.13131229581953" lon="12.929868763570553"><ele>810.3333333333333</ele><time>2026-04-12T10:22:24Z</time></trkpt><trkpt lat="42.131344071977466" lon="12.929974114508562"><ele>811.0</ele><time>2026-04-12T10:22:25Z</time></trkpt><trkpt lat="42.13138815639344" lon="12.930072518558962"><ele>812.75</ele><time>2026-04-12T10:22:26Z</time></trkpt><trkpt lat="42.13142662388537" lon="12.93019349302002"><ele>814.5</ele><time>2026-04-12T10:22:27Z</time></trkpt><trkpt lat="42.131479868387856" lon="12.930324591946157"><ele>816.25</ele><time>2026-04-12T10:22:28Z</time></trkpt><trkpt lat="42.131540830196634" lon="12.93047235788743"><ele>818.0</ele><time>2026-04-12T10:22:29Z</time></trkpt><trkpt lat="42.131593291369065" lon="12.930623184502444"><ele>820.5999999999999</ele><time>2026-04-12T10:22:30Z</time></trkpt><trkpt lat="42.13161750659083" lon="12.930747391371948"><ele>823.1999999999999</ele><time>2026-04-12T10:22:31Z</time></trkpt><trkpt lat="42.13163093085783" lon="12.9309049830086"><ele>825.8</ele><time>2026-04-12T10:22:33Z</time></trkpt><trkpt lat="42.13165897097556" lon="12.931019556611123"><ele>828.4</ele><time>2026-04-12T10:22:34.999Z</time></trkpt><trkpt lat="42.13169355672717" lon="12.931095537255711"><ele>831.0</ele><time>2026-04-12T10:22:38.999Z</time></trkpt><trkpt lat="42.13175864615477" lon="12.931235383826357"><ele>831.9999999999999</ele><time>2026-04-12T10:22:40.999Z</time></trkpt><trkpt lat="42.131793429919185" lon="12.93131188714168"><ele>833.0</ele><time>2026-04-12T10:22:41.999Z</time></trkpt><trkpt lat="42.13183279215245" lon="12.931400375747677"><ele>834.0</ele><time>2026-04-12T10:22:42.999Z</time></trkpt><trkpt lat="42.1318702457064" lon="12.93149083249923"><ele>835.0</ele><time>2026-04-12T10:22:43.999Z</time></trkpt><trkpt lat="42.13190622332766" lon="12.9315722619602"><ele>836.0</ele><time>2026-04-12T10:22:44.999Z</time></trkpt><trkpt lat="42.13193956502379" lon="12.931645633907548"><ele>836.9999999999999</ele><time>2026-04-12T10:22:45.999Z</time></trkpt><trkpt lat="42.13197740646012" lon="12.931731728419392"><ele>838.0</ele><time>2026-04-12T10:22:46.999Z</time></trkpt><trkpt lat="42.13200662809915" lon="12.931823065000295"><ele>840.1666666666666</ele><time>2026-04-12T10:22:47.999Z</time></trkpt><trkpt lat="42.132029410142685" lon="12.931931829715516"><ele>842.3333333333333</ele><time>2026-04-12T10:22:48.999Z</time></trkpt><trkpt lat="42.13206248175267" lon="12.93203005935222"><ele>844.5</ele><time>2026-04-12T10:22:49.999Z</time></trkpt><trkpt lat="42.13209366712405" lon="12.932122431801554"><ele>846.6666666666667</ele><time>2026-04-12T10:22:50.999Z</time></trkpt><trkpt lat="42.132118086229326" lon="12.932228330516988"><ele>848.8333333333334</ele><time>2026-04-12T10:22:51.999Z</time></trkpt><trkpt lat="42.13214276039258" lon="12.93232758488169"><ele>851.0</ele><time>2026-04-12T10:22:52.999Z</time></trkpt><trkpt lat="42.13216636548564" lon="12.93241259004342"><ele>851.0</ele><time>2026-04-12T10:22:53.999Z</time></trkpt><trkpt lat="42.13220155660069" lon="12.932550273895716"><ele>851.0</ele><time>2026-04-12T10:22:55.999Z</time></trkpt><trkpt lat="42.13218083581572" lon="12.932680035245443"><ele>851.0</ele><time>2026-04-12T10:22:57.999Z</time></trkpt><trkpt lat="42.1321646460483" lon="12.93280011070325"><ele>851.0</ele><time>2026-04-12T10:22:59.999Z</time></trkpt><trkpt lat="42.132145938336116" lon="12.932941791927393"><ele>851.0</ele><time>2026-04-12T10:23:01.999Z</time></trkpt><trkpt lat="42.1321372584729" lon="12.933101784228544"><ele>853.0</ele><time>2026-04-12T10:23:03.999Z</time></trkpt><trkpt lat="42.13212680225434" lon="12.93320022913362"><ele>855.0</ele><time>2026-04-12T10:23:04.999Z</time></trkpt><trkpt lat="42.13211710283483" lon="12.933294114386305"><ele>857.0</ele><time>2026-04-12T10:23:05.999Z</time></trkpt><trkpt lat="42.13210824362195" lon="12.933379918529488"><ele>859.0</ele><time>2026-04-12T10:23:06.999Z</time></trkpt><trkpt lat="42.13211241354944" lon="12.933489272017011"><ele>861.0</ele><time>2026-04-12T10:23:08.999Z</time></trkpt><trkpt lat="42.13214530160914" lon="12.93356837602118"><ele>863.0</ele><time>2026-04-12T10:23:14.999Z</time></trkpt><trkpt lat="42.13213095974067" lon="12.933680740636474"><ele>865.0</ele><time>2026-04-12T10:23:20.999Z</time></trkpt><trkpt lat="42.13210167399864" lon="12.933846044685442"><ele>865.2</ele><time>2026-04-12T10:23:22.999Z</time></trkpt><trkpt lat="42.13209292908612" lon="12.933978342852766"><ele>865.4</ele><time>2026-04-12T10:23:23.999Z</time></trkpt><trkpt lat="42.132091736878856" lon="12.934107275496343"><ele>865.5999999999999</ele><time>2026-04-12T10:23:24.999Z</time></trkpt><trkpt lat="42.1320903953496" lon="12.934233405558725"><ele>865.8</ele><time>2026-04-12T10:23:25.999Z</time></trkpt><trkpt lat="42.13209298668515" lon="12.934363518388627"><ele>866.0</ele><time>2026-04-12T10:23:26.999Z</time></trkpt><trkpt lat="42.13210479156547" lon="12.934473859593192"><ele>863.1666666666667</ele><time>2026-04-12T10:23:27.999Z</time></trkpt><trkpt lat="42.132121693831245" lon="12.934577103948348"><ele>860.3333333333334</ele><time>2026-04-12T10:23:28.999Z</time></trkpt><trkpt lat="42.13215028876833" lon="12.934669271905165"><ele>857.5</ele><time>2026-04-12T10:23:29.999Z</time></trkpt><trkpt lat="42.13219569193606" lon="12.93475225040608"><ele>854.6666666666667</ele><time>2026-04-12T10:23:30.999Z</time></trkpt><trkpt lat="42.132242944149596" lon="12.934846098397927"><ele>851.8333333333334</ele><time>2026-04-12T10:23:31.999Z</time></trkpt><trkpt lat="42.13229473197651" lon="12.934928788639773"><ele>849.0</ele><time>2026-04-12T10:23:32.999Z</time></trkpt><trkpt lat="42.132354371729384" lon="12.935019947987362"><ele>848.2</ele><time>2026-04-12T10:23:33.999Z</time></trkpt><trkpt lat="42.13240814682903" lon="12.93512530752451"><ele>847.4000000000001</ele><time>2026-04-12T10:23:34.999Z</time></trkpt><trkpt lat="42.132452594973536" lon="12.935216273070061"><ele>846.6</ele><time>2026-04-12T10:23:35.999Z</time></trkpt><trkpt lat="42.13250097622083" lon="12.93531600538957"><ele>845.8</ele><time>2026-04-12T10:23:36.999Z</time></trkpt><trkpt lat="42.1325491275313" lon="12.93543708042697"><ele>845.0</ele><time>2026-04-12T10:23:37.999Z</time></trkpt><trkpt lat="42.13258515138646" lon="12.9355770768831"><ele>845.0</ele><time>2026-04-12T10:23:38.999Z</time></trkpt><trkpt lat="42.13260907945578" lon="12.935714482212223"><ele>845.0</ele><time>2026-04-12T10:23:39.999Z</time></trkpt><trkpt lat="42.13262603021074" lon="12.935833149678164"><ele>845.0</ele><time>2026-04-12T10:23:40.999Z</time></trkpt><trkpt lat="42.13263169066027" lon="12.935931416599784"><ele>845.0</ele><time>2026-04-12T10:23:41.999Z</time></trkpt><trkpt lat="42.1326090704439" lon="12.936026347289564"><ele>845.0</ele><time>2026-04-12T10:23:42.999Z</time></trkpt><trkpt lat="42.13258021007832" lon="12.936186785044663"><ele>842.5</ele><time>2026-04-12T10:23:44.999Z</time></trkpt><trkpt lat="42.13251883895473" lon="12.936338310007102"><ele>840.0</ele><time>2026-04-12T10:23:46.999Z</time></trkpt><trkpt lat="42.132479267118185" lon="12.93648219324804"><ele>837.5</ele><time>2026-04-12T10:23:48.999Z</time></trkpt><trkpt lat="42.132450422748164" lon="12.936573843872987"><ele>835.0</ele><time>2026-04-12T10:23:52.999Z</time></trkpt><trkpt lat="42.132326023860365" lon="12.936656409817829"><ele>833.4</ele><time>2026-04-12T10:23:53.999Z</time></trkpt><trkpt lat="42.13222446978404" lon="12.936659515095618"><ele>831.8</ele><time>2026-04-12T10:23:54.999Z</time></trkpt><trkpt lat="42.13210737743724" lon="12.936663095478524"><ele>830.2</ele><time>2026-04-12T10:23:55.999Z</time></trkpt><trkpt lat="42.13199491079611" lon="12.936666534427948"><ele>828.6</ele><time>2026-04-12T10:23:56.999Z</time></trkpt><trkpt lat="42.1318893728849" lon="12.936663018527344"><ele>827.0</ele><time>2026-04-12T10:23:57.999Z</time></trkpt><trkpt lat="42.13181362100352" lon="12.936665427472136"><ele>827.0</ele><time>2026-04-12T10:23:58.999Z</time></trkpt><trkpt lat="42.13170656595604" lon="12.936694990043595"><ele>827.0</ele><time>2026-04-12T10:24:00.999Z</time></trkpt><trkpt lat="42.13161644750977" lon="12.936808382818189"><ele>827.0</ele><time>2026-04-12T10:24:02.999Z</time></trkpt><trkpt lat="42.13161935233701" lon="12.93695464847286"><ele>827.0</ele><time>2026-04-12T10:24:03.999Z</time></trkpt><trkpt lat="42.1316212021445" lon="12.93710990185201"><ele>825.6666666666667</ele><time>2026-04-12T10:24:04.999Z</time></trkpt><trkpt lat="42.13162291721581" lon="12.937221736679245"><ele>824.3333333333334</ele><time>2026-04-12T10:24:05.999Z</time></trkpt><trkpt lat="42.13163565057123" lon="12.937333892790866"><ele>823.0</ele><time>2026-04-12T10:24:07Z</time></trkpt><trkpt lat="42.13164799579405" lon="12.937458762455766"><ele>821.6666666666667</ele><time>2026-04-12T10:24:08Z</time></trkpt><trkpt lat="42.13165257511422" lon="12.937559826508314"><ele>820.3333333333334</ele><time>2026-04-12T10:24:11Z</time></trkpt><trkpt lat="42.13158879227274" lon="12.937640337566021"><ele>819.0</ele><time>2026-04-12T10:24:35Z</time></trkpt><trkpt lat="42.131471728324456" lon="12.937666798392689"><ele>814.5</ele><time>2026-04-12T10:24:37Z</time></trkpt><trkpt lat="42.13135414332924" lon="12.937685840149225"><ele>810.0</ele><time>2026-04-12T10:24:37.999Z</time></trkpt><trkpt lat="42.131232421563965" lon="12.937659880675334"><ele>805.5</ele><time>2026-04-12T10:24:38.999Z</time></trkpt><trkpt lat="42.131109461483554" lon="12.937669219200947"><ele>801.0</ele><time>2026-04-12T10:24:39.999Z</time></trkpt><trkpt lat="42.13101956121582" lon="12.937675709971469"><ele>801.0</ele><time>2026-04-12T10:24:40.999Z</time></trkpt><trkpt lat="42.13093646645361" lon="12.937677632418126"><ele>801.0</ele><time>2026-04-12T10:24:41.999Z</time></trkpt><trkpt lat="42.13083287420167" lon="12.937697387649479"><ele>801.0</ele><time>2026-04-12T10:24:42.999Z</time></trkpt><trkpt lat="42.13076886251735" lon="12.937678674600237"><ele>801.0</ele><time>2026-04-12T10:24:43.999Z</time></trkpt><trkpt lat="42.130706585327694" lon="12.937661754212932"><ele>801.0</ele><time>2026-04-12T10:24:44.999Z</time></trkpt><trkpt lat="42.13061329748504" lon="12.937630632084508"><ele>801.0</ele><time>2026-04-12T10:24:46.999Z</time></trkpt><trkpt lat="42.130484663975295" lon="12.937582663818642"><ele>803.5999999999999</ele><time>2026-04-12T10:24:48.999Z</time></trkpt><trkpt lat="42.130404900704406" lon="12.937545983733315"><ele>806.2</ele><time>2026-04-12T10:24:49.999Z</time></trkpt><trkpt lat="42.130324264126344" lon="12.937512018269999"><ele>808.8</ele><time>2026-04-12T10:24:50.999Z</time></trkpt><trkpt lat="42.13025245750859" lon="12.937471530799282"><ele>811.4000000000001</ele><time>2026-04-12T10:24:51.999Z</time></trkpt><trkpt lat="42.13014598408178" lon="12.937394004528922"><ele>814.0</ele><time>2026-04-12T10:24:53.999Z</time></trkpt><trkpt lat="42.13006470422711" lon="12.937349476004606"><ele>813.9999999999999</ele><time>2026-04-12T10:24:54.999Z</time></trkpt><trkpt lat="42.12998410843723" lon="12.937298609318294"><ele>814.0</ele><time>2026-04-12T10:24:55.999Z</time></trkpt><trkpt lat="42.129913200283106" lon="12.937235255885906"><ele>814.0</ele><time>2026-04-12T10:24:56.999Z</time></trkpt><trkpt lat="42.12984462278622" lon="12.937173125921754"><ele>814.0</ele><time>2026-04-12T10:24:57.999Z</time></trkpt><trkpt lat="42.12978384659321" lon="12.9371267234596"><ele>813.9999999999999</ele><time>2026-04-12T10:24:58.999Z</time></trkpt><trkpt lat="42.12968587060556" lon="12.937048371097202"><ele>814.0</ele><time>2026-04-12T10:25:00.999Z</time></trkpt><trkpt lat="42.129578136124515" lon="12.936948410358767"><ele>813.6666666666666</ele><time>2026-04-12T10:25:02.999Z</time></trkpt><trkpt lat="42.12950625972936" lon="12.936894494625344"><ele>813.3333333333333</ele><time>2026-04-12T10:25:03.999Z</time></trkpt><trkpt lat="42.12944462408878" lon="12.936813305650727"><ele>813.0</ele><time>2026-04-12T10:25:04.999Z</time></trkpt><trkpt lat="42.12937669992837" lon="12.936729517366004"><ele>812.6666666666667</ele><time>2026-04-12T10:25:05.999Z</time></trkpt><trkpt lat="42.129319247689196" lon="12.936640807846894"><ele>812.3333333333334</ele><time>2026-04-12T10:25:06.999Z</time></trkpt><trkpt lat="42.12925220590854" lon="12.936544551354928"><ele>812.0</ele><time>2026-04-12T10:25:07.999Z</time></trkpt><trkpt lat="42.12919856180753" lon="12.936431105867236"><ele>812.0</ele><time>2026-04-12T10:25:08.999Z</time></trkpt><trkpt lat="42.129146412731856" lon="12.936324971183996"><ele>812.0</ele><time>2026-04-12T10:25:09.999Z</time></trkpt><trkpt lat="42.129086883036344" lon="12.936215365386573"><ele>812.0</ele><time>2026-04-12T10:25:10.999Z</time></trkpt><trkpt lat="42.1290266023781" lon="12.936100575389956"><ele>812.0</ele><time>2026-04-12T10:25:11.999Z</time></trkpt><trkpt lat="42.128969931359585" lon="12.935987514120486"><ele>812.0</ele><time>2026-04-12T10:25:12.999Z</time></trkpt><trkpt lat="42.12891384197623" lon="12.935878928247067"><ele>809.75</ele><time>2026-04-12T10:25:13.999Z</time></trkpt><trkpt lat="42.128853520248114" lon="12.935751881683494"><ele>807.5</ele><time>2026-04-12T10:25:14.999Z</time></trkpt><trkpt lat="42.12880186626425" lon="12.935598519884362"><ele>805.25</ele><time>2026-04-12T10:25:15.999Z</time></trkpt><trkpt lat="42.1287554882633" lon="12.935422297907577"><ele>803.0</ele><time>2026-04-12T10:25:16.999Z</time></trkpt><trkpt lat="42.12872662528252" lon="12.935245877077609"><ele>803.0</ele><time>2026-04-12T10:25:17.999Z</time></trkpt><trkpt lat="42.128678974140016" lon="12.935079761052696"><ele>803.0</ele><time>2026-04-12T10:25:18.999Z</time></trkpt><trkpt lat="42.1286007155953" lon="12.9349565919857"><ele>803.0</ele><time>2026-04-12T10:25:19.999Z</time></trkpt><trkpt lat="42.12849426612568" lon="12.934891191758897"><ele>803.0</ele><time>2026-04-12T10:25:20.999Z</time></trkpt><trkpt lat="42.12837321321747" lon="12.934851729161057"><ele>806.6666666666667</ele><time>2026-04-12T10:25:21.999Z</time></trkpt><trkpt lat="42.12822276121512" lon="12.934844383834085"><ele>810.3333333333333</ele><time>2026-04-12T10:25:22.999Z</time></trkpt><trkpt lat="42.12806258597572" lon="12.934855400586917"><ele>814.0</ele><time>2026-04-12T10:25:23.999Z</time></trkpt><trkpt lat="42.12790926357472" lon="12.93484858292583"><ele>814.0</ele><time>2026-04-12T10:25:24.999Z</time></trkpt><trkpt lat="42.127757525298826" lon="12.934824425954975"><ele>814.0</ele><time>2026-04-12T10:25:25.999Z</time></trkpt><trkpt lat="42.12761313123376" lon="12.934813798955995"><ele>814.0</ele><time>2026-04-12T10:25:26.999Z</time></trkpt><trkpt lat="42.12748828420568" lon="12.934808922141157"><ele>814.0</ele><time>2026-04-12T10:25:27.999Z</time></trkpt><trkpt lat="42.12738558439468" lon="12.934782415070217"><ele>811.2</ele><time>2026-04-12T10:25:28.999Z</time></trkpt><trkpt lat="42.127306286774306" lon="12.93472305931028"><ele>808.4000000000001</ele><time>2026-04-12T10:25:29.999Z</time></trkpt><trkpt lat="42.1272413983023" lon="12.934629638897368"><ele>805.6</ele><time>2026-04-12T10:25:30.999Z</time></trkpt><trkpt lat="42.12720086717608" lon="12.934513399016172"><ele>802.8</ele><time>2026-04-12T10:25:31.999Z</time></trkpt><trkpt lat="42.127155127607836" lon="12.934393278794106"><ele>800.0</ele><time>2026-04-12T10:25:32.999Z</time></trkpt><trkpt lat="42.127134948546775" lon="12.934261296257207"><ele>802.0</ele><time>2026-04-12T10:25:33.999Z</time></trkpt><trkpt lat="42.12712103779677" lon="12.934108607434519"><ele>804.0</ele><time>2026-04-12T10:25:34.999Z</time></trkpt><trkpt lat="42.12710656953467" lon="12.93394345765064"><ele>806.0</ele><time>2026-04-12T10:25:35.999Z</time></trkpt><trkpt lat="42.12711114086596" lon="12.933788942541568"><ele>808.0</ele><time>2026-04-12T10:25:36.999Z</time></trkpt><trkpt lat="42.12709360190508" lon="12.9336324151931"><ele>808.0</ele><time>2026-04-12T10:25:37.999Z</time></trkpt><trkpt lat="42.12706635806346" lon="12.933519945630696"><ele>808.0</ele><time>2026-04-12T10:25:38.999Z</time></trkpt><trkpt lat="42.126994114072694" lon="12.933409384016104"><ele>808.0</ele><time>2026-04-12T10:25:39.999Z</time></trkpt><trkpt lat="42.126900558084174" lon="12.933319756859806"><ele>808.0</ele><time>2026-04-12T10:25:40.999Z</time></trkpt><trkpt lat="42.126807651442945" lon="12.93323535146431"><ele>808.0</ele><time>2026-04-12T10:25:41.999Z</time></trkpt><trkpt lat="42.126718633689414" lon="12.933150809656361"><ele>810.4</ele><time>2026-04-12T10:25:42.999Z</time></trkpt><trkpt lat="42.12665066085313" lon="12.93304832580785"><ele>812.8</ele><time>2026-04-12T10:25:43.999Z</time></trkpt><trkpt lat="42.12663629945388" lon="12.932907889088755"><ele>815.2</ele><time>2026-04-12T10:25:44.999Z</time></trkpt><trkpt lat="42.12666246964768" lon="12.932765432598545"><ele>817.6</ele><time>2026-04-12T10:25:45.999Z</time></trkpt><trkpt lat="42.12671934470962" lon="12.932609420403283"><ele>820.0</ele><time>2026-04-12T10:25:46.999Z</time></trkpt><trkpt lat="42.126762824101306" lon="12.932434832151806"><ele>820.25</ele><time>2026-04-12T10:25:47.999Z</time></trkpt><trkpt lat="42.12676999100038" lon="12.93224628810326"><ele>820.5</ele><time>2026-04-12T10:25:48.999Z</time></trkpt><trkpt lat="42.1267422479033" lon="12.93205455352023"><ele>820.75</ele><time>2026-04-12T10:25:49.999Z</time></trkpt><trkpt lat="42.12671935155194" lon="12.931870552190706"><ele>821.0</ele><time>2026-04-12T10:25:50.999Z</time></trkpt><trkpt lat="42.126728075331144" lon="12.931702002508533"><ele>821.0</ele><time>2026-04-12T10:25:51.999Z</time></trkpt><trkpt lat="42.1267712529812" lon="12.931546779204691"><ele>821.0</ele><time>2026-04-12T10:25:52.999Z</time></trkpt><trkpt lat="42.12683085150704" lon="12.931376575971292"><ele>821.0</ele><time>2026-04-12T10:25:53.999Z</time></trkpt><trkpt lat="42.126892600629766" lon="12.931201971643473"><ele>821.0</ele><time>2026-04-12T10:25:54.999Z</time></trkpt><trkpt lat="42.12694090079358" lon="12.931010845811896"><ele>820.25</ele><time>2026-04-12T10:25:55.999Z</time></trkpt><trkpt lat="42.12698439047758" lon="12.93081391070161"><ele>819.5</ele><time>2026-04-12T10:25:56.999Z</time></trkpt><trkpt lat="42.12702648327306" lon="12.930633877126853"><ele>818.75</ele><time>2026-04-12T10:25:57.999Z</time></trkpt><trkpt lat="42.127065723836004" lon="12.930473720377586"><ele>818.0</ele><time>2026-04-12T10:25:58.999Z</time></trkpt><trkpt lat="42.12709396172067" lon="12.930321383758432"><ele>818.0</ele><time>2026-04-12T10:25:59.999Z</time></trkpt><trkpt lat="42.12709170305079" lon="12.930185863358814"><ele>818.0</ele><time>2026-04-12T10:26:00.999Z</time></trkpt><trkpt lat="42.12705452050645" lon="12.930078433680105"><ele>818.0</ele><time>2026-04-12T10:26:01.999Z</time></trkpt><trkpt lat="42.126977019754946" lon="12.929989224001368"><ele>818.0</ele><time>2026-04-12T10:26:02.999Z</time></trkpt><trkpt lat="42.12686315631541" lon="12.929908990541227"><ele>818.0</ele><time>2026-04-12T10:26:03.999Z</time></trkpt><trkpt lat="42.12674719359169" lon="12.929845418702804"><ele>817.75</ele><time>2026-04-12T10:26:04.999Z</time></trkpt><trkpt lat="42.12660741710171" lon="12.929815964994322"><ele>817.5</ele><time>2026-04-12T10:26:05.999Z</time></trkpt><trkpt lat="42.126483880984445" lon="12.929778772460034"><ele>817.25</ele><time>2026-04-12T10:26:06.999Z</time></trkpt><trkpt lat="42.12636976198263" lon="12.929736606074064"><ele>817.0</ele><time>2026-04-12T10:26:07.999Z</time></trkpt><trkpt lat="42.12628061188674" lon="12.929697531596362"><ele>817.0</ele><time>2026-04-12T10:26:08.999Z</time></trkpt><trkpt lat="42.126190874747415" lon="12.929638295193186"><ele>817.0</ele><time>2026-04-12T10:26:09.999Z</time></trkpt><trkpt lat="42.12611273375241" lon="12.929528653307552"><ele>817.0</ele><time>2026-04-12T10:26:10.999Z</time></trkpt><trkpt lat="42.126039238589634" lon="12.92939482514416"><ele>817.0</ele><time>2026-04-12T10:26:12Z</time></trkpt><trkpt lat="42.12598496075464" lon="12.929232814972169"><ele>819.0</ele><time>2026-04-12T10:26:13Z</time></trkpt><trkpt lat="42.12592489521665" lon="12.929081321944317"><ele>821.0</ele><time>2026-04-12T10:26:14Z</time></trkpt><trkpt lat="42.125837933824805" lon="12.928960407302196"><ele>823.0</ele><time>2026-04-12T10:26:15Z</time></trkpt><trkpt lat="42.1257426766342" lon="12.92888229463914"><ele>825.0</ele><time>2026-04-12T10:26:16Z</time></trkpt><trkpt lat="42.125632046986325" lon="12.92882999219607"><ele>825.0</ele><time>2026-04-12T10:26:17Z</time></trkpt><trkpt lat="42.12551281317342" lon="12.928806964157474"><ele>825.0</ele><time>2026-04-12T10:26:18Z</time></trkpt><trkpt lat="42.12538250334917" lon="12.928802965482449"><ele>825.0</ele><time>2026-04-12T10:26:19Z</time></trkpt><trkpt lat="42.12525351632838" lon="12.928780368191768"><ele>825.0</ele><time>2026-04-12T10:26:20Z</time></trkpt><trkpt lat="42.125117506775645" lon="12.928736878566932"><ele>825.0</ele><time>2026-04-12T10:26:21Z</time></trkpt><trkpt lat="42.12497701593738" lon="12.928690987375651"><ele>825.0</ele><time>2026-04-12T10:26:22Z</time></trkpt><trkpt lat="42.124842599457594" lon="12.92862663869742"><ele>825.0</ele><time>2026-04-12T10:26:23Z</time></trkpt><trkpt lat="42.12471602389996" lon="12.928568836305601"><ele>825.0</ele><time>2026-04-12T10:26:24Z</time></trkpt><trkpt lat="42.12459385488202" lon="12.928521714962313"><ele>825.0</ele><time>2026-04-12T10:26:25Z</time></trkpt><trkpt lat="42.124365016515455" lon="12.928423702194817"><ele>825.0</ele><time>2026-04-12T10:26:27Z</time></trkpt><trkpt lat="42.124255776881036" lon="12.92837621681295"><ele>825.0</ele><time>2026-04-12T10:26:28Z</time></trkpt><trkpt lat="42.124161410214214" lon="12.928338301101777"><ele>831.0</ele><time>2026-04-12T10:26:29Z</time></trkpt></trkseg></trk></gpx>